<?xml version="1.0" encoding="UTF-8" standalone="no" ?>
<gpx xmlns="http://www.topografix.com/GPX/1/1" xmlns:xsi="http://www.w3.org/2001/XMLSchema-instance" xsi:schemaLocation="http://www.topografix.com/GPX/1/1 http://www.topografix.com/GPX/1/1/gpx.xsd" version="1.1" creator="VisuGPX - https://www.visugpx.com">
  <metadata>
    <name>VTT de Beaumont à l'Avesnois</name>
    <desc><![CDATA[Partez à l'aventure en VTT depuis Beaumont et explorez les merveilles de l'Avesnois. Découvrez des paysages à couper le souffle, des chemins pittoresques, et des sentiers offrant une expérience unique pour les amateurs de VTT.]]></desc>
  </metadata>
  <trk>
    <name><![CDATA[Beaumont Vélo électrique]]></name>
    <trkseg>
      <trkpt lat="50.24182" lon="4.24844">
        <ele>223.80000305176</ele>
        <time>2025-01-04T08:17:48.000Z</time>
      </trkpt>
      <trkpt lat="50.24183" lon="4.24846">
        <ele>224.60000610352</ele>
        <time>2025-01-04T08:17:49.000Z</time>
      </trkpt>
      <trkpt lat="50.24183" lon="4.24848">
        <ele>226.60000610352</ele>
        <time>2025-01-04T08:17:50.000Z</time>
      </trkpt>
      <trkpt lat="50.24185" lon="4.24854">
        <ele>227.19999694824</ele>
        <time>2025-01-04T08:17:52.000Z</time>
      </trkpt>
      <trkpt lat="50.24184" lon="4.24861">
        <ele>227.60000610352</ele>
        <time>2025-01-04T08:17:54.000Z</time>
      </trkpt>
      <trkpt lat="50.24179" lon="4.24867">
        <ele>227.80000305176</ele>
        <time>2025-01-04T08:17:57.000Z</time>
      </trkpt>
      <trkpt lat="50.24177" lon="4.24866">
        <ele>228</ele>
        <time>2025-01-04T08:17:58.000Z</time>
      </trkpt>
      <trkpt lat="50.24166" lon="4.24855">
        <ele>227.80000305176</ele>
        <time>2025-01-04T08:18:04.000Z</time>
      </trkpt>
      <trkpt lat="50.24149" lon="4.24844">
        <ele>228.19999694824</ele>
        <time>2025-01-04T08:18:10.000Z</time>
      </trkpt>
      <trkpt lat="50.24133" lon="4.24834">
        <ele>228.60000610352</ele>
        <time>2025-01-04T08:18:16.000Z</time>
      </trkpt>
      <trkpt lat="50.2413" lon="4.24833">
        <ele>228.80000305176</ele>
        <time>2025-01-04T08:18:17.000Z</time>
      </trkpt>
      <trkpt lat="50.24117" lon="4.24825">
        <ele>229.60000610352</ele>
        <time>2025-01-04T08:18:22.000Z</time>
      </trkpt>
      <trkpt lat="50.24103" lon="4.24815">
        <ele>230.39999389648</ele>
        <time>2025-01-04T08:18:27.000Z</time>
      </trkpt>
      <trkpt lat="50.2409" lon="4.24806">
        <ele>230.60000610352</ele>
        <time>2025-01-04T08:18:32.000Z</time>
      </trkpt>
      <trkpt lat="50.24078" lon="4.24803">
        <ele>231</ele>
        <time>2025-01-04T08:18:36.000Z</time>
      </trkpt>
      <trkpt lat="50.24052" lon="4.24803">
        <ele>231.60000610352</ele>
        <time>2025-01-04T08:18:45.000Z</time>
      </trkpt>
      <trkpt lat="50.24051" lon="4.24804">
        <ele>231.80000305176</ele>
        <time>2025-01-04T08:18:46.000Z</time>
      </trkpt>
      <trkpt lat="50.24038" lon="4.24818">
        <ele>232.39999389648</ele>
        <time>2025-01-04T08:18:53.000Z</time>
      </trkpt>
      <trkpt lat="50.24038" lon="4.2483">
        <ele>232.80000305176</ele>
        <time>2025-01-04T08:18:56.000Z</time>
      </trkpt>
      <trkpt lat="50.2404" lon="4.24841">
        <ele>233</ele>
        <time>2025-01-04T08:18:58.000Z</time>
      </trkpt>
      <trkpt lat="50.24041" lon="4.24887">
        <ele>233.19999694824</ele>
        <time>2025-01-04T08:19:06.000Z</time>
      </trkpt>
      <trkpt lat="50.24039" lon="4.24935">
        <ele>233.80000305176</ele>
        <time>2025-01-04T08:19:14.000Z</time>
      </trkpt>
      <trkpt lat="50.24038" lon="4.24965">
        <ele>233.80000305176</ele>
        <time>2025-01-04T08:19:19.000Z</time>
      </trkpt>
      <trkpt lat="50.24039" lon="4.25022">
        <ele>233.80000305176</ele>
        <time>2025-01-04T08:19:28.000Z</time>
      </trkpt>
      <trkpt lat="50.24041" lon="4.25048">
        <ele>234</ele>
        <time>2025-01-04T08:19:32.000Z</time>
      </trkpt>
      <trkpt lat="50.24047" lon="4.25096">
        <ele>234.19999694824</ele>
        <time>2025-01-04T08:19:40.000Z</time>
      </trkpt>
      <trkpt lat="50.24056" lon="4.25156">
        <ele>234.60000610352</ele>
        <time>2025-01-04T08:19:50.000Z</time>
      </trkpt>
      <trkpt lat="50.24062" lon="4.2519">
        <ele>234.80000305176</ele>
        <time>2025-01-04T08:19:56.000Z</time>
      </trkpt>
      <trkpt lat="50.24064" lon="4.25205">
        <ele>235</ele>
        <time>2025-01-04T08:19:59.000Z</time>
      </trkpt>
      <trkpt lat="50.24066" lon="4.25252">
        <ele>235.60000610352</ele>
        <time>2025-01-04T08:20:08.000Z</time>
      </trkpt>
      <trkpt lat="50.24067" lon="4.25264">
        <ele>235.80000305176</ele>
        <time>2025-01-04T08:20:10.000Z</time>
      </trkpt>
      <trkpt lat="50.24065" lon="4.25313">
        <ele>236.19999694824</ele>
        <time>2025-01-04T08:20:18.000Z</time>
      </trkpt>
      <trkpt lat="50.2406" lon="4.25348">
        <ele>236.80000305176</ele>
        <time>2025-01-04T08:20:24.000Z</time>
      </trkpt>
      <trkpt lat="50.24056" lon="4.25368">
        <ele>236.80000305176</ele>
        <time>2025-01-04T08:20:27.000Z</time>
      </trkpt>
      <trkpt lat="50.24053" lon="4.25413">
        <ele>237.19999694824</ele>
        <time>2025-01-04T08:20:34.000Z</time>
      </trkpt>
      <trkpt lat="50.24055" lon="4.25486">
        <ele>237.80000305176</ele>
        <time>2025-01-04T08:20:45.000Z</time>
      </trkpt>
      <trkpt lat="50.24056" lon="4.25505">
        <ele>238</ele>
        <time>2025-01-04T08:20:48.000Z</time>
      </trkpt>
      <trkpt lat="50.24056" lon="4.25551">
        <ele>238.60000610352</ele>
        <time>2025-01-04T08:20:56.000Z</time>
      </trkpt>
      <trkpt lat="50.24054" lon="4.25576">
        <ele>238.80000305176</ele>
        <time>2025-01-04T08:21:00.000Z</time>
      </trkpt>
      <trkpt lat="50.24049" lon="4.25607">
        <ele>239</ele>
        <time>2025-01-04T08:21:05.000Z</time>
      </trkpt>
      <trkpt lat="50.24047" lon="4.25619">
        <ele>238.80000305176</ele>
        <time>2025-01-04T08:21:07.000Z</time>
      </trkpt>
      <trkpt lat="50.24033" lon="4.25672">
        <ele>238</ele>
        <time>2025-01-04T08:21:16.000Z</time>
      </trkpt>
      <trkpt lat="50.24031" lon="4.25683">
        <ele>238</ele>
        <time>2025-01-04T08:21:18.000Z</time>
      </trkpt>
      <trkpt lat="50.24026" lon="4.25702">
        <ele>237.39999389648</ele>
        <time>2025-01-04T08:21:22.000Z</time>
      </trkpt>
      <trkpt lat="50.24022" lon="4.25737">
        <ele>237</ele>
        <time>2025-01-04T08:21:28.000Z</time>
      </trkpt>
      <trkpt lat="50.24021" lon="4.25744">
        <ele>237</ele>
        <time>2025-01-04T08:21:29.000Z</time>
      </trkpt>
      <trkpt lat="50.24016" lon="4.25798">
        <ele>236</ele>
        <time>2025-01-04T08:21:37.000Z</time>
      </trkpt>
      <trkpt lat="50.24015" lon="4.25804">
        <ele>235.80000305176</ele>
        <time>2025-01-04T08:21:38.000Z</time>
      </trkpt>
      <trkpt lat="50.24004" lon="4.25876">
        <ele>235.19999694824</ele>
        <time>2025-01-04T08:21:49.000Z</time>
      </trkpt>
      <trkpt lat="50.24" lon="4.25919">
        <ele>235.19999694824</ele>
        <time>2025-01-04T08:21:56.000Z</time>
      </trkpt>
      <trkpt lat="50.24" lon="4.25965">
        <ele>234.80000305176</ele>
        <time>2025-01-04T08:22:03.000Z</time>
      </trkpt>
      <trkpt lat="50.24001" lon="4.25972">
        <ele>234.80000305176</ele>
        <time>2025-01-04T08:22:04.000Z</time>
      </trkpt>
      <trkpt lat="50.24006" lon="4.26004">
        <ele>234.39999389648</ele>
        <time>2025-01-04T08:22:10.000Z</time>
      </trkpt>
      <trkpt lat="50.24015" lon="4.26043">
        <ele>234.19999694824</ele>
        <time>2025-01-04T08:22:17.000Z</time>
      </trkpt>
      <trkpt lat="50.24028" lon="4.26095">
        <ele>234.39999389648</ele>
        <time>2025-01-04T08:22:27.000Z</time>
      </trkpt>
      <trkpt lat="50.24028" lon="4.26133">
        <ele>234.80000305176</ele>
        <time>2025-01-04T08:22:34.000Z</time>
      </trkpt>
      <trkpt lat="50.2402" lon="4.26186">
        <ele>235.39999389648</ele>
        <time>2025-01-04T08:22:43.000Z</time>
      </trkpt>
      <trkpt lat="50.24018" lon="4.26208">
        <ele>235.60000610352</ele>
        <time>2025-01-04T08:22:48.000Z</time>
      </trkpt>
      <trkpt lat="50.24017" lon="4.26217">
        <ele>235.80000305176</ele>
        <time>2025-01-04T08:22:50.000Z</time>
      </trkpt>
      <trkpt lat="50.24018" lon="4.26227">
        <ele>236.80000305176</ele>
        <time>2025-01-04T08:22:53.000Z</time>
      </trkpt>
      <trkpt lat="50.24018" lon="4.2623">
        <ele>237</ele>
        <time>2025-01-04T08:22:54.000Z</time>
      </trkpt>
      <trkpt lat="50.24015" lon="4.26244">
        <ele>237.19999694824</ele>
        <time>2025-01-04T08:22:59.000Z</time>
      </trkpt>
      <trkpt lat="50.24014" lon="4.26267">
        <ele>237.39999389648</ele>
        <time>2025-01-04T08:23:04.000Z</time>
      </trkpt>
      <trkpt lat="50.24012" lon="4.26294">
        <ele>237.39999389648</ele>
        <time>2025-01-04T08:23:09.000Z</time>
      </trkpt>
      <trkpt lat="50.24012" lon="4.26306">
        <ele>237.39999389648</ele>
        <time>2025-01-04T08:23:11.000Z</time>
      </trkpt>
      <trkpt lat="50.24013" lon="4.26341">
        <ele>238</ele>
        <time>2025-01-04T08:23:17.000Z</time>
      </trkpt>
      <trkpt lat="50.24014" lon="4.26359">
        <ele>238.39999389648</ele>
        <time>2025-01-04T08:23:20.000Z</time>
      </trkpt>
      <trkpt lat="50.24017" lon="4.26394">
        <ele>239.19999694824</ele>
        <time>2025-01-04T08:23:26.000Z</time>
      </trkpt>
      <trkpt lat="50.24019" lon="4.26421">
        <ele>239.60000610352</ele>
        <time>2025-01-04T08:23:31.000Z</time>
      </trkpt>
      <trkpt lat="50.24025" lon="4.26461">
        <ele>240.19999694824</ele>
        <time>2025-01-04T08:23:39.000Z</time>
      </trkpt>
      <trkpt lat="50.24027" lon="4.26466">
        <ele>240.19999694824</ele>
        <time>2025-01-04T08:23:40.000Z</time>
      </trkpt>
      <trkpt lat="50.24033" lon="4.26511">
        <ele>239.80000305176</ele>
        <time>2025-01-04T08:23:48.000Z</time>
      </trkpt>
      <trkpt lat="50.2404" lon="4.26547">
        <ele>239</ele>
        <time>2025-01-04T08:23:54.000Z</time>
      </trkpt>
      <trkpt lat="50.24044" lon="4.26559">
        <ele>238.80000305176</ele>
        <time>2025-01-04T08:23:56.000Z</time>
      </trkpt>
      <trkpt lat="50.24052" lon="4.26597">
        <ele>238.39999389648</ele>
        <time>2025-01-04T08:24:02.000Z</time>
      </trkpt>
      <trkpt lat="50.24056" lon="4.26616">
        <ele>238.19999694824</ele>
        <time>2025-01-04T08:24:05.000Z</time>
      </trkpt>
      <trkpt lat="50.24063" lon="4.26653">
        <ele>238</ele>
        <time>2025-01-04T08:24:11.000Z</time>
      </trkpt>
      <trkpt lat="50.24072" lon="4.26696">
        <ele>237.60000610352</ele>
        <time>2025-01-04T08:24:19.000Z</time>
      </trkpt>
      <trkpt lat="50.24078" lon="4.2673">
        <ele>237.39999389648</ele>
        <time>2025-01-04T08:24:25.000Z</time>
      </trkpt>
      <trkpt lat="50.24083" lon="4.26774">
        <ele>237.39999389648</ele>
        <time>2025-01-04T08:24:33.000Z</time>
      </trkpt>
      <trkpt lat="50.24089" lon="4.26811">
        <ele>237.19999694824</ele>
        <time>2025-01-04T08:24:40.000Z</time>
      </trkpt>
      <trkpt lat="50.24091" lon="4.26837">
        <ele>236.39999389648</ele>
        <time>2025-01-04T08:24:46.000Z</time>
      </trkpt>
      <trkpt lat="50.2408" lon="4.26862">
        <ele>236.39999389648</ele>
        <time>2025-01-04T08:24:52.000Z</time>
      </trkpt>
      <trkpt lat="50.24055" lon="4.26889">
        <ele>236.80000305176</ele>
        <time>2025-01-04T08:25:00.000Z</time>
      </trkpt>
      <trkpt lat="50.24022" lon="4.26921">
        <ele>238</ele>
        <time>2025-01-04T08:25:10.000Z</time>
      </trkpt>
      <trkpt lat="50.24018" lon="4.26924">
        <ele>238.19999694824</ele>
        <time>2025-01-04T08:25:11.000Z</time>
      </trkpt>
      <trkpt lat="50.24001" lon="4.26939">
        <ele>239.39999389648</ele>
        <time>2025-01-04T08:25:16.000Z</time>
      </trkpt>
      <trkpt lat="50.23991" lon="4.26947">
        <ele>240.19999694824</ele>
        <time>2025-01-04T08:25:19.000Z</time>
      </trkpt>
      <trkpt lat="50.23987" lon="4.26949">
        <ele>240.39999389648</ele>
        <time>2025-01-04T08:25:20.000Z</time>
      </trkpt>
      <trkpt lat="50.23965" lon="4.26965">
        <ele>241.60000610352</ele>
        <time>2025-01-04T08:25:27.000Z</time>
      </trkpt>
      <trkpt lat="50.23959" lon="4.26969">
        <ele>241.80000305176</ele>
        <time>2025-01-04T08:25:29.000Z</time>
      </trkpt>
      <trkpt lat="50.23934" lon="4.26986">
        <ele>242.80000305176</ele>
        <time>2025-01-04T08:25:36.000Z</time>
      </trkpt>
      <trkpt lat="50.23927" lon="4.26991">
        <ele>243.19999694824</ele>
        <time>2025-01-04T08:25:38.000Z</time>
      </trkpt>
      <trkpt lat="50.23896" lon="4.27012">
        <ele>244</ele>
        <time>2025-01-04T08:25:47.000Z</time>
      </trkpt>
      <trkpt lat="50.23873" lon="4.27032">
        <ele>245</ele>
        <time>2025-01-04T08:25:54.000Z</time>
      </trkpt>
      <trkpt lat="50.23868" lon="4.2704">
        <ele>245.60000610352</ele>
        <time>2025-01-04T08:25:56.000Z</time>
      </trkpt>
      <trkpt lat="50.2386" lon="4.27055">
        <ele>246.39999389648</ele>
        <time>2025-01-04T08:25:59.000Z</time>
      </trkpt>
      <trkpt lat="50.2385" lon="4.27082">
        <ele>247.19999694824</ele>
        <time>2025-01-04T08:26:04.000Z</time>
      </trkpt>
      <trkpt lat="50.23846" lon="4.27099">
        <ele>247.60000610352</ele>
        <time>2025-01-04T08:26:07.000Z</time>
      </trkpt>
      <trkpt lat="50.23836" lon="4.27148">
        <ele>248.60000610352</ele>
        <time>2025-01-04T08:26:15.000Z</time>
      </trkpt>
      <trkpt lat="50.23834" lon="4.27154">
        <ele>248.60000610352</ele>
        <time>2025-01-04T08:26:16.000Z</time>
      </trkpt>
      <trkpt lat="50.23826" lon="4.27186">
        <ele>248.80000305176</ele>
        <time>2025-01-04T08:26:21.000Z</time>
      </trkpt>
      <trkpt lat="50.23816" lon="4.27209">
        <ele>248.80000305176</ele>
        <time>2025-01-04T08:26:25.000Z</time>
      </trkpt>
      <trkpt lat="50.23796" lon="4.27239">
        <ele>248.19999694824</ele>
        <time>2025-01-04T08:26:31.000Z</time>
      </trkpt>
      <trkpt lat="50.23792" lon="4.27243">
        <ele>248</ele>
        <time>2025-01-04T08:26:32.000Z</time>
      </trkpt>
      <trkpt lat="50.23767" lon="4.2726">
        <ele>247.39999389648</ele>
        <time>2025-01-04T08:26:38.000Z</time>
      </trkpt>
      <trkpt lat="50.23759" lon="4.27265">
        <ele>247.19999694824</ele>
        <time>2025-01-04T08:26:40.000Z</time>
      </trkpt>
      <trkpt lat="50.237" lon="4.273">
        <ele>246.60000610352</ele>
        <time>2025-01-04T08:26:53.000Z</time>
      </trkpt>
      <trkpt lat="50.23685" lon="4.27312">
        <ele>246.39999389648</ele>
        <time>2025-01-04T08:26:57.000Z</time>
      </trkpt>
      <trkpt lat="50.23658" lon="4.27336">
        <ele>246.19999694824</ele>
        <time>2025-01-04T08:27:04.000Z</time>
      </trkpt>
      <trkpt lat="50.23631" lon="4.27359">
        <ele>245.60000610352</ele>
        <time>2025-01-04T08:27:11.000Z</time>
      </trkpt>
      <trkpt lat="50.23606" lon="4.27378">
        <ele>244.60000610352</ele>
        <time>2025-01-04T08:27:17.000Z</time>
      </trkpt>
      <trkpt lat="50.23601" lon="4.27381">
        <ele>244.39999389648</ele>
        <time>2025-01-04T08:27:18.000Z</time>
      </trkpt>
      <trkpt lat="50.23592" lon="4.27386">
        <ele>244.19999694824</ele>
        <time>2025-01-04T08:27:20.000Z</time>
      </trkpt>
      <trkpt lat="50.23578" lon="4.27391">
        <ele>243.60000610352</ele>
        <time>2025-01-04T08:27:23.000Z</time>
      </trkpt>
      <trkpt lat="50.23578" lon="4.27391">
        <ele>243.39999389648</ele>
        <time>2025-01-04T08:27:24.000Z</time>
      </trkpt>
      <trkpt lat="50.23546" lon="4.27404">
        <ele>242</ele>
        <time>2025-01-04T08:27:30.000Z</time>
      </trkpt>
      <trkpt lat="50.23529" lon="4.27414">
        <ele>241.60000610352</ele>
        <time>2025-01-04T08:27:34.000Z</time>
      </trkpt>
      <trkpt lat="50.23486" lon="4.27439">
        <ele>241</ele>
        <time>2025-01-04T08:27:44.000Z</time>
      </trkpt>
      <trkpt lat="50.23476" lon="4.27443">
        <ele>241</ele>
        <time>2025-01-04T08:27:47.000Z</time>
      </trkpt>
      <trkpt lat="50.23466" lon="4.27445">
        <ele>240.80000305176</ele>
        <time>2025-01-04T08:27:48.000Z</time>
      </trkpt>
      <trkpt lat="50.23446" lon="4.27446">
        <ele>240.60000610352</ele>
        <time>2025-01-04T08:27:52.000Z</time>
      </trkpt>
      <trkpt lat="50.23408" lon="4.27438">
        <ele>240.60000610352</ele>
        <time>2025-01-04T08:28:01.000Z</time>
      </trkpt>
      <trkpt lat="50.23366" lon="4.2744">
        <ele>240.80000305176</ele>
        <time>2025-01-04T08:28:09.000Z</time>
      </trkpt>
      <trkpt lat="50.23352" lon="4.27437">
        <ele>241</ele>
        <time>2025-01-04T08:28:12.000Z</time>
      </trkpt>
      <trkpt lat="50.23345" lon="4.27429">
        <ele>241</ele>
        <time>2025-01-04T08:28:14.000Z</time>
      </trkpt>
      <trkpt lat="50.23339" lon="4.27418">
        <ele>241.19999694824</ele>
        <time>2025-01-04T08:28:16.000Z</time>
      </trkpt>
      <trkpt lat="50.23335" lon="4.27406">
        <ele>241.39999389648</ele>
        <time>2025-01-04T08:28:18.000Z</time>
      </trkpt>
      <trkpt lat="50.23332" lon="4.27392">
        <ele>241.80000305176</ele>
        <time>2025-01-04T08:28:20.000Z</time>
      </trkpt>
      <trkpt lat="50.23329" lon="4.27379">
        <ele>242</ele>
        <time>2025-01-04T08:28:22.000Z</time>
      </trkpt>
      <trkpt lat="50.23327" lon="4.27373">
        <ele>242</ele>
        <time>2025-01-04T08:28:23.000Z</time>
      </trkpt>
      <trkpt lat="50.23325" lon="4.27366">
        <ele>242.19999694824</ele>
        <time>2025-01-04T08:28:24.000Z</time>
      </trkpt>
      <trkpt lat="50.23318" lon="4.27349">
        <ele>242.39999389648</ele>
        <time>2025-01-04T08:28:27.000Z</time>
      </trkpt>
      <trkpt lat="50.23306" lon="4.27332">
        <ele>242.39999389648</ele>
        <time>2025-01-04T08:28:30.000Z</time>
      </trkpt>
      <trkpt lat="50.23277" lon="4.2729">
        <ele>241</ele>
        <time>2025-01-04T08:28:38.000Z</time>
      </trkpt>
      <trkpt lat="50.23259" lon="4.27264">
        <ele>240</ele>
        <time>2025-01-04T08:28:41.000Z</time>
      </trkpt>
      <trkpt lat="50.23254" lon="4.27258">
        <ele>239.80000305176</ele>
        <time>2025-01-04T08:28:42.000Z</time>
      </trkpt>
      <trkpt lat="50.23235" lon="4.2723">
        <ele>238.39999389648</ele>
        <time>2025-01-04T08:28:46.000Z</time>
      </trkpt>
      <trkpt lat="50.23221" lon="4.2721">
        <ele>237.39999389648</ele>
        <time>2025-01-04T08:28:49.000Z</time>
      </trkpt>
      <trkpt lat="50.23217" lon="4.27203">
        <ele>237</ele>
        <time>2025-01-04T08:28:50.000Z</time>
      </trkpt>
      <trkpt lat="50.23202" lon="4.27182">
        <ele>236</ele>
        <time>2025-01-04T08:28:53.000Z</time>
      </trkpt>
      <trkpt lat="50.23183" lon="4.27155">
        <ele>235</ele>
        <time>2025-01-04T08:28:57.000Z</time>
      </trkpt>
      <trkpt lat="50.23168" lon="4.27134">
        <ele>234</ele>
        <time>2025-01-04T08:29:00.000Z</time>
      </trkpt>
      <trkpt lat="50.23168" lon="4.27134">
        <ele>233.60000610352</ele>
        <time>2025-01-04T08:29:01.000Z</time>
      </trkpt>
      <trkpt lat="50.2314" lon="4.27094">
        <ele>232.60000610352</ele>
        <time>2025-01-04T08:29:06.000Z</time>
      </trkpt>
      <trkpt lat="50.23118" lon="4.27063">
        <ele>231.39999389648</ele>
        <time>2025-01-04T08:29:11.000Z</time>
      </trkpt>
      <trkpt lat="50.23114" lon="4.27057">
        <ele>231.19999694824</ele>
        <time>2025-01-04T08:29:12.000Z</time>
      </trkpt>
      <trkpt lat="50.23096" lon="4.27031">
        <ele>230.39999389648</ele>
        <time>2025-01-04T08:29:17.000Z</time>
      </trkpt>
      <trkpt lat="50.23093" lon="4.27027">
        <ele>230.19999694824</ele>
        <time>2025-01-04T08:29:18.000Z</time>
      </trkpt>
      <trkpt lat="50.23087" lon="4.27018">
        <ele>229.80000305176</ele>
        <time>2025-01-04T08:29:22.000Z</time>
      </trkpt>
      <trkpt lat="50.23083" lon="4.2701">
        <ele>229.19999694824</ele>
        <time>2025-01-04T08:29:26.000Z</time>
      </trkpt>
      <trkpt lat="50.23078" lon="4.27004">
        <ele>229.19999694824</ele>
        <time>2025-01-04T08:29:28.000Z</time>
      </trkpt>
      <trkpt lat="50.23069" lon="4.26993">
        <ele>229</ele>
        <time>2025-01-04T08:29:31.000Z</time>
      </trkpt>
      <trkpt lat="50.23056" lon="4.26973">
        <ele>228.80000305176</ele>
        <time>2025-01-04T08:29:35.000Z</time>
      </trkpt>
      <trkpt lat="50.23037" lon="4.2694">
        <ele>228.60000610352</ele>
        <time>2025-01-04T08:29:41.000Z</time>
      </trkpt>
      <trkpt lat="50.23029" lon="4.26927">
        <ele>228.39999389648</ele>
        <time>2025-01-04T08:29:43.000Z</time>
      </trkpt>
      <trkpt lat="50.23012" lon="4.26898">
        <ele>228</ele>
        <time>2025-01-04T08:29:48.000Z</time>
      </trkpt>
      <trkpt lat="50.22994" lon="4.26868">
        <ele>227.60000610352</ele>
        <time>2025-01-04T08:29:53.000Z</time>
      </trkpt>
      <trkpt lat="50.22965" lon="4.2682">
        <ele>227.19999694824</ele>
        <time>2025-01-04T08:30:01.000Z</time>
      </trkpt>
      <trkpt lat="50.22957" lon="4.26808">
        <ele>227</ele>
        <time>2025-01-04T08:30:03.000Z</time>
      </trkpt>
      <trkpt lat="50.22934" lon="4.26773">
        <ele>226.60000610352</ele>
        <time>2025-01-04T08:30:09.000Z</time>
      </trkpt>
      <trkpt lat="50.22892" lon="4.26704">
        <ele>226</ele>
        <time>2025-01-04T08:30:20.000Z</time>
      </trkpt>
      <trkpt lat="50.22882" lon="4.26687">
        <ele>225.80000305176</ele>
        <time>2025-01-04T08:30:23.000Z</time>
      </trkpt>
      <trkpt lat="50.2285" lon="4.26633">
        <ele>225.60000610352</ele>
        <time>2025-01-04T08:30:32.000Z</time>
      </trkpt>
      <trkpt lat="50.22817" lon="4.26583">
        <ele>225.39999389648</ele>
        <time>2025-01-04T08:30:42.000Z</time>
      </trkpt>
      <trkpt lat="50.22786" lon="4.26532">
        <ele>225.60000610352</ele>
        <time>2025-01-04T08:30:50.000Z</time>
      </trkpt>
      <trkpt lat="50.22745" lon="4.26464">
        <ele>225.39999389648</ele>
        <time>2025-01-04T08:31:02.000Z</time>
      </trkpt>
      <trkpt lat="50.22738" lon="4.26452">
        <ele>225.19999694824</ele>
        <time>2025-01-04T08:31:04.000Z</time>
      </trkpt>
      <trkpt lat="50.22722" lon="4.26428">
        <ele>224.80000305176</ele>
        <time>2025-01-04T08:31:09.000Z</time>
      </trkpt>
      <trkpt lat="50.22721" lon="4.26423">
        <ele>224.80000305176</ele>
        <time>2025-01-04T08:31:10.000Z</time>
      </trkpt>
      <trkpt lat="50.22721" lon="4.26407">
        <ele>224.39999389648</ele>
        <time>2025-01-04T08:31:14.000Z</time>
      </trkpt>
      <trkpt lat="50.22731" lon="4.26368">
        <ele>223.60000610352</ele>
        <time>2025-01-04T08:31:19.000Z</time>
      </trkpt>
      <trkpt lat="50.22734" lon="4.26353">
        <ele>223</ele>
        <time>2025-01-04T08:31:21.000Z</time>
      </trkpt>
      <trkpt lat="50.22741" lon="4.26323">
        <ele>222.19999694824</ele>
        <time>2025-01-04T08:31:25.000Z</time>
      </trkpt>
      <trkpt lat="50.22745" lon="4.26299">
        <ele>221.60000610352</ele>
        <time>2025-01-04T08:31:28.000Z</time>
      </trkpt>
      <trkpt lat="50.22748" lon="4.26275">
        <ele>221.19999694824</ele>
        <time>2025-01-04T08:31:31.000Z</time>
      </trkpt>
      <trkpt lat="50.22752" lon="4.26227">
        <ele>220</ele>
        <time>2025-01-04T08:31:37.000Z</time>
      </trkpt>
      <trkpt lat="50.22755" lon="4.262">
        <ele>219</ele>
        <time>2025-01-04T08:31:40.000Z</time>
      </trkpt>
      <trkpt lat="50.22762" lon="4.26167">
        <ele>217.60000610352</ele>
        <time>2025-01-04T08:31:44.000Z</time>
      </trkpt>
      <trkpt lat="50.22767" lon="4.26142">
        <ele>216.60000610352</ele>
        <time>2025-01-04T08:31:48.000Z</time>
      </trkpt>
      <trkpt lat="50.22776" lon="4.2609">
        <ele>215.39999389648</ele>
        <time>2025-01-04T08:31:53.000Z</time>
      </trkpt>
      <trkpt lat="50.2278" lon="4.26064">
        <ele>214.39999389648</ele>
        <time>2025-01-04T08:31:56.000Z</time>
      </trkpt>
      <trkpt lat="50.22786" lon="4.26028">
        <ele>212.80000305176</ele>
        <time>2025-01-04T08:32:00.000Z</time>
      </trkpt>
      <trkpt lat="50.2279" lon="4.26001">
        <ele>211.80000305176</ele>
        <time>2025-01-04T08:32:03.000Z</time>
      </trkpt>
      <trkpt lat="50.22792" lon="4.25993">
        <ele>211.39999389648</ele>
        <time>2025-01-04T08:32:04.000Z</time>
      </trkpt>
      <trkpt lat="50.22799" lon="4.2596">
        <ele>210.19999694824</ele>
        <time>2025-01-04T08:32:08.000Z</time>
      </trkpt>
      <trkpt lat="50.22805" lon="4.25935">
        <ele>209.19999694824</ele>
        <time>2025-01-04T08:32:11.000Z</time>
      </trkpt>
      <trkpt lat="50.22817" lon="4.25884">
        <ele>208.19999694824</ele>
        <time>2025-01-04T08:32:17.000Z</time>
      </trkpt>
      <trkpt lat="50.22822" lon="4.25867">
        <ele>207.39999389648</ele>
        <time>2025-01-04T08:32:19.000Z</time>
      </trkpt>
      <trkpt lat="50.22824" lon="4.25858">
        <ele>207</ele>
        <time>2025-01-04T08:32:20.000Z</time>
      </trkpt>
      <trkpt lat="50.22835" lon="4.25825">
        <ele>206</ele>
        <time>2025-01-04T08:32:24.000Z</time>
      </trkpt>
      <trkpt lat="50.2284" lon="4.25809">
        <ele>204.80000305176</ele>
        <time>2025-01-04T08:32:26.000Z</time>
      </trkpt>
      <trkpt lat="50.22842" lon="4.25801">
        <ele>204.39999389648</ele>
        <time>2025-01-04T08:32:27.000Z</time>
      </trkpt>
      <trkpt lat="50.22849" lon="4.2577">
        <ele>204</ele>
        <time>2025-01-04T08:32:31.000Z</time>
      </trkpt>
      <trkpt lat="50.22854" lon="4.25755">
        <ele>203</ele>
        <time>2025-01-04T08:32:34.000Z</time>
      </trkpt>
      <trkpt lat="50.22859" lon="4.25739">
        <ele>202.60000610352</ele>
        <time>2025-01-04T08:32:35.000Z</time>
      </trkpt>
      <trkpt lat="50.22864" lon="4.25724">
        <ele>202.39999389648</ele>
        <time>2025-01-04T08:32:37.000Z</time>
      </trkpt>
      <trkpt lat="50.22871" lon="4.25699">
        <ele>201.80000305176</ele>
        <time>2025-01-04T08:32:40.000Z</time>
      </trkpt>
      <trkpt lat="50.22873" lon="4.25691">
        <ele>201.80000305176</ele>
        <time>2025-01-04T08:32:41.000Z</time>
      </trkpt>
      <trkpt lat="50.22885" lon="4.25644">
        <ele>200.60000610352</ele>
        <time>2025-01-04T08:32:47.000Z</time>
      </trkpt>
      <trkpt lat="50.22885" lon="4.25644">
        <ele>200.39999389648</ele>
        <time>2025-01-04T08:32:48.000Z</time>
      </trkpt>
      <trkpt lat="50.22905" lon="4.25589">
        <ele>199.39999389648</ele>
        <time>2025-01-04T08:32:54.000Z</time>
      </trkpt>
      <trkpt lat="50.22907" lon="4.25582">
        <ele>199.39999389648</ele>
        <time>2025-01-04T08:32:55.000Z</time>
      </trkpt>
      <trkpt lat="50.22913" lon="4.2556">
        <ele>198.19999694824</ele>
        <time>2025-01-04T08:32:58.000Z</time>
      </trkpt>
      <trkpt lat="50.22924" lon="4.25519">
        <ele>197.60000610352</ele>
        <time>2025-01-04T08:33:04.000Z</time>
      </trkpt>
      <trkpt lat="50.22931" lon="4.25494">
        <ele>197</ele>
        <time>2025-01-04T08:33:08.000Z</time>
      </trkpt>
      <trkpt lat="50.22934" lon="4.25484">
        <ele>197.19999694824</ele>
        <time>2025-01-04T08:33:11.000Z</time>
      </trkpt>
      <trkpt lat="50.22945" lon="4.25437">
        <ele>197.39999389648</ele>
        <time>2025-01-04T08:33:18.000Z</time>
      </trkpt>
      <trkpt lat="50.22948" lon="4.25412">
        <ele>197.60000610352</ele>
        <time>2025-01-04T08:33:23.000Z</time>
      </trkpt>
      <trkpt lat="50.22944" lon="4.25407">
        <ele>197.60000610352</ele>
        <time>2025-01-04T08:33:25.000Z</time>
      </trkpt>
      <trkpt lat="50.22941" lon="4.25407">
        <ele>197.60000610352</ele>
        <time>2025-01-04T08:33:26.000Z</time>
      </trkpt>
      <trkpt lat="50.22923" lon="4.25406">
        <ele>197.80000305176</ele>
        <time>2025-01-04T08:33:31.000Z</time>
      </trkpt>
      <trkpt lat="50.22919" lon="4.25404">
        <ele>197.80000305176</ele>
        <time>2025-01-04T08:33:32.000Z</time>
      </trkpt>
      <trkpt lat="50.229" lon="4.25388">
        <ele>197.60000610352</ele>
        <time>2025-01-04T08:33:37.000Z</time>
      </trkpt>
      <trkpt lat="50.22869" lon="4.25357">
        <ele>196.80000305176</ele>
        <time>2025-01-04T08:33:46.000Z</time>
      </trkpt>
      <trkpt lat="50.2284" lon="4.25329">
        <ele>196.39999389648</ele>
        <time>2025-01-04T08:33:54.000Z</time>
      </trkpt>
      <trkpt lat="50.22836" lon="4.25325">
        <ele>196.39999389648</ele>
        <time>2025-01-04T08:33:55.000Z</time>
      </trkpt>
      <trkpt lat="50.22825" lon="4.25315">
        <ele>196.19999694824</ele>
        <time>2025-01-04T08:33:58.000Z</time>
      </trkpt>
      <trkpt lat="50.22817" lon="4.25307">
        <ele>195.80000305176</ele>
        <time>2025-01-04T08:34:00.000Z</time>
      </trkpt>
      <trkpt lat="50.22813" lon="4.25302">
        <ele>195.60000610352</ele>
        <time>2025-01-04T08:34:02.000Z</time>
      </trkpt>
      <trkpt lat="50.22782" lon="4.25262">
        <ele>195.19999694824</ele>
        <time>2025-01-04T08:34:09.000Z</time>
      </trkpt>
      <trkpt lat="50.2277" lon="4.2525">
        <ele>195</ele>
        <time>2025-01-04T08:34:12.000Z</time>
      </trkpt>
      <trkpt lat="50.22751" lon="4.2523">
        <ele>194.80000305176</ele>
        <time>2025-01-04T08:34:17.000Z</time>
      </trkpt>
      <trkpt lat="50.22747" lon="4.25227">
        <ele>194.80000305176</ele>
        <time>2025-01-04T08:34:19.000Z</time>
      </trkpt>
      <trkpt lat="50.22739" lon="4.25222">
        <ele>194.80000305176</ele>
        <time>2025-01-04T08:34:20.000Z</time>
      </trkpt>
      <trkpt lat="50.22722" lon="4.25204">
        <ele>194.19999694824</ele>
        <time>2025-01-04T08:34:24.000Z</time>
      </trkpt>
      <trkpt lat="50.2271" lon="4.25186">
        <ele>193.80000305176</ele>
        <time>2025-01-04T08:34:27.000Z</time>
      </trkpt>
      <trkpt lat="50.22695" lon="4.25168">
        <ele>193.60000610352</ele>
        <time>2025-01-04T08:34:30.000Z</time>
      </trkpt>
      <trkpt lat="50.22685" lon="4.25161">
        <ele>192.19999694824</ele>
        <time>2025-01-04T08:34:32.000Z</time>
      </trkpt>
      <trkpt lat="50.22676" lon="4.25156">
        <ele>191</ele>
        <time>2025-01-04T08:34:34.000Z</time>
      </trkpt>
      <trkpt lat="50.22672" lon="4.25154">
        <ele>190.60000610352</ele>
        <time>2025-01-04T08:34:35.000Z</time>
      </trkpt>
      <trkpt lat="50.22662" lon="4.25149">
        <ele>190.19999694824</ele>
        <time>2025-01-04T08:34:39.000Z</time>
      </trkpt>
      <trkpt lat="50.22652" lon="4.25142">
        <ele>190.39999389648</ele>
        <time>2025-01-04T08:34:42.000Z</time>
      </trkpt>
      <trkpt lat="50.22644" lon="4.25139">
        <ele>190.39999389648</ele>
        <time>2025-01-04T08:34:44.000Z</time>
      </trkpt>
      <trkpt lat="50.2262" lon="4.25128">
        <ele>190</ele>
        <time>2025-01-04T08:34:49.000Z</time>
      </trkpt>
      <trkpt lat="50.22615" lon="4.25125">
        <ele>190</ele>
        <time>2025-01-04T08:34:50.000Z</time>
      </trkpt>
      <trkpt lat="50.22564" lon="4.25089">
        <ele>189.39999389648</ele>
        <time>2025-01-04T08:35:01.000Z</time>
      </trkpt>
      <trkpt lat="50.22531" lon="4.25071">
        <ele>189.39999389648</ele>
        <time>2025-01-04T08:35:08.000Z</time>
      </trkpt>
      <trkpt lat="50.22517" lon="4.25068">
        <ele>189.39999389648</ele>
        <time>2025-01-04T08:35:11.000Z</time>
      </trkpt>
      <trkpt lat="50.22492" lon="4.25068">
        <ele>189.39999389648</ele>
        <time>2025-01-04T08:35:16.000Z</time>
      </trkpt>
      <trkpt lat="50.22466" lon="4.25073">
        <ele>189</ele>
        <time>2025-01-04T08:35:21.000Z</time>
      </trkpt>
      <trkpt lat="50.22451" lon="4.25079">
        <ele>188.60000610352</ele>
        <time>2025-01-04T08:35:24.000Z</time>
      </trkpt>
      <trkpt lat="50.22435" lon="4.25086">
        <ele>187.80000305176</ele>
        <time>2025-01-04T08:35:27.000Z</time>
      </trkpt>
      <trkpt lat="50.22408" lon="4.25096">
        <ele>186.80000305176</ele>
        <time>2025-01-04T08:35:32.000Z</time>
      </trkpt>
      <trkpt lat="50.22408" lon="4.25096">
        <ele>186.39999389648</ele>
        <time>2025-01-04T08:35:33.000Z</time>
      </trkpt>
      <trkpt lat="50.22395" lon="4.25095">
        <ele>186.19999694824</ele>
        <time>2025-01-04T08:35:34.000Z</time>
      </trkpt>
      <trkpt lat="50.22395" lon="4.25095">
        <ele>185.60000610352</ele>
        <time>2025-01-04T08:35:35.000Z</time>
      </trkpt>
      <trkpt lat="50.22383" lon="4.25092">
        <ele>185.39999389648</ele>
        <time>2025-01-04T08:35:36.000Z</time>
      </trkpt>
      <trkpt lat="50.22377" lon="4.25089">
        <ele>184.80000305176</ele>
        <time>2025-01-04T08:35:37.000Z</time>
      </trkpt>
      <trkpt lat="50.22371" lon="4.25086">
        <ele>184.60000610352</ele>
        <time>2025-01-04T08:35:38.000Z</time>
      </trkpt>
      <trkpt lat="50.22364" lon="4.25082">
        <ele>183.80000305176</ele>
        <time>2025-01-04T08:35:39.000Z</time>
      </trkpt>
      <trkpt lat="50.22356" lon="4.25075">
        <ele>183.39999389648</ele>
        <time>2025-01-04T08:35:40.000Z</time>
      </trkpt>
      <trkpt lat="50.2235" lon="4.2507">
        <ele>182.80000305176</ele>
        <time>2025-01-04T08:35:41.000Z</time>
      </trkpt>
      <trkpt lat="50.22336" lon="4.25061">
        <ele>181.80000305176</ele>
        <time>2025-01-04T08:35:43.000Z</time>
      </trkpt>
      <trkpt lat="50.22321" lon="4.25055">
        <ele>180.60000610352</ele>
        <time>2025-01-04T08:35:45.000Z</time>
      </trkpt>
      <trkpt lat="50.22315" lon="4.25054">
        <ele>180</ele>
        <time>2025-01-04T08:35:46.000Z</time>
      </trkpt>
      <trkpt lat="50.22301" lon="4.25051">
        <ele>179.19999694824</ele>
        <time>2025-01-04T08:35:48.000Z</time>
      </trkpt>
      <trkpt lat="50.22288" lon="4.25046">
        <ele>178.60000610352</ele>
        <time>2025-01-04T08:35:50.000Z</time>
      </trkpt>
      <trkpt lat="50.22281" lon="4.25043">
        <ele>178.19999694824</ele>
        <time>2025-01-04T08:35:52.000Z</time>
      </trkpt>
      <trkpt lat="50.2227" lon="4.25038">
        <ele>178.19999694824</ele>
        <time>2025-01-04T08:35:53.000Z</time>
      </trkpt>
      <trkpt lat="50.22218" lon="4.25016">
        <ele>177.19999694824</ele>
        <time>2025-01-04T08:36:02.000Z</time>
      </trkpt>
      <trkpt lat="50.22207" lon="4.25014">
        <ele>177.19999694824</ele>
        <time>2025-01-04T08:36:04.000Z</time>
      </trkpt>
      <trkpt lat="50.22192" lon="4.25012">
        <ele>177.19999694824</ele>
        <time>2025-01-04T08:36:07.000Z</time>
      </trkpt>
      <trkpt lat="50.22188" lon="4.25011">
        <ele>177.19999694824</ele>
        <time>2025-01-04T08:36:08.000Z</time>
      </trkpt>
      <trkpt lat="50.22184" lon="4.25008">
        <ele>177.19999694824</ele>
        <time>2025-01-04T08:36:09.000Z</time>
      </trkpt>
      <trkpt lat="50.22177" lon="4.24999">
        <ele>177.39999389648</ele>
        <time>2025-01-04T08:36:11.000Z</time>
      </trkpt>
      <trkpt lat="50.22177" lon="4.24999">
        <ele>177.80000305176</ele>
        <time>2025-01-04T08:36:12.000Z</time>
      </trkpt>
      <trkpt lat="50.22172" lon="4.24988">
        <ele>177.80000305176</ele>
        <time>2025-01-04T08:36:13.000Z</time>
      </trkpt>
      <trkpt lat="50.22166" lon="4.24969">
        <ele>178.39999389648</ele>
        <time>2025-01-04T08:36:16.000Z</time>
      </trkpt>
      <trkpt lat="50.22151" lon="4.24907">
        <ele>178.80000305176</ele>
        <time>2025-01-04T08:36:25.000Z</time>
      </trkpt>
      <trkpt lat="50.22144" lon="4.24877">
        <ele>179</ele>
        <time>2025-01-04T08:36:29.000Z</time>
      </trkpt>
      <trkpt lat="50.22143" lon="4.24857">
        <ele>179.19999694824</ele>
        <time>2025-01-04T08:36:32.000Z</time>
      </trkpt>
      <trkpt lat="50.22139" lon="4.24813">
        <ele>179</ele>
        <time>2025-01-04T08:36:38.000Z</time>
      </trkpt>
      <trkpt lat="50.22136" lon="4.24789">
        <ele>178.19999694824</ele>
        <time>2025-01-04T08:36:41.000Z</time>
      </trkpt>
      <trkpt lat="50.22132" lon="4.24766">
        <ele>177.39999389648</ele>
        <time>2025-01-04T08:36:44.000Z</time>
      </trkpt>
      <trkpt lat="50.22131" lon="4.24758">
        <ele>177</ele>
        <time>2025-01-04T08:36:45.000Z</time>
      </trkpt>
      <trkpt lat="50.22121" lon="4.24731">
        <ele>176.80000305176</ele>
        <time>2025-01-04T08:36:49.000Z</time>
      </trkpt>
      <trkpt lat="50.22115" lon="4.24718">
        <ele>176.80000305176</ele>
        <time>2025-01-04T08:36:51.000Z</time>
      </trkpt>
      <trkpt lat="50.22111" lon="4.24712">
        <ele>176.60000610352</ele>
        <time>2025-01-04T08:36:52.000Z</time>
      </trkpt>
      <trkpt lat="50.2209" lon="4.24688">
        <ele>176.39999389648</ele>
        <time>2025-01-04T08:36:57.000Z</time>
      </trkpt>
      <trkpt lat="50.22045" lon="4.24638">
        <ele>176</ele>
        <time>2025-01-04T08:37:08.000Z</time>
      </trkpt>
      <trkpt lat="50.22007" lon="4.24596">
        <ele>175.80000305176</ele>
        <time>2025-01-04T08:37:17.000Z</time>
      </trkpt>
      <trkpt lat="50.22002" lon="4.24591">
        <ele>175.80000305176</ele>
        <time>2025-01-04T08:37:18.000Z</time>
      </trkpt>
      <trkpt lat="50.2197" lon="4.24557">
        <ele>175.60000610352</ele>
        <time>2025-01-04T08:37:26.000Z</time>
      </trkpt>
      <trkpt lat="50.21948" lon="4.24519">
        <ele>175.19999694824</ele>
        <time>2025-01-04T08:37:33.000Z</time>
      </trkpt>
      <trkpt lat="50.21942" lon="4.24502">
        <ele>175</ele>
        <time>2025-01-04T08:37:36.000Z</time>
      </trkpt>
      <trkpt lat="50.21935" lon="4.24492">
        <ele>175</ele>
        <time>2025-01-04T08:37:38.000Z</time>
      </trkpt>
      <trkpt lat="50.21931" lon="4.24488">
        <ele>174.80000305176</ele>
        <time>2025-01-04T08:37:39.000Z</time>
      </trkpt>
      <trkpt lat="50.21914" lon="4.24474">
        <ele>174.80000305176</ele>
        <time>2025-01-04T08:37:43.000Z</time>
      </trkpt>
      <trkpt lat="50.21897" lon="4.24458">
        <ele>174.60000610352</ele>
        <time>2025-01-04T08:37:47.000Z</time>
      </trkpt>
      <trkpt lat="50.21893" lon="4.24454">
        <ele>174.60000610352</ele>
        <time>2025-01-04T08:37:48.000Z</time>
      </trkpt>
      <trkpt lat="50.21876" lon="4.24438">
        <ele>174.60000610352</ele>
        <time>2025-01-04T08:37:52.000Z</time>
      </trkpt>
      <trkpt lat="50.21872" lon="4.24435">
        <ele>174.60000610352</ele>
        <time>2025-01-04T08:37:53.000Z</time>
      </trkpt>
      <trkpt lat="50.21855" lon="4.24424">
        <ele>175.39999389648</ele>
        <time>2025-01-04T08:37:57.000Z</time>
      </trkpt>
      <trkpt lat="50.21852" lon="4.24421">
        <ele>176.19999694824</ele>
        <time>2025-01-04T08:37:58.000Z</time>
      </trkpt>
      <trkpt lat="50.21841" lon="4.2441">
        <ele>177.19999694824</ele>
        <time>2025-01-04T08:38:01.000Z</time>
      </trkpt>
      <trkpt lat="50.21837" lon="4.24408">
        <ele>177.60000610352</ele>
        <time>2025-01-04T08:38:02.000Z</time>
      </trkpt>
      <trkpt lat="50.21834" lon="4.24405">
        <ele>177.60000610352</ele>
        <time>2025-01-04T08:38:03.000Z</time>
      </trkpt>
      <trkpt lat="50.2183" lon="4.24402">
        <ele>178.80000305176</ele>
        <time>2025-01-04T08:38:04.000Z</time>
      </trkpt>
      <trkpt lat="50.21823" lon="4.24396">
        <ele>180.39999389648</ele>
        <time>2025-01-04T08:38:06.000Z</time>
      </trkpt>
      <trkpt lat="50.21817" lon="4.2439">
        <ele>181.80000305176</ele>
        <time>2025-01-04T08:38:08.000Z</time>
      </trkpt>
      <trkpt lat="50.21811" lon="4.24384">
        <ele>183.19999694824</ele>
        <time>2025-01-04T08:38:10.000Z</time>
      </trkpt>
      <trkpt lat="50.21805" lon="4.24377">
        <ele>184.39999389648</ele>
        <time>2025-01-04T08:38:12.000Z</time>
      </trkpt>
      <trkpt lat="50.21794" lon="4.24368">
        <ele>185.80000305176</ele>
        <time>2025-01-04T08:38:15.000Z</time>
      </trkpt>
      <trkpt lat="50.21773" lon="4.24356">
        <ele>186.39999389648</ele>
        <time>2025-01-04T08:38:21.000Z</time>
      </trkpt>
      <trkpt lat="50.21761" lon="4.24359">
        <ele>186.39999389648</ele>
        <time>2025-01-04T08:38:25.000Z</time>
      </trkpt>
      <trkpt lat="50.21757" lon="4.24362">
        <ele>186.60000610352</ele>
        <time>2025-01-04T08:38:27.000Z</time>
      </trkpt>
      <trkpt lat="50.21748" lon="4.24364">
        <ele>186.80000305176</ele>
        <time>2025-01-04T08:38:30.000Z</time>
      </trkpt>
      <trkpt lat="50.21744" lon="4.24364">
        <ele>186.80000305176</ele>
        <time>2025-01-04T08:38:31.000Z</time>
      </trkpt>
      <trkpt lat="50.21718" lon="4.2436">
        <ele>187.80000305176</ele>
        <time>2025-01-04T08:38:38.000Z</time>
      </trkpt>
      <trkpt lat="50.21718" lon="4.2436">
        <ele>187.80000305176</ele>
        <time>2025-01-04T08:38:39.000Z</time>
      </trkpt>
      <trkpt lat="50.21689" lon="4.24358">
        <ele>189.19999694824</ele>
        <time>2025-01-04T08:38:46.000Z</time>
      </trkpt>
      <trkpt lat="50.21687" lon="4.24362">
        <ele>189.39999389648</ele>
        <time>2025-01-04T08:38:47.000Z</time>
      </trkpt>
      <trkpt lat="50.21685" lon="4.24371">
        <ele>190</ele>
        <time>2025-01-04T08:38:49.000Z</time>
      </trkpt>
      <trkpt lat="50.21684" lon="4.24376">
        <ele>190.39999389648</ele>
        <time>2025-01-04T08:38:50.000Z</time>
      </trkpt>
      <trkpt lat="50.21683" lon="4.24392">
        <ele>191.39999389648</ele>
        <time>2025-01-04T08:38:53.000Z</time>
      </trkpt>
      <trkpt lat="50.21683" lon="4.24398">
        <ele>191.60000610352</ele>
        <time>2025-01-04T08:38:54.000Z</time>
      </trkpt>
      <trkpt lat="50.21681" lon="4.24414">
        <ele>192.39999389648</ele>
        <time>2025-01-04T08:38:57.000Z</time>
      </trkpt>
      <trkpt lat="50.21677" lon="4.24429">
        <ele>193</ele>
        <time>2025-01-04T08:39:00.000Z</time>
      </trkpt>
      <trkpt lat="50.21674" lon="4.24439">
        <ele>193.60000610352</ele>
        <time>2025-01-04T08:39:02.000Z</time>
      </trkpt>
      <trkpt lat="50.21667" lon="4.24457">
        <ele>194.80000305176</ele>
        <time>2025-01-04T08:39:07.000Z</time>
      </trkpt>
      <trkpt lat="50.21662" lon="4.24454">
        <ele>195.19999694824</ele>
        <time>2025-01-04T08:39:10.000Z</time>
      </trkpt>
      <trkpt lat="50.21663" lon="4.24437">
        <ele>195.60000610352</ele>
        <time>2025-01-04T08:39:14.000Z</time>
      </trkpt>
      <trkpt lat="50.21661" lon="4.24408">
        <ele>195.60000610352</ele>
        <time>2025-01-04T08:39:21.000Z</time>
      </trkpt>
      <trkpt lat="50.21654" lon="4.24404">
        <ele>195.60000610352</ele>
        <time>2025-01-04T08:39:23.000Z</time>
      </trkpt>
      <trkpt lat="50.21648" lon="4.24404">
        <ele>195.60000610352</ele>
        <time>2025-01-04T08:39:25.000Z</time>
      </trkpt>
      <trkpt lat="50.21639" lon="4.24402">
        <ele>195.39999389648</ele>
        <time>2025-01-04T08:39:29.000Z</time>
      </trkpt>
      <trkpt lat="50.21639" lon="4.244">
        <ele>195.39999389648</ele>
        <time>2025-01-04T08:39:30.000Z</time>
      </trkpt>
      <trkpt lat="50.21638" lon="4.24398">
        <ele>195.19999694824</ele>
        <time>2025-01-04T08:39:36.000Z</time>
      </trkpt>
      <trkpt lat="50.21636" lon="4.24398">
        <ele>195</ele>
        <time>2025-01-04T08:39:42.000Z</time>
      </trkpt>
      <trkpt lat="50.21634" lon="4.24401">
        <ele>194.80000305176</ele>
        <time>2025-01-04T08:39:44.000Z</time>
      </trkpt>
      <trkpt lat="50.2163" lon="4.24411">
        <ele>194.60000610352</ele>
        <time>2025-01-04T08:39:47.000Z</time>
      </trkpt>
      <trkpt lat="50.21631" lon="4.24416">
        <ele>194.19999694824</ele>
        <time>2025-01-04T08:39:51.000Z</time>
      </trkpt>
      <trkpt lat="50.21631" lon="4.24416">
        <ele>193.60000610352</ele>
        <time>2025-01-04T08:39:53.000Z</time>
      </trkpt>
      <trkpt lat="50.21631" lon="4.24416">
        <ele>193.39999389648</ele>
        <time>2025-01-04T08:40:06.000Z</time>
      </trkpt>
      <trkpt lat="50.2163" lon="4.24426">
        <ele>193.19999694824</ele>
        <time>2025-01-04T08:40:18.000Z</time>
      </trkpt>
      <trkpt lat="50.21628" lon="4.24433">
        <ele>192.39999389648</ele>
        <time>2025-01-04T08:40:23.000Z</time>
      </trkpt>
      <trkpt lat="50.21627" lon="4.24436">
        <ele>192</ele>
        <time>2025-01-04T08:40:25.000Z</time>
      </trkpt>
      <trkpt lat="50.21623" lon="4.24444">
        <ele>191</ele>
        <time>2025-01-04T08:40:31.000Z</time>
      </trkpt>
      <trkpt lat="50.21622" lon="4.24446">
        <ele>190.60000610352</ele>
        <time>2025-01-04T08:40:33.000Z</time>
      </trkpt>
      <trkpt lat="50.21621" lon="4.2445">
        <ele>189.80000305176</ele>
        <time>2025-01-04T08:40:36.000Z</time>
      </trkpt>
      <trkpt lat="50.21619" lon="4.24454">
        <ele>188.80000305176</ele>
        <time>2025-01-04T08:40:39.000Z</time>
      </trkpt>
      <trkpt lat="50.21618" lon="4.24456">
        <ele>188.39999389648</ele>
        <time>2025-01-04T08:40:40.000Z</time>
      </trkpt>
      <trkpt lat="50.21616" lon="4.24459">
        <ele>187.19999694824</ele>
        <time>2025-01-04T08:40:42.000Z</time>
      </trkpt>
      <trkpt lat="50.21616" lon="4.24461">
        <ele>186.19999694824</ele>
        <time>2025-01-04T08:40:46.000Z</time>
      </trkpt>
      <trkpt lat="50.21615" lon="4.24461">
        <ele>185.80000305176</ele>
        <time>2025-01-04T08:40:48.000Z</time>
      </trkpt>
      <trkpt lat="50.21613" lon="4.24464">
        <ele>185</ele>
        <time>2025-01-04T08:40:52.000Z</time>
      </trkpt>
      <trkpt lat="50.21613" lon="4.24464">
        <ele>184.60000610352</ele>
        <time>2025-01-04T08:40:55.000Z</time>
      </trkpt>
      <trkpt lat="50.21613" lon="4.24465">
        <ele>183.80000305176</ele>
        <time>2025-01-04T08:40:59.000Z</time>
      </trkpt>
      <trkpt lat="50.21613" lon="4.24467">
        <ele>183.39999389648</ele>
        <time>2025-01-04T08:41:03.000Z</time>
      </trkpt>
      <trkpt lat="50.21612" lon="4.24466">
        <ele>182.80000305176</ele>
        <time>2025-01-04T08:41:06.000Z</time>
      </trkpt>
      <trkpt lat="50.21612" lon="4.24466">
        <ele>182.19999694824</ele>
        <time>2025-01-04T08:41:09.000Z</time>
      </trkpt>
      <trkpt lat="50.21612" lon="4.24466">
        <ele>181.80000305176</ele>
        <time>2025-01-04T08:41:13.000Z</time>
      </trkpt>
      <trkpt lat="50.21609" lon="4.24466">
        <ele>180.60000610352</ele>
        <time>2025-01-04T08:41:19.000Z</time>
      </trkpt>
      <trkpt lat="50.21607" lon="4.24464">
        <ele>179.39999389648</ele>
        <time>2025-01-04T08:41:25.000Z</time>
      </trkpt>
      <trkpt lat="50.21604" lon="4.24444">
        <ele>178.39999389648</ele>
        <time>2025-01-04T08:41:30.000Z</time>
      </trkpt>
      <trkpt lat="50.21605" lon="4.24433">
        <ele>178.19999694824</ele>
        <time>2025-01-04T08:41:32.000Z</time>
      </trkpt>
      <trkpt lat="50.21608" lon="4.24415">
        <ele>177.80000305176</ele>
        <time>2025-01-04T08:41:36.000Z</time>
      </trkpt>
      <trkpt lat="50.21613" lon="4.24392">
        <ele>177.60000610352</ele>
        <time>2025-01-04T08:41:41.000Z</time>
      </trkpt>
      <trkpt lat="50.21614" lon="4.24368">
        <ele>177.60000610352</ele>
        <time>2025-01-04T08:41:47.000Z</time>
      </trkpt>
      <trkpt lat="50.21611" lon="4.24362">
        <ele>177.60000610352</ele>
        <time>2025-01-04T08:41:49.000Z</time>
      </trkpt>
      <trkpt lat="50.21605" lon="4.24356">
        <ele>177.39999389648</ele>
        <time>2025-01-04T08:41:52.000Z</time>
      </trkpt>
      <trkpt lat="50.21589" lon="4.24345">
        <ele>177.60000610352</ele>
        <time>2025-01-04T08:41:59.000Z</time>
      </trkpt>
      <trkpt lat="50.21566" lon="4.24332">
        <ele>177.80000305176</ele>
        <time>2025-01-04T08:42:07.000Z</time>
      </trkpt>
      <trkpt lat="50.21543" lon="4.24317">
        <ele>177.60000610352</ele>
        <time>2025-01-04T08:42:15.000Z</time>
      </trkpt>
      <trkpt lat="50.21528" lon="4.24308">
        <ele>177.60000610352</ele>
        <time>2025-01-04T08:42:20.000Z</time>
      </trkpt>
      <trkpt lat="50.21525" lon="4.24304">
        <ele>177.60000610352</ele>
        <time>2025-01-04T08:42:22.000Z</time>
      </trkpt>
      <trkpt lat="50.21511" lon="4.24266">
        <ele>178.60000610352</ele>
        <time>2025-01-04T08:42:29.000Z</time>
      </trkpt>
      <trkpt lat="50.21507" lon="4.24249">
        <ele>179.39999389648</ele>
        <time>2025-01-04T08:42:32.000Z</time>
      </trkpt>
      <trkpt lat="50.21504" lon="4.24238">
        <ele>180.60000610352</ele>
        <time>2025-01-04T08:42:34.000Z</time>
      </trkpt>
      <trkpt lat="50.21497" lon="4.24216">
        <ele>181.80000305176</ele>
        <time>2025-01-04T08:42:38.000Z</time>
      </trkpt>
      <trkpt lat="50.21492" lon="4.24202">
        <ele>182.60000610352</ele>
        <time>2025-01-04T08:42:41.000Z</time>
      </trkpt>
      <trkpt lat="50.2149" lon="4.24198">
        <ele>183</ele>
        <time>2025-01-04T08:42:42.000Z</time>
      </trkpt>
      <trkpt lat="50.21487" lon="4.24194">
        <ele>183.19999694824</ele>
        <time>2025-01-04T08:42:43.000Z</time>
      </trkpt>
      <trkpt lat="50.21482" lon="4.24191">
        <ele>183.80000305176</ele>
        <time>2025-01-04T08:42:45.000Z</time>
      </trkpt>
      <trkpt lat="50.21478" lon="4.24192">
        <ele>184.19999694824</ele>
        <time>2025-01-04T08:42:46.000Z</time>
      </trkpt>
      <trkpt lat="50.21469" lon="4.24198">
        <ele>185</ele>
        <time>2025-01-04T08:42:49.000Z</time>
      </trkpt>
      <trkpt lat="50.21465" lon="4.24201">
        <ele>185.39999389648</ele>
        <time>2025-01-04T08:42:50.000Z</time>
      </trkpt>
      <trkpt lat="50.21439" lon="4.24225">
        <ele>185.80000305176</ele>
        <time>2025-01-04T08:42:58.000Z</time>
      </trkpt>
      <trkpt lat="50.21423" lon="4.24231">
        <ele>185.80000305176</ele>
        <time>2025-01-04T08:43:03.000Z</time>
      </trkpt>
      <trkpt lat="50.21413" lon="4.24222">
        <ele>186</ele>
        <time>2025-01-04T08:43:07.000Z</time>
      </trkpt>
      <trkpt lat="50.21401" lon="4.24207">
        <ele>186.39999389648</ele>
        <time>2025-01-04T08:43:11.000Z</time>
      </trkpt>
      <trkpt lat="50.21385" lon="4.24189">
        <ele>186.60000610352</ele>
        <time>2025-01-04T08:43:16.000Z</time>
      </trkpt>
      <trkpt lat="50.21377" lon="4.24182">
        <ele>186.80000305176</ele>
        <time>2025-01-04T08:43:18.000Z</time>
      </trkpt>
      <trkpt lat="50.21367" lon="4.24177">
        <ele>187</ele>
        <time>2025-01-04T08:43:20.000Z</time>
      </trkpt>
      <trkpt lat="50.21359" lon="4.24174">
        <ele>187.19999694824</ele>
        <time>2025-01-04T08:43:22.000Z</time>
      </trkpt>
      <trkpt lat="50.21351" lon="4.2417">
        <ele>187.39999389648</ele>
        <time>2025-01-04T08:43:24.000Z</time>
      </trkpt>
      <trkpt lat="50.21344" lon="4.24165">
        <ele>187.80000305176</ele>
        <time>2025-01-04T08:43:26.000Z</time>
      </trkpt>
      <trkpt lat="50.21336" lon="4.24162">
        <ele>188.39999389648</ele>
        <time>2025-01-04T08:43:28.000Z</time>
      </trkpt>
      <trkpt lat="50.21332" lon="4.24162">
        <ele>188.60000610352</ele>
        <time>2025-01-04T08:43:29.000Z</time>
      </trkpt>
      <trkpt lat="50.21325" lon="4.24162">
        <ele>190</ele>
        <time>2025-01-04T08:43:31.000Z</time>
      </trkpt>
      <trkpt lat="50.21316" lon="4.24166">
        <ele>191.39999389648</ele>
        <time>2025-01-04T08:43:34.000Z</time>
      </trkpt>
      <trkpt lat="50.21307" lon="4.24174">
        <ele>192.60000610352</ele>
        <time>2025-01-04T08:43:37.000Z</time>
      </trkpt>
      <trkpt lat="50.21297" lon="4.24182">
        <ele>193.39999389648</ele>
        <time>2025-01-04T08:43:40.000Z</time>
      </trkpt>
      <trkpt lat="50.21292" lon="4.24183">
        <ele>193.60000610352</ele>
        <time>2025-01-04T08:43:41.000Z</time>
      </trkpt>
      <trkpt lat="50.21272" lon="4.24185">
        <ele>193.60000610352</ele>
        <time>2025-01-04T08:43:46.000Z</time>
      </trkpt>
      <trkpt lat="50.21262" lon="4.24182">
        <ele>193.19999694824</ele>
        <time>2025-01-04T08:43:50.000Z</time>
      </trkpt>
      <trkpt lat="50.21247" lon="4.24188">
        <ele>193.39999389648</ele>
        <time>2025-01-04T08:43:56.000Z</time>
      </trkpt>
      <trkpt lat="50.21241" lon="4.2419">
        <ele>193.60000610352</ele>
        <time>2025-01-04T08:43:59.000Z</time>
      </trkpt>
      <trkpt lat="50.21231" lon="4.24191">
        <ele>193.60000610352</ele>
        <time>2025-01-04T08:44:02.000Z</time>
      </trkpt>
      <trkpt lat="50.21223" lon="4.2419">
        <ele>192.39999389648</ele>
        <time>2025-01-04T08:44:07.000Z</time>
      </trkpt>
      <trkpt lat="50.21222" lon="4.2419">
        <ele>191.39999389648</ele>
        <time>2025-01-04T08:44:15.000Z</time>
      </trkpt>
      <trkpt lat="50.21222" lon="4.2419">
        <ele>191.39999389648</ele>
        <time>2025-01-04T08:44:18.000Z</time>
      </trkpt>
      <trkpt lat="50.2122" lon="4.2419">
        <ele>191</ele>
        <time>2025-01-04T08:44:29.000Z</time>
      </trkpt>
      <trkpt lat="50.21219" lon="4.24191">
        <ele>191</ele>
        <time>2025-01-04T08:44:33.000Z</time>
      </trkpt>
      <trkpt lat="50.21216" lon="4.24192">
        <ele>191</ele>
        <time>2025-01-04T08:44:34.000Z</time>
      </trkpt>
      <trkpt lat="50.21197" lon="4.24198">
        <ele>190.19999694824</ele>
        <time>2025-01-04T08:44:41.000Z</time>
      </trkpt>
      <trkpt lat="50.21188" lon="4.242">
        <ele>189.19999694824</ele>
        <time>2025-01-04T08:44:45.000Z</time>
      </trkpt>
      <trkpt lat="50.2118" lon="4.24203">
        <ele>188.19999694824</ele>
        <time>2025-01-04T08:44:47.000Z</time>
      </trkpt>
      <trkpt lat="50.21177" lon="4.24204">
        <ele>188</ele>
        <time>2025-01-04T08:44:48.000Z</time>
      </trkpt>
      <trkpt lat="50.21168" lon="4.24205">
        <ele>186.80000305176</ele>
        <time>2025-01-04T08:44:51.000Z</time>
      </trkpt>
      <trkpt lat="50.21159" lon="4.24208">
        <ele>186.19999694824</ele>
        <time>2025-01-04T08:44:53.000Z</time>
      </trkpt>
      <trkpt lat="50.21141" lon="4.2422">
        <ele>185.60000610352</ele>
        <time>2025-01-04T08:44:57.000Z</time>
      </trkpt>
      <trkpt lat="50.21136" lon="4.24224">
        <ele>185.60000610352</ele>
        <time>2025-01-04T08:44:58.000Z</time>
      </trkpt>
      <trkpt lat="50.21116" lon="4.2424">
        <ele>185.19999694824</ele>
        <time>2025-01-04T08:45:04.000Z</time>
      </trkpt>
      <trkpt lat="50.21099" lon="4.2426">
        <ele>184.60000610352</ele>
        <time>2025-01-04T08:45:10.000Z</time>
      </trkpt>
      <trkpt lat="50.21092" lon="4.24263">
        <ele>184.39999389648</ele>
        <time>2025-01-04T08:45:13.000Z</time>
      </trkpt>
      <trkpt lat="50.21089" lon="4.24262">
        <ele>184.19999694824</ele>
        <time>2025-01-04T08:45:14.000Z</time>
      </trkpt>
      <trkpt lat="50.21069" lon="4.24262">
        <ele>183.39999389648</ele>
        <time>2025-01-04T08:45:20.000Z</time>
      </trkpt>
      <trkpt lat="50.21066" lon="4.24263">
        <ele>183.39999389648</ele>
        <time>2025-01-04T08:45:21.000Z</time>
      </trkpt>
      <trkpt lat="50.21062" lon="4.24265">
        <ele>183.39999389648</ele>
        <time>2025-01-04T08:45:23.000Z</time>
      </trkpt>
      <trkpt lat="50.21062" lon="4.24265">
        <ele>183.39999389648</ele>
        <time>2025-01-04T08:45:24.000Z</time>
      </trkpt>
      <trkpt lat="50.21061" lon="4.24265">
        <ele>183.80000305176</ele>
        <time>2025-01-04T08:45:31.000Z</time>
      </trkpt>
      <trkpt lat="50.21061" lon="4.24267">
        <ele>183.60000610352</ele>
        <time>2025-01-04T08:45:43.000Z</time>
      </trkpt>
      <trkpt lat="50.2106" lon="4.24268">
        <ele>183.60000610352</ele>
        <time>2025-01-04T08:45:44.000Z</time>
      </trkpt>
      <trkpt lat="50.21054" lon="4.24273">
        <ele>183.60000610352</ele>
        <time>2025-01-04T08:45:48.000Z</time>
      </trkpt>
      <trkpt lat="50.21047" lon="4.2428">
        <ele>183</ele>
        <time>2025-01-04T08:45:56.000Z</time>
      </trkpt>
      <trkpt lat="50.21032" lon="4.24289">
        <ele>182.80000305176</ele>
        <time>2025-01-04T08:46:02.000Z</time>
      </trkpt>
      <trkpt lat="50.21011" lon="4.24297">
        <ele>183.19999694824</ele>
        <time>2025-01-04T08:46:09.000Z</time>
      </trkpt>
      <trkpt lat="50.21003" lon="4.24297">
        <ele>183.80000305176</ele>
        <time>2025-01-04T08:46:12.000Z</time>
      </trkpt>
      <trkpt lat="50.20998" lon="4.24301">
        <ele>184.19999694824</ele>
        <time>2025-01-04T08:46:14.000Z</time>
      </trkpt>
      <trkpt lat="50.20995" lon="4.24303">
        <ele>184.39999389648</ele>
        <time>2025-01-04T08:46:15.000Z</time>
      </trkpt>
      <trkpt lat="50.20982" lon="4.24305">
        <ele>185.60000610352</ele>
        <time>2025-01-04T08:46:20.000Z</time>
      </trkpt>
      <trkpt lat="50.20964" lon="4.24316">
        <ele>186.39999389648</ele>
        <time>2025-01-04T08:46:27.000Z</time>
      </trkpt>
      <trkpt lat="50.20954" lon="4.2432">
        <ele>186.60000610352</ele>
        <time>2025-01-04T08:46:30.000Z</time>
      </trkpt>
      <trkpt lat="50.20944" lon="4.24324">
        <ele>186.80000305176</ele>
        <time>2025-01-04T08:46:34.000Z</time>
      </trkpt>
      <trkpt lat="50.20924" lon="4.24336">
        <ele>187</ele>
        <time>2025-01-04T08:46:42.000Z</time>
      </trkpt>
      <trkpt lat="50.20913" lon="4.24349">
        <ele>187.19999694824</ele>
        <time>2025-01-04T08:46:47.000Z</time>
      </trkpt>
      <trkpt lat="50.2091" lon="4.24357">
        <ele>187.39999389648</ele>
        <time>2025-01-04T08:46:49.000Z</time>
      </trkpt>
      <trkpt lat="50.20905" lon="4.24372">
        <ele>187.60000610352</ele>
        <time>2025-01-04T08:46:53.000Z</time>
      </trkpt>
      <trkpt lat="50.20897" lon="4.24396">
        <ele>188</ele>
        <time>2025-01-04T08:46:59.000Z</time>
      </trkpt>
      <trkpt lat="50.20894" lon="4.24415">
        <ele>188.39999389648</ele>
        <time>2025-01-04T08:47:03.000Z</time>
      </trkpt>
      <trkpt lat="50.20888" lon="4.24435">
        <ele>188.39999389648</ele>
        <time>2025-01-04T08:47:06.000Z</time>
      </trkpt>
      <trkpt lat="50.20884" lon="4.24472">
        <ele>188.19999694824</ele>
        <time>2025-01-04T08:47:12.000Z</time>
      </trkpt>
      <trkpt lat="50.20882" lon="4.24503">
        <ele>187.80000305176</ele>
        <time>2025-01-04T08:47:17.000Z</time>
      </trkpt>
      <trkpt lat="50.20867" lon="4.2453">
        <ele>187.19999694824</ele>
        <time>2025-01-04T08:47:22.000Z</time>
      </trkpt>
      <trkpt lat="50.20862" lon="4.24537">
        <ele>187</ele>
        <time>2025-01-04T08:47:24.000Z</time>
      </trkpt>
      <trkpt lat="50.20849" lon="4.24551">
        <ele>187</ele>
        <time>2025-01-04T08:47:28.000Z</time>
      </trkpt>
      <trkpt lat="50.20841" lon="4.24556">
        <ele>186.80000305176</ele>
        <time>2025-01-04T08:47:30.000Z</time>
      </trkpt>
      <trkpt lat="50.20813" lon="4.24578">
        <ele>186.60000610352</ele>
        <time>2025-01-04T08:47:38.000Z</time>
      </trkpt>
      <trkpt lat="50.20796" lon="4.24589">
        <ele>186.19999694824</ele>
        <time>2025-01-04T08:47:42.000Z</time>
      </trkpt>
      <trkpt lat="50.20789" lon="4.24595">
        <ele>186.19999694824</ele>
        <time>2025-01-04T08:47:44.000Z</time>
      </trkpt>
      <trkpt lat="50.20785" lon="4.24597">
        <ele>186.19999694824</ele>
        <time>2025-01-04T08:47:45.000Z</time>
      </trkpt>
      <trkpt lat="50.20761" lon="4.24614">
        <ele>186.80000305176</ele>
        <time>2025-01-04T08:47:51.000Z</time>
      </trkpt>
      <trkpt lat="50.20758" lon="4.24616">
        <ele>186</ele>
        <time>2025-01-04T08:47:52.000Z</time>
      </trkpt>
      <trkpt lat="50.20737" lon="4.24631">
        <ele>186.19999694824</ele>
        <time>2025-01-04T08:47:57.000Z</time>
      </trkpt>
      <trkpt lat="50.20728" lon="4.24636">
        <ele>186.19999694824</ele>
        <time>2025-01-04T08:47:59.000Z</time>
      </trkpt>
      <trkpt lat="50.20712" lon="4.24646">
        <ele>186.19999694824</ele>
        <time>2025-01-04T08:48:02.000Z</time>
      </trkpt>
      <trkpt lat="50.20678" lon="4.24665">
        <ele>186.39999389648</ele>
        <time>2025-01-04T08:48:10.000Z</time>
      </trkpt>
      <trkpt lat="50.20653" lon="4.24677">
        <ele>186.39999389648</ele>
        <time>2025-01-04T08:48:16.000Z</time>
      </trkpt>
      <trkpt lat="50.20645" lon="4.2468">
        <ele>186.60000610352</ele>
        <time>2025-01-04T08:48:18.000Z</time>
      </trkpt>
      <trkpt lat="50.20637" lon="4.24683">
        <ele>186.80000305176</ele>
        <time>2025-01-04T08:48:20.000Z</time>
      </trkpt>
      <trkpt lat="50.20626" lon="4.24687">
        <ele>187</ele>
        <time>2025-01-04T08:48:23.000Z</time>
      </trkpt>
      <trkpt lat="50.20617" lon="4.24689">
        <ele>187.19999694824</ele>
        <time>2025-01-04T08:48:25.000Z</time>
      </trkpt>
      <trkpt lat="50.20603" lon="4.24697">
        <ele>187.60000610352</ele>
        <time>2025-01-04T08:48:29.000Z</time>
      </trkpt>
      <trkpt lat="50.20592" lon="4.24695">
        <ele>188.39999389648</ele>
        <time>2025-01-04T08:48:32.000Z</time>
      </trkpt>
      <trkpt lat="50.20589" lon="4.24694">
        <ele>188.80000305176</ele>
        <time>2025-01-04T08:48:33.000Z</time>
      </trkpt>
      <trkpt lat="50.20586" lon="4.24692">
        <ele>189.60000610352</ele>
        <time>2025-01-04T08:48:34.000Z</time>
      </trkpt>
      <trkpt lat="50.20573" lon="4.24685">
        <ele>190.39999389648</ele>
        <time>2025-01-04T08:48:38.000Z</time>
      </trkpt>
      <trkpt lat="50.20565" lon="4.24671">
        <ele>190.80000305176</ele>
        <time>2025-01-04T08:48:41.000Z</time>
      </trkpt>
      <trkpt lat="50.20559" lon="4.24664">
        <ele>191.19999694824</ele>
        <time>2025-01-04T08:48:43.000Z</time>
      </trkpt>
      <trkpt lat="50.20549" lon="4.24639">
        <ele>191.60000610352</ele>
        <time>2025-01-04T08:48:48.000Z</time>
      </trkpt>
      <trkpt lat="50.20547" lon="4.24634">
        <ele>191.80000305176</ele>
        <time>2025-01-04T08:48:49.000Z</time>
      </trkpt>
      <trkpt lat="50.20546" lon="4.2463">
        <ele>191.80000305176</ele>
        <time>2025-01-04T08:48:50.000Z</time>
      </trkpt>
      <trkpt lat="50.20544" lon="4.24615">
        <ele>191.80000305176</ele>
        <time>2025-01-04T08:48:53.000Z</time>
      </trkpt>
      <trkpt lat="50.20538" lon="4.24587">
        <ele>191.80000305176</ele>
        <time>2025-01-04T08:48:59.000Z</time>
      </trkpt>
      <trkpt lat="50.2053" lon="4.24565">
        <ele>191.80000305176</ele>
        <time>2025-01-04T08:49:04.000Z</time>
      </trkpt>
      <trkpt lat="50.20522" lon="4.24531">
        <ele>192</ele>
        <time>2025-01-04T08:49:10.000Z</time>
      </trkpt>
      <trkpt lat="50.20516" lon="4.24513">
        <ele>192</ele>
        <time>2025-01-04T08:49:14.000Z</time>
      </trkpt>
      <trkpt lat="50.20514" lon="4.24508">
        <ele>192</ele>
        <time>2025-01-04T08:49:15.000Z</time>
      </trkpt>
      <trkpt lat="50.2051" lon="4.24499">
        <ele>192</ele>
        <time>2025-01-04T08:49:17.000Z</time>
      </trkpt>
      <trkpt lat="50.20503" lon="4.24488">
        <ele>192</ele>
        <time>2025-01-04T08:49:19.000Z</time>
      </trkpt>
      <trkpt lat="50.20495" lon="4.2448">
        <ele>192</ele>
        <time>2025-01-04T08:49:21.000Z</time>
      </trkpt>
      <trkpt lat="50.20487" lon="4.24477">
        <ele>191.60000610352</ele>
        <time>2025-01-04T08:49:23.000Z</time>
      </trkpt>
      <trkpt lat="50.20475" lon="4.24475">
        <ele>191.19999694824</ele>
        <time>2025-01-04T08:49:26.000Z</time>
      </trkpt>
      <trkpt lat="50.20471" lon="4.24475">
        <ele>191.19999694824</ele>
        <time>2025-01-04T08:49:27.000Z</time>
      </trkpt>
      <trkpt lat="50.20469" lon="4.24475">
        <ele>190.80000305176</ele>
        <time>2025-01-04T08:49:28.000Z</time>
      </trkpt>
      <trkpt lat="50.20464" lon="4.24476">
        <ele>190.39999389648</ele>
        <time>2025-01-04T08:49:29.000Z</time>
      </trkpt>
      <trkpt lat="50.20455" lon="4.2448">
        <ele>189.80000305176</ele>
        <time>2025-01-04T08:49:31.000Z</time>
      </trkpt>
      <trkpt lat="50.20449" lon="4.24486">
        <ele>189.39999389648</ele>
        <time>2025-01-04T08:49:33.000Z</time>
      </trkpt>
      <trkpt lat="50.20444" lon="4.24499">
        <ele>188.80000305176</ele>
        <time>2025-01-04T08:49:35.000Z</time>
      </trkpt>
      <trkpt lat="50.20441" lon="4.24506">
        <ele>188.39999389648</ele>
        <time>2025-01-04T08:49:36.000Z</time>
      </trkpt>
      <trkpt lat="50.20429" lon="4.24524">
        <ele>187.60000610352</ele>
        <time>2025-01-04T08:49:40.000Z</time>
      </trkpt>
      <trkpt lat="50.20426" lon="4.24527">
        <ele>187.19999694824</ele>
        <time>2025-01-04T08:49:41.000Z</time>
      </trkpt>
      <trkpt lat="50.20413" lon="4.24538">
        <ele>186.39999389648</ele>
        <time>2025-01-04T08:49:47.000Z</time>
      </trkpt>
      <trkpt lat="50.20411" lon="4.24539">
        <ele>186.19999694824</ele>
        <time>2025-01-04T08:49:48.000Z</time>
      </trkpt>
      <trkpt lat="50.20409" lon="4.24539">
        <ele>185.80000305176</ele>
        <time>2025-01-04T08:49:52.000Z</time>
      </trkpt>
      <trkpt lat="50.20409" lon="4.24539">
        <ele>185.60000610352</ele>
        <time>2025-01-04T08:50:18.000Z</time>
      </trkpt>
      <trkpt lat="50.20406" lon="4.24543">
        <ele>185.39999389648</ele>
        <time>2025-01-04T08:50:27.000Z</time>
      </trkpt>
      <trkpt lat="50.20405" lon="4.24546">
        <ele>185.39999389648</ele>
        <time>2025-01-04T08:50:30.000Z</time>
      </trkpt>
      <trkpt lat="50.20405" lon="4.24547">
        <ele>185.60000610352</ele>
        <time>2025-01-04T08:50:31.000Z</time>
      </trkpt>
      <trkpt lat="50.20404" lon="4.24548">
        <ele>185.60000610352</ele>
        <time>2025-01-04T08:50:36.000Z</time>
      </trkpt>
      <trkpt lat="50.20401" lon="4.24548">
        <ele>186</ele>
        <time>2025-01-04T08:50:40.000Z</time>
      </trkpt>
      <trkpt lat="50.20399" lon="4.24548">
        <ele>186</ele>
        <time>2025-01-04T08:50:41.000Z</time>
      </trkpt>
      <trkpt lat="50.20391" lon="4.24553">
        <ele>186.39999389648</ele>
        <time>2025-01-04T08:50:46.000Z</time>
      </trkpt>
      <trkpt lat="50.20387" lon="4.24559">
        <ele>186.39999389648</ele>
        <time>2025-01-04T08:50:48.000Z</time>
      </trkpt>
      <trkpt lat="50.20383" lon="4.24566">
        <ele>186.60000610352</ele>
        <time>2025-01-04T08:50:51.000Z</time>
      </trkpt>
      <trkpt lat="50.20382" lon="4.24569">
        <ele>186.60000610352</ele>
        <time>2025-01-04T08:50:52.000Z</time>
      </trkpt>
      <trkpt lat="50.20378" lon="4.24594">
        <ele>187.60000610352</ele>
        <time>2025-01-04T08:50:58.000Z</time>
      </trkpt>
      <trkpt lat="50.2037" lon="4.24614">
        <ele>188.60000610352</ele>
        <time>2025-01-04T08:51:02.000Z</time>
      </trkpt>
      <trkpt lat="50.20369" lon="4.24619">
        <ele>188.80000305176</ele>
        <time>2025-01-04T08:51:03.000Z</time>
      </trkpt>
      <trkpt lat="50.2036" lon="4.2464">
        <ele>189.60000610352</ele>
        <time>2025-01-04T08:51:08.000Z</time>
      </trkpt>
      <trkpt lat="50.20357" lon="4.24644">
        <ele>189.60000610352</ele>
        <time>2025-01-04T08:51:09.000Z</time>
      </trkpt>
      <trkpt lat="50.20339" lon="4.24666">
        <ele>189.80000305176</ele>
        <time>2025-01-04T08:51:15.000Z</time>
      </trkpt>
      <trkpt lat="50.2033" lon="4.24679">
        <ele>189.60000610352</ele>
        <time>2025-01-04T08:51:20.000Z</time>
      </trkpt>
      <trkpt lat="50.20307" lon="4.24699">
        <ele>189.19999694824</ele>
        <time>2025-01-04T08:51:27.000Z</time>
      </trkpt>
      <trkpt lat="50.2028" lon="4.24708">
        <ele>189.39999389648</ele>
        <time>2025-01-04T08:51:35.000Z</time>
      </trkpt>
      <trkpt lat="50.20277" lon="4.24706">
        <ele>189.60000610352</ele>
        <time>2025-01-04T08:51:37.000Z</time>
      </trkpt>
      <trkpt lat="50.20269" lon="4.24708">
        <ele>189.60000610352</ele>
        <time>2025-01-04T08:51:39.000Z</time>
      </trkpt>
      <trkpt lat="50.20256" lon="4.24724">
        <ele>189.80000305176</ele>
        <time>2025-01-04T08:51:44.000Z</time>
      </trkpt>
      <trkpt lat="50.20247" lon="4.24742">
        <ele>190</ele>
        <time>2025-01-04T08:51:48.000Z</time>
      </trkpt>
      <trkpt lat="50.20244" lon="4.24747">
        <ele>190</ele>
        <time>2025-01-04T08:51:49.000Z</time>
      </trkpt>
      <trkpt lat="50.20222" lon="4.24776">
        <ele>189.60000610352</ele>
        <time>2025-01-04T08:51:56.000Z</time>
      </trkpt>
      <trkpt lat="50.20212" lon="4.24793">
        <ele>189.39999389648</ele>
        <time>2025-01-04T08:52:01.000Z</time>
      </trkpt>
      <trkpt lat="50.20201" lon="4.24817">
        <ele>189.60000610352</ele>
        <time>2025-01-04T08:52:07.000Z</time>
      </trkpt>
      <trkpt lat="50.20195" lon="4.24834">
        <ele>190.39999389648</ele>
        <time>2025-01-04T08:52:12.000Z</time>
      </trkpt>
      <trkpt lat="50.20192" lon="4.24843">
        <ele>191</ele>
        <time>2025-01-04T08:52:15.000Z</time>
      </trkpt>
      <trkpt lat="50.2019" lon="4.24851">
        <ele>191.39999389648</ele>
        <time>2025-01-04T08:52:17.000Z</time>
      </trkpt>
      <trkpt lat="50.2019" lon="4.24866">
        <ele>192.19999694824</ele>
        <time>2025-01-04T08:52:21.000Z</time>
      </trkpt>
      <trkpt lat="50.2019" lon="4.24869">
        <ele>192.39999389648</ele>
        <time>2025-01-04T08:52:22.000Z</time>
      </trkpt>
      <trkpt lat="50.20189" lon="4.24875">
        <ele>193.39999389648</ele>
        <time>2025-01-04T08:52:25.000Z</time>
      </trkpt>
      <trkpt lat="50.2019" lon="4.24877">
        <ele>193.39999389648</ele>
        <time>2025-01-04T08:52:26.000Z</time>
      </trkpt>
      <trkpt lat="50.2019" lon="4.24879">
        <ele>193.80000305176</ele>
        <time>2025-01-04T08:52:27.000Z</time>
      </trkpt>
      <trkpt lat="50.20191" lon="4.24887">
        <ele>194.39999389648</ele>
        <time>2025-01-04T08:52:30.000Z</time>
      </trkpt>
      <trkpt lat="50.20191" lon="4.24891">
        <ele>194.60000610352</ele>
        <time>2025-01-04T08:52:31.000Z</time>
      </trkpt>
      <trkpt lat="50.20194" lon="4.24904">
        <ele>194.60000610352</ele>
        <time>2025-01-04T08:52:34.000Z</time>
      </trkpt>
      <trkpt lat="50.20203" lon="4.24933">
        <ele>194.60000610352</ele>
        <time>2025-01-04T08:52:40.000Z</time>
      </trkpt>
      <trkpt lat="50.20209" lon="4.24952">
        <ele>194.39999389648</ele>
        <time>2025-01-04T08:52:44.000Z</time>
      </trkpt>
      <trkpt lat="50.20224" lon="4.24993">
        <ele>194.19999694824</ele>
        <time>2025-01-04T08:52:51.000Z</time>
      </trkpt>
      <trkpt lat="50.20225" lon="4.25001">
        <ele>194.19999694824</ele>
        <time>2025-01-04T08:52:52.000Z</time>
      </trkpt>
      <trkpt lat="50.20228" lon="4.25014">
        <ele>194.19999694824</ele>
        <time>2025-01-04T08:52:54.000Z</time>
      </trkpt>
      <trkpt lat="50.20232" lon="4.2503">
        <ele>194</ele>
        <time>2025-01-04T08:52:56.000Z</time>
      </trkpt>
      <trkpt lat="50.20238" lon="4.2505">
        <ele>193.80000305176</ele>
        <time>2025-01-04T08:52:59.000Z</time>
      </trkpt>
      <trkpt lat="50.2025" lon="4.25088">
        <ele>194.39999389648</ele>
        <time>2025-01-04T08:53:05.000Z</time>
      </trkpt>
      <trkpt lat="50.2026" lon="4.25121">
        <ele>195.60000610352</ele>
        <time>2025-01-04T08:53:11.000Z</time>
      </trkpt>
      <trkpt lat="50.20262" lon="4.25127">
        <ele>195.80000305176</ele>
        <time>2025-01-04T08:53:12.000Z</time>
      </trkpt>
      <trkpt lat="50.20268" lon="4.25148">
        <ele>196.60000610352</ele>
        <time>2025-01-04T08:53:16.000Z</time>
      </trkpt>
      <trkpt lat="50.20271" lon="4.25158">
        <ele>197.19999694824</ele>
        <time>2025-01-04T08:53:18.000Z</time>
      </trkpt>
      <trkpt lat="50.20272" lon="4.25165">
        <ele>197.39999389648</ele>
        <time>2025-01-04T08:53:19.000Z</time>
      </trkpt>
      <trkpt lat="50.20273" lon="4.25171">
        <ele>197.60000610352</ele>
        <time>2025-01-04T08:53:20.000Z</time>
      </trkpt>
      <trkpt lat="50.20274" lon="4.25177">
        <ele>197.80000305176</ele>
        <time>2025-01-04T08:53:21.000Z</time>
      </trkpt>
      <trkpt lat="50.20275" lon="4.25211">
        <ele>198.39999389648</ele>
        <time>2025-01-04T08:53:26.000Z</time>
      </trkpt>
      <trkpt lat="50.20275" lon="4.2522">
        <ele>198.39999389648</ele>
        <time>2025-01-04T08:53:28.000Z</time>
      </trkpt>
      <trkpt lat="50.20276" lon="4.25236">
        <ele>198.39999389648</ele>
        <time>2025-01-04T08:53:31.000Z</time>
      </trkpt>
      <trkpt lat="50.20275" lon="4.25241">
        <ele>198.39999389648</ele>
        <time>2025-01-04T08:53:32.000Z</time>
      </trkpt>
      <trkpt lat="50.20273" lon="4.25247">
        <ele>198.39999389648</ele>
        <time>2025-01-04T08:53:33.000Z</time>
      </trkpt>
      <trkpt lat="50.20267" lon="4.25266">
        <ele>197.80000305176</ele>
        <time>2025-01-04T08:53:36.000Z</time>
      </trkpt>
      <trkpt lat="50.20265" lon="4.25271">
        <ele>197.60000610352</ele>
        <time>2025-01-04T08:53:37.000Z</time>
      </trkpt>
      <trkpt lat="50.20249" lon="4.25289">
        <ele>197.39999389648</ele>
        <time>2025-01-04T08:53:41.000Z</time>
      </trkpt>
      <trkpt lat="50.20246" lon="4.25294">
        <ele>197.39999389648</ele>
        <time>2025-01-04T08:53:42.000Z</time>
      </trkpt>
      <trkpt lat="50.20243" lon="4.25299">
        <ele>197.39999389648</ele>
        <time>2025-01-04T08:53:43.000Z</time>
      </trkpt>
      <trkpt lat="50.20222" lon="4.25331">
        <ele>196.19999694824</ele>
        <time>2025-01-04T08:53:48.000Z</time>
      </trkpt>
      <trkpt lat="50.20211" lon="4.25344">
        <ele>195.19999694824</ele>
        <time>2025-01-04T08:53:51.000Z</time>
      </trkpt>
      <trkpt lat="50.20208" lon="4.2535">
        <ele>195</ele>
        <time>2025-01-04T08:53:52.000Z</time>
      </trkpt>
      <trkpt lat="50.20205" lon="4.25353">
        <ele>194.60000610352</ele>
        <time>2025-01-04T08:53:53.000Z</time>
      </trkpt>
      <trkpt lat="50.20203" lon="4.25356">
        <ele>194.39999389648</ele>
        <time>2025-01-04T08:53:54.000Z</time>
      </trkpt>
      <trkpt lat="50.20196" lon="4.25365">
        <ele>194</ele>
        <time>2025-01-04T08:53:56.000Z</time>
      </trkpt>
      <trkpt lat="50.20188" lon="4.25377">
        <ele>193.60000610352</ele>
        <time>2025-01-04T08:53:58.000Z</time>
      </trkpt>
      <trkpt lat="50.20179" lon="4.25388">
        <ele>193.60000610352</ele>
        <time>2025-01-04T08:54:01.000Z</time>
      </trkpt>
      <trkpt lat="50.20173" lon="4.25396">
        <ele>193.60000610352</ele>
        <time>2025-01-04T08:54:03.000Z</time>
      </trkpt>
      <trkpt lat="50.20168" lon="4.25404">
        <ele>193.60000610352</ele>
        <time>2025-01-04T08:54:05.000Z</time>
      </trkpt>
      <trkpt lat="50.2016" lon="4.25416">
        <ele>193.60000610352</ele>
        <time>2025-01-04T08:54:07.000Z</time>
      </trkpt>
      <trkpt lat="50.20154" lon="4.25426">
        <ele>193.60000610352</ele>
        <time>2025-01-04T08:54:09.000Z</time>
      </trkpt>
      <trkpt lat="50.20146" lon="4.25434">
        <ele>193.60000610352</ele>
        <time>2025-01-04T08:54:11.000Z</time>
      </trkpt>
      <trkpt lat="50.20131" lon="4.25456">
        <ele>193.39999389648</ele>
        <time>2025-01-04T08:54:16.000Z</time>
      </trkpt>
      <trkpt lat="50.20126" lon="4.25468">
        <ele>193.60000610352</ele>
        <time>2025-01-04T08:54:18.000Z</time>
      </trkpt>
      <trkpt lat="50.20123" lon="4.25485">
        <ele>193.80000305176</ele>
        <time>2025-01-04T08:54:21.000Z</time>
      </trkpt>
      <trkpt lat="50.20124" lon="4.2549">
        <ele>194</ele>
        <time>2025-01-04T08:54:22.000Z</time>
      </trkpt>
      <trkpt lat="50.20125" lon="4.25511">
        <ele>194.80000305176</ele>
        <time>2025-01-04T08:54:26.000Z</time>
      </trkpt>
      <trkpt lat="50.20125" lon="4.25517">
        <ele>195</ele>
        <time>2025-01-04T08:54:27.000Z</time>
      </trkpt>
      <trkpt lat="50.20124" lon="4.25548">
        <ele>195.80000305176</ele>
        <time>2025-01-04T08:54:32.000Z</time>
      </trkpt>
      <trkpt lat="50.20125" lon="4.25551">
        <ele>196</ele>
        <time>2025-01-04T08:54:33.000Z</time>
      </trkpt>
      <trkpt lat="50.20129" lon="4.25576">
        <ele>197</ele>
        <time>2025-01-04T08:54:38.000Z</time>
      </trkpt>
      <trkpt lat="50.20124" lon="4.25598">
        <ele>198.39999389648</ele>
        <time>2025-01-04T08:54:41.000Z</time>
      </trkpt>
      <trkpt lat="50.20126" lon="4.25611">
        <ele>199</ele>
        <time>2025-01-04T08:54:44.000Z</time>
      </trkpt>
      <trkpt lat="50.20127" lon="4.25634">
        <ele>199.39999389648</ele>
        <time>2025-01-04T08:54:48.000Z</time>
      </trkpt>
      <trkpt lat="50.20128" lon="4.25639">
        <ele>199.39999389648</ele>
        <time>2025-01-04T08:54:49.000Z</time>
      </trkpt>
      <trkpt lat="50.2013" lon="4.25644">
        <ele>199.60000610352</ele>
        <time>2025-01-04T08:54:50.000Z</time>
      </trkpt>
      <trkpt lat="50.20134" lon="4.25664">
        <ele>200.39999389648</ele>
        <time>2025-01-04T08:54:53.000Z</time>
      </trkpt>
      <trkpt lat="50.20137" lon="4.25688">
        <ele>201.60000610352</ele>
        <time>2025-01-04T08:54:57.000Z</time>
      </trkpt>
      <trkpt lat="50.20139" lon="4.25697">
        <ele>202.19999694824</ele>
        <time>2025-01-04T08:55:01.000Z</time>
      </trkpt>
      <trkpt lat="50.20139" lon="4.25698">
        <ele>202.39999389648</ele>
        <time>2025-01-04T08:55:02.000Z</time>
      </trkpt>
      <trkpt lat="50.20139" lon="4.25708">
        <ele>203.19999694824</ele>
        <time>2025-01-04T08:55:07.000Z</time>
      </trkpt>
      <trkpt lat="50.2014" lon="4.25713">
        <ele>203.19999694824</ele>
        <time>2025-01-04T08:55:09.000Z</time>
      </trkpt>
      <trkpt lat="50.20143" lon="4.25719">
        <ele>203.60000610352</ele>
        <time>2025-01-04T08:55:12.000Z</time>
      </trkpt>
      <trkpt lat="50.20149" lon="4.25741">
        <ele>204.19999694824</ele>
        <time>2025-01-04T08:55:18.000Z</time>
      </trkpt>
      <trkpt lat="50.20151" lon="4.25751">
        <ele>204.60000610352</ele>
        <time>2025-01-04T08:55:20.000Z</time>
      </trkpt>
      <trkpt lat="50.20151" lon="4.25759">
        <ele>204.80000305176</ele>
        <time>2025-01-04T08:55:22.000Z</time>
      </trkpt>
      <trkpt lat="50.20151" lon="4.25767">
        <ele>205</ele>
        <time>2025-01-04T08:55:24.000Z</time>
      </trkpt>
      <trkpt lat="50.20159" lon="4.25806">
        <ele>205.39999389648</ele>
        <time>2025-01-04T08:55:32.000Z</time>
      </trkpt>
      <trkpt lat="50.20164" lon="4.25835">
        <ele>206.60000610352</ele>
        <time>2025-01-04T08:55:37.000Z</time>
      </trkpt>
      <trkpt lat="50.20166" lon="4.25848">
        <ele>207</ele>
        <time>2025-01-04T08:55:39.000Z</time>
      </trkpt>
      <trkpt lat="50.20171" lon="4.25864">
        <ele>207.60000610352</ele>
        <time>2025-01-04T08:55:42.000Z</time>
      </trkpt>
      <trkpt lat="50.20171" lon="4.25871">
        <ele>207.80000305176</ele>
        <time>2025-01-04T08:55:43.000Z</time>
      </trkpt>
      <trkpt lat="50.20179" lon="4.259">
        <ele>208.60000610352</ele>
        <time>2025-01-04T08:55:49.000Z</time>
      </trkpt>
      <trkpt lat="50.2018" lon="4.25905">
        <ele>208.80000305176</ele>
        <time>2025-01-04T08:55:50.000Z</time>
      </trkpt>
      <trkpt lat="50.20184" lon="4.25932">
        <ele>209.39999389648</ele>
        <time>2025-01-04T08:55:55.000Z</time>
      </trkpt>
      <trkpt lat="50.20186" lon="4.25941">
        <ele>209.80000305176</ele>
        <time>2025-01-04T08:55:57.000Z</time>
      </trkpt>
      <trkpt lat="50.20191" lon="4.25965">
        <ele>210.80000305176</ele>
        <time>2025-01-04T08:56:01.000Z</time>
      </trkpt>
      <trkpt lat="50.20193" lon="4.2597">
        <ele>211</ele>
        <time>2025-01-04T08:56:02.000Z</time>
      </trkpt>
      <trkpt lat="50.20203" lon="4.25993">
        <ele>212</ele>
        <time>2025-01-04T08:56:07.000Z</time>
      </trkpt>
      <trkpt lat="50.20206" lon="4.25997">
        <ele>212.19999694824</ele>
        <time>2025-01-04T08:56:08.000Z</time>
      </trkpt>
      <trkpt lat="50.20211" lon="4.2601">
        <ele>213.39999389648</ele>
        <time>2025-01-04T08:56:11.000Z</time>
      </trkpt>
      <trkpt lat="50.20221" lon="4.26024">
        <ele>214.39999389648</ele>
        <time>2025-01-04T08:56:15.000Z</time>
      </trkpt>
      <trkpt lat="50.20222" lon="4.26027">
        <ele>214.60000610352</ele>
        <time>2025-01-04T08:56:16.000Z</time>
      </trkpt>
      <trkpt lat="50.20232" lon="4.26043">
        <ele>215.60000610352</ele>
        <time>2025-01-04T08:56:20.000Z</time>
      </trkpt>
      <trkpt lat="50.20237" lon="4.26051">
        <ele>216</ele>
        <time>2025-01-04T08:56:22.000Z</time>
      </trkpt>
      <trkpt lat="50.20245" lon="4.26057">
        <ele>216.80000305176</ele>
        <time>2025-01-04T08:56:25.000Z</time>
      </trkpt>
      <trkpt lat="50.20253" lon="4.2606">
        <ele>218</ele>
        <time>2025-01-04T08:56:28.000Z</time>
      </trkpt>
      <trkpt lat="50.20256" lon="4.2606">
        <ele>218.39999389648</ele>
        <time>2025-01-04T08:56:29.000Z</time>
      </trkpt>
      <trkpt lat="50.20269" lon="4.26061">
        <ele>219.19999694824</ele>
        <time>2025-01-04T08:56:33.000Z</time>
      </trkpt>
      <trkpt lat="50.20274" lon="4.26062">
        <ele>219.60000610352</ele>
        <time>2025-01-04T08:56:35.000Z</time>
      </trkpt>
      <trkpt lat="50.20279" lon="4.26062">
        <ele>220.19999694824</ele>
        <time>2025-01-04T08:56:37.000Z</time>
      </trkpt>
      <trkpt lat="50.20292" lon="4.26064">
        <ele>221.39999389648</ele>
        <time>2025-01-04T08:56:41.000Z</time>
      </trkpt>
      <trkpt lat="50.20318" lon="4.26069">
        <ele>222.19999694824</ele>
        <time>2025-01-04T08:56:49.000Z</time>
      </trkpt>
      <trkpt lat="50.20321" lon="4.26071">
        <ele>222.60000610352</ele>
        <time>2025-01-04T08:56:50.000Z</time>
      </trkpt>
      <trkpt lat="50.20342" lon="4.2608">
        <ele>223.60000610352</ele>
        <time>2025-01-04T08:56:56.000Z</time>
      </trkpt>
      <trkpt lat="50.20345" lon="4.26082">
        <ele>223.60000610352</ele>
        <time>2025-01-04T08:56:57.000Z</time>
      </trkpt>
      <trkpt lat="50.20366" lon="4.26101">
        <ele>224.60000610352</ele>
        <time>2025-01-04T08:57:05.000Z</time>
      </trkpt>
      <trkpt lat="50.20376" lon="4.26113">
        <ele>225.19999694824</ele>
        <time>2025-01-04T08:57:09.000Z</time>
      </trkpt>
      <trkpt lat="50.20382" lon="4.2612">
        <ele>225.60000610352</ele>
        <time>2025-01-04T08:57:12.000Z</time>
      </trkpt>
      <trkpt lat="50.20385" lon="4.26124">
        <ele>226.39999389648</ele>
        <time>2025-01-04T08:57:14.000Z</time>
      </trkpt>
      <trkpt lat="50.20387" lon="4.26125">
        <ele>226.80000305176</ele>
        <time>2025-01-04T08:57:15.000Z</time>
      </trkpt>
      <trkpt lat="50.20396" lon="4.26122">
        <ele>227.80000305176</ele>
        <time>2025-01-04T08:57:19.000Z</time>
      </trkpt>
      <trkpt lat="50.20399" lon="4.26118">
        <ele>228.19999694824</ele>
        <time>2025-01-04T08:57:21.000Z</time>
      </trkpt>
      <trkpt lat="50.20408" lon="4.26107">
        <ele>229.60000610352</ele>
        <time>2025-01-04T08:57:26.000Z</time>
      </trkpt>
      <trkpt lat="50.20419" lon="4.26092">
        <ele>230.80000305176</ele>
        <time>2025-01-04T08:57:32.000Z</time>
      </trkpt>
      <trkpt lat="50.20425" lon="4.26084">
        <ele>231.19999694824</ele>
        <time>2025-01-04T08:57:35.000Z</time>
      </trkpt>
      <trkpt lat="50.20431" lon="4.26076">
        <ele>231.80000305176</ele>
        <time>2025-01-04T08:57:38.000Z</time>
      </trkpt>
      <trkpt lat="50.20441" lon="4.26063">
        <ele>232.80000305176</ele>
        <time>2025-01-04T08:57:43.000Z</time>
      </trkpt>
      <trkpt lat="50.20444" lon="4.2606">
        <ele>233.19999694824</ele>
        <time>2025-01-04T08:57:44.000Z</time>
      </trkpt>
      <trkpt lat="50.20454" lon="4.26046">
        <ele>234.19999694824</ele>
        <time>2025-01-04T08:57:49.000Z</time>
      </trkpt>
      <trkpt lat="50.20461" lon="4.26037">
        <ele>235.19999694824</ele>
        <time>2025-01-04T08:57:52.000Z</time>
      </trkpt>
      <trkpt lat="50.20463" lon="4.26035">
        <ele>235.60000610352</ele>
        <time>2025-01-04T08:57:53.000Z</time>
      </trkpt>
      <trkpt lat="50.20472" lon="4.26023">
        <ele>236.60000610352</ele>
        <time>2025-01-04T08:57:57.000Z</time>
      </trkpt>
      <trkpt lat="50.20483" lon="4.26009">
        <ele>237.60000610352</ele>
        <time>2025-01-04T08:58:02.000Z</time>
      </trkpt>
      <trkpt lat="50.20494" lon="4.25996">
        <ele>238.60000610352</ele>
        <time>2025-01-04T08:58:07.000Z</time>
      </trkpt>
      <trkpt lat="50.20503" lon="4.25984">
        <ele>239.80000305176</ele>
        <time>2025-01-04T08:58:11.000Z</time>
      </trkpt>
      <trkpt lat="50.20508" lon="4.25978">
        <ele>240.39999389648</ele>
        <time>2025-01-04T08:58:13.000Z</time>
      </trkpt>
      <trkpt lat="50.20513" lon="4.25972">
        <ele>241</ele>
        <time>2025-01-04T08:58:15.000Z</time>
      </trkpt>
      <trkpt lat="50.20525" lon="4.25957">
        <ele>242.19999694824</ele>
        <time>2025-01-04T08:58:20.000Z</time>
      </trkpt>
      <trkpt lat="50.20539" lon="4.25938">
        <ele>243.60000610352</ele>
        <time>2025-01-04T08:58:26.000Z</time>
      </trkpt>
      <trkpt lat="50.20553" lon="4.2592">
        <ele>244.80000305176</ele>
        <time>2025-01-04T08:58:32.000Z</time>
      </trkpt>
      <trkpt lat="50.20568" lon="4.25901">
        <ele>245.80000305176</ele>
        <time>2025-01-04T08:58:38.000Z</time>
      </trkpt>
      <trkpt lat="50.20574" lon="4.25894">
        <ele>246</ele>
        <time>2025-01-04T08:58:40.000Z</time>
      </trkpt>
      <trkpt lat="50.20599" lon="4.25869">
        <ele>246.39999389648</ele>
        <time>2025-01-04T08:58:48.000Z</time>
      </trkpt>
      <trkpt lat="50.20615" lon="4.25862">
        <ele>246.60000610352</ele>
        <time>2025-01-04T08:58:53.000Z</time>
      </trkpt>
      <trkpt lat="50.20618" lon="4.25865">
        <ele>246.60000610352</ele>
        <time>2025-01-04T08:58:54.000Z</time>
      </trkpt>
      <trkpt lat="50.2062" lon="4.2587">
        <ele>246.60000610352</ele>
        <time>2025-01-04T08:58:55.000Z</time>
      </trkpt>
      <trkpt lat="50.20622" lon="4.25881">
        <ele>246.60000610352</ele>
        <time>2025-01-04T08:58:57.000Z</time>
      </trkpt>
      <trkpt lat="50.2063" lon="4.25931">
        <ele>246.19999694824</ele>
        <time>2025-01-04T08:59:05.000Z</time>
      </trkpt>
      <trkpt lat="50.20642" lon="4.25994">
        <ele>245.39999389648</ele>
        <time>2025-01-04T08:59:15.000Z</time>
      </trkpt>
      <trkpt lat="50.20646" lon="4.26025">
        <ele>245</ele>
        <time>2025-01-04T08:59:20.000Z</time>
      </trkpt>
      <trkpt lat="50.2065" lon="4.26045">
        <ele>244.80000305176</ele>
        <time>2025-01-04T08:59:23.000Z</time>
      </trkpt>
      <trkpt lat="50.2066" lon="4.26098">
        <ele>244</ele>
        <time>2025-01-04T08:59:31.000Z</time>
      </trkpt>
      <trkpt lat="50.20661" lon="4.26104">
        <ele>244</ele>
        <time>2025-01-04T08:59:32.000Z</time>
      </trkpt>
      <trkpt lat="50.2067" lon="4.26146">
        <ele>243.19999694824</ele>
        <time>2025-01-04T08:59:39.000Z</time>
      </trkpt>
      <trkpt lat="50.20672" lon="4.26158">
        <ele>243</ele>
        <time>2025-01-04T08:59:41.000Z</time>
      </trkpt>
      <trkpt lat="50.20677" lon="4.26174">
        <ele>242.80000305176</ele>
        <time>2025-01-04T08:59:44.000Z</time>
      </trkpt>
      <trkpt lat="50.20696" lon="4.26197">
        <ele>242.19999694824</ele>
        <time>2025-01-04T08:59:50.000Z</time>
      </trkpt>
      <trkpt lat="50.20701" lon="4.26201">
        <ele>241.80000305176</ele>
        <time>2025-01-04T08:59:52.000Z</time>
      </trkpt>
      <trkpt lat="50.20706" lon="4.26206">
        <ele>241.60000610352</ele>
        <time>2025-01-04T08:59:55.000Z</time>
      </trkpt>
      <trkpt lat="50.20708" lon="4.26208">
        <ele>241.60000610352</ele>
        <time>2025-01-04T08:59:56.000Z</time>
      </trkpt>
      <trkpt lat="50.20712" lon="4.26226">
        <ele>241.19999694824</ele>
        <time>2025-01-04T09:00:01.000Z</time>
      </trkpt>
      <trkpt lat="50.20708" lon="4.26249">
        <ele>241.19999694824</ele>
        <time>2025-01-04T09:00:08.000Z</time>
      </trkpt>
      <trkpt lat="50.20701" lon="4.26279">
        <ele>241.19999694824</ele>
        <time>2025-01-04T09:00:18.000Z</time>
      </trkpt>
      <trkpt lat="50.20695" lon="4.26311">
        <ele>241.19999694824</ele>
        <time>2025-01-04T09:00:26.000Z</time>
      </trkpt>
      <trkpt lat="50.20686" lon="4.26345">
        <ele>241.60000610352</ele>
        <time>2025-01-04T09:00:34.000Z</time>
      </trkpt>
      <trkpt lat="50.20675" lon="4.2637">
        <ele>242</ele>
        <time>2025-01-04T09:00:41.000Z</time>
      </trkpt>
      <trkpt lat="50.20647" lon="4.26393">
        <ele>242</ele>
        <time>2025-01-04T09:00:51.000Z</time>
      </trkpt>
      <trkpt lat="50.20633" lon="4.26407">
        <ele>243.19999694824</ele>
        <time>2025-01-04T09:00:56.000Z</time>
      </trkpt>
      <trkpt lat="50.20627" lon="4.26412">
        <ele>243.39999389648</ele>
        <time>2025-01-04T09:00:58.000Z</time>
      </trkpt>
      <trkpt lat="50.20595" lon="4.26434">
        <ele>244</ele>
        <time>2025-01-04T09:01:08.000Z</time>
      </trkpt>
      <trkpt lat="50.20585" lon="4.2644">
        <ele>244.39999389648</ele>
        <time>2025-01-04T09:01:11.000Z</time>
      </trkpt>
      <trkpt lat="50.20562" lon="4.26454">
        <ele>244.80000305176</ele>
        <time>2025-01-04T09:01:18.000Z</time>
      </trkpt>
      <trkpt lat="50.20535" lon="4.26469">
        <ele>245.39999389648</ele>
        <time>2025-01-04T09:01:26.000Z</time>
      </trkpt>
      <trkpt lat="50.20529" lon="4.26474">
        <ele>245.60000610352</ele>
        <time>2025-01-04T09:01:28.000Z</time>
      </trkpt>
      <trkpt lat="50.20505" lon="4.26487">
        <ele>246</ele>
        <time>2025-01-04T09:01:35.000Z</time>
      </trkpt>
      <trkpt lat="50.20477" lon="4.26501">
        <ele>246.39999389648</ele>
        <time>2025-01-04T09:01:43.000Z</time>
      </trkpt>
      <trkpt lat="50.20473" lon="4.26504">
        <ele>246.39999389648</ele>
        <time>2025-01-04T09:01:44.000Z</time>
      </trkpt>
      <trkpt lat="50.20458" lon="4.26513">
        <ele>246.60000610352</ele>
        <time>2025-01-04T09:01:48.000Z</time>
      </trkpt>
      <trkpt lat="50.20426" lon="4.26533">
        <ele>246.60000610352</ele>
        <time>2025-01-04T09:01:57.000Z</time>
      </trkpt>
      <trkpt lat="50.20394" lon="4.26557">
        <ele>245.60000610352</ele>
        <time>2025-01-04T09:02:06.000Z</time>
      </trkpt>
      <trkpt lat="50.20365" lon="4.26582">
        <ele>244.80000305176</ele>
        <time>2025-01-04T09:02:15.000Z</time>
      </trkpt>
      <trkpt lat="50.20357" lon="4.2659">
        <ele>244.60000610352</ele>
        <time>2025-01-04T09:02:17.000Z</time>
      </trkpt>
      <trkpt lat="50.20337" lon="4.2661">
        <ele>244</ele>
        <time>2025-01-04T09:02:22.000Z</time>
      </trkpt>
      <trkpt lat="50.20329" lon="4.26621">
        <ele>243.39999389648</ele>
        <time>2025-01-04T09:02:24.000Z</time>
      </trkpt>
      <trkpt lat="50.20322" lon="4.26635">
        <ele>242.60000610352</ele>
        <time>2025-01-04T09:02:26.000Z</time>
      </trkpt>
      <trkpt lat="50.20319" lon="4.26643">
        <ele>242.19999694824</ele>
        <time>2025-01-04T09:02:27.000Z</time>
      </trkpt>
      <trkpt lat="50.2031" lon="4.26663">
        <ele>241.19999694824</ele>
        <time>2025-01-04T09:02:30.000Z</time>
      </trkpt>
      <trkpt lat="50.20304" lon="4.2668">
        <ele>240</ele>
        <time>2025-01-04T09:02:32.000Z</time>
      </trkpt>
      <trkpt lat="50.20295" lon="4.26704">
        <ele>239.19999694824</ele>
        <time>2025-01-04T09:02:35.000Z</time>
      </trkpt>
      <trkpt lat="50.20292" lon="4.26712">
        <ele>238.60000610352</ele>
        <time>2025-01-04T09:02:36.000Z</time>
      </trkpt>
      <trkpt lat="50.20278" lon="4.26749">
        <ele>237.39999389648</ele>
        <time>2025-01-04T09:02:40.000Z</time>
      </trkpt>
      <trkpt lat="50.20272" lon="4.26768">
        <ele>236</ele>
        <time>2025-01-04T09:02:42.000Z</time>
      </trkpt>
      <trkpt lat="50.20262" lon="4.26799">
        <ele>234.39999389648</ele>
        <time>2025-01-04T09:02:45.000Z</time>
      </trkpt>
      <trkpt lat="50.2026" lon="4.26809">
        <ele>234</ele>
        <time>2025-01-04T09:02:46.000Z</time>
      </trkpt>
      <trkpt lat="50.20257" lon="4.26819">
        <ele>233.19999694824</ele>
        <time>2025-01-04T09:02:47.000Z</time>
      </trkpt>
      <trkpt lat="50.20251" lon="4.26849">
        <ele>232.19999694824</ele>
        <time>2025-01-04T09:02:50.000Z</time>
      </trkpt>
      <trkpt lat="50.20248" lon="4.26869">
        <ele>231</ele>
        <time>2025-01-04T09:02:52.000Z</time>
      </trkpt>
      <trkpt lat="50.20244" lon="4.26903">
        <ele>230</ele>
        <time>2025-01-04T09:02:56.000Z</time>
      </trkpt>
      <trkpt lat="50.20242" lon="4.2691">
        <ele>229.19999694824</ele>
        <time>2025-01-04T09:02:57.000Z</time>
      </trkpt>
      <trkpt lat="50.20241" lon="4.26918">
        <ele>228.80000305176</ele>
        <time>2025-01-04T09:02:58.000Z</time>
      </trkpt>
      <trkpt lat="50.20237" lon="4.26932">
        <ele>227.80000305176</ele>
        <time>2025-01-04T09:03:00.000Z</time>
      </trkpt>
      <trkpt lat="50.2023" lon="4.26945">
        <ele>227</ele>
        <time>2025-01-04T09:03:02.000Z</time>
      </trkpt>
      <trkpt lat="50.20222" lon="4.26958">
        <ele>226.60000610352</ele>
        <time>2025-01-04T09:03:04.000Z</time>
      </trkpt>
      <trkpt lat="50.2021" lon="4.26979">
        <ele>225.19999694824</ele>
        <time>2025-01-04T09:03:07.000Z</time>
      </trkpt>
      <trkpt lat="50.202" lon="4.26991">
        <ele>224</ele>
        <time>2025-01-04T09:03:09.000Z</time>
      </trkpt>
      <trkpt lat="50.20194" lon="4.26996">
        <ele>222.60000610352</ele>
        <time>2025-01-04T09:03:10.000Z</time>
      </trkpt>
      <trkpt lat="50.20182" lon="4.27004">
        <ele>221.19999694824</ele>
        <time>2025-01-04T09:03:12.000Z</time>
      </trkpt>
      <trkpt lat="50.20177" lon="4.27007">
        <ele>220.60000610352</ele>
        <time>2025-01-04T09:03:13.000Z</time>
      </trkpt>
      <trkpt lat="50.20172" lon="4.27009">
        <ele>220.19999694824</ele>
        <time>2025-01-04T09:03:14.000Z</time>
      </trkpt>
      <trkpt lat="50.20162" lon="4.27012">
        <ele>219</ele>
        <time>2025-01-04T09:03:16.000Z</time>
      </trkpt>
      <trkpt lat="50.20153" lon="4.27016">
        <ele>218.39999389648</ele>
        <time>2025-01-04T09:03:18.000Z</time>
      </trkpt>
      <trkpt lat="50.20129" lon="4.27027">
        <ele>218.19999694824</ele>
        <time>2025-01-04T09:03:23.000Z</time>
      </trkpt>
      <trkpt lat="50.20122" lon="4.27034">
        <ele>218.39999389648</ele>
        <time>2025-01-04T09:03:25.000Z</time>
      </trkpt>
      <trkpt lat="50.20107" lon="4.27054">
        <ele>220</ele>
        <time>2025-01-04T09:03:30.000Z</time>
      </trkpt>
      <trkpt lat="50.20104" lon="4.27058">
        <ele>220.39999389648</ele>
        <time>2025-01-04T09:03:31.000Z</time>
      </trkpt>
      <trkpt lat="50.20101" lon="4.27061">
        <ele>221.19999694824</ele>
        <time>2025-01-04T09:03:32.000Z</time>
      </trkpt>
      <trkpt lat="50.20095" lon="4.27067">
        <ele>222.39999389648</ele>
        <time>2025-01-04T09:03:34.000Z</time>
      </trkpt>
      <trkpt lat="50.20086" lon="4.27077">
        <ele>224.39999389648</ele>
        <time>2025-01-04T09:03:37.000Z</time>
      </trkpt>
      <trkpt lat="50.2008" lon="4.27084">
        <ele>225.60000610352</ele>
        <time>2025-01-04T09:03:39.000Z</time>
      </trkpt>
      <trkpt lat="50.20068" lon="4.27099">
        <ele>226.60000610352</ele>
        <time>2025-01-04T09:03:43.000Z</time>
      </trkpt>
      <trkpt lat="50.20057" lon="4.27115">
        <ele>227.60000610352</ele>
        <time>2025-01-04T09:03:47.000Z</time>
      </trkpt>
      <trkpt lat="50.20052" lon="4.27123">
        <ele>228.19999694824</ele>
        <time>2025-01-04T09:03:49.000Z</time>
      </trkpt>
      <trkpt lat="50.20041" lon="4.2714">
        <ele>228.80000305176</ele>
        <time>2025-01-04T09:03:53.000Z</time>
      </trkpt>
      <trkpt lat="50.20025" lon="4.27165">
        <ele>229.39999389648</ele>
        <time>2025-01-04T09:03:59.000Z</time>
      </trkpt>
      <trkpt lat="50.20019" lon="4.27173">
        <ele>230</ele>
        <time>2025-01-04T09:04:01.000Z</time>
      </trkpt>
      <trkpt lat="50.20011" lon="4.27184">
        <ele>231</ele>
        <time>2025-01-04T09:04:04.000Z</time>
      </trkpt>
      <trkpt lat="50.19998" lon="4.27202">
        <ele>232.19999694824</ele>
        <time>2025-01-04T09:04:09.000Z</time>
      </trkpt>
      <trkpt lat="50.19982" lon="4.27222">
        <ele>233.19999694824</ele>
        <time>2025-01-04T09:04:15.000Z</time>
      </trkpt>
      <trkpt lat="50.19979" lon="4.27225">
        <ele>233.80000305176</ele>
        <time>2025-01-04T09:04:16.000Z</time>
      </trkpt>
      <trkpt lat="50.19973" lon="4.27231">
        <ele>234.60000610352</ele>
        <time>2025-01-04T09:04:18.000Z</time>
      </trkpt>
      <trkpt lat="50.19962" lon="4.27243">
        <ele>235.60000610352</ele>
        <time>2025-01-04T09:04:22.000Z</time>
      </trkpt>
      <trkpt lat="50.19951" lon="4.27253">
        <ele>236.39999389648</ele>
        <time>2025-01-04T09:04:26.000Z</time>
      </trkpt>
      <trkpt lat="50.19942" lon="4.2726">
        <ele>237</ele>
        <time>2025-01-04T09:04:29.000Z</time>
      </trkpt>
      <trkpt lat="50.19929" lon="4.27266">
        <ele>238.39999389648</ele>
        <time>2025-01-04T09:04:33.000Z</time>
      </trkpt>
      <trkpt lat="50.19923" lon="4.27268">
        <ele>238.80000305176</ele>
        <time>2025-01-04T09:04:35.000Z</time>
      </trkpt>
      <trkpt lat="50.19914" lon="4.27272">
        <ele>239.80000305176</ele>
        <time>2025-01-04T09:04:38.000Z</time>
      </trkpt>
      <trkpt lat="50.19899" lon="4.27281">
        <ele>241</ele>
        <time>2025-01-04T09:04:43.000Z</time>
      </trkpt>
      <trkpt lat="50.19896" lon="4.27283">
        <ele>241.19999694824</ele>
        <time>2025-01-04T09:04:44.000Z</time>
      </trkpt>
      <trkpt lat="50.19881" lon="4.27293">
        <ele>242</ele>
        <time>2025-01-04T09:04:49.000Z</time>
      </trkpt>
      <trkpt lat="50.19866" lon="4.27303">
        <ele>243.19999694824</ele>
        <time>2025-01-04T09:04:54.000Z</time>
      </trkpt>
      <trkpt lat="50.19847" lon="4.27314">
        <ele>244.80000305176</ele>
        <time>2025-01-04T09:05:00.000Z</time>
      </trkpt>
      <trkpt lat="50.1984" lon="4.27317">
        <ele>245.19999694824</ele>
        <time>2025-01-04T09:05:02.000Z</time>
      </trkpt>
      <trkpt lat="50.19834" lon="4.27321">
        <ele>245.80000305176</ele>
        <time>2025-01-04T09:05:04.000Z</time>
      </trkpt>
      <trkpt lat="50.19811" lon="4.27332">
        <ele>246.80000305176</ele>
        <time>2025-01-04T09:05:11.000Z</time>
      </trkpt>
      <trkpt lat="50.19802" lon="4.27334">
        <ele>248</ele>
        <time>2025-01-04T09:05:14.000Z</time>
      </trkpt>
      <trkpt lat="50.19792" lon="4.27339">
        <ele>249</ele>
        <time>2025-01-04T09:05:18.000Z</time>
      </trkpt>
      <trkpt lat="50.19783" lon="4.27339">
        <ele>250</ele>
        <time>2025-01-04T09:05:23.000Z</time>
      </trkpt>
      <trkpt lat="50.19783" lon="4.27339">
        <ele>250.19999694824</ele>
        <time>2025-01-04T09:05:24.000Z</time>
      </trkpt>
      <trkpt lat="50.19781" lon="4.27339">
        <ele>250.39999389648</ele>
        <time>2025-01-04T09:05:40.000Z</time>
      </trkpt>
      <trkpt lat="50.19768" lon="4.27337">
        <ele>250.80000305176</ele>
        <time>2025-01-04T09:05:45.000Z</time>
      </trkpt>
      <trkpt lat="50.19747" lon="4.27337">
        <ele>251.39999389648</ele>
        <time>2025-01-04T09:05:52.000Z</time>
      </trkpt>
      <trkpt lat="50.19741" lon="4.27337">
        <ele>251.60000610352</ele>
        <time>2025-01-04T09:05:54.000Z</time>
      </trkpt>
      <trkpt lat="50.1971" lon="4.27336">
        <ele>251.80000305176</ele>
        <time>2025-01-04T09:06:04.000Z</time>
      </trkpt>
      <trkpt lat="50.19679" lon="4.27334">
        <ele>252</ele>
        <time>2025-01-04T09:06:13.000Z</time>
      </trkpt>
      <trkpt lat="50.19653" lon="4.27328">
        <ele>252.19999694824</ele>
        <time>2025-01-04T09:06:21.000Z</time>
      </trkpt>
      <trkpt lat="50.19645" lon="4.27322">
        <ele>252.19999694824</ele>
        <time>2025-01-04T09:06:26.000Z</time>
      </trkpt>
      <trkpt lat="50.19637" lon="4.27308">
        <ele>251.60000610352</ele>
        <time>2025-01-04T09:06:32.000Z</time>
      </trkpt>
      <trkpt lat="50.19624" lon="4.27296">
        <ele>250.19999694824</ele>
        <time>2025-01-04T09:06:39.000Z</time>
      </trkpt>
      <trkpt lat="50.19612" lon="4.27282">
        <ele>249.19999694824</ele>
        <time>2025-01-04T09:06:45.000Z</time>
      </trkpt>
      <trkpt lat="50.1961" lon="4.2728">
        <ele>249</ele>
        <time>2025-01-04T09:06:46.000Z</time>
      </trkpt>
      <trkpt lat="50.19604" lon="4.27271">
        <ele>248.39999389648</ele>
        <time>2025-01-04T09:06:51.000Z</time>
      </trkpt>
      <trkpt lat="50.19599" lon="4.27262">
        <ele>248</ele>
        <time>2025-01-04T09:06:55.000Z</time>
      </trkpt>
      <trkpt lat="50.19596" lon="4.27258">
        <ele>247.60000610352</ele>
        <time>2025-01-04T09:06:57.000Z</time>
      </trkpt>
      <trkpt lat="50.19588" lon="4.27244">
        <ele>246.80000305176</ele>
        <time>2025-01-04T09:07:03.000Z</time>
      </trkpt>
      <trkpt lat="50.19587" lon="4.27242">
        <ele>246.80000305176</ele>
        <time>2025-01-04T09:07:04.000Z</time>
      </trkpt>
      <trkpt lat="50.1958" lon="4.27231">
        <ele>245.60000610352</ele>
        <time>2025-01-04T09:07:09.000Z</time>
      </trkpt>
      <trkpt lat="50.19571" lon="4.27218">
        <ele>244.60000610352</ele>
        <time>2025-01-04T09:07:15.000Z</time>
      </trkpt>
      <trkpt lat="50.19569" lon="4.27217">
        <ele>244.60000610352</ele>
        <time>2025-01-04T09:07:16.000Z</time>
      </trkpt>
      <trkpt lat="50.1956" lon="4.27204">
        <ele>243.60000610352</ele>
        <time>2025-01-04T09:07:21.000Z</time>
      </trkpt>
      <trkpt lat="50.19557" lon="4.27201">
        <ele>243.39999389648</ele>
        <time>2025-01-04T09:07:22.000Z</time>
      </trkpt>
      <trkpt lat="50.1955" lon="4.27185">
        <ele>242.39999389648</ele>
        <time>2025-01-04T09:07:27.000Z</time>
      </trkpt>
      <trkpt lat="50.19543" lon="4.27174">
        <ele>241.19999694824</ele>
        <time>2025-01-04T09:07:30.000Z</time>
      </trkpt>
      <trkpt lat="50.19536" lon="4.27165">
        <ele>240.39999389648</ele>
        <time>2025-01-04T09:07:33.000Z</time>
      </trkpt>
      <trkpt lat="50.19535" lon="4.27162">
        <ele>240.19999694824</ele>
        <time>2025-01-04T09:07:34.000Z</time>
      </trkpt>
      <trkpt lat="50.19524" lon="4.27144">
        <ele>239</ele>
        <time>2025-01-04T09:07:40.000Z</time>
      </trkpt>
      <trkpt lat="50.19523" lon="4.27142">
        <ele>238.80000305176</ele>
        <time>2025-01-04T09:07:41.000Z</time>
      </trkpt>
      <trkpt lat="50.19515" lon="4.27126">
        <ele>238</ele>
        <time>2025-01-04T09:07:47.000Z</time>
      </trkpt>
      <trkpt lat="50.19513" lon="4.2712">
        <ele>237.80000305176</ele>
        <time>2025-01-04T09:07:49.000Z</time>
      </trkpt>
      <trkpt lat="50.19504" lon="4.271">
        <ele>236.80000305176</ele>
        <time>2025-01-04T09:07:55.000Z</time>
      </trkpt>
      <trkpt lat="50.19496" lon="4.27081">
        <ele>235.60000610352</ele>
        <time>2025-01-04T09:08:01.000Z</time>
      </trkpt>
      <trkpt lat="50.19492" lon="4.27077">
        <ele>235.19999694824</ele>
        <time>2025-01-04T09:08:03.000Z</time>
      </trkpt>
      <trkpt lat="50.19481" lon="4.27056">
        <ele>234.39999389648</ele>
        <time>2025-01-04T09:08:09.000Z</time>
      </trkpt>
      <trkpt lat="50.19473" lon="4.27039">
        <ele>233.39999389648</ele>
        <time>2025-01-04T09:08:15.000Z</time>
      </trkpt>
      <trkpt lat="50.19471" lon="4.27036">
        <ele>233.19999694824</ele>
        <time>2025-01-04T09:08:16.000Z</time>
      </trkpt>
      <trkpt lat="50.19465" lon="4.27025">
        <ele>232.19999694824</ele>
        <time>2025-01-04T09:08:20.000Z</time>
      </trkpt>
      <trkpt lat="50.19458" lon="4.27014">
        <ele>231</ele>
        <time>2025-01-04T09:08:24.000Z</time>
      </trkpt>
      <trkpt lat="50.19445" lon="4.26996">
        <ele>229.80000305176</ele>
        <time>2025-01-04T09:08:31.000Z</time>
      </trkpt>
      <trkpt lat="50.19443" lon="4.26994">
        <ele>229.60000610352</ele>
        <time>2025-01-04T09:08:32.000Z</time>
      </trkpt>
      <trkpt lat="50.19437" lon="4.26986">
        <ele>228.80000305176</ele>
        <time>2025-01-04T09:08:35.000Z</time>
      </trkpt>
      <trkpt lat="50.19429" lon="4.26976">
        <ele>228</ele>
        <time>2025-01-04T09:08:39.000Z</time>
      </trkpt>
      <trkpt lat="50.19427" lon="4.26973">
        <ele>228</ele>
        <time>2025-01-04T09:08:40.000Z</time>
      </trkpt>
      <trkpt lat="50.19419" lon="4.26965">
        <ele>226.80000305176</ele>
        <time>2025-01-04T09:08:44.000Z</time>
      </trkpt>
      <trkpt lat="50.19416" lon="4.26961">
        <ele>226.39999389648</ele>
        <time>2025-01-04T09:08:46.000Z</time>
      </trkpt>
      <trkpt lat="50.19416" lon="4.2696">
        <ele>225.80000305176</ele>
        <time>2025-01-04T09:08:48.000Z</time>
      </trkpt>
      <trkpt lat="50.19416" lon="4.2696">
        <ele>225.60000610352</ele>
        <time>2025-01-04T09:08:51.000Z</time>
      </trkpt>
      <trkpt lat="50.19409" lon="4.26958">
        <ele>225.39999389648</ele>
        <time>2025-01-04T09:09:00.000Z</time>
      </trkpt>
      <trkpt lat="50.19394" lon="4.26954">
        <ele>225</ele>
        <time>2025-01-04T09:09:06.000Z</time>
      </trkpt>
      <trkpt lat="50.19387" lon="4.26954">
        <ele>224.60000610352</ele>
        <time>2025-01-04T09:09:08.000Z</time>
      </trkpt>
      <trkpt lat="50.19374" lon="4.26958">
        <ele>223.80000305176</ele>
        <time>2025-01-04T09:09:12.000Z</time>
      </trkpt>
      <trkpt lat="50.19372" lon="4.26959">
        <ele>223.60000610352</ele>
        <time>2025-01-04T09:09:13.000Z</time>
      </trkpt>
      <trkpt lat="50.1937" lon="4.2696">
        <ele>221.80000305176</ele>
        <time>2025-01-04T09:09:16.000Z</time>
      </trkpt>
      <trkpt lat="50.1937" lon="4.2696">
        <ele>220.80000305176</ele>
        <time>2025-01-04T09:09:20.000Z</time>
      </trkpt>
      <trkpt lat="50.19363" lon="4.26963">
        <ele>220.19999694824</ele>
        <time>2025-01-04T09:09:51.000Z</time>
      </trkpt>
      <trkpt lat="50.19346" lon="4.2697">
        <ele>219.60000610352</ele>
        <time>2025-01-04T09:09:57.000Z</time>
      </trkpt>
      <trkpt lat="50.19345" lon="4.2697">
        <ele>219.39999389648</ele>
        <time>2025-01-04T09:09:58.000Z</time>
      </trkpt>
      <trkpt lat="50.19336" lon="4.2697">
        <ele>218.19999694824</ele>
        <time>2025-01-04T09:10:02.000Z</time>
      </trkpt>
      <trkpt lat="50.19329" lon="4.26971">
        <ele>217.39999389648</ele>
        <time>2025-01-04T09:10:05.000Z</time>
      </trkpt>
      <trkpt lat="50.19323" lon="4.26971">
        <ele>217.19999694824</ele>
        <time>2025-01-04T09:10:07.000Z</time>
      </trkpt>
      <trkpt lat="50.19308" lon="4.26965">
        <ele>216.60000610352</ele>
        <time>2025-01-04T09:10:12.000Z</time>
      </trkpt>
      <trkpt lat="50.19301" lon="4.26957">
        <ele>216.39999389648</ele>
        <time>2025-01-04T09:10:14.000Z</time>
      </trkpt>
      <trkpt lat="50.19298" lon="4.26951">
        <ele>216.19999694824</ele>
        <time>2025-01-04T09:10:15.000Z</time>
      </trkpt>
      <trkpt lat="50.19292" lon="4.2694">
        <ele>215.60000610352</ele>
        <time>2025-01-04T09:10:17.000Z</time>
      </trkpt>
      <trkpt lat="50.19285" lon="4.26928">
        <ele>215.19999694824</ele>
        <time>2025-01-04T09:10:19.000Z</time>
      </trkpt>
      <trkpt lat="50.19275" lon="4.26909">
        <ele>214</ele>
        <time>2025-01-04T09:10:22.000Z</time>
      </trkpt>
      <trkpt lat="50.19266" lon="4.26892">
        <ele>213</ele>
        <time>2025-01-04T09:10:25.000Z</time>
      </trkpt>
      <trkpt lat="50.19262" lon="4.26886">
        <ele>212.80000305176</ele>
        <time>2025-01-04T09:10:26.000Z</time>
      </trkpt>
      <trkpt lat="50.19259" lon="4.26881">
        <ele>212.19999694824</ele>
        <time>2025-01-04T09:10:27.000Z</time>
      </trkpt>
      <trkpt lat="50.19255" lon="4.26877">
        <ele>211.80000305176</ele>
        <time>2025-01-04T09:10:28.000Z</time>
      </trkpt>
      <trkpt lat="50.1925" lon="4.26874">
        <ele>211.39999389648</ele>
        <time>2025-01-04T09:10:29.000Z</time>
      </trkpt>
      <trkpt lat="50.19245" lon="4.26872">
        <ele>211</ele>
        <time>2025-01-04T09:10:30.000Z</time>
      </trkpt>
      <trkpt lat="50.19239" lon="4.26871">
        <ele>210.60000610352</ele>
        <time>2025-01-04T09:10:31.000Z</time>
      </trkpt>
      <trkpt lat="50.19215" lon="4.26866">
        <ele>209.39999389648</ele>
        <time>2025-01-04T09:10:35.000Z</time>
      </trkpt>
      <trkpt lat="50.19203" lon="4.26864">
        <ele>208.39999389648</ele>
        <time>2025-01-04T09:10:37.000Z</time>
      </trkpt>
      <trkpt lat="50.19186" lon="4.26862">
        <ele>206.80000305176</ele>
        <time>2025-01-04T09:10:40.000Z</time>
      </trkpt>
      <trkpt lat="50.19177" lon="4.2686">
        <ele>205.39999389648</ele>
        <time>2025-01-04T09:10:42.000Z</time>
      </trkpt>
      <trkpt lat="50.19174" lon="4.26859">
        <ele>205</ele>
        <time>2025-01-04T09:10:43.000Z</time>
      </trkpt>
      <trkpt lat="50.19171" lon="4.26857">
        <ele>204.39999389648</ele>
        <time>2025-01-04T09:10:44.000Z</time>
      </trkpt>
      <trkpt lat="50.19169" lon="4.26849">
        <ele>203.39999389648</ele>
        <time>2025-01-04T09:10:46.000Z</time>
      </trkpt>
      <trkpt lat="50.19169" lon="4.26843">
        <ele>203.19999694824</ele>
        <time>2025-01-04T09:10:47.000Z</time>
      </trkpt>
      <trkpt lat="50.19173" lon="4.26817">
        <ele>202.80000305176</ele>
        <time>2025-01-04T09:10:52.000Z</time>
      </trkpt>
      <trkpt lat="50.19175" lon="4.2679">
        <ele>204</ele>
        <time>2025-01-04T09:10:57.000Z</time>
      </trkpt>
      <trkpt lat="50.19174" lon="4.26785">
        <ele>204.80000305176</ele>
        <time>2025-01-04T09:10:58.000Z</time>
      </trkpt>
      <trkpt lat="50.19175" lon="4.2677">
        <ele>206</ele>
        <time>2025-01-04T09:11:01.000Z</time>
      </trkpt>
      <trkpt lat="50.19176" lon="4.26765">
        <ele>206</ele>
        <time>2025-01-04T09:11:02.000Z</time>
      </trkpt>
      <trkpt lat="50.19184" lon="4.26729">
        <ele>207</ele>
        <time>2025-01-04T09:11:09.000Z</time>
      </trkpt>
      <trkpt lat="50.19189" lon="4.26689">
        <ele>206.80000305176</ele>
        <time>2025-01-04T09:11:16.000Z</time>
      </trkpt>
      <trkpt lat="50.19203" lon="4.26641">
        <ele>205.80000305176</ele>
        <time>2025-01-04T09:11:24.000Z</time>
      </trkpt>
      <trkpt lat="50.19209" lon="4.26605">
        <ele>204.60000610352</ele>
        <time>2025-01-04T09:11:29.000Z</time>
      </trkpt>
      <trkpt lat="50.19211" lon="4.26591">
        <ele>204</ele>
        <time>2025-01-04T09:11:31.000Z</time>
      </trkpt>
      <trkpt lat="50.19212" lon="4.26583">
        <ele>203.39999389648</ele>
        <time>2025-01-04T09:11:32.000Z</time>
      </trkpt>
      <trkpt lat="50.19214" lon="4.26566">
        <ele>202.39999389648</ele>
        <time>2025-01-04T09:11:34.000Z</time>
      </trkpt>
      <trkpt lat="50.19212" lon="4.26553">
        <ele>201.80000305176</ele>
        <time>2025-01-04T09:11:36.000Z</time>
      </trkpt>
      <trkpt lat="50.19207" lon="4.26539">
        <ele>200.80000305176</ele>
        <time>2025-01-04T09:11:38.000Z</time>
      </trkpt>
      <trkpt lat="50.19199" lon="4.26523">
        <ele>199.80000305176</ele>
        <time>2025-01-04T09:11:40.000Z</time>
      </trkpt>
      <trkpt lat="50.19196" lon="4.26516">
        <ele>199.60000610352</ele>
        <time>2025-01-04T09:11:41.000Z</time>
      </trkpt>
      <trkpt lat="50.19185" lon="4.26489">
        <ele>198.19999694824</ele>
        <time>2025-01-04T09:11:44.000Z</time>
      </trkpt>
      <trkpt lat="50.1918" lon="4.26477">
        <ele>197.39999389648</ele>
        <time>2025-01-04T09:11:46.000Z</time>
      </trkpt>
      <trkpt lat="50.19177" lon="4.26471">
        <ele>197.19999694824</ele>
        <time>2025-01-04T09:11:47.000Z</time>
      </trkpt>
      <trkpt lat="50.19167" lon="4.26453">
        <ele>196.80000305176</ele>
        <time>2025-01-04T09:11:51.000Z</time>
      </trkpt>
      <trkpt lat="50.19162" lon="4.26439">
        <ele>197</ele>
        <time>2025-01-04T09:11:54.000Z</time>
      </trkpt>
      <trkpt lat="50.1915" lon="4.26425">
        <ele>197.19999694824</ele>
        <time>2025-01-04T09:11:58.000Z</time>
      </trkpt>
      <trkpt lat="50.19141" lon="4.26424">
        <ele>197.19999694824</ele>
        <time>2025-01-04T09:12:00.000Z</time>
      </trkpt>
      <trkpt lat="50.19134" lon="4.26427">
        <ele>197.19999694824</ele>
        <time>2025-01-04T09:12:02.000Z</time>
      </trkpt>
      <trkpt lat="50.19126" lon="4.26433">
        <ele>197</ele>
        <time>2025-01-04T09:12:04.000Z</time>
      </trkpt>
      <trkpt lat="50.19114" lon="4.26438">
        <ele>196.80000305176</ele>
        <time>2025-01-04T09:12:07.000Z</time>
      </trkpt>
      <trkpt lat="50.19106" lon="4.26442">
        <ele>196.80000305176</ele>
        <time>2025-01-04T09:12:09.000Z</time>
      </trkpt>
      <trkpt lat="50.19091" lon="4.2645">
        <ele>196.80000305176</ele>
        <time>2025-01-04T09:12:13.000Z</time>
      </trkpt>
      <trkpt lat="50.19077" lon="4.26448">
        <ele>197.80000305176</ele>
        <time>2025-01-04T09:12:17.000Z</time>
      </trkpt>
      <trkpt lat="50.19074" lon="4.26446">
        <ele>198.19999694824</ele>
        <time>2025-01-04T09:12:18.000Z</time>
      </trkpt>
      <trkpt lat="50.19066" lon="4.26438">
        <ele>199.39999389648</ele>
        <time>2025-01-04T09:12:21.000Z</time>
      </trkpt>
      <trkpt lat="50.19064" lon="4.26436">
        <ele>200</ele>
        <time>2025-01-04T09:12:22.000Z</time>
      </trkpt>
      <trkpt lat="50.19058" lon="4.26431">
        <ele>200.80000305176</ele>
        <time>2025-01-04T09:12:24.000Z</time>
      </trkpt>
      <trkpt lat="50.19048" lon="4.26424">
        <ele>202</ele>
        <time>2025-01-04T09:12:27.000Z</time>
      </trkpt>
      <trkpt lat="50.19038" lon="4.26418">
        <ele>202.60000610352</ele>
        <time>2025-01-04T09:12:30.000Z</time>
      </trkpt>
      <trkpt lat="50.19015" lon="4.26404">
        <ele>203</ele>
        <time>2025-01-04T09:12:37.000Z</time>
      </trkpt>
      <trkpt lat="50.19007" lon="4.26392">
        <ele>203</ele>
        <time>2025-01-04T09:12:40.000Z</time>
      </trkpt>
      <trkpt lat="50.19008" lon="4.26389">
        <ele>203.19999694824</ele>
        <time>2025-01-04T09:12:41.000Z</time>
      </trkpt>
      <trkpt lat="50.19005" lon="4.26373">
        <ele>203.39999389648</ele>
        <time>2025-01-04T09:12:44.000Z</time>
      </trkpt>
      <trkpt lat="50.19004" lon="4.26362">
        <ele>204</ele>
        <time>2025-01-04T09:12:46.000Z</time>
      </trkpt>
      <trkpt lat="50.19001" lon="4.26346">
        <ele>204.80000305176</ele>
        <time>2025-01-04T09:12:49.000Z</time>
      </trkpt>
      <trkpt lat="50.19" lon="4.26341">
        <ele>205.19999694824</ele>
        <time>2025-01-04T09:12:50.000Z</time>
      </trkpt>
      <trkpt lat="50.18994" lon="4.26321">
        <ele>206.19999694824</ele>
        <time>2025-01-04T09:12:54.000Z</time>
      </trkpt>
      <trkpt lat="50.18991" lon="4.26312">
        <ele>206.60000610352</ele>
        <time>2025-01-04T09:12:56.000Z</time>
      </trkpt>
      <trkpt lat="50.18988" lon="4.26304">
        <ele>207.19999694824</ele>
        <time>2025-01-04T09:12:58.000Z</time>
      </trkpt>
      <trkpt lat="50.18981" lon="4.26297">
        <ele>207.60000610352</ele>
        <time>2025-01-04T09:13:01.000Z</time>
      </trkpt>
      <trkpt lat="50.18976" lon="4.26286">
        <ele>207.80000305176</ele>
        <time>2025-01-04T09:13:05.000Z</time>
      </trkpt>
      <trkpt lat="50.18976" lon="4.26284">
        <ele>207.80000305176</ele>
        <time>2025-01-04T09:13:06.000Z</time>
      </trkpt>
      <trkpt lat="50.18975" lon="4.26279">
        <ele>207.80000305176</ele>
        <time>2025-01-04T09:13:08.000Z</time>
      </trkpt>
      <trkpt lat="50.18975" lon="4.26274">
        <ele>207.80000305176</ele>
        <time>2025-01-04T09:13:10.000Z</time>
      </trkpt>
      <trkpt lat="50.18975" lon="4.2627">
        <ele>208</ele>
        <time>2025-01-04T09:13:12.000Z</time>
      </trkpt>
      <trkpt lat="50.18974" lon="4.2626">
        <ele>208.19999694824</ele>
        <time>2025-01-04T09:13:15.000Z</time>
      </trkpt>
      <trkpt lat="50.18974" lon="4.26256">
        <ele>208.19999694824</ele>
        <time>2025-01-04T09:13:17.000Z</time>
      </trkpt>
      <trkpt lat="50.18973" lon="4.26253">
        <ele>208.19999694824</ele>
        <time>2025-01-04T09:13:20.000Z</time>
      </trkpt>
      <trkpt lat="50.18972" lon="4.26244">
        <ele>208.39999389648</ele>
        <time>2025-01-04T09:13:27.000Z</time>
      </trkpt>
      <trkpt lat="50.18972" lon="4.26231">
        <ele>208.60000610352</ele>
        <time>2025-01-04T09:13:34.000Z</time>
      </trkpt>
      <trkpt lat="50.18969" lon="4.26209">
        <ele>209</ele>
        <time>2025-01-04T09:13:39.000Z</time>
      </trkpt>
      <trkpt lat="50.18968" lon="4.26192">
        <ele>209.19999694824</ele>
        <time>2025-01-04T09:13:44.000Z</time>
      </trkpt>
      <trkpt lat="50.18968" lon="4.26191">
        <ele>209.19999694824</ele>
        <time>2025-01-04T09:13:45.000Z</time>
      </trkpt>
      <trkpt lat="50.18965" lon="4.26178">
        <ele>209.80000305176</ele>
        <time>2025-01-04T09:13:49.000Z</time>
      </trkpt>
      <trkpt lat="50.18965" lon="4.2616">
        <ele>210.39999389648</ele>
        <time>2025-01-04T09:13:54.000Z</time>
      </trkpt>
      <trkpt lat="50.18967" lon="4.2615">
        <ele>211</ele>
        <time>2025-01-04T09:13:57.000Z</time>
      </trkpt>
      <trkpt lat="50.18967" lon="4.26138">
        <ele>211.39999389648</ele>
        <time>2025-01-04T09:14:01.000Z</time>
      </trkpt>
      <trkpt lat="50.18967" lon="4.26138">
        <ele>211.80000305176</ele>
        <time>2025-01-04T09:14:03.000Z</time>
      </trkpt>
      <trkpt lat="50.18964" lon="4.26126">
        <ele>212.39999389648</ele>
        <time>2025-01-04T09:14:10.000Z</time>
      </trkpt>
      <trkpt lat="50.18964" lon="4.26126">
        <ele>212.39999389648</ele>
        <time>2025-01-04T09:14:13.000Z</time>
      </trkpt>
      <trkpt lat="50.18964" lon="4.26124">
        <ele>212.80000305176</ele>
        <time>2025-01-04T09:14:17.000Z</time>
      </trkpt>
      <trkpt lat="50.18965" lon="4.26114">
        <ele>213.19999694824</ele>
        <time>2025-01-04T09:14:23.000Z</time>
      </trkpt>
      <trkpt lat="50.18965" lon="4.26108">
        <ele>213.39999389648</ele>
        <time>2025-01-04T09:14:27.000Z</time>
      </trkpt>
      <trkpt lat="50.18965" lon="4.26104">
        <ele>213.60000610352</ele>
        <time>2025-01-04T09:14:29.000Z</time>
      </trkpt>
      <trkpt lat="50.18965" lon="4.26087">
        <ele>214.60000610352</ele>
        <time>2025-01-04T09:14:38.000Z</time>
      </trkpt>
      <trkpt lat="50.18967" lon="4.26077">
        <ele>215.39999389648</ele>
        <time>2025-01-04T09:14:46.000Z</time>
      </trkpt>
      <trkpt lat="50.18967" lon="4.26075">
        <ele>215.60000610352</ele>
        <time>2025-01-04T09:14:48.000Z</time>
      </trkpt>
      <trkpt lat="50.18965" lon="4.26068">
        <ele>216</ele>
        <time>2025-01-04T09:14:53.000Z</time>
      </trkpt>
      <trkpt lat="50.18963" lon="4.26056">
        <ele>216.39999389648</ele>
        <time>2025-01-04T09:14:59.000Z</time>
      </trkpt>
      <trkpt lat="50.18962" lon="4.26054">
        <ele>216.60000610352</ele>
        <time>2025-01-04T09:15:00.000Z</time>
      </trkpt>
      <trkpt lat="50.18962" lon="4.26045">
        <ele>217.39999389648</ele>
        <time>2025-01-04T09:15:04.000Z</time>
      </trkpt>
      <trkpt lat="50.18962" lon="4.26041">
        <ele>217.80000305176</ele>
        <time>2025-01-04T09:15:06.000Z</time>
      </trkpt>
      <trkpt lat="50.18961" lon="4.26037">
        <ele>218</ele>
        <time>2025-01-04T09:15:08.000Z</time>
      </trkpt>
      <trkpt lat="50.1896" lon="4.26027">
        <ele>218.39999389648</ele>
        <time>2025-01-04T09:15:12.000Z</time>
      </trkpt>
      <trkpt lat="50.18958" lon="4.2602">
        <ele>218.60000610352</ele>
        <time>2025-01-04T09:15:16.000Z</time>
      </trkpt>
      <trkpt lat="50.18958" lon="4.26019">
        <ele>218.80000305176</ele>
        <time>2025-01-04T09:15:18.000Z</time>
      </trkpt>
      <trkpt lat="50.18958" lon="4.26019">
        <ele>218.80000305176</ele>
        <time>2025-01-04T09:15:19.000Z</time>
      </trkpt>
      <trkpt lat="50.18958" lon="4.26008">
        <ele>218.80000305176</ele>
        <time>2025-01-04T09:15:56.000Z</time>
      </trkpt>
      <trkpt lat="50.18955" lon="4.2598">
        <ele>219</ele>
        <time>2025-01-04T09:16:02.000Z</time>
      </trkpt>
      <trkpt lat="50.18952" lon="4.25941">
        <ele>219.60000610352</ele>
        <time>2025-01-04T09:16:10.000Z</time>
      </trkpt>
      <trkpt lat="50.18951" lon="4.25932">
        <ele>219.80000305176</ele>
        <time>2025-01-04T09:16:12.000Z</time>
      </trkpt>
      <trkpt lat="50.18946" lon="4.25894">
        <ele>220.80000305176</ele>
        <time>2025-01-04T09:16:19.000Z</time>
      </trkpt>
      <trkpt lat="50.18938" lon="4.25843">
        <ele>222</ele>
        <time>2025-01-04T09:16:28.000Z</time>
      </trkpt>
      <trkpt lat="50.18937" lon="4.25836">
        <ele>222</ele>
        <time>2025-01-04T09:16:29.000Z</time>
      </trkpt>
      <trkpt lat="50.18929" lon="4.25777">
        <ele>222.60000610352</ele>
        <time>2025-01-04T09:16:38.000Z</time>
      </trkpt>
      <trkpt lat="50.18915" lon="4.25703">
        <ele>222.80000305176</ele>
        <time>2025-01-04T09:16:49.000Z</time>
      </trkpt>
      <trkpt lat="50.18898" lon="4.25622">
        <ele>222.80000305176</ele>
        <time>2025-01-04T09:17:01.000Z</time>
      </trkpt>
      <trkpt lat="50.18894" lon="4.25608">
        <ele>223</ele>
        <time>2025-01-04T09:17:03.000Z</time>
      </trkpt>
      <trkpt lat="50.18883" lon="4.2556">
        <ele>223.19999694824</ele>
        <time>2025-01-04T09:17:10.000Z</time>
      </trkpt>
      <trkpt lat="50.18871" lon="4.25498">
        <ele>223.60000610352</ele>
        <time>2025-01-04T09:17:20.000Z</time>
      </trkpt>
      <trkpt lat="50.18861" lon="4.25453">
        <ele>223.60000610352</ele>
        <time>2025-01-04T09:17:27.000Z</time>
      </trkpt>
      <trkpt lat="50.18847" lon="4.254">
        <ele>223.80000305176</ele>
        <time>2025-01-04T09:17:35.000Z</time>
      </trkpt>
      <trkpt lat="50.18827" lon="4.25342">
        <ele>223.80000305176</ele>
        <time>2025-01-04T09:17:44.000Z</time>
      </trkpt>
      <trkpt lat="50.18815" lon="4.2529">
        <ele>223.60000610352</ele>
        <time>2025-01-04T09:17:52.000Z</time>
      </trkpt>
      <trkpt lat="50.18807" lon="4.2523">
        <ele>223.19999694824</ele>
        <time>2025-01-04T09:18:01.000Z</time>
      </trkpt>
      <trkpt lat="50.18806" lon="4.25166">
        <ele>222.80000305176</ele>
        <time>2025-01-04T09:18:09.000Z</time>
      </trkpt>
      <trkpt lat="50.18805" lon="4.25157">
        <ele>222.60000610352</ele>
        <time>2025-01-04T09:18:10.000Z</time>
      </trkpt>
      <trkpt lat="50.18804" lon="4.25148">
        <ele>222.60000610352</ele>
        <time>2025-01-04T09:18:11.000Z</time>
      </trkpt>
      <trkpt lat="50.18798" lon="4.25124">
        <ele>222.19999694824</ele>
        <time>2025-01-04T09:18:14.000Z</time>
      </trkpt>
      <trkpt lat="50.18795" lon="4.25117">
        <ele>222</ele>
        <time>2025-01-04T09:18:15.000Z</time>
      </trkpt>
      <trkpt lat="50.18779" lon="4.25077">
        <ele>221</ele>
        <time>2025-01-04T09:18:20.000Z</time>
      </trkpt>
      <trkpt lat="50.18776" lon="4.25067">
        <ele>220.39999389648</ele>
        <time>2025-01-04T09:18:21.000Z</time>
      </trkpt>
      <trkpt lat="50.18773" lon="4.25046">
        <ele>220</ele>
        <time>2025-01-04T09:18:23.000Z</time>
      </trkpt>
      <trkpt lat="50.18773" lon="4.25035">
        <ele>219.80000305176</ele>
        <time>2025-01-04T09:18:24.000Z</time>
      </trkpt>
      <trkpt lat="50.18773" lon="4.25003">
        <ele>218.60000610352</ele>
        <time>2025-01-04T09:18:27.000Z</time>
      </trkpt>
      <trkpt lat="50.18777" lon="4.24984">
        <ele>217.39999389648</ele>
        <time>2025-01-04T09:18:29.000Z</time>
      </trkpt>
      <trkpt lat="50.18786" lon="4.24947">
        <ele>216.39999389648</ele>
        <time>2025-01-04T09:18:33.000Z</time>
      </trkpt>
      <trkpt lat="50.18794" lon="4.24914">
        <ele>216</ele>
        <time>2025-01-04T09:18:37.000Z</time>
      </trkpt>
      <trkpt lat="50.18808" lon="4.24862">
        <ele>215.60000610352</ele>
        <time>2025-01-04T09:18:44.000Z</time>
      </trkpt>
      <trkpt lat="50.18823" lon="4.24784">
        <ele>215.80000305176</ele>
        <time>2025-01-04T09:18:55.000Z</time>
      </trkpt>
      <trkpt lat="50.18832" lon="4.24719">
        <ele>216</ele>
        <time>2025-01-04T09:19:04.000Z</time>
      </trkpt>
      <trkpt lat="50.18838" lon="4.24647">
        <ele>216.60000610352</ele>
        <time>2025-01-04T09:19:14.000Z</time>
      </trkpt>
      <trkpt lat="50.18839" lon="4.24569">
        <ele>217</ele>
        <time>2025-01-04T09:19:24.000Z</time>
      </trkpt>
      <trkpt lat="50.18838" lon="4.24508">
        <ele>217</ele>
        <time>2025-01-04T09:19:32.000Z</time>
      </trkpt>
      <trkpt lat="50.18837" lon="4.24501">
        <ele>216.60000610352</ele>
        <time>2025-01-04T09:19:33.000Z</time>
      </trkpt>
      <trkpt lat="50.18833" lon="4.24463">
        <ele>216</ele>
        <time>2025-01-04T09:19:39.000Z</time>
      </trkpt>
      <trkpt lat="50.18831" lon="4.24443">
        <ele>215.60000610352</ele>
        <time>2025-01-04T09:19:43.000Z</time>
      </trkpt>
      <trkpt lat="50.18831" lon="4.24438">
        <ele>215.19999694824</ele>
        <time>2025-01-04T09:19:44.000Z</time>
      </trkpt>
      <trkpt lat="50.18832" lon="4.24398">
        <ele>215</ele>
        <time>2025-01-04T09:19:52.000Z</time>
      </trkpt>
      <trkpt lat="50.18836" lon="4.24351">
        <ele>215</ele>
        <time>2025-01-04T09:19:59.000Z</time>
      </trkpt>
      <trkpt lat="50.18845" lon="4.24291">
        <ele>216</ele>
        <time>2025-01-04T09:20:09.000Z</time>
      </trkpt>
      <trkpt lat="50.1885" lon="4.24269">
        <ele>216.39999389648</ele>
        <time>2025-01-04T09:20:13.000Z</time>
      </trkpt>
      <trkpt lat="50.18852" lon="4.24257">
        <ele>216.60000610352</ele>
        <time>2025-01-04T09:20:15.000Z</time>
      </trkpt>
      <trkpt lat="50.18856" lon="4.24217">
        <ele>216.19999694824</ele>
        <time>2025-01-04T09:20:21.000Z</time>
      </trkpt>
      <trkpt lat="50.18857" lon="4.2421">
        <ele>216</ele>
        <time>2025-01-04T09:20:22.000Z</time>
      </trkpt>
      <trkpt lat="50.18859" lon="4.24197">
        <ele>215.60000610352</ele>
        <time>2025-01-04T09:20:24.000Z</time>
      </trkpt>
      <trkpt lat="50.18861" lon="4.24183">
        <ele>215.39999389648</ele>
        <time>2025-01-04T09:20:26.000Z</time>
      </trkpt>
      <trkpt lat="50.18862" lon="4.24169">
        <ele>215.19999694824</ele>
        <time>2025-01-04T09:20:28.000Z</time>
      </trkpt>
      <trkpt lat="50.18867" lon="4.24125">
        <ele>214.39999389648</ele>
        <time>2025-01-04T09:20:34.000Z</time>
      </trkpt>
      <trkpt lat="50.18872" lon="4.24111">
        <ele>214</ele>
        <time>2025-01-04T09:20:36.000Z</time>
      </trkpt>
      <trkpt lat="50.18882" lon="4.24081">
        <ele>213.39999389648</ele>
        <time>2025-01-04T09:20:40.000Z</time>
      </trkpt>
      <trkpt lat="50.18885" lon="4.24065">
        <ele>212.80000305176</ele>
        <time>2025-01-04T09:20:42.000Z</time>
      </trkpt>
      <trkpt lat="50.18888" lon="4.24026">
        <ele>212.19999694824</ele>
        <time>2025-01-04T09:20:47.000Z</time>
      </trkpt>
      <trkpt lat="50.18887" lon="4.24012">
        <ele>211.80000305176</ele>
        <time>2025-01-04T09:20:49.000Z</time>
      </trkpt>
      <trkpt lat="50.18884" lon="4.23999">
        <ele>211.39999389648</ele>
        <time>2025-01-04T09:20:51.000Z</time>
      </trkpt>
      <trkpt lat="50.18875" lon="4.2398">
        <ele>211.19999694824</ele>
        <time>2025-01-04T09:20:54.000Z</time>
      </trkpt>
      <trkpt lat="50.18872" lon="4.23974">
        <ele>211.19999694824</ele>
        <time>2025-01-04T09:20:55.000Z</time>
      </trkpt>
      <trkpt lat="50.18862" lon="4.23956">
        <ele>211</ele>
        <time>2025-01-04T09:20:58.000Z</time>
      </trkpt>
      <trkpt lat="50.18855" lon="4.23936">
        <ele>211</ele>
        <time>2025-01-04T09:21:01.000Z</time>
      </trkpt>
      <trkpt lat="50.18847" lon="4.23908">
        <ele>210.80000305176</ele>
        <time>2025-01-04T09:21:06.000Z</time>
      </trkpt>
      <trkpt lat="50.18842" lon="4.23879">
        <ele>210.80000305176</ele>
        <time>2025-01-04T09:21:11.000Z</time>
      </trkpt>
      <trkpt lat="50.18845" lon="4.23839">
        <ele>211.39999389648</ele>
        <time>2025-01-04T09:21:18.000Z</time>
      </trkpt>
      <trkpt lat="50.18856" lon="4.2379">
        <ele>211.80000305176</ele>
        <time>2025-01-04T09:21:26.000Z</time>
      </trkpt>
      <trkpt lat="50.18858" lon="4.23758">
        <ele>212.39999389648</ele>
        <time>2025-01-04T09:21:31.000Z</time>
      </trkpt>
      <trkpt lat="50.18859" lon="4.23742">
        <ele>213.19999694824</ele>
        <time>2025-01-04T09:21:34.000Z</time>
      </trkpt>
      <trkpt lat="50.18859" lon="4.23736">
        <ele>213.60000610352</ele>
        <time>2025-01-04T09:21:35.000Z</time>
      </trkpt>
      <trkpt lat="50.18859" lon="4.23712">
        <ele>215</ele>
        <time>2025-01-04T09:21:39.000Z</time>
      </trkpt>
      <trkpt lat="50.18858" lon="4.23694">
        <ele>216.19999694824</ele>
        <time>2025-01-04T09:21:42.000Z</time>
      </trkpt>
      <trkpt lat="50.18859" lon="4.23682">
        <ele>216.60000610352</ele>
        <time>2025-01-04T09:21:44.000Z</time>
      </trkpt>
      <trkpt lat="50.18861" lon="4.23663">
        <ele>217.39999389648</ele>
        <time>2025-01-04T09:21:47.000Z</time>
      </trkpt>
      <trkpt lat="50.18861" lon="4.23657">
        <ele>217.60000610352</ele>
        <time>2025-01-04T09:21:48.000Z</time>
      </trkpt>
      <trkpt lat="50.18862" lon="4.23638">
        <ele>218.39999389648</ele>
        <time>2025-01-04T09:21:51.000Z</time>
      </trkpt>
      <trkpt lat="50.18863" lon="4.23612">
        <ele>219</ele>
        <time>2025-01-04T09:21:55.000Z</time>
      </trkpt>
      <trkpt lat="50.18865" lon="4.23592">
        <ele>219.60000610352</ele>
        <time>2025-01-04T09:21:58.000Z</time>
      </trkpt>
      <trkpt lat="50.18865" lon="4.23567">
        <ele>220.60000610352</ele>
        <time>2025-01-04T09:22:02.000Z</time>
      </trkpt>
      <trkpt lat="50.18865" lon="4.2356">
        <ele>220.80000305176</ele>
        <time>2025-01-04T09:22:03.000Z</time>
      </trkpt>
      <trkpt lat="50.18866" lon="4.23554">
        <ele>221.80000305176</ele>
        <time>2025-01-04T09:22:04.000Z</time>
      </trkpt>
      <trkpt lat="50.18866" lon="4.23533">
        <ele>222.80000305176</ele>
        <time>2025-01-04T09:22:07.000Z</time>
      </trkpt>
      <trkpt lat="50.18866" lon="4.23499">
        <ele>223.80000305176</ele>
        <time>2025-01-04T09:22:12.000Z</time>
      </trkpt>
      <trkpt lat="50.18867" lon="4.23492">
        <ele>223.80000305176</ele>
        <time>2025-01-04T09:22:13.000Z</time>
      </trkpt>
      <trkpt lat="50.18867" lon="4.23471">
        <ele>225</ele>
        <time>2025-01-04T09:22:16.000Z</time>
      </trkpt>
      <trkpt lat="50.18867" lon="4.23465">
        <ele>226.39999389648</ele>
        <time>2025-01-04T09:22:17.000Z</time>
      </trkpt>
      <trkpt lat="50.18867" lon="4.23453">
        <ele>227.80000305176</ele>
        <time>2025-01-04T09:22:19.000Z</time>
      </trkpt>
      <trkpt lat="50.18867" lon="4.23434">
        <ele>228.60000610352</ele>
        <time>2025-01-04T09:22:22.000Z</time>
      </trkpt>
      <trkpt lat="50.18867" lon="4.23428">
        <ele>228.80000305176</ele>
        <time>2025-01-04T09:22:23.000Z</time>
      </trkpt>
      <trkpt lat="50.18865" lon="4.23398">
        <ele>230</ele>
        <time>2025-01-04T09:22:28.000Z</time>
      </trkpt>
      <trkpt lat="50.18863" lon="4.23374">
        <ele>231</ele>
        <time>2025-01-04T09:22:32.000Z</time>
      </trkpt>
      <trkpt lat="50.18863" lon="4.23367">
        <ele>231.60000610352</ele>
        <time>2025-01-04T09:22:33.000Z</time>
      </trkpt>
      <trkpt lat="50.18861" lon="4.23355">
        <ele>232.80000305176</ele>
        <time>2025-01-04T09:22:35.000Z</time>
      </trkpt>
      <trkpt lat="50.18857" lon="4.23312">
        <ele>233.80000305176</ele>
        <time>2025-01-04T09:22:42.000Z</time>
      </trkpt>
      <trkpt lat="50.18857" lon="4.233">
        <ele>234.19999694824</ele>
        <time>2025-01-04T09:22:44.000Z</time>
      </trkpt>
      <trkpt lat="50.18856" lon="4.23289">
        <ele>234.80000305176</ele>
        <time>2025-01-04T09:22:46.000Z</time>
      </trkpt>
      <trkpt lat="50.18856" lon="4.2327">
        <ele>235.60000610352</ele>
        <time>2025-01-04T09:22:50.000Z</time>
      </trkpt>
      <trkpt lat="50.1886" lon="4.23233">
        <ele>235.60000610352</ele>
        <time>2025-01-04T09:22:57.000Z</time>
      </trkpt>
      <trkpt lat="50.18859" lon="4.23204">
        <ele>235.19999694824</ele>
        <time>2025-01-04T09:23:03.000Z</time>
      </trkpt>
      <trkpt lat="50.18854" lon="4.23176">
        <ele>234.80000305176</ele>
        <time>2025-01-04T09:23:10.000Z</time>
      </trkpt>
      <trkpt lat="50.18854" lon="4.23176">
        <ele>235.19999694824</ele>
        <time>2025-01-04T09:23:15.000Z</time>
      </trkpt>
      <trkpt lat="50.18853" lon="4.23167">
        <ele>235.39999389648</ele>
        <time>2025-01-04T09:23:43.000Z</time>
      </trkpt>
      <trkpt lat="50.1885" lon="4.23146">
        <ele>235.80000305176</ele>
        <time>2025-01-04T09:23:48.000Z</time>
      </trkpt>
      <trkpt lat="50.18849" lon="4.23137">
        <ele>236.39999389648</ele>
        <time>2025-01-04T09:23:50.000Z</time>
      </trkpt>
      <trkpt lat="50.18845" lon="4.23114">
        <ele>237.60000610352</ele>
        <time>2025-01-04T09:23:55.000Z</time>
      </trkpt>
      <trkpt lat="50.18843" lon="4.23105">
        <ele>237.80000305176</ele>
        <time>2025-01-04T09:23:57.000Z</time>
      </trkpt>
      <trkpt lat="50.18838" lon="4.23075">
        <ele>238.60000610352</ele>
        <time>2025-01-04T09:24:03.000Z</time>
      </trkpt>
      <trkpt lat="50.18836" lon="4.2306">
        <ele>238.80000305176</ele>
        <time>2025-01-04T09:24:06.000Z</time>
      </trkpt>
      <trkpt lat="50.18833" lon="4.23033">
        <ele>239.60000610352</ele>
        <time>2025-01-04T09:24:11.000Z</time>
      </trkpt>
      <trkpt lat="50.18829" lon="4.23006">
        <ele>240.60000610352</ele>
        <time>2025-01-04T09:24:16.000Z</time>
      </trkpt>
      <trkpt lat="50.18822" lon="4.22967">
        <ele>241.80000305176</ele>
        <time>2025-01-04T09:24:23.000Z</time>
      </trkpt>
      <trkpt lat="50.18816" lon="4.22933">
        <ele>242.60000610352</ele>
        <time>2025-01-04T09:24:29.000Z</time>
      </trkpt>
      <trkpt lat="50.18815" lon="4.22927">
        <ele>243</ele>
        <time>2025-01-04T09:24:30.000Z</time>
      </trkpt>
      <trkpt lat="50.18807" lon="4.22893">
        <ele>244</ele>
        <time>2025-01-04T09:24:36.000Z</time>
      </trkpt>
      <trkpt lat="50.18803" lon="4.22876">
        <ele>244.60000610352</ele>
        <time>2025-01-04T09:24:39.000Z</time>
      </trkpt>
      <trkpt lat="50.18798" lon="4.2286">
        <ele>245.19999694824</ele>
        <time>2025-01-04T09:24:42.000Z</time>
      </trkpt>
      <trkpt lat="50.1879" lon="4.22831">
        <ele>246.60000610352</ele>
        <time>2025-01-04T09:24:47.000Z</time>
      </trkpt>
      <trkpt lat="50.18787" lon="4.2282">
        <ele>247</ele>
        <time>2025-01-04T09:24:49.000Z</time>
      </trkpt>
      <trkpt lat="50.18779" lon="4.22797">
        <ele>247.60000610352</ele>
        <time>2025-01-04T09:24:53.000Z</time>
      </trkpt>
      <trkpt lat="50.18771" lon="4.22775">
        <ele>248.39999389648</ele>
        <time>2025-01-04T09:24:57.000Z</time>
      </trkpt>
      <trkpt lat="50.18767" lon="4.22764">
        <ele>248.80000305176</ele>
        <time>2025-01-04T09:24:59.000Z</time>
      </trkpt>
      <trkpt lat="50.18753" lon="4.22731">
        <ele>250</ele>
        <time>2025-01-04T09:25:05.000Z</time>
      </trkpt>
      <trkpt lat="50.18746" lon="4.22715">
        <ele>250.39999389648</ele>
        <time>2025-01-04T09:25:08.000Z</time>
      </trkpt>
      <trkpt lat="50.18739" lon="4.22699">
        <ele>251</ele>
        <time>2025-01-04T09:25:11.000Z</time>
      </trkpt>
      <trkpt lat="50.18722" lon="4.22663">
        <ele>252.39999389648</ele>
        <time>2025-01-04T09:25:18.000Z</time>
      </trkpt>
      <trkpt lat="50.18719" lon="4.22658">
        <ele>252.39999389648</ele>
        <time>2025-01-04T09:25:19.000Z</time>
      </trkpt>
      <trkpt lat="50.1871" lon="4.22637">
        <ele>253.39999389648</ele>
        <time>2025-01-04T09:25:23.000Z</time>
      </trkpt>
      <trkpt lat="50.18701" lon="4.22609">
        <ele>254.19999694824</ele>
        <time>2025-01-04T09:25:28.000Z</time>
      </trkpt>
      <trkpt lat="50.18697" lon="4.22596">
        <ele>254.60000610352</ele>
        <time>2025-01-04T09:25:30.000Z</time>
      </trkpt>
      <trkpt lat="50.18686" lon="4.22552">
        <ele>255.80000305176</ele>
        <time>2025-01-04T09:25:37.000Z</time>
      </trkpt>
      <trkpt lat="50.18684" lon="4.22546">
        <ele>255.80000305176</ele>
        <time>2025-01-04T09:25:38.000Z</time>
      </trkpt>
      <trkpt lat="50.18679" lon="4.22523">
        <ele>256.20001220703</ele>
        <time>2025-01-04T09:25:42.000Z</time>
      </trkpt>
      <trkpt lat="50.1867" lon="4.2249">
        <ele>256.60000610352</ele>
        <time>2025-01-04T09:25:47.000Z</time>
      </trkpt>
      <trkpt lat="50.18653" lon="4.22438">
        <ele>256.39999389648</ele>
        <time>2025-01-04T09:25:55.000Z</time>
      </trkpt>
      <trkpt lat="50.18628" lon="4.2238">
        <ele>256.39999389648</ele>
        <time>2025-01-04T09:26:05.000Z</time>
      </trkpt>
      <trkpt lat="50.18597" lon="4.22315">
        <ele>256</ele>
        <time>2025-01-04T09:26:16.000Z</time>
      </trkpt>
      <trkpt lat="50.18567" lon="4.22255">
        <ele>255.60000610352</ele>
        <time>2025-01-04T09:26:26.000Z</time>
      </trkpt>
      <trkpt lat="50.18542" lon="4.22204">
        <ele>255.39999389648</ele>
        <time>2025-01-04T09:26:35.000Z</time>
      </trkpt>
      <trkpt lat="50.18521" lon="4.22158">
        <ele>256</ele>
        <time>2025-01-04T09:26:43.000Z</time>
      </trkpt>
      <trkpt lat="50.18516" lon="4.22148">
        <ele>256.39999389648</ele>
        <time>2025-01-04T09:26:45.000Z</time>
      </trkpt>
      <trkpt lat="50.18513" lon="4.22143">
        <ele>256.79998779297</ele>
        <time>2025-01-04T09:26:46.000Z</time>
      </trkpt>
      <trkpt lat="50.18483" lon="4.22092">
        <ele>257.79998779297</ele>
        <time>2025-01-04T09:26:56.000Z</time>
      </trkpt>
      <trkpt lat="50.18467" lon="4.22064">
        <ele>259</ele>
        <time>2025-01-04T09:27:02.000Z</time>
      </trkpt>
      <trkpt lat="50.1846" lon="4.22049">
        <ele>259.79998779297</ele>
        <time>2025-01-04T09:27:07.000Z</time>
      </trkpt>
      <trkpt lat="50.18451" lon="4.22031">
        <ele>260</ele>
        <time>2025-01-04T09:27:11.000Z</time>
      </trkpt>
      <trkpt lat="50.18441" lon="4.22007">
        <ele>260.20001220703</ele>
        <time>2025-01-04T09:27:15.000Z</time>
      </trkpt>
      <trkpt lat="50.18436" lon="4.21995">
        <ele>260.39999389648</ele>
        <time>2025-01-04T09:27:17.000Z</time>
      </trkpt>
      <trkpt lat="50.18414" lon="4.21943">
        <ele>260.79998779297</ele>
        <time>2025-01-04T09:27:25.000Z</time>
      </trkpt>
      <trkpt lat="50.18397" lon="4.21882">
        <ele>261.20001220703</ele>
        <time>2025-01-04T09:27:33.000Z</time>
      </trkpt>
      <trkpt lat="50.18396" lon="4.21874">
        <ele>261.39999389648</ele>
        <time>2025-01-04T09:27:34.000Z</time>
      </trkpt>
      <trkpt lat="50.1839" lon="4.21816">
        <ele>261.60000610352</ele>
        <time>2025-01-04T09:27:41.000Z</time>
      </trkpt>
      <trkpt lat="50.18379" lon="4.21767">
        <ele>261.60000610352</ele>
        <time>2025-01-04T09:27:47.000Z</time>
      </trkpt>
      <trkpt lat="50.18366" lon="4.21722">
        <ele>262.39999389648</ele>
        <time>2025-01-04T09:27:53.000Z</time>
      </trkpt>
      <trkpt lat="50.1836" lon="4.217">
        <ele>263</ele>
        <time>2025-01-04T09:27:56.000Z</time>
      </trkpt>
      <trkpt lat="50.18354" lon="4.21688">
        <ele>263.20001220703</ele>
        <time>2025-01-04T09:27:58.000Z</time>
      </trkpt>
      <trkpt lat="50.1835" lon="4.21682">
        <ele>263.39999389648</ele>
        <time>2025-01-04T09:27:59.000Z</time>
      </trkpt>
      <trkpt lat="50.18346" lon="4.21677">
        <ele>263.60000610352</ele>
        <time>2025-01-04T09:28:00.000Z</time>
      </trkpt>
      <trkpt lat="50.18334" lon="4.21667">
        <ele>263.79998779297</ele>
        <time>2025-01-04T09:28:03.000Z</time>
      </trkpt>
      <trkpt lat="50.18329" lon="4.21655">
        <ele>263.79998779297</ele>
        <time>2025-01-04T09:28:05.000Z</time>
      </trkpt>
      <trkpt lat="50.18328" lon="4.21641">
        <ele>264</ele>
        <time>2025-01-04T09:28:07.000Z</time>
      </trkpt>
      <trkpt lat="50.18329" lon="4.21626">
        <ele>264</ele>
        <time>2025-01-04T09:28:09.000Z</time>
      </trkpt>
      <trkpt lat="50.18337" lon="4.21559">
        <ele>264.20001220703</ele>
        <time>2025-01-04T09:28:18.000Z</time>
      </trkpt>
      <trkpt lat="50.18353" lon="4.21468">
        <ele>264</ele>
        <time>2025-01-04T09:28:30.000Z</time>
      </trkpt>
      <trkpt lat="50.1837" lon="4.21401">
        <ele>263.60000610352</ele>
        <time>2025-01-04T09:28:39.000Z</time>
      </trkpt>
      <trkpt lat="50.184" lon="4.21329">
        <ele>262.60000610352</ele>
        <time>2025-01-04T09:28:49.000Z</time>
      </trkpt>
      <trkpt lat="50.18403" lon="4.21322">
        <ele>262.60000610352</ele>
        <time>2025-01-04T09:28:50.000Z</time>
      </trkpt>
      <trkpt lat="50.18426" lon="4.21268">
        <ele>262.20001220703</ele>
        <time>2025-01-04T09:28:59.000Z</time>
      </trkpt>
      <trkpt lat="50.18438" lon="4.21236">
        <ele>262.39999389648</ele>
        <time>2025-01-04T09:29:05.000Z</time>
      </trkpt>
      <trkpt lat="50.18439" lon="4.21232">
        <ele>262.39999389648</ele>
        <time>2025-01-04T09:29:06.000Z</time>
      </trkpt>
      <trkpt lat="50.18436" lon="4.21223">
        <ele>262.39999389648</ele>
        <time>2025-01-04T09:29:08.000Z</time>
      </trkpt>
      <trkpt lat="50.18419" lon="4.21198">
        <ele>262.60000610352</ele>
        <time>2025-01-04T09:29:13.000Z</time>
      </trkpt>
      <trkpt lat="50.18391" lon="4.21162">
        <ele>261.60000610352</ele>
        <time>2025-01-04T09:29:20.000Z</time>
      </trkpt>
      <trkpt lat="50.18387" lon="4.21158">
        <ele>261.39999389648</ele>
        <time>2025-01-04T09:29:21.000Z</time>
      </trkpt>
      <trkpt lat="50.18354" lon="4.21125">
        <ele>260.39999389648</ele>
        <time>2025-01-04T09:29:28.000Z</time>
      </trkpt>
      <trkpt lat="50.18348" lon="4.21122">
        <ele>260.20001220703</ele>
        <time>2025-01-04T09:29:29.000Z</time>
      </trkpt>
      <trkpt lat="50.18322" lon="4.21113">
        <ele>258.79998779297</ele>
        <time>2025-01-04T09:29:34.000Z</time>
      </trkpt>
      <trkpt lat="50.18316" lon="4.21112">
        <ele>258.20001220703</ele>
        <time>2025-01-04T09:29:35.000Z</time>
      </trkpt>
      <trkpt lat="50.18305" lon="4.21107">
        <ele>257.79998779297</ele>
        <time>2025-01-04T09:29:37.000Z</time>
      </trkpt>
      <trkpt lat="50.18281" lon="4.21096">
        <ele>256.39999389648</ele>
        <time>2025-01-04T09:29:41.000Z</time>
      </trkpt>
      <trkpt lat="50.18269" lon="4.21089">
        <ele>255.39999389648</ele>
        <time>2025-01-04T09:29:43.000Z</time>
      </trkpt>
      <trkpt lat="50.18258" lon="4.21083">
        <ele>254</ele>
        <time>2025-01-04T09:29:45.000Z</time>
      </trkpt>
      <trkpt lat="50.18236" lon="4.21069">
        <ele>252.80000305176</ele>
        <time>2025-01-04T09:29:49.000Z</time>
      </trkpt>
      <trkpt lat="50.18232" lon="4.21067">
        <ele>252.19999694824</ele>
        <time>2025-01-04T09:29:50.000Z</time>
      </trkpt>
      <trkpt lat="50.18227" lon="4.21065">
        <ele>251.39999389648</ele>
        <time>2025-01-04T09:29:51.000Z</time>
      </trkpt>
      <trkpt lat="50.18222" lon="4.21064">
        <ele>251.19999694824</ele>
        <time>2025-01-04T09:29:52.000Z</time>
      </trkpt>
      <trkpt lat="50.18217" lon="4.21064">
        <ele>250.19999694824</ele>
        <time>2025-01-04T09:29:53.000Z</time>
      </trkpt>
      <trkpt lat="50.18205" lon="4.21065">
        <ele>248.80000305176</ele>
        <time>2025-01-04T09:29:55.000Z</time>
      </trkpt>
      <trkpt lat="50.18181" lon="4.21069">
        <ele>247.80000305176</ele>
        <time>2025-01-04T09:29:59.000Z</time>
      </trkpt>
      <trkpt lat="50.18175" lon="4.2107">
        <ele>247.39999389648</ele>
        <time>2025-01-04T09:30:00.000Z</time>
      </trkpt>
      <trkpt lat="50.18169" lon="4.21071">
        <ele>247.19999694824</ele>
        <time>2025-01-04T09:30:01.000Z</time>
      </trkpt>
      <trkpt lat="50.18164" lon="4.21071">
        <ele>246.60000610352</ele>
        <time>2025-01-04T09:30:02.000Z</time>
      </trkpt>
      <trkpt lat="50.18158" lon="4.21069">
        <ele>244.60000610352</ele>
        <time>2025-01-04T09:30:04.000Z</time>
      </trkpt>
      <trkpt lat="50.18151" lon="4.21065">
        <ele>242.80000305176</ele>
        <time>2025-01-04T09:30:06.000Z</time>
      </trkpt>
      <trkpt lat="50.18145" lon="4.21059">
        <ele>241.60000610352</ele>
        <time>2025-01-04T09:30:08.000Z</time>
      </trkpt>
      <trkpt lat="50.18141" lon="4.21055">
        <ele>241.19999694824</ele>
        <time>2025-01-04T09:30:09.000Z</time>
      </trkpt>
      <trkpt lat="50.18138" lon="4.21051">
        <ele>240.60000610352</ele>
        <time>2025-01-04T09:30:10.000Z</time>
      </trkpt>
      <trkpt lat="50.18134" lon="4.21045">
        <ele>240.19999694824</ele>
        <time>2025-01-04T09:30:11.000Z</time>
      </trkpt>
      <trkpt lat="50.18127" lon="4.21028">
        <ele>239</ele>
        <time>2025-01-04T09:30:14.000Z</time>
      </trkpt>
      <trkpt lat="50.18125" lon="4.21021">
        <ele>238.60000610352</ele>
        <time>2025-01-04T09:30:15.000Z</time>
      </trkpt>
      <trkpt lat="50.18123" lon="4.21016">
        <ele>237.19999694824</ele>
        <time>2025-01-04T09:30:16.000Z</time>
      </trkpt>
      <trkpt lat="50.18121" lon="4.21009">
        <ele>236.80000305176</ele>
        <time>2025-01-04T09:30:17.000Z</time>
      </trkpt>
      <trkpt lat="50.18119" lon="4.21002">
        <ele>236</ele>
        <time>2025-01-04T09:30:18.000Z</time>
      </trkpt>
      <trkpt lat="50.18118" lon="4.20994">
        <ele>235.39999389648</ele>
        <time>2025-01-04T09:30:19.000Z</time>
      </trkpt>
      <trkpt lat="50.18117" lon="4.20986">
        <ele>235</ele>
        <time>2025-01-04T09:30:20.000Z</time>
      </trkpt>
      <trkpt lat="50.18116" lon="4.20948">
        <ele>233.60000610352</ele>
        <time>2025-01-04T09:30:24.000Z</time>
      </trkpt>
      <trkpt lat="50.18114" lon="4.2093">
        <ele>232.60000610352</ele>
        <time>2025-01-04T09:30:26.000Z</time>
      </trkpt>
      <trkpt lat="50.18112" lon="4.20917">
        <ele>231.80000305176</ele>
        <time>2025-01-04T09:30:27.000Z</time>
      </trkpt>
      <trkpt lat="50.18111" lon="4.20906">
        <ele>231.39999389648</ele>
        <time>2025-01-04T09:30:28.000Z</time>
      </trkpt>
      <trkpt lat="50.18109" lon="4.20896">
        <ele>231</ele>
        <time>2025-01-04T09:30:29.000Z</time>
      </trkpt>
      <trkpt lat="50.18104" lon="4.20876">
        <ele>230.80000305176</ele>
        <time>2025-01-04T09:30:31.000Z</time>
      </trkpt>
      <trkpt lat="50.18098" lon="4.20861">
        <ele>230.19999694824</ele>
        <time>2025-01-04T09:30:33.000Z</time>
      </trkpt>
      <trkpt lat="50.1809" lon="4.20847">
        <ele>229.80000305176</ele>
        <time>2025-01-04T09:30:35.000Z</time>
      </trkpt>
      <trkpt lat="50.18083" lon="4.20835">
        <ele>228.80000305176</ele>
        <time>2025-01-04T09:30:37.000Z</time>
      </trkpt>
      <trkpt lat="50.18079" lon="4.20829">
        <ele>228.60000610352</ele>
        <time>2025-01-04T09:30:38.000Z</time>
      </trkpt>
      <trkpt lat="50.18051" lon="4.20791">
        <ele>227.60000610352</ele>
        <time>2025-01-04T09:30:44.000Z</time>
      </trkpt>
      <trkpt lat="50.18043" lon="4.20779">
        <ele>227</ele>
        <time>2025-01-04T09:30:46.000Z</time>
      </trkpt>
      <trkpt lat="50.18037" lon="4.20772">
        <ele>226.19999694824</ele>
        <time>2025-01-04T09:30:47.000Z</time>
      </trkpt>
      <trkpt lat="50.18006" lon="4.20727">
        <ele>226.60000610352</ele>
        <time>2025-01-04T09:30:54.000Z</time>
      </trkpt>
      <trkpt lat="50.17978" lon="4.20686">
        <ele>227.39999389648</ele>
        <time>2025-01-04T09:31:01.000Z</time>
      </trkpt>
      <trkpt lat="50.17971" lon="4.20676">
        <ele>228</ele>
        <time>2025-01-04T09:31:03.000Z</time>
      </trkpt>
      <trkpt lat="50.17967" lon="4.2067">
        <ele>228.39999389648</ele>
        <time>2025-01-04T09:31:04.000Z</time>
      </trkpt>
      <trkpt lat="50.1795" lon="4.20644">
        <ele>229.39999389648</ele>
        <time>2025-01-04T09:31:09.000Z</time>
      </trkpt>
      <trkpt lat="50.17944" lon="4.20635">
        <ele>230</ele>
        <time>2025-01-04T09:31:11.000Z</time>
      </trkpt>
      <trkpt lat="50.17924" lon="4.20603">
        <ele>230.80000305176</ele>
        <time>2025-01-04T09:31:17.000Z</time>
      </trkpt>
      <trkpt lat="50.17912" lon="4.20586">
        <ele>231.80000305176</ele>
        <time>2025-01-04T09:31:21.000Z</time>
      </trkpt>
      <trkpt lat="50.17905" lon="4.20573">
        <ele>232.39999389648</ele>
        <time>2025-01-04T09:31:24.000Z</time>
      </trkpt>
      <trkpt lat="50.17898" lon="4.20563">
        <ele>232.80000305176</ele>
        <time>2025-01-04T09:31:26.000Z</time>
      </trkpt>
      <trkpt lat="50.17894" lon="4.20559">
        <ele>233.19999694824</ele>
        <time>2025-01-04T09:31:27.000Z</time>
      </trkpt>
      <trkpt lat="50.17877" lon="4.20535">
        <ele>234</ele>
        <time>2025-01-04T09:31:32.000Z</time>
      </trkpt>
      <trkpt lat="50.17867" lon="4.2052">
        <ele>234.39999389648</ele>
        <time>2025-01-04T09:31:35.000Z</time>
      </trkpt>
      <trkpt lat="50.17853" lon="4.20501">
        <ele>235</ele>
        <time>2025-01-04T09:31:39.000Z</time>
      </trkpt>
      <trkpt lat="50.17839" lon="4.20482">
        <ele>236</ele>
        <time>2025-01-04T09:31:43.000Z</time>
      </trkpt>
      <trkpt lat="50.17835" lon="4.20476">
        <ele>236.39999389648</ele>
        <time>2025-01-04T09:31:44.000Z</time>
      </trkpt>
      <trkpt lat="50.1781" lon="4.20439">
        <ele>237.39999389648</ele>
        <time>2025-01-04T09:31:51.000Z</time>
      </trkpt>
      <trkpt lat="50.17807" lon="4.20434">
        <ele>237.39999389648</ele>
        <time>2025-01-04T09:31:52.000Z</time>
      </trkpt>
      <trkpt lat="50.17783" lon="4.20391">
        <ele>238.39999389648</ele>
        <time>2025-01-04T09:31:59.000Z</time>
      </trkpt>
      <trkpt lat="50.1778" lon="4.20385">
        <ele>238.60000610352</ele>
        <time>2025-01-04T09:32:00.000Z</time>
      </trkpt>
      <trkpt lat="50.17756" lon="4.20341">
        <ele>239.80000305176</ele>
        <time>2025-01-04T09:32:07.000Z</time>
      </trkpt>
      <trkpt lat="50.17744" lon="4.20317">
        <ele>240.60000610352</ele>
        <time>2025-01-04T09:32:11.000Z</time>
      </trkpt>
      <trkpt lat="50.17737" lon="4.20302">
        <ele>241</ele>
        <time>2025-01-04T09:32:13.000Z</time>
      </trkpt>
      <trkpt lat="50.17726" lon="4.20276">
        <ele>242</ele>
        <time>2025-01-04T09:32:17.000Z</time>
      </trkpt>
      <trkpt lat="50.17721" lon="4.20263">
        <ele>242.60000610352</ele>
        <time>2025-01-04T09:32:19.000Z</time>
      </trkpt>
      <trkpt lat="50.17717" lon="4.20252">
        <ele>243.19999694824</ele>
        <time>2025-01-04T09:32:21.000Z</time>
      </trkpt>
      <trkpt lat="50.17709" lon="4.20233">
        <ele>244.19999694824</ele>
        <time>2025-01-04T09:32:24.000Z</time>
      </trkpt>
      <trkpt lat="50.17704" lon="4.20221">
        <ele>245.19999694824</ele>
        <time>2025-01-04T09:32:26.000Z</time>
      </trkpt>
      <trkpt lat="50.17702" lon="4.20215">
        <ele>245.80000305176</ele>
        <time>2025-01-04T09:32:27.000Z</time>
      </trkpt>
      <trkpt lat="50.17695" lon="4.20198">
        <ele>246.60000610352</ele>
        <time>2025-01-04T09:32:30.000Z</time>
      </trkpt>
      <trkpt lat="50.17685" lon="4.20173">
        <ele>248</ele>
        <time>2025-01-04T09:32:34.000Z</time>
      </trkpt>
      <trkpt lat="50.17676" lon="4.20148">
        <ele>249.19999694824</ele>
        <time>2025-01-04T09:32:38.000Z</time>
      </trkpt>
      <trkpt lat="50.17663" lon="4.20119">
        <ele>250.19999694824</ele>
        <time>2025-01-04T09:32:43.000Z</time>
      </trkpt>
      <trkpt lat="50.17649" lon="4.2009">
        <ele>251.19999694824</ele>
        <time>2025-01-04T09:32:48.000Z</time>
      </trkpt>
      <trkpt lat="50.17647" lon="4.20084">
        <ele>251.39999389648</ele>
        <time>2025-01-04T09:32:49.000Z</time>
      </trkpt>
      <trkpt lat="50.17635" lon="4.20057">
        <ele>252.39999389648</ele>
        <time>2025-01-04T09:32:54.000Z</time>
      </trkpt>
      <trkpt lat="50.17632" lon="4.20051">
        <ele>252.80000305176</ele>
        <time>2025-01-04T09:32:55.000Z</time>
      </trkpt>
      <trkpt lat="50.17622" lon="4.20031">
        <ele>253.60000610352</ele>
        <time>2025-01-04T09:32:59.000Z</time>
      </trkpt>
      <trkpt lat="50.17612" lon="4.20008">
        <ele>254.19999694824</ele>
        <time>2025-01-04T09:33:03.000Z</time>
      </trkpt>
      <trkpt lat="50.17602" lon="4.19986">
        <ele>254.60000610352</ele>
        <time>2025-01-04T09:33:07.000Z</time>
      </trkpt>
      <trkpt lat="50.17588" lon="4.19958">
        <ele>255.39999389648</ele>
        <time>2025-01-04T09:33:12.000Z</time>
      </trkpt>
      <trkpt lat="50.17582" lon="4.19946">
        <ele>255.80000305176</ele>
        <time>2025-01-04T09:33:14.000Z</time>
      </trkpt>
      <trkpt lat="50.17559" lon="4.19902">
        <ele>257.20001220703</ele>
        <time>2025-01-04T09:33:22.000Z</time>
      </trkpt>
      <trkpt lat="50.17539" lon="4.19868">
        <ele>258.20001220703</ele>
        <time>2025-01-04T09:33:28.000Z</time>
      </trkpt>
      <trkpt lat="50.17527" lon="4.19845">
        <ele>259.39999389648</ele>
        <time>2025-01-04T09:33:32.000Z</time>
      </trkpt>
      <trkpt lat="50.17505" lon="4.19801">
        <ele>260.60000610352</ele>
        <time>2025-01-04T09:33:39.000Z</time>
      </trkpt>
      <trkpt lat="50.17497" lon="4.19781">
        <ele>261.20001220703</ele>
        <time>2025-01-04T09:33:42.000Z</time>
      </trkpt>
      <trkpt lat="50.1748" lon="4.19733">
        <ele>261.79998779297</ele>
        <time>2025-01-04T09:33:49.000Z</time>
      </trkpt>
      <trkpt lat="50.1746" lon="4.19665">
        <ele>261.79998779297</ele>
        <time>2025-01-04T09:33:59.000Z</time>
      </trkpt>
      <trkpt lat="50.17436" lon="4.19578">
        <ele>261.39999389648</ele>
        <time>2025-01-04T09:34:11.000Z</time>
      </trkpt>
      <trkpt lat="50.17421" lon="4.19531">
        <ele>261</ele>
        <time>2025-01-04T09:34:18.000Z</time>
      </trkpt>
      <trkpt lat="50.17416" lon="4.19517">
        <ele>261</ele>
        <time>2025-01-04T09:34:20.000Z</time>
      </trkpt>
      <trkpt lat="50.17409" lon="4.19507">
        <ele>261</ele>
        <time>2025-01-04T09:34:22.000Z</time>
      </trkpt>
      <trkpt lat="50.17406" lon="4.19504">
        <ele>261</ele>
        <time>2025-01-04T09:34:23.000Z</time>
      </trkpt>
      <trkpt lat="50.17398" lon="4.19495">
        <ele>260.79998779297</ele>
        <time>2025-01-04T09:34:25.000Z</time>
      </trkpt>
      <trkpt lat="50.1737" lon="4.19463">
        <ele>259.79998779297</ele>
        <time>2025-01-04T09:34:33.000Z</time>
      </trkpt>
      <trkpt lat="50.17357" lon="4.19447">
        <ele>259</ele>
        <time>2025-01-04T09:34:38.000Z</time>
      </trkpt>
      <trkpt lat="50.17352" lon="4.19441">
        <ele>258.60000610352</ele>
        <time>2025-01-04T09:34:41.000Z</time>
      </trkpt>
      <trkpt lat="50.17346" lon="4.19433">
        <ele>258.20001220703</ele>
        <time>2025-01-04T09:34:44.000Z</time>
      </trkpt>
      <trkpt lat="50.17342" lon="4.19425">
        <ele>257.60000610352</ele>
        <time>2025-01-04T09:34:49.000Z</time>
      </trkpt>
      <trkpt lat="50.1734" lon="4.19419">
        <ele>256.79998779297</ele>
        <time>2025-01-04T09:35:02.000Z</time>
      </trkpt>
      <trkpt lat="50.17339" lon="4.19415">
        <ele>256.79998779297</ele>
        <time>2025-01-04T09:35:03.000Z</time>
      </trkpt>
      <trkpt lat="50.17332" lon="4.19389">
        <ele>256.79998779297</ele>
        <time>2025-01-04T09:35:09.000Z</time>
      </trkpt>
      <trkpt lat="50.17328" lon="4.19375">
        <ele>256.60000610352</ele>
        <time>2025-01-04T09:35:12.000Z</time>
      </trkpt>
      <trkpt lat="50.17322" lon="4.19354">
        <ele>256.20001220703</ele>
        <time>2025-01-04T09:35:16.000Z</time>
      </trkpt>
      <trkpt lat="50.17308" lon="4.19307">
        <ele>255.60000610352</ele>
        <time>2025-01-04T09:35:23.000Z</time>
      </trkpt>
      <trkpt lat="50.17306" lon="4.19302">
        <ele>255.60000610352</ele>
        <time>2025-01-04T09:35:24.000Z</time>
      </trkpt>
      <trkpt lat="50.17303" lon="4.19296">
        <ele>255.19999694824</ele>
        <time>2025-01-04T09:35:25.000Z</time>
      </trkpt>
      <trkpt lat="50.17286" lon="4.19275">
        <ele>254.60000610352</ele>
        <time>2025-01-04T09:35:29.000Z</time>
      </trkpt>
      <trkpt lat="50.17281" lon="4.1927">
        <ele>254.60000610352</ele>
        <time>2025-01-04T09:35:30.000Z</time>
      </trkpt>
      <trkpt lat="50.17257" lon="4.1924">
        <ele>253.60000610352</ele>
        <time>2025-01-04T09:35:35.000Z</time>
      </trkpt>
      <trkpt lat="50.17251" lon="4.19234">
        <ele>253.39999389648</ele>
        <time>2025-01-04T09:35:36.000Z</time>
      </trkpt>
      <trkpt lat="50.17241" lon="4.1922">
        <ele>252.60000610352</ele>
        <time>2025-01-04T09:35:38.000Z</time>
      </trkpt>
      <trkpt lat="50.17223" lon="4.19197">
        <ele>251.39999389648</ele>
        <time>2025-01-04T09:35:41.000Z</time>
      </trkpt>
      <trkpt lat="50.17212" lon="4.19183">
        <ele>250.60000610352</ele>
        <time>2025-01-04T09:35:43.000Z</time>
      </trkpt>
      <trkpt lat="50.17205" lon="4.19175">
        <ele>249.80000305176</ele>
        <time>2025-01-04T09:35:44.000Z</time>
      </trkpt>
      <trkpt lat="50.17191" lon="4.19157">
        <ele>248.60000610352</ele>
        <time>2025-01-04T09:35:46.000Z</time>
      </trkpt>
      <trkpt lat="50.17179" lon="4.19141">
        <ele>247.60000610352</ele>
        <time>2025-01-04T09:35:48.000Z</time>
      </trkpt>
      <trkpt lat="50.17173" lon="4.19132">
        <ele>247.19999694824</ele>
        <time>2025-01-04T09:35:49.000Z</time>
      </trkpt>
      <trkpt lat="50.17157" lon="4.19098">
        <ele>245.60000610352</ele>
        <time>2025-01-04T09:35:52.000Z</time>
      </trkpt>
      <trkpt lat="50.17141" lon="4.19062">
        <ele>244</ele>
        <time>2025-01-04T09:35:55.000Z</time>
      </trkpt>
      <trkpt lat="50.17131" lon="4.19042">
        <ele>243</ele>
        <time>2025-01-04T09:35:57.000Z</time>
      </trkpt>
      <trkpt lat="50.17114" lon="4.19011">
        <ele>241.39999389648</ele>
        <time>2025-01-04T09:36:00.000Z</time>
      </trkpt>
      <trkpt lat="50.17098" lon="4.18988">
        <ele>240.19999694824</ele>
        <time>2025-01-04T09:36:03.000Z</time>
      </trkpt>
      <trkpt lat="50.17084" lon="4.18971">
        <ele>239.60000610352</ele>
        <time>2025-01-04T09:36:05.000Z</time>
      </trkpt>
      <trkpt lat="50.17065" lon="4.18948">
        <ele>239</ele>
        <time>2025-01-04T09:36:08.000Z</time>
      </trkpt>
      <trkpt lat="50.17045" lon="4.18918">
        <ele>237.60000610352</ele>
        <time>2025-01-04T09:36:11.000Z</time>
      </trkpt>
      <trkpt lat="50.17036" lon="4.18899">
        <ele>236.60000610352</ele>
        <time>2025-01-04T09:36:13.000Z</time>
      </trkpt>
      <trkpt lat="50.17032" lon="4.18885">
        <ele>236.19999694824</ele>
        <time>2025-01-04T09:36:14.000Z</time>
      </trkpt>
      <trkpt lat="50.1703" lon="4.18875">
        <ele>235.60000610352</ele>
        <time>2025-01-04T09:36:15.000Z</time>
      </trkpt>
      <trkpt lat="50.17026" lon="4.18857">
        <ele>234.80000305176</ele>
        <time>2025-01-04T09:36:17.000Z</time>
      </trkpt>
      <trkpt lat="50.17023" lon="4.18827">
        <ele>234.19999694824</ele>
        <time>2025-01-04T09:36:20.000Z</time>
      </trkpt>
      <trkpt lat="50.17024" lon="4.18812">
        <ele>234.19999694824</ele>
        <time>2025-01-04T09:36:22.000Z</time>
      </trkpt>
      <trkpt lat="50.17026" lon="4.18796">
        <ele>234.19999694824</ele>
        <time>2025-01-04T09:36:24.000Z</time>
      </trkpt>
      <trkpt lat="50.17027" lon="4.18789">
        <ele>234.19999694824</ele>
        <time>2025-01-04T09:36:25.000Z</time>
      </trkpt>
      <trkpt lat="50.17029" lon="4.18776">
        <ele>234</ele>
        <time>2025-01-04T09:36:27.000Z</time>
      </trkpt>
      <trkpt lat="50.17029" lon="4.18758">
        <ele>234</ele>
        <time>2025-01-04T09:36:29.000Z</time>
      </trkpt>
      <trkpt lat="50.17027" lon="4.18742">
        <ele>233.80000305176</ele>
        <time>2025-01-04T09:36:31.000Z</time>
      </trkpt>
      <trkpt lat="50.17022" lon="4.18708">
        <ele>233.60000610352</ele>
        <time>2025-01-04T09:36:34.000Z</time>
      </trkpt>
      <trkpt lat="50.17015" lon="4.18674">
        <ele>232.80000305176</ele>
        <time>2025-01-04T09:36:37.000Z</time>
      </trkpt>
      <trkpt lat="50.17009" lon="4.1864">
        <ele>231.19999694824</ele>
        <time>2025-01-04T09:36:40.000Z</time>
      </trkpt>
      <trkpt lat="50.17002" lon="4.18603">
        <ele>230</ele>
        <time>2025-01-04T09:36:43.000Z</time>
      </trkpt>
      <trkpt lat="50.16999" lon="4.18583">
        <ele>229</ele>
        <time>2025-01-04T09:36:45.000Z</time>
      </trkpt>
      <trkpt lat="50.16993" lon="4.18551">
        <ele>228</ele>
        <time>2025-01-04T09:36:48.000Z</time>
      </trkpt>
      <trkpt lat="50.16992" lon="4.18544">
        <ele>227.80000305176</ele>
        <time>2025-01-04T09:36:49.000Z</time>
      </trkpt>
      <trkpt lat="50.16988" lon="4.18509">
        <ele>227.60000610352</ele>
        <time>2025-01-04T09:36:53.000Z</time>
      </trkpt>
      <trkpt lat="50.16981" lon="4.18475">
        <ele>227.60000610352</ele>
        <time>2025-01-04T09:36:58.000Z</time>
      </trkpt>
      <trkpt lat="50.16979" lon="4.18468">
        <ele>227.60000610352</ele>
        <time>2025-01-04T09:36:59.000Z</time>
      </trkpt>
      <trkpt lat="50.16976" lon="4.18463">
        <ele>227.80000305176</ele>
        <time>2025-01-04T09:37:00.000Z</time>
      </trkpt>
      <trkpt lat="50.1697" lon="4.18449">
        <ele>227.80000305176</ele>
        <time>2025-01-04T09:37:02.000Z</time>
      </trkpt>
      <trkpt lat="50.16965" lon="4.18436">
        <ele>227.60000610352</ele>
        <time>2025-01-04T09:37:04.000Z</time>
      </trkpt>
      <trkpt lat="50.16956" lon="4.18384">
        <ele>227.19999694824</ele>
        <time>2025-01-04T09:37:11.000Z</time>
      </trkpt>
      <trkpt lat="50.16944" lon="4.18307">
        <ele>227.60000610352</ele>
        <time>2025-01-04T09:37:21.000Z</time>
      </trkpt>
      <trkpt lat="50.1694" lon="4.1826">
        <ele>227.80000305176</ele>
        <time>2025-01-04T09:37:27.000Z</time>
      </trkpt>
      <trkpt lat="50.16938" lon="4.18245">
        <ele>227.80000305176</ele>
        <time>2025-01-04T09:37:29.000Z</time>
      </trkpt>
      <trkpt lat="50.16936" lon="4.18233">
        <ele>227.80000305176</ele>
        <time>2025-01-04T09:37:31.000Z</time>
      </trkpt>
      <trkpt lat="50.1693" lon="4.1821">
        <ele>227.80000305176</ele>
        <time>2025-01-04T09:37:34.000Z</time>
      </trkpt>
      <trkpt lat="50.16929" lon="4.18203">
        <ele>227.80000305176</ele>
        <time>2025-01-04T09:37:35.000Z</time>
      </trkpt>
      <trkpt lat="50.16928" lon="4.18197">
        <ele>227.80000305176</ele>
        <time>2025-01-04T09:37:36.000Z</time>
      </trkpt>
      <trkpt lat="50.16922" lon="4.18162">
        <ele>227.39999389648</ele>
        <time>2025-01-04T09:37:41.000Z</time>
      </trkpt>
      <trkpt lat="50.16914" lon="4.18119">
        <ele>227</ele>
        <time>2025-01-04T09:37:47.000Z</time>
      </trkpt>
      <trkpt lat="50.16912" lon="4.18112">
        <ele>226.80000305176</ele>
        <time>2025-01-04T09:37:48.000Z</time>
      </trkpt>
      <trkpt lat="50.16911" lon="4.18105">
        <ele>226.80000305176</ele>
        <time>2025-01-04T09:37:49.000Z</time>
      </trkpt>
      <trkpt lat="50.16906" lon="4.1807">
        <ele>226</ele>
        <time>2025-01-04T09:37:54.000Z</time>
      </trkpt>
      <trkpt lat="50.16906" lon="4.18065">
        <ele>226</ele>
        <time>2025-01-04T09:37:55.000Z</time>
      </trkpt>
      <trkpt lat="50.16907" lon="4.18054">
        <ele>225.60000610352</ele>
        <time>2025-01-04T09:37:57.000Z</time>
      </trkpt>
      <trkpt lat="50.16905" lon="4.1805">
        <ele>225.60000610352</ele>
        <time>2025-01-04T09:37:58.000Z</time>
      </trkpt>
      <trkpt lat="50.16903" lon="4.18047">
        <ele>225.19999694824</ele>
        <time>2025-01-04T09:37:59.000Z</time>
      </trkpt>
      <trkpt lat="50.16901" lon="4.18047">
        <ele>225</ele>
        <time>2025-01-04T09:38:00.000Z</time>
      </trkpt>
      <trkpt lat="50.16893" lon="4.18047">
        <ele>224.60000610352</ele>
        <time>2025-01-04T09:38:02.000Z</time>
      </trkpt>
      <trkpt lat="50.16889" lon="4.18047">
        <ele>224.39999389648</ele>
        <time>2025-01-04T09:38:03.000Z</time>
      </trkpt>
      <trkpt lat="50.16881" lon="4.18047">
        <ele>224.19999694824</ele>
        <time>2025-01-04T09:38:05.000Z</time>
      </trkpt>
      <trkpt lat="50.16865" lon="4.18049">
        <ele>224</ele>
        <time>2025-01-04T09:38:08.000Z</time>
      </trkpt>
      <trkpt lat="50.16856" lon="4.1805">
        <ele>223.39999389648</ele>
        <time>2025-01-04T09:38:10.000Z</time>
      </trkpt>
      <trkpt lat="50.16833" lon="4.18053">
        <ele>222.39999389648</ele>
        <time>2025-01-04T09:38:14.000Z</time>
      </trkpt>
      <trkpt lat="50.16823" lon="4.18054">
        <ele>222.19999694824</ele>
        <time>2025-01-04T09:38:16.000Z</time>
      </trkpt>
      <trkpt lat="50.16802" lon="4.18057">
        <ele>221</ele>
        <time>2025-01-04T09:38:20.000Z</time>
      </trkpt>
      <trkpt lat="50.1679" lon="4.18058">
        <ele>219.80000305176</ele>
        <time>2025-01-04T09:38:22.000Z</time>
      </trkpt>
      <trkpt lat="50.16781" lon="4.18058">
        <ele>219.39999389648</ele>
        <time>2025-01-04T09:38:24.000Z</time>
      </trkpt>
      <trkpt lat="50.16774" lon="4.18058">
        <ele>218.80000305176</ele>
        <time>2025-01-04T09:38:25.000Z</time>
      </trkpt>
      <trkpt lat="50.16769" lon="4.18058">
        <ele>218.60000610352</ele>
        <time>2025-01-04T09:38:26.000Z</time>
      </trkpt>
      <trkpt lat="50.16761" lon="4.18055">
        <ele>217.80000305176</ele>
        <time>2025-01-04T09:38:28.000Z</time>
      </trkpt>
      <trkpt lat="50.16757" lon="4.18053">
        <ele>217.19999694824</ele>
        <time>2025-01-04T09:38:29.000Z</time>
      </trkpt>
      <trkpt lat="50.16752" lon="4.18053">
        <ele>217</ele>
        <time>2025-01-04T09:38:30.000Z</time>
      </trkpt>
      <trkpt lat="50.16748" lon="4.18055">
        <ele>216.60000610352</ele>
        <time>2025-01-04T09:38:31.000Z</time>
      </trkpt>
      <trkpt lat="50.16745" lon="4.1806">
        <ele>216.39999389648</ele>
        <time>2025-01-04T09:38:32.000Z</time>
      </trkpt>
      <trkpt lat="50.16742" lon="4.18071">
        <ele>216</ele>
        <time>2025-01-04T09:38:34.000Z</time>
      </trkpt>
      <trkpt lat="50.16738" lon="4.18077">
        <ele>215.80000305176</ele>
        <time>2025-01-04T09:38:35.000Z</time>
      </trkpt>
      <trkpt lat="50.16728" lon="4.18087">
        <ele>215.60000610352</ele>
        <time>2025-01-04T09:38:38.000Z</time>
      </trkpt>
      <trkpt lat="50.16723" lon="4.18091">
        <ele>215.39999389648</ele>
        <time>2025-01-04T09:38:39.000Z</time>
      </trkpt>
      <trkpt lat="50.16713" lon="4.18098">
        <ele>215.19999694824</ele>
        <time>2025-01-04T09:38:41.000Z</time>
      </trkpt>
      <trkpt lat="50.16691" lon="4.18115">
        <ele>214.80000305176</ele>
        <time>2025-01-04T09:38:46.000Z</time>
      </trkpt>
      <trkpt lat="50.16683" lon="4.18121">
        <ele>214.80000305176</ele>
        <time>2025-01-04T09:38:48.000Z</time>
      </trkpt>
      <trkpt lat="50.16679" lon="4.18126">
        <ele>214.80000305176</ele>
        <time>2025-01-04T09:38:49.000Z</time>
      </trkpt>
      <trkpt lat="50.1667" lon="4.1814">
        <ele>215</ele>
        <time>2025-01-04T09:38:52.000Z</time>
      </trkpt>
      <trkpt lat="50.16659" lon="4.1816">
        <ele>215.39999389648</ele>
        <time>2025-01-04T09:38:56.000Z</time>
      </trkpt>
      <trkpt lat="50.16652" lon="4.1817">
        <ele>216.19999694824</ele>
        <time>2025-01-04T09:38:58.000Z</time>
      </trkpt>
      <trkpt lat="50.16649" lon="4.18176">
        <ele>216.39999389648</ele>
        <time>2025-01-04T09:38:59.000Z</time>
      </trkpt>
      <trkpt lat="50.16644" lon="4.18186">
        <ele>216.60000610352</ele>
        <time>2025-01-04T09:39:01.000Z</time>
      </trkpt>
      <trkpt lat="50.16627" lon="4.18208">
        <ele>217.39999389648</ele>
        <time>2025-01-04T09:39:06.000Z</time>
      </trkpt>
      <trkpt lat="50.16624" lon="4.18212">
        <ele>217.60000610352</ele>
        <time>2025-01-04T09:39:07.000Z</time>
      </trkpt>
      <trkpt lat="50.16615" lon="4.18222">
        <ele>218.19999694824</ele>
        <time>2025-01-04T09:39:10.000Z</time>
      </trkpt>
      <trkpt lat="50.16612" lon="4.18222">
        <ele>218.39999389648</ele>
        <time>2025-01-04T09:39:11.000Z</time>
      </trkpt>
      <trkpt lat="50.16609" lon="4.18219">
        <ele>218.60000610352</ele>
        <time>2025-01-04T09:39:12.000Z</time>
      </trkpt>
      <trkpt lat="50.16607" lon="4.18215">
        <ele>218.60000610352</ele>
        <time>2025-01-04T09:39:13.000Z</time>
      </trkpt>
      <trkpt lat="50.16605" lon="4.18211">
        <ele>218.80000305176</ele>
        <time>2025-01-04T09:39:14.000Z</time>
      </trkpt>
      <trkpt lat="50.1659" lon="4.18179">
        <ele>219.39999389648</ele>
        <time>2025-01-04T09:39:20.000Z</time>
      </trkpt>
      <trkpt lat="50.16587" lon="4.18174">
        <ele>219.39999389648</ele>
        <time>2025-01-04T09:39:21.000Z</time>
      </trkpt>
      <trkpt lat="50.16577" lon="4.18167">
        <ele>219.39999389648</ele>
        <time>2025-01-04T09:39:23.000Z</time>
      </trkpt>
      <trkpt lat="50.16572" lon="4.18167">
        <ele>219.19999694824</ele>
        <time>2025-01-04T09:39:24.000Z</time>
      </trkpt>
      <trkpt lat="50.16569" lon="4.18167">
        <ele>219.19999694824</ele>
        <time>2025-01-04T09:39:25.000Z</time>
      </trkpt>
      <trkpt lat="50.16558" lon="4.18171">
        <ele>219.39999389648</ele>
        <time>2025-01-04T09:39:27.000Z</time>
      </trkpt>
      <trkpt lat="50.16553" lon="4.18174">
        <ele>219.39999389648</ele>
        <time>2025-01-04T09:39:28.000Z</time>
      </trkpt>
      <trkpt lat="50.16528" lon="4.182">
        <ele>219.60000610352</ele>
        <time>2025-01-04T09:39:34.000Z</time>
      </trkpt>
      <trkpt lat="50.16525" lon="4.18205">
        <ele>219.80000305176</ele>
        <time>2025-01-04T09:39:35.000Z</time>
      </trkpt>
      <trkpt lat="50.16506" lon="4.18232">
        <ele>220.80000305176</ele>
        <time>2025-01-04T09:39:40.000Z</time>
      </trkpt>
      <trkpt lat="50.16499" lon="4.18242">
        <ele>221.19999694824</ele>
        <time>2025-01-04T09:39:42.000Z</time>
      </trkpt>
      <trkpt lat="50.16485" lon="4.18262">
        <ele>222</ele>
        <time>2025-01-04T09:39:46.000Z</time>
      </trkpt>
      <trkpt lat="50.16463" lon="4.18293">
        <ele>223</ele>
        <time>2025-01-04T09:39:52.000Z</time>
      </trkpt>
      <trkpt lat="50.16455" lon="4.18303">
        <ele>223.19999694824</ele>
        <time>2025-01-04T09:39:54.000Z</time>
      </trkpt>
      <trkpt lat="50.16426" lon="4.18344">
        <ele>224.19999694824</ele>
        <time>2025-01-04T09:40:02.000Z</time>
      </trkpt>
      <trkpt lat="50.16423" lon="4.18349">
        <ele>224.39999389648</ele>
        <time>2025-01-04T09:40:03.000Z</time>
      </trkpt>
      <trkpt lat="50.1639" lon="4.18395">
        <ele>225</ele>
        <time>2025-01-04T09:40:12.000Z</time>
      </trkpt>
      <trkpt lat="50.16382" lon="4.18402">
        <ele>225</ele>
        <time>2025-01-04T09:40:15.000Z</time>
      </trkpt>
      <trkpt lat="50.16379" lon="4.184">
        <ele>225</ele>
        <time>2025-01-04T09:40:16.000Z</time>
      </trkpt>
      <trkpt lat="50.16377" lon="4.18397">
        <ele>224.80000305176</ele>
        <time>2025-01-04T09:40:17.000Z</time>
      </trkpt>
      <trkpt lat="50.16378" lon="4.18386">
        <ele>224.80000305176</ele>
        <time>2025-01-04T09:40:19.000Z</time>
      </trkpt>
      <trkpt lat="50.16383" lon="4.18337">
        <ele>223.19999694824</ele>
        <time>2025-01-04T09:40:26.000Z</time>
      </trkpt>
      <trkpt lat="50.16387" lon="4.18293">
        <ele>222</ele>
        <time>2025-01-04T09:40:31.000Z</time>
      </trkpt>
      <trkpt lat="50.16388" lon="4.18274">
        <ele>221.39999389648</ele>
        <time>2025-01-04T09:40:33.000Z</time>
      </trkpt>
      <trkpt lat="50.1639" lon="4.18255">
        <ele>221</ele>
        <time>2025-01-04T09:40:35.000Z</time>
      </trkpt>
      <trkpt lat="50.16389" lon="4.18237">
        <ele>220.39999389648</ele>
        <time>2025-01-04T09:40:37.000Z</time>
      </trkpt>
      <trkpt lat="50.16387" lon="4.18228">
        <ele>220</ele>
        <time>2025-01-04T09:40:38.000Z</time>
      </trkpt>
      <trkpt lat="50.16385" lon="4.18219">
        <ele>219.80000305176</ele>
        <time>2025-01-04T09:40:39.000Z</time>
      </trkpt>
      <trkpt lat="50.16375" lon="4.18198">
        <ele>218.39999389648</ele>
        <time>2025-01-04T09:40:42.000Z</time>
      </trkpt>
      <trkpt lat="50.16371" lon="4.18192">
        <ele>218.19999694824</ele>
        <time>2025-01-04T09:40:43.000Z</time>
      </trkpt>
      <trkpt lat="50.16363" lon="4.18187">
        <ele>217.80000305176</ele>
        <time>2025-01-04T09:40:45.000Z</time>
      </trkpt>
      <trkpt lat="50.16353" lon="4.1819">
        <ele>217.39999389648</ele>
        <time>2025-01-04T09:40:47.000Z</time>
      </trkpt>
      <trkpt lat="50.16349" lon="4.18194">
        <ele>217.39999389648</ele>
        <time>2025-01-04T09:40:48.000Z</time>
      </trkpt>
      <trkpt lat="50.16346" lon="4.18198">
        <ele>217.19999694824</ele>
        <time>2025-01-04T09:40:49.000Z</time>
      </trkpt>
      <trkpt lat="50.16337" lon="4.18218">
        <ele>217.19999694824</ele>
        <time>2025-01-04T09:40:52.000Z</time>
      </trkpt>
      <trkpt lat="50.16317" lon="4.18268">
        <ele>217</ele>
        <time>2025-01-04T09:41:00.000Z</time>
      </trkpt>
      <trkpt lat="50.16308" lon="4.18291">
        <ele>217.19999694824</ele>
        <time>2025-01-04T09:41:04.000Z</time>
      </trkpt>
      <trkpt lat="50.16303" lon="4.183">
        <ele>217.39999389648</ele>
        <time>2025-01-04T09:41:06.000Z</time>
      </trkpt>
      <trkpt lat="50.16293" lon="4.18312">
        <ele>217.60000610352</ele>
        <time>2025-01-04T09:41:09.000Z</time>
      </trkpt>
      <trkpt lat="50.16281" lon="4.18322">
        <ele>218</ele>
        <time>2025-01-04T09:41:12.000Z</time>
      </trkpt>
      <trkpt lat="50.16259" lon="4.1834">
        <ele>218.60000610352</ele>
        <time>2025-01-04T09:41:18.000Z</time>
      </trkpt>
      <trkpt lat="50.16248" lon="4.18345">
        <ele>219</ele>
        <time>2025-01-04T09:41:21.000Z</time>
      </trkpt>
      <trkpt lat="50.16238" lon="4.18349">
        <ele>219.80000305176</ele>
        <time>2025-01-04T09:41:24.000Z</time>
      </trkpt>
      <trkpt lat="50.16228" lon="4.18351">
        <ele>220.19999694824</ele>
        <time>2025-01-04T09:41:27.000Z</time>
      </trkpt>
      <trkpt lat="50.1622" lon="4.18353">
        <ele>220.80000305176</ele>
        <time>2025-01-04T09:41:30.000Z</time>
      </trkpt>
      <trkpt lat="50.1621" lon="4.18354">
        <ele>221.60000610352</ele>
        <time>2025-01-04T09:41:34.000Z</time>
      </trkpt>
      <trkpt lat="50.16207" lon="4.18354">
        <ele>221.80000305176</ele>
        <time>2025-01-04T09:41:35.000Z</time>
      </trkpt>
      <trkpt lat="50.16195" lon="4.18352">
        <ele>222.80000305176</ele>
        <time>2025-01-04T09:41:40.000Z</time>
      </trkpt>
      <trkpt lat="50.16188" lon="4.18351">
        <ele>223.60000610352</ele>
        <time>2025-01-04T09:41:43.000Z</time>
      </trkpt>
      <trkpt lat="50.16184" lon="4.18349">
        <ele>224.19999694824</ele>
        <time>2025-01-04T09:41:45.000Z</time>
      </trkpt>
      <trkpt lat="50.1617" lon="4.18345">
        <ele>225.19999694824</ele>
        <time>2025-01-04T09:41:51.000Z</time>
      </trkpt>
      <trkpt lat="50.16157" lon="4.18338">
        <ele>226.19999694824</ele>
        <time>2025-01-04T09:41:57.000Z</time>
      </trkpt>
      <trkpt lat="50.1615" lon="4.18336">
        <ele>226.60000610352</ele>
        <time>2025-01-04T09:42:00.000Z</time>
      </trkpt>
      <trkpt lat="50.16142" lon="4.18333">
        <ele>227.39999389648</ele>
        <time>2025-01-04T09:42:04.000Z</time>
      </trkpt>
      <trkpt lat="50.1613" lon="4.18329">
        <ele>228.39999389648</ele>
        <time>2025-01-04T09:42:10.000Z</time>
      </trkpt>
      <trkpt lat="50.16125" lon="4.18327">
        <ele>228.60000610352</ele>
        <time>2025-01-04T09:42:12.000Z</time>
      </trkpt>
      <trkpt lat="50.16113" lon="4.18323">
        <ele>229.60000610352</ele>
        <time>2025-01-04T09:42:18.000Z</time>
      </trkpt>
      <trkpt lat="50.16113" lon="4.18323">
        <ele>230.19999694824</ele>
        <time>2025-01-04T09:42:20.000Z</time>
      </trkpt>
      <trkpt lat="50.16113" lon="4.18323">
        <ele>230.60000610352</ele>
        <time>2025-01-04T09:42:22.000Z</time>
      </trkpt>
      <trkpt lat="50.1611" lon="4.18323">
        <ele>231.39999389648</ele>
        <time>2025-01-04T09:42:35.000Z</time>
      </trkpt>
      <trkpt lat="50.16099" lon="4.18316">
        <ele>231.60000610352</ele>
        <time>2025-01-04T09:42:41.000Z</time>
      </trkpt>
      <trkpt lat="50.16097" lon="4.18316">
        <ele>231.80000305176</ele>
        <time>2025-01-04T09:42:42.000Z</time>
      </trkpt>
      <trkpt lat="50.16087" lon="4.18317">
        <ele>232.39999389648</ele>
        <time>2025-01-04T09:42:46.000Z</time>
      </trkpt>
      <trkpt lat="50.16082" lon="4.18318">
        <ele>232.80000305176</ele>
        <time>2025-01-04T09:42:48.000Z</time>
      </trkpt>
      <trkpt lat="50.16071" lon="4.18316">
        <ele>233.80000305176</ele>
        <time>2025-01-04T09:42:53.000Z</time>
      </trkpt>
      <trkpt lat="50.16067" lon="4.18315">
        <ele>234</ele>
        <time>2025-01-04T09:42:55.000Z</time>
      </trkpt>
      <trkpt lat="50.16056" lon="4.18314">
        <ele>235.19999694824</ele>
        <time>2025-01-04T09:43:00.000Z</time>
      </trkpt>
      <trkpt lat="50.16042" lon="4.18311">
        <ele>236.39999389648</ele>
        <time>2025-01-04T09:43:05.000Z</time>
      </trkpt>
      <trkpt lat="50.16039" lon="4.18311">
        <ele>236.80000305176</ele>
        <time>2025-01-04T09:43:06.000Z</time>
      </trkpt>
      <trkpt lat="50.16033" lon="4.1831">
        <ele>237.80000305176</ele>
        <time>2025-01-04T09:43:08.000Z</time>
      </trkpt>
      <trkpt lat="50.16019" lon="4.18306">
        <ele>239.19999694824</ele>
        <time>2025-01-04T09:43:13.000Z</time>
      </trkpt>
      <trkpt lat="50.16017" lon="4.18306">
        <ele>239.39999389648</ele>
        <time>2025-01-04T09:43:14.000Z</time>
      </trkpt>
      <trkpt lat="50.16013" lon="4.18304">
        <ele>240.19999694824</ele>
        <time>2025-01-04T09:43:16.000Z</time>
      </trkpt>
      <trkpt lat="50.16002" lon="4.18302">
        <ele>241.19999694824</ele>
        <time>2025-01-04T09:43:20.000Z</time>
      </trkpt>
      <trkpt lat="50.16" lon="4.18301">
        <ele>241.60000610352</ele>
        <time>2025-01-04T09:43:21.000Z</time>
      </trkpt>
      <trkpt lat="50.15989" lon="4.18298">
        <ele>243</ele>
        <time>2025-01-04T09:43:25.000Z</time>
      </trkpt>
      <trkpt lat="50.1598" lon="4.18295">
        <ele>244</ele>
        <time>2025-01-04T09:43:28.000Z</time>
      </trkpt>
      <trkpt lat="50.15974" lon="4.18294">
        <ele>244.39999389648</ele>
        <time>2025-01-04T09:43:30.000Z</time>
      </trkpt>
      <trkpt lat="50.15961" lon="4.18291">
        <ele>245.39999389648</ele>
        <time>2025-01-04T09:43:34.000Z</time>
      </trkpt>
      <trkpt lat="50.15953" lon="4.1829">
        <ele>246.19999694824</ele>
        <time>2025-01-04T09:43:37.000Z</time>
      </trkpt>
      <trkpt lat="50.1595" lon="4.18289">
        <ele>246.39999389648</ele>
        <time>2025-01-04T09:43:38.000Z</time>
      </trkpt>
      <trkpt lat="50.15937" lon="4.18289">
        <ele>247.39999389648</ele>
        <time>2025-01-04T09:43:43.000Z</time>
      </trkpt>
      <trkpt lat="50.15935" lon="4.18289">
        <ele>247.60000610352</ele>
        <time>2025-01-04T09:43:44.000Z</time>
      </trkpt>
      <trkpt lat="50.15931" lon="4.1829">
        <ele>248.60000610352</ele>
        <time>2025-01-04T09:43:48.000Z</time>
      </trkpt>
      <trkpt lat="50.15929" lon="4.1829">
        <ele>249</ele>
        <time>2025-01-04T09:43:57.000Z</time>
      </trkpt>
      <trkpt lat="50.15929" lon="4.18291">
        <ele>249</ele>
        <time>2025-01-04T09:45:08.000Z</time>
      </trkpt>
      <trkpt lat="50.15929" lon="4.18291">
        <ele>249.19999694824</ele>
        <time>2025-01-04T09:47:34.000Z</time>
      </trkpt>
      <trkpt lat="50.15929" lon="4.18291">
        <ele>250.60000610352</ele>
        <time>2025-01-04T09:53:22.000Z</time>
      </trkpt>
      <trkpt lat="50.15928" lon="4.18291">
        <ele>251</ele>
        <time>2025-01-04T09:53:51.000Z</time>
      </trkpt>
      <trkpt lat="50.15928" lon="4.18291">
        <ele>251.19999694824</ele>
        <time>2025-01-04T09:53:54.000Z</time>
      </trkpt>
      <trkpt lat="50.15921" lon="4.1829">
        <ele>251.39999389648</ele>
        <time>2025-01-04T09:53:57.000Z</time>
      </trkpt>
      <trkpt lat="50.15906" lon="4.18286">
        <ele>251.80000305176</ele>
        <time>2025-01-04T09:54:03.000Z</time>
      </trkpt>
      <trkpt lat="50.15896" lon="4.18281">
        <ele>252</ele>
        <time>2025-01-04T09:54:07.000Z</time>
      </trkpt>
      <trkpt lat="50.15885" lon="4.18275">
        <ele>252.60000610352</ele>
        <time>2025-01-04T09:54:11.000Z</time>
      </trkpt>
      <trkpt lat="50.15864" lon="4.18263">
        <ele>252.60000610352</ele>
        <time>2025-01-04T09:54:19.000Z</time>
      </trkpt>
      <trkpt lat="50.15833" lon="4.18249">
        <ele>252.39999389648</ele>
        <time>2025-01-04T09:54:28.000Z</time>
      </trkpt>
      <trkpt lat="50.158" lon="4.18234">
        <ele>250.80000305176</ele>
        <time>2025-01-04T09:54:38.000Z</time>
      </trkpt>
      <trkpt lat="50.15797" lon="4.18233">
        <ele>250.60000610352</ele>
        <time>2025-01-04T09:54:39.000Z</time>
      </trkpt>
      <trkpt lat="50.1579" lon="4.18229">
        <ele>249.39999389648</ele>
        <time>2025-01-04T09:54:42.000Z</time>
      </trkpt>
      <trkpt lat="50.15784" lon="4.18226">
        <ele>248.39999389648</ele>
        <time>2025-01-04T09:54:45.000Z</time>
      </trkpt>
      <trkpt lat="50.15782" lon="4.18225">
        <ele>248</ele>
        <time>2025-01-04T09:54:50.000Z</time>
      </trkpt>
      <trkpt lat="50.15773" lon="4.18224">
        <ele>248</ele>
        <time>2025-01-04T09:54:57.000Z</time>
      </trkpt>
      <trkpt lat="50.15763" lon="4.18225">
        <ele>248</ele>
        <time>2025-01-04T09:55:04.000Z</time>
      </trkpt>
      <trkpt lat="50.15761" lon="4.18226">
        <ele>247.80000305176</ele>
        <time>2025-01-04T09:55:11.000Z</time>
      </trkpt>
      <trkpt lat="50.15758" lon="4.18227">
        <ele>247.60000610352</ele>
        <time>2025-01-04T09:55:20.000Z</time>
      </trkpt>
      <trkpt lat="50.15752" lon="4.18229">
        <ele>248</ele>
        <time>2025-01-04T09:55:25.000Z</time>
      </trkpt>
      <trkpt lat="50.15736" lon="4.18236">
        <ele>248.39999389648</ele>
        <time>2025-01-04T09:55:32.000Z</time>
      </trkpt>
      <trkpt lat="50.15714" lon="4.18246">
        <ele>249.19999694824</ele>
        <time>2025-01-04T09:55:42.000Z</time>
      </trkpt>
      <trkpt lat="50.15708" lon="4.18248">
        <ele>249.60000610352</ele>
        <time>2025-01-04T09:55:45.000Z</time>
      </trkpt>
      <trkpt lat="50.15701" lon="4.1825">
        <ele>250.60000610352</ele>
        <time>2025-01-04T09:55:48.000Z</time>
      </trkpt>
      <trkpt lat="50.15699" lon="4.18251">
        <ele>250.60000610352</ele>
        <time>2025-01-04T09:55:49.000Z</time>
      </trkpt>
      <trkpt lat="50.15684" lon="4.18254">
        <ele>251.80000305176</ele>
        <time>2025-01-04T09:55:55.000Z</time>
      </trkpt>
      <trkpt lat="50.15679" lon="4.18256">
        <ele>252.60000610352</ele>
        <time>2025-01-04T09:55:57.000Z</time>
      </trkpt>
      <trkpt lat="50.15676" lon="4.18256">
        <ele>253</ele>
        <time>2025-01-04T09:55:58.000Z</time>
      </trkpt>
      <trkpt lat="50.15655" lon="4.18258">
        <ele>253.39999389648</ele>
        <time>2025-01-04T09:56:05.000Z</time>
      </trkpt>
      <trkpt lat="50.15631" lon="4.18261">
        <ele>253.80000305176</ele>
        <time>2025-01-04T09:56:13.000Z</time>
      </trkpt>
      <trkpt lat="50.15628" lon="4.18262">
        <ele>254</ele>
        <time>2025-01-04T09:56:14.000Z</time>
      </trkpt>
      <trkpt lat="50.15609" lon="4.18265">
        <ele>254.80000305176</ele>
        <time>2025-01-04T09:56:21.000Z</time>
      </trkpt>
      <trkpt lat="50.15603" lon="4.18266">
        <ele>255</ele>
        <time>2025-01-04T09:56:23.000Z</time>
      </trkpt>
      <trkpt lat="50.15586" lon="4.18268">
        <ele>255.60000610352</ele>
        <time>2025-01-04T09:56:29.000Z</time>
      </trkpt>
      <trkpt lat="50.15573" lon="4.1827">
        <ele>256.20001220703</ele>
        <time>2025-01-04T09:56:34.000Z</time>
      </trkpt>
      <trkpt lat="50.15556" lon="4.18273">
        <ele>256.60000610352</ele>
        <time>2025-01-04T09:56:40.000Z</time>
      </trkpt>
      <trkpt lat="50.15547" lon="4.18274">
        <ele>257.20001220703</ele>
        <time>2025-01-04T09:56:43.000Z</time>
      </trkpt>
      <trkpt lat="50.15527" lon="4.18278">
        <ele>257.79998779297</ele>
        <time>2025-01-04T09:56:49.000Z</time>
      </trkpt>
      <trkpt lat="50.15509" lon="4.18281">
        <ele>258.20001220703</ele>
        <time>2025-01-04T09:56:54.000Z</time>
      </trkpt>
      <trkpt lat="50.15496" lon="4.18284">
        <ele>258.39999389648</ele>
        <time>2025-01-04T09:56:58.000Z</time>
      </trkpt>
      <trkpt lat="50.15452" lon="4.1829">
        <ele>259</ele>
        <time>2025-01-04T09:57:10.000Z</time>
      </trkpt>
      <trkpt lat="50.15436" lon="4.18293">
        <ele>259.39999389648</ele>
        <time>2025-01-04T09:57:14.000Z</time>
      </trkpt>
      <trkpt lat="50.15418" lon="4.18297">
        <ele>259.79998779297</ele>
        <time>2025-01-04T09:57:19.000Z</time>
      </trkpt>
      <trkpt lat="50.15382" lon="4.18303">
        <ele>260.39999389648</ele>
        <time>2025-01-04T09:57:28.000Z</time>
      </trkpt>
      <trkpt lat="50.15368" lon="4.18304">
        <ele>260.60000610352</ele>
        <time>2025-01-04T09:57:31.000Z</time>
      </trkpt>
      <trkpt lat="50.15327" lon="4.18311">
        <ele>260.79998779297</ele>
        <time>2025-01-04T09:57:40.000Z</time>
      </trkpt>
      <trkpt lat="50.15279" lon="4.18317">
        <ele>260.60000610352</ele>
        <time>2025-01-04T09:57:51.000Z</time>
      </trkpt>
      <trkpt lat="50.15243" lon="4.18322">
        <ele>261.20001220703</ele>
        <time>2025-01-04T09:58:00.000Z</time>
      </trkpt>
      <trkpt lat="50.15228" lon="4.18326">
        <ele>261.39999389648</ele>
        <time>2025-01-04T09:58:04.000Z</time>
      </trkpt>
      <trkpt lat="50.1521" lon="4.18333">
        <ele>262</ele>
        <time>2025-01-04T09:58:09.000Z</time>
      </trkpt>
      <trkpt lat="50.15181" lon="4.18339">
        <ele>262.39999389648</ele>
        <time>2025-01-04T09:58:17.000Z</time>
      </trkpt>
      <trkpt lat="50.15175" lon="4.18341">
        <ele>262.60000610352</ele>
        <time>2025-01-04T09:58:19.000Z</time>
      </trkpt>
      <trkpt lat="50.15151" lon="4.18345">
        <ele>262.79998779297</ele>
        <time>2025-01-04T09:58:26.000Z</time>
      </trkpt>
      <trkpt lat="50.15124" lon="4.18353">
        <ele>263.60000610352</ele>
        <time>2025-01-04T09:58:34.000Z</time>
      </trkpt>
      <trkpt lat="50.15115" lon="4.18352">
        <ele>264.20001220703</ele>
        <time>2025-01-04T09:58:37.000Z</time>
      </trkpt>
      <trkpt lat="50.15113" lon="4.1835">
        <ele>264.39999389648</ele>
        <time>2025-01-04T09:58:38.000Z</time>
      </trkpt>
      <trkpt lat="50.15111" lon="4.18342">
        <ele>264.79998779297</ele>
        <time>2025-01-04T09:58:40.000Z</time>
      </trkpt>
      <trkpt lat="50.15114" lon="4.18313">
        <ele>265.79998779297</ele>
        <time>2025-01-04T09:58:45.000Z</time>
      </trkpt>
      <trkpt lat="50.15115" lon="4.18301">
        <ele>266.20001220703</ele>
        <time>2025-01-04T09:58:47.000Z</time>
      </trkpt>
      <trkpt lat="50.15119" lon="4.18264">
        <ele>266.79998779297</ele>
        <time>2025-01-04T09:58:53.000Z</time>
      </trkpt>
      <trkpt lat="50.15121" lon="4.18245">
        <ele>266.79998779297</ele>
        <time>2025-01-04T09:58:56.000Z</time>
      </trkpt>
      <trkpt lat="50.15126" lon="4.18184">
        <ele>267.20001220703</ele>
        <time>2025-01-04T09:59:05.000Z</time>
      </trkpt>
      <trkpt lat="50.15125" lon="4.18128">
        <ele>267.79998779297</ele>
        <time>2025-01-04T09:59:13.000Z</time>
      </trkpt>
      <trkpt lat="50.15121" lon="4.18107">
        <ele>268</ele>
        <time>2025-01-04T09:59:16.000Z</time>
      </trkpt>
      <trkpt lat="50.15112" lon="4.18069">
        <ele>268.20001220703</ele>
        <time>2025-01-04T09:59:21.000Z</time>
      </trkpt>
      <trkpt lat="50.15109" lon="4.18056">
        <ele>268.20001220703</ele>
        <time>2025-01-04T09:59:23.000Z</time>
      </trkpt>
      <trkpt lat="50.151" lon="4.18027">
        <ele>268</ele>
        <time>2025-01-04T09:59:27.000Z</time>
      </trkpt>
      <trkpt lat="50.15078" lon="4.17955">
        <ele>267.20001220703</ele>
        <time>2025-01-04T09:59:37.000Z</time>
      </trkpt>
      <trkpt lat="50.15074" lon="4.17942">
        <ele>267</ele>
        <time>2025-01-04T09:59:39.000Z</time>
      </trkpt>
      <trkpt lat="50.15068" lon="4.17923">
        <ele>266.79998779297</ele>
        <time>2025-01-04T09:59:42.000Z</time>
      </trkpt>
      <trkpt lat="50.15062" lon="4.17913">
        <ele>266.60000610352</ele>
        <time>2025-01-04T09:59:44.000Z</time>
      </trkpt>
      <trkpt lat="50.15053" lon="4.17909">
        <ele>266.39999389648</ele>
        <time>2025-01-04T09:59:46.000Z</time>
      </trkpt>
      <trkpt lat="50.15044" lon="4.17909">
        <ele>266.39999389648</ele>
        <time>2025-01-04T09:59:48.000Z</time>
      </trkpt>
      <trkpt lat="50.15018" lon="4.17906">
        <ele>266.60000610352</ele>
        <time>2025-01-04T09:59:54.000Z</time>
      </trkpt>
      <trkpt lat="50.15009" lon="4.17905">
        <ele>266.60000610352</ele>
        <time>2025-01-04T09:59:56.000Z</time>
      </trkpt>
      <trkpt lat="50.14982" lon="4.17897">
        <ele>267.20001220703</ele>
        <time>2025-01-04T10:00:02.000Z</time>
      </trkpt>
      <trkpt lat="50.14978" lon="4.17896">
        <ele>267.39999389648</ele>
        <time>2025-01-04T10:00:03.000Z</time>
      </trkpt>
      <trkpt lat="50.14962" lon="4.17891">
        <ele>268</ele>
        <time>2025-01-04T10:00:07.000Z</time>
      </trkpt>
      <trkpt lat="50.14949" lon="4.17885">
        <ele>268.20001220703</ele>
        <time>2025-01-04T10:00:10.000Z</time>
      </trkpt>
      <trkpt lat="50.1491" lon="4.17865">
        <ele>268.20001220703</ele>
        <time>2025-01-04T10:00:19.000Z</time>
      </trkpt>
      <trkpt lat="50.14868" lon="4.17837">
        <ele>268.60000610352</ele>
        <time>2025-01-04T10:00:29.000Z</time>
      </trkpt>
      <trkpt lat="50.14837" lon="4.17811">
        <ele>267.79998779297</ele>
        <time>2025-01-04T10:00:36.000Z</time>
      </trkpt>
      <trkpt lat="50.14805" lon="4.1778">
        <ele>267</ele>
        <time>2025-01-04T10:00:43.000Z</time>
      </trkpt>
      <trkpt lat="50.14795" lon="4.1777">
        <ele>266.79998779297</ele>
        <time>2025-01-04T10:00:45.000Z</time>
      </trkpt>
      <trkpt lat="50.14776" lon="4.17749">
        <ele>266</ele>
        <time>2025-01-04T10:00:49.000Z</time>
      </trkpt>
      <trkpt lat="50.14744" lon="4.17712">
        <ele>265</ele>
        <time>2025-01-04T10:00:56.000Z</time>
      </trkpt>
      <trkpt lat="50.14739" lon="4.17706">
        <ele>264.79998779297</ele>
        <time>2025-01-04T10:00:57.000Z</time>
      </trkpt>
      <trkpt lat="50.14721" lon="4.17685">
        <ele>263.79998779297</ele>
        <time>2025-01-04T10:01:01.000Z</time>
      </trkpt>
      <trkpt lat="50.14693" lon="4.17647">
        <ele>262.79998779297</ele>
        <time>2025-01-04T10:01:08.000Z</time>
      </trkpt>
      <trkpt lat="50.14689" lon="4.1764">
        <ele>262.60000610352</ele>
        <time>2025-01-04T10:01:09.000Z</time>
      </trkpt>
      <trkpt lat="50.14672" lon="4.17613">
        <ele>262.20001220703</ele>
        <time>2025-01-04T10:01:14.000Z</time>
      </trkpt>
      <trkpt lat="50.14665" lon="4.17603">
        <ele>261.79998779297</ele>
        <time>2025-01-04T10:01:16.000Z</time>
      </trkpt>
      <trkpt lat="50.14662" lon="4.17597">
        <ele>261.79998779297</ele>
        <time>2025-01-04T10:01:17.000Z</time>
      </trkpt>
      <trkpt lat="50.14647" lon="4.17575">
        <ele>261</ele>
        <time>2025-01-04T10:01:21.000Z</time>
      </trkpt>
      <trkpt lat="50.14644" lon="4.17569">
        <ele>261</ele>
        <time>2025-01-04T10:01:22.000Z</time>
      </trkpt>
      <trkpt lat="50.14637" lon="4.17557">
        <ele>260.39999389648</ele>
        <time>2025-01-04T10:01:24.000Z</time>
      </trkpt>
      <trkpt lat="50.14629" lon="4.17547">
        <ele>260.20001220703</ele>
        <time>2025-01-04T10:01:26.000Z</time>
      </trkpt>
      <trkpt lat="50.14613" lon="4.17524">
        <ele>259.60000610352</ele>
        <time>2025-01-04T10:01:30.000Z</time>
      </trkpt>
      <trkpt lat="50.14609" lon="4.17519">
        <ele>259.39999389648</ele>
        <time>2025-01-04T10:01:31.000Z</time>
      </trkpt>
      <trkpt lat="50.14595" lon="4.17503">
        <ele>259.20001220703</ele>
        <time>2025-01-04T10:01:34.000Z</time>
      </trkpt>
      <trkpt lat="50.14581" lon="4.17487">
        <ele>258.79998779297</ele>
        <time>2025-01-04T10:01:37.000Z</time>
      </trkpt>
      <trkpt lat="50.14574" lon="4.17477">
        <ele>258.60000610352</ele>
        <time>2025-01-04T10:01:39.000Z</time>
      </trkpt>
      <trkpt lat="50.14565" lon="4.17466">
        <ele>258.39999389648</ele>
        <time>2025-01-04T10:01:41.000Z</time>
      </trkpt>
      <trkpt lat="50.14556" lon="4.17455">
        <ele>258.20001220703</ele>
        <time>2025-01-04T10:01:43.000Z</time>
      </trkpt>
      <trkpt lat="50.14538" lon="4.17434">
        <ele>257.79998779297</ele>
        <time>2025-01-04T10:01:47.000Z</time>
      </trkpt>
      <trkpt lat="50.14521" lon="4.17414">
        <ele>257.60000610352</ele>
        <time>2025-01-04T10:01:51.000Z</time>
      </trkpt>
      <trkpt lat="50.14511" lon="4.17404">
        <ele>257.20001220703</ele>
        <time>2025-01-04T10:01:53.000Z</time>
      </trkpt>
      <trkpt lat="50.14488" lon="4.17381">
        <ele>256.39999389648</ele>
        <time>2025-01-04T10:01:58.000Z</time>
      </trkpt>
      <trkpt lat="50.14483" lon="4.17377">
        <ele>256</ele>
        <time>2025-01-04T10:01:59.000Z</time>
      </trkpt>
      <trkpt lat="50.14479" lon="4.17373">
        <ele>255.80000305176</ele>
        <time>2025-01-04T10:02:00.000Z</time>
      </trkpt>
      <trkpt lat="50.14465" lon="4.1736">
        <ele>255.39999389648</ele>
        <time>2025-01-04T10:02:03.000Z</time>
      </trkpt>
      <trkpt lat="50.1446" lon="4.17356">
        <ele>255.19999694824</ele>
        <time>2025-01-04T10:02:04.000Z</time>
      </trkpt>
      <trkpt lat="50.14444" lon="4.17343">
        <ele>254.60000610352</ele>
        <time>2025-01-04T10:02:07.000Z</time>
      </trkpt>
      <trkpt lat="50.14435" lon="4.17334">
        <ele>254</ele>
        <time>2025-01-04T10:02:09.000Z</time>
      </trkpt>
      <trkpt lat="50.14421" lon="4.17322">
        <ele>253.39999389648</ele>
        <time>2025-01-04T10:02:12.000Z</time>
      </trkpt>
      <trkpt lat="50.14399" lon="4.17302">
        <ele>252.19999694824</ele>
        <time>2025-01-04T10:02:16.000Z</time>
      </trkpt>
      <trkpt lat="50.14385" lon="4.1729">
        <ele>251.60000610352</ele>
        <time>2025-01-04T10:02:18.000Z</time>
      </trkpt>
      <trkpt lat="50.14368" lon="4.17274">
        <ele>251.19999694824</ele>
        <time>2025-01-04T10:02:21.000Z</time>
      </trkpt>
      <trkpt lat="50.14336" lon="4.17247">
        <ele>250.80000305176</ele>
        <time>2025-01-04T10:02:27.000Z</time>
      </trkpt>
      <trkpt lat="50.14304" lon="4.17219">
        <ele>250.60000610352</ele>
        <time>2025-01-04T10:02:33.000Z</time>
      </trkpt>
      <trkpt lat="50.14267" lon="4.17186">
        <ele>250.60000610352</ele>
        <time>2025-01-04T10:02:40.000Z</time>
      </trkpt>
      <trkpt lat="50.14239" lon="4.17164">
        <ele>250.60000610352</ele>
        <time>2025-01-04T10:02:46.000Z</time>
      </trkpt>
      <trkpt lat="50.14202" lon="4.17133">
        <ele>250.39999389648</ele>
        <time>2025-01-04T10:02:54.000Z</time>
      </trkpt>
      <trkpt lat="50.14192" lon="4.17125">
        <ele>250.60000610352</ele>
        <time>2025-01-04T10:02:56.000Z</time>
      </trkpt>
      <trkpt lat="50.14174" lon="4.1711">
        <ele>251.19999694824</ele>
        <time>2025-01-04T10:03:00.000Z</time>
      </trkpt>
      <trkpt lat="50.14165" lon="4.17101">
        <ele>251.80000305176</ele>
        <time>2025-01-04T10:03:02.000Z</time>
      </trkpt>
      <trkpt lat="50.14133" lon="4.17072">
        <ele>252</ele>
        <time>2025-01-04T10:03:09.000Z</time>
      </trkpt>
      <trkpt lat="50.14129" lon="4.17068">
        <ele>252.19999694824</ele>
        <time>2025-01-04T10:03:10.000Z</time>
      </trkpt>
      <trkpt lat="50.14105" lon="4.17049">
        <ele>253</ele>
        <time>2025-01-04T10:03:15.000Z</time>
      </trkpt>
      <trkpt lat="50.14093" lon="4.17039">
        <ele>253.19999694824</ele>
        <time>2025-01-04T10:03:18.000Z</time>
      </trkpt>
      <trkpt lat="50.14067" lon="4.17015">
        <ele>253.39999389648</ele>
        <time>2025-01-04T10:03:23.000Z</time>
      </trkpt>
      <trkpt lat="50.14036" lon="4.16989">
        <ele>253.39999389648</ele>
        <time>2025-01-04T10:03:30.000Z</time>
      </trkpt>
      <trkpt lat="50.14001" lon="4.16957">
        <ele>253.60000610352</ele>
        <time>2025-01-04T10:03:38.000Z</time>
      </trkpt>
      <trkpt lat="50.13964" lon="4.16924">
        <ele>253.80000305176</ele>
        <time>2025-01-04T10:03:46.000Z</time>
      </trkpt>
      <trkpt lat="50.13956" lon="4.16916">
        <ele>253.60000610352</ele>
        <time>2025-01-04T10:03:48.000Z</time>
      </trkpt>
      <trkpt lat="50.13926" lon="4.16891">
        <ele>254</ele>
        <time>2025-01-04T10:03:54.000Z</time>
      </trkpt>
      <trkpt lat="50.13921" lon="4.16887">
        <ele>254</ele>
        <time>2025-01-04T10:03:55.000Z</time>
      </trkpt>
      <trkpt lat="50.13895" lon="4.16864">
        <ele>253.80000305176</ele>
        <time>2025-01-04T10:04:00.000Z</time>
      </trkpt>
      <trkpt lat="50.13851" lon="4.1683">
        <ele>253.80000305176</ele>
        <time>2025-01-04T10:04:10.000Z</time>
      </trkpt>
      <trkpt lat="50.13836" lon="4.16822">
        <ele>253.80000305176</ele>
        <time>2025-01-04T10:04:13.000Z</time>
      </trkpt>
      <trkpt lat="50.13806" lon="4.16802">
        <ele>253.60000610352</ele>
        <time>2025-01-04T10:04:19.000Z</time>
      </trkpt>
      <trkpt lat="50.13781" lon="4.16787">
        <ele>252.80000305176</ele>
        <time>2025-01-04T10:04:24.000Z</time>
      </trkpt>
      <trkpt lat="50.1377" lon="4.1678">
        <ele>252.39999389648</ele>
        <time>2025-01-04T10:04:26.000Z</time>
      </trkpt>
      <trkpt lat="50.13738" lon="4.16759">
        <ele>251.39999389648</ele>
        <time>2025-01-04T10:04:32.000Z</time>
      </trkpt>
      <trkpt lat="50.13732" lon="4.16755">
        <ele>251</ele>
        <time>2025-01-04T10:04:33.000Z</time>
      </trkpt>
      <trkpt lat="50.13708" lon="4.16739">
        <ele>250</ele>
        <time>2025-01-04T10:04:37.000Z</time>
      </trkpt>
      <trkpt lat="50.13695" lon="4.1673">
        <ele>249.39999389648</ele>
        <time>2025-01-04T10:04:39.000Z</time>
      </trkpt>
      <trkpt lat="50.13689" lon="4.16726">
        <ele>248.80000305176</ele>
        <time>2025-01-04T10:04:40.000Z</time>
      </trkpt>
      <trkpt lat="50.13664" lon="4.1671">
        <ele>247.60000610352</ele>
        <time>2025-01-04T10:04:44.000Z</time>
      </trkpt>
      <trkpt lat="50.13657" lon="4.16706">
        <ele>247.39999389648</ele>
        <time>2025-01-04T10:04:45.000Z</time>
      </trkpt>
      <trkpt lat="50.13644" lon="4.16697">
        <ele>246.39999389648</ele>
        <time>2025-01-04T10:04:47.000Z</time>
      </trkpt>
      <trkpt lat="50.13626" lon="4.16688">
        <ele>245</ele>
        <time>2025-01-04T10:04:50.000Z</time>
      </trkpt>
      <trkpt lat="50.13614" lon="4.1668">
        <ele>244.39999389648</ele>
        <time>2025-01-04T10:04:52.000Z</time>
      </trkpt>
      <trkpt lat="50.13575" lon="4.16655">
        <ele>244</ele>
        <time>2025-01-04T10:04:59.000Z</time>
      </trkpt>
      <trkpt lat="50.13541" lon="4.16632">
        <ele>243.19999694824</ele>
        <time>2025-01-04T10:05:05.000Z</time>
      </trkpt>
      <trkpt lat="50.13503" lon="4.16607">
        <ele>243.19999694824</ele>
        <time>2025-01-04T10:05:13.000Z</time>
      </trkpt>
      <trkpt lat="50.13489" lon="4.166">
        <ele>243.39999389648</ele>
        <time>2025-01-04T10:05:16.000Z</time>
      </trkpt>
      <trkpt lat="50.13479" lon="4.16594">
        <ele>243.80000305176</ele>
        <time>2025-01-04T10:05:19.000Z</time>
      </trkpt>
      <trkpt lat="50.13465" lon="4.16585">
        <ele>244.39999389648</ele>
        <time>2025-01-04T10:05:24.000Z</time>
      </trkpt>
      <trkpt lat="50.13462" lon="4.16575">
        <ele>244.60000610352</ele>
        <time>2025-01-04T10:05:28.000Z</time>
      </trkpt>
      <trkpt lat="50.13462" lon="4.16571">
        <ele>244.39999389648</ele>
        <time>2025-01-04T10:05:29.000Z</time>
      </trkpt>
      <trkpt lat="50.13463" lon="4.16556">
        <ele>244.19999694824</ele>
        <time>2025-01-04T10:05:34.000Z</time>
      </trkpt>
      <trkpt lat="50.13471" lon="4.16526">
        <ele>243.60000610352</ele>
        <time>2025-01-04T10:05:41.000Z</time>
      </trkpt>
      <trkpt lat="50.13474" lon="4.165">
        <ele>243</ele>
        <time>2025-01-04T10:05:46.000Z</time>
      </trkpt>
      <trkpt lat="50.13479" lon="4.16478">
        <ele>242.80000305176</ele>
        <time>2025-01-04T10:05:50.000Z</time>
      </trkpt>
      <trkpt lat="50.1348" lon="4.16474">
        <ele>242.60000610352</ele>
        <time>2025-01-04T10:05:51.000Z</time>
      </trkpt>
      <trkpt lat="50.1348" lon="4.16432">
        <ele>242</ele>
        <time>2025-01-04T10:05:58.000Z</time>
      </trkpt>
      <trkpt lat="50.13483" lon="4.16416">
        <ele>241.80000305176</ele>
        <time>2025-01-04T10:06:00.000Z</time>
      </trkpt>
      <trkpt lat="50.13484" lon="4.164">
        <ele>241.60000610352</ele>
        <time>2025-01-04T10:06:02.000Z</time>
      </trkpt>
      <trkpt lat="50.13484" lon="4.16391">
        <ele>241.19999694824</ele>
        <time>2025-01-04T10:06:03.000Z</time>
      </trkpt>
      <trkpt lat="50.13486" lon="4.16351">
        <ele>240.39999389648</ele>
        <time>2025-01-04T10:06:09.000Z</time>
      </trkpt>
      <trkpt lat="50.13489" lon="4.16316">
        <ele>239.60000610352</ele>
        <time>2025-01-04T10:06:15.000Z</time>
      </trkpt>
      <trkpt lat="50.13489" lon="4.16311">
        <ele>239.39999389648</ele>
        <time>2025-01-04T10:06:16.000Z</time>
      </trkpt>
      <trkpt lat="50.13492" lon="4.16287">
        <ele>239</ele>
        <time>2025-01-04T10:06:20.000Z</time>
      </trkpt>
      <trkpt lat="50.13493" lon="4.16252">
        <ele>238.60000610352</ele>
        <time>2025-01-04T10:06:26.000Z</time>
      </trkpt>
      <trkpt lat="50.13497" lon="4.16225">
        <ele>238.39999389648</ele>
        <time>2025-01-04T10:06:30.000Z</time>
      </trkpt>
      <trkpt lat="50.13498" lon="4.16208">
        <ele>238.19999694824</ele>
        <time>2025-01-04T10:06:33.000Z</time>
      </trkpt>
      <trkpt lat="50.13499" lon="4.16201">
        <ele>238.19999694824</ele>
        <time>2025-01-04T10:06:34.000Z</time>
      </trkpt>
      <trkpt lat="50.13503" lon="4.16168">
        <ele>238</ele>
        <time>2025-01-04T10:06:39.000Z</time>
      </trkpt>
      <trkpt lat="50.13506" lon="4.16147">
        <ele>237.60000610352</ele>
        <time>2025-01-04T10:06:42.000Z</time>
      </trkpt>
      <trkpt lat="50.13508" lon="4.16128">
        <ele>237.19999694824</ele>
        <time>2025-01-04T10:06:45.000Z</time>
      </trkpt>
      <trkpt lat="50.13509" lon="4.16122">
        <ele>237</ele>
        <time>2025-01-04T10:06:46.000Z</time>
      </trkpt>
      <trkpt lat="50.13511" lon="4.16094">
        <ele>236.60000610352</ele>
        <time>2025-01-04T10:06:51.000Z</time>
      </trkpt>
      <trkpt lat="50.13508" lon="4.16076">
        <ele>236</ele>
        <time>2025-01-04T10:06:54.000Z</time>
      </trkpt>
      <trkpt lat="50.13508" lon="4.16071">
        <ele>236</ele>
        <time>2025-01-04T10:06:55.000Z</time>
      </trkpt>
      <trkpt lat="50.1351" lon="4.16038">
        <ele>235.39999389648</ele>
        <time>2025-01-04T10:07:00.000Z</time>
      </trkpt>
      <trkpt lat="50.13509" lon="4.16012">
        <ele>235</ele>
        <time>2025-01-04T10:07:04.000Z</time>
      </trkpt>
      <trkpt lat="50.13514" lon="4.15979">
        <ele>234.60000610352</ele>
        <time>2025-01-04T10:07:10.000Z</time>
      </trkpt>
      <trkpt lat="50.13519" lon="4.15949">
        <ele>234</ele>
        <time>2025-01-04T10:07:15.000Z</time>
      </trkpt>
      <trkpt lat="50.13516" lon="4.15931">
        <ele>233.80000305176</ele>
        <time>2025-01-04T10:07:18.000Z</time>
      </trkpt>
      <trkpt lat="50.13519" lon="4.15914">
        <ele>233.39999389648</ele>
        <time>2025-01-04T10:07:21.000Z</time>
      </trkpt>
      <trkpt lat="50.13521" lon="4.1589">
        <ele>232.39999389648</ele>
        <time>2025-01-04T10:07:25.000Z</time>
      </trkpt>
      <trkpt lat="50.13522" lon="4.15884">
        <ele>232.39999389648</ele>
        <time>2025-01-04T10:07:26.000Z</time>
      </trkpt>
      <trkpt lat="50.13523" lon="4.15871">
        <ele>231.80000305176</ele>
        <time>2025-01-04T10:07:28.000Z</time>
      </trkpt>
      <trkpt lat="50.13524" lon="4.15865">
        <ele>231.19999694824</ele>
        <time>2025-01-04T10:07:29.000Z</time>
      </trkpt>
      <trkpt lat="50.13527" lon="4.15842">
        <ele>229.80000305176</ele>
        <time>2025-01-04T10:07:33.000Z</time>
      </trkpt>
      <trkpt lat="50.13528" lon="4.15832">
        <ele>228.39999389648</ele>
        <time>2025-01-04T10:07:35.000Z</time>
      </trkpt>
      <trkpt lat="50.13529" lon="4.15827">
        <ele>227.60000610352</ele>
        <time>2025-01-04T10:07:36.000Z</time>
      </trkpt>
      <trkpt lat="50.13529" lon="4.15824">
        <ele>227.19999694824</ele>
        <time>2025-01-04T10:07:37.000Z</time>
      </trkpt>
      <trkpt lat="50.1353" lon="4.15817">
        <ele>225.80000305176</ele>
        <time>2025-01-04T10:07:39.000Z</time>
      </trkpt>
      <trkpt lat="50.13531" lon="4.15813">
        <ele>224.80000305176</ele>
        <time>2025-01-04T10:07:40.000Z</time>
      </trkpt>
      <trkpt lat="50.13532" lon="4.1581">
        <ele>224.39999389648</ele>
        <time>2025-01-04T10:07:41.000Z</time>
      </trkpt>
      <trkpt lat="50.13532" lon="4.15806">
        <ele>223.80000305176</ele>
        <time>2025-01-04T10:07:42.000Z</time>
      </trkpt>
      <trkpt lat="50.13533" lon="4.15798">
        <ele>222.60000610352</ele>
        <time>2025-01-04T10:07:44.000Z</time>
      </trkpt>
      <trkpt lat="50.13533" lon="4.15791">
        <ele>221.39999389648</ele>
        <time>2025-01-04T10:07:46.000Z</time>
      </trkpt>
      <trkpt lat="50.13534" lon="4.15784">
        <ele>220.19999694824</ele>
        <time>2025-01-04T10:07:48.000Z</time>
      </trkpt>
      <trkpt lat="50.13534" lon="4.15777">
        <ele>219.19999694824</ele>
        <time>2025-01-04T10:07:50.000Z</time>
      </trkpt>
      <trkpt lat="50.13535" lon="4.15769">
        <ele>218</ele>
        <time>2025-01-04T10:07:52.000Z</time>
      </trkpt>
      <trkpt lat="50.13533" lon="4.15767">
        <ele>217.60000610352</ele>
        <time>2025-01-04T10:07:53.000Z</time>
      </trkpt>
      <trkpt lat="50.13532" lon="4.15764">
        <ele>216.60000610352</ele>
        <time>2025-01-04T10:07:54.000Z</time>
      </trkpt>
      <trkpt lat="50.1353" lon="4.15759">
        <ele>215</ele>
        <time>2025-01-04T10:07:56.000Z</time>
      </trkpt>
      <trkpt lat="50.13527" lon="4.15754">
        <ele>213.19999694824</ele>
        <time>2025-01-04T10:07:58.000Z</time>
      </trkpt>
      <trkpt lat="50.13527" lon="4.1575">
        <ele>212.19999694824</ele>
        <time>2025-01-04T10:07:59.000Z</time>
      </trkpt>
      <trkpt lat="50.13528" lon="4.15749">
        <ele>211.60000610352</ele>
        <time>2025-01-04T10:08:00.000Z</time>
      </trkpt>
      <trkpt lat="50.13528" lon="4.15748">
        <ele>210.39999389648</ele>
        <time>2025-01-04T10:08:01.000Z</time>
      </trkpt>
      <trkpt lat="50.13528" lon="4.15746">
        <ele>210.19999694824</ele>
        <time>2025-01-04T10:08:02.000Z</time>
      </trkpt>
      <trkpt lat="50.13527" lon="4.15744">
        <ele>209.19999694824</ele>
        <time>2025-01-04T10:08:03.000Z</time>
      </trkpt>
      <trkpt lat="50.13525" lon="4.15742">
        <ele>208.19999694824</ele>
        <time>2025-01-04T10:08:05.000Z</time>
      </trkpt>
      <trkpt lat="50.13525" lon="4.15742">
        <ele>207</ele>
        <time>2025-01-04T10:08:09.000Z</time>
      </trkpt>
      <trkpt lat="50.13527" lon="4.15742">
        <ele>206.60000610352</ele>
        <time>2025-01-04T10:08:24.000Z</time>
      </trkpt>
      <trkpt lat="50.13527" lon="4.15742">
        <ele>206.60000610352</ele>
        <time>2025-01-04T10:08:33.000Z</time>
      </trkpt>
      <trkpt lat="50.13527" lon="4.15737">
        <ele>205.80000305176</ele>
        <time>2025-01-04T10:08:36.000Z</time>
      </trkpt>
      <trkpt lat="50.13527" lon="4.15737">
        <ele>204.60000610352</ele>
        <time>2025-01-04T10:08:38.000Z</time>
      </trkpt>
      <trkpt lat="50.13527" lon="4.15737">
        <ele>204.39999389648</ele>
        <time>2025-01-04T10:08:39.000Z</time>
      </trkpt>
      <trkpt lat="50.13528" lon="4.15734">
        <ele>204</ele>
        <time>2025-01-04T10:08:40.000Z</time>
      </trkpt>
      <trkpt lat="50.13529" lon="4.15725">
        <ele>203.60000610352</ele>
        <time>2025-01-04T10:08:43.000Z</time>
      </trkpt>
      <trkpt lat="50.1353" lon="4.1572">
        <ele>203.39999389648</ele>
        <time>2025-01-04T10:08:44.000Z</time>
      </trkpt>
      <trkpt lat="50.1353" lon="4.15715">
        <ele>203.39999389648</ele>
        <time>2025-01-04T10:08:45.000Z</time>
      </trkpt>
      <trkpt lat="50.13528" lon="4.15707">
        <ele>203.19999694824</ele>
        <time>2025-01-04T10:08:47.000Z</time>
      </trkpt>
      <trkpt lat="50.13523" lon="4.15701">
        <ele>203.39999389648</ele>
        <time>2025-01-04T10:08:50.000Z</time>
      </trkpt>
      <trkpt lat="50.13514" lon="4.15695">
        <ele>203.80000305176</ele>
        <time>2025-01-04T10:08:53.000Z</time>
      </trkpt>
      <trkpt lat="50.13508" lon="4.1569">
        <ele>203.80000305176</ele>
        <time>2025-01-04T10:08:55.000Z</time>
      </trkpt>
      <trkpt lat="50.13488" lon="4.15683">
        <ele>204.39999389648</ele>
        <time>2025-01-04T10:09:00.000Z</time>
      </trkpt>
      <trkpt lat="50.1347" lon="4.1568">
        <ele>205.19999694824</ele>
        <time>2025-01-04T10:09:05.000Z</time>
      </trkpt>
      <trkpt lat="50.1346" lon="4.15678">
        <ele>205.39999389648</ele>
        <time>2025-01-04T10:09:07.000Z</time>
      </trkpt>
      <trkpt lat="50.13445" lon="4.15678">
        <ele>205.19999694824</ele>
        <time>2025-01-04T10:09:11.000Z</time>
      </trkpt>
      <trkpt lat="50.13412" lon="4.15679">
        <ele>204</ele>
        <time>2025-01-04T10:09:19.000Z</time>
      </trkpt>
      <trkpt lat="50.13409" lon="4.15678">
        <ele>204</ele>
        <time>2025-01-04T10:09:20.000Z</time>
      </trkpt>
      <trkpt lat="50.13397" lon="4.15674">
        <ele>203.39999389648</ele>
        <time>2025-01-04T10:09:24.000Z</time>
      </trkpt>
      <trkpt lat="50.13396" lon="4.1567">
        <ele>203.19999694824</ele>
        <time>2025-01-04T10:09:26.000Z</time>
      </trkpt>
      <trkpt lat="50.13395" lon="4.15662">
        <ele>203.19999694824</ele>
        <time>2025-01-04T10:09:28.000Z</time>
      </trkpt>
      <trkpt lat="50.13399" lon="4.15642">
        <ele>203.19999694824</ele>
        <time>2025-01-04T10:09:32.000Z</time>
      </trkpt>
      <trkpt lat="50.13407" lon="4.15612">
        <ele>203.39999389648</ele>
        <time>2025-01-04T10:09:38.000Z</time>
      </trkpt>
      <trkpt lat="50.13414" lon="4.15593">
        <ele>203.80000305176</ele>
        <time>2025-01-04T10:09:42.000Z</time>
      </trkpt>
      <trkpt lat="50.13417" lon="4.15566">
        <ele>204.39999389648</ele>
        <time>2025-01-04T10:09:47.000Z</time>
      </trkpt>
      <trkpt lat="50.13418" lon="4.15559">
        <ele>204.60000610352</ele>
        <time>2025-01-04T10:09:48.000Z</time>
      </trkpt>
      <trkpt lat="50.13421" lon="4.15544">
        <ele>205</ele>
        <time>2025-01-04T10:09:51.000Z</time>
      </trkpt>
      <trkpt lat="50.13424" lon="4.15516">
        <ele>205.19999694824</ele>
        <time>2025-01-04T10:09:56.000Z</time>
      </trkpt>
      <trkpt lat="50.13424" lon="4.15512">
        <ele>205.19999694824</ele>
        <time>2025-01-04T10:09:57.000Z</time>
      </trkpt>
      <trkpt lat="50.13426" lon="4.15502">
        <ele>205.39999389648</ele>
        <time>2025-01-04T10:10:00.000Z</time>
      </trkpt>
      <trkpt lat="50.13429" lon="4.15496">
        <ele>205.39999389648</ele>
        <time>2025-01-04T10:10:02.000Z</time>
      </trkpt>
      <trkpt lat="50.13433" lon="4.15473">
        <ele>205.60000610352</ele>
        <time>2025-01-04T10:10:08.000Z</time>
      </trkpt>
      <trkpt lat="50.13433" lon="4.1547">
        <ele>205.80000305176</ele>
        <time>2025-01-04T10:10:09.000Z</time>
      </trkpt>
      <trkpt lat="50.13432" lon="4.15467">
        <ele>205.80000305176</ele>
        <time>2025-01-04T10:10:10.000Z</time>
      </trkpt>
      <trkpt lat="50.13437" lon="4.15454">
        <ele>206.19999694824</ele>
        <time>2025-01-04T10:10:14.000Z</time>
      </trkpt>
      <trkpt lat="50.13448" lon="4.15432">
        <ele>206.60000610352</ele>
        <time>2025-01-04T10:10:20.000Z</time>
      </trkpt>
      <trkpt lat="50.13454" lon="4.15408">
        <ele>207</ele>
        <time>2025-01-04T10:10:26.000Z</time>
      </trkpt>
      <trkpt lat="50.13453" lon="4.15395">
        <ele>207.39999389648</ele>
        <time>2025-01-04T10:10:29.000Z</time>
      </trkpt>
      <trkpt lat="50.13453" lon="4.15381">
        <ele>207.60000610352</ele>
        <time>2025-01-04T10:10:32.000Z</time>
      </trkpt>
      <trkpt lat="50.1345" lon="4.15377">
        <ele>207.60000610352</ele>
        <time>2025-01-04T10:10:33.000Z</time>
      </trkpt>
      <trkpt lat="50.13447" lon="4.15367">
        <ele>207.80000305176</ele>
        <time>2025-01-04T10:10:35.000Z</time>
      </trkpt>
      <trkpt lat="50.13448" lon="4.15363">
        <ele>208</ele>
        <time>2025-01-04T10:10:36.000Z</time>
      </trkpt>
      <trkpt lat="50.13448" lon="4.15359">
        <ele>208.19999694824</ele>
        <time>2025-01-04T10:10:37.000Z</time>
      </trkpt>
      <trkpt lat="50.1345" lon="4.15344">
        <ele>208.39999389648</ele>
        <time>2025-01-04T10:10:40.000Z</time>
      </trkpt>
      <trkpt lat="50.13446" lon="4.15337">
        <ele>208.80000305176</ele>
        <time>2025-01-04T10:10:42.000Z</time>
      </trkpt>
      <trkpt lat="50.13447" lon="4.15332">
        <ele>209.19999694824</ele>
        <time>2025-01-04T10:10:43.000Z</time>
      </trkpt>
      <trkpt lat="50.13445" lon="4.15327">
        <ele>209.80000305176</ele>
        <time>2025-01-04T10:10:45.000Z</time>
      </trkpt>
      <trkpt lat="50.13443" lon="4.15324">
        <ele>210</ele>
        <time>2025-01-04T10:10:46.000Z</time>
      </trkpt>
      <trkpt lat="50.13444" lon="4.15316">
        <ele>210.39999389648</ele>
        <time>2025-01-04T10:10:48.000Z</time>
      </trkpt>
      <trkpt lat="50.13447" lon="4.15304">
        <ele>210.80000305176</ele>
        <time>2025-01-04T10:10:51.000Z</time>
      </trkpt>
      <trkpt lat="50.13446" lon="4.15292">
        <ele>211.39999389648</ele>
        <time>2025-01-04T10:10:54.000Z</time>
      </trkpt>
      <trkpt lat="50.13446" lon="4.15285">
        <ele>212</ele>
        <time>2025-01-04T10:10:56.000Z</time>
      </trkpt>
      <trkpt lat="50.13448" lon="4.15271">
        <ele>212.80000305176</ele>
        <time>2025-01-04T10:10:59.000Z</time>
      </trkpt>
      <trkpt lat="50.13449" lon="4.15268">
        <ele>213.19999694824</ele>
        <time>2025-01-04T10:11:00.000Z</time>
      </trkpt>
      <trkpt lat="50.13454" lon="4.15252">
        <ele>214.39999389648</ele>
        <time>2025-01-04T10:11:04.000Z</time>
      </trkpt>
      <trkpt lat="50.13451" lon="4.15248">
        <ele>214.60000610352</ele>
        <time>2025-01-04T10:11:05.000Z</time>
      </trkpt>
      <trkpt lat="50.13451" lon="4.15244">
        <ele>215</ele>
        <time>2025-01-04T10:11:06.000Z</time>
      </trkpt>
      <trkpt lat="50.13451" lon="4.15239">
        <ele>215.60000610352</ele>
        <time>2025-01-04T10:11:08.000Z</time>
      </trkpt>
      <trkpt lat="50.13451" lon="4.15235">
        <ele>216.80000305176</ele>
        <time>2025-01-04T10:11:10.000Z</time>
      </trkpt>
      <trkpt lat="50.13454" lon="4.15227">
        <ele>217.60000610352</ele>
        <time>2025-01-04T10:11:12.000Z</time>
      </trkpt>
      <trkpt lat="50.13455" lon="4.15223">
        <ele>218</ele>
        <time>2025-01-04T10:11:13.000Z</time>
      </trkpt>
      <trkpt lat="50.13457" lon="4.15217">
        <ele>219</ele>
        <time>2025-01-04T10:11:15.000Z</time>
      </trkpt>
      <trkpt lat="50.13456" lon="4.1521">
        <ele>219.80000305176</ele>
        <time>2025-01-04T10:11:17.000Z</time>
      </trkpt>
      <trkpt lat="50.1346" lon="4.152">
        <ele>220.19999694824</ele>
        <time>2025-01-04T10:11:19.000Z</time>
      </trkpt>
      <trkpt lat="50.13464" lon="4.1519">
        <ele>221.19999694824</ele>
        <time>2025-01-04T10:11:22.000Z</time>
      </trkpt>
      <trkpt lat="50.13465" lon="4.15185">
        <ele>222.60000610352</ele>
        <time>2025-01-04T10:11:25.000Z</time>
      </trkpt>
      <trkpt lat="50.13468" lon="4.15181">
        <ele>223.60000610352</ele>
        <time>2025-01-04T10:11:27.000Z</time>
      </trkpt>
      <trkpt lat="50.13474" lon="4.1517">
        <ele>224.39999389648</ele>
        <time>2025-01-04T10:11:31.000Z</time>
      </trkpt>
      <trkpt lat="50.13475" lon="4.15166">
        <ele>224.39999389648</ele>
        <time>2025-01-04T10:11:32.000Z</time>
      </trkpt>
      <trkpt lat="50.13482" lon="4.15158">
        <ele>225.39999389648</ele>
        <time>2025-01-04T10:11:35.000Z</time>
      </trkpt>
      <trkpt lat="50.13481" lon="4.15155">
        <ele>225.80000305176</ele>
        <time>2025-01-04T10:11:36.000Z</time>
      </trkpt>
      <trkpt lat="50.13484" lon="4.15148">
        <ele>226.39999389648</ele>
        <time>2025-01-04T10:11:38.000Z</time>
      </trkpt>
      <trkpt lat="50.13487" lon="4.15146">
        <ele>226.60000610352</ele>
        <time>2025-01-04T10:11:40.000Z</time>
      </trkpt>
      <trkpt lat="50.13489" lon="4.15142">
        <ele>226.60000610352</ele>
        <time>2025-01-04T10:11:41.000Z</time>
      </trkpt>
      <trkpt lat="50.13491" lon="4.15135">
        <ele>227</ele>
        <time>2025-01-04T10:11:43.000Z</time>
      </trkpt>
      <trkpt lat="50.13494" lon="4.15125">
        <ele>228</ele>
        <time>2025-01-04T10:11:46.000Z</time>
      </trkpt>
      <trkpt lat="50.13499" lon="4.15107">
        <ele>229</ele>
        <time>2025-01-04T10:11:50.000Z</time>
      </trkpt>
      <trkpt lat="50.135" lon="4.15103">
        <ele>229</ele>
        <time>2025-01-04T10:11:51.000Z</time>
      </trkpt>
      <trkpt lat="50.13504" lon="4.1509">
        <ele>230</ele>
        <time>2025-01-04T10:11:55.000Z</time>
      </trkpt>
      <trkpt lat="50.13505" lon="4.15086">
        <ele>230</ele>
        <time>2025-01-04T10:11:56.000Z</time>
      </trkpt>
      <trkpt lat="50.13504" lon="4.15082">
        <ele>230.19999694824</ele>
        <time>2025-01-04T10:11:57.000Z</time>
      </trkpt>
      <trkpt lat="50.13505" lon="4.15062">
        <ele>230.80000305176</ele>
        <time>2025-01-04T10:12:02.000Z</time>
      </trkpt>
      <trkpt lat="50.13508" lon="4.1505">
        <ele>231.19999694824</ele>
        <time>2025-01-04T10:12:05.000Z</time>
      </trkpt>
      <trkpt lat="50.13509" lon="4.15046">
        <ele>231.60000610352</ele>
        <time>2025-01-04T10:12:07.000Z</time>
      </trkpt>
      <trkpt lat="50.13511" lon="4.15029">
        <ele>232</ele>
        <time>2025-01-04T10:12:13.000Z</time>
      </trkpt>
      <trkpt lat="50.13511" lon="4.15026">
        <ele>232</ele>
        <time>2025-01-04T10:12:14.000Z</time>
      </trkpt>
      <trkpt lat="50.13513" lon="4.15013">
        <ele>232.39999389648</ele>
        <time>2025-01-04T10:12:17.000Z</time>
      </trkpt>
      <trkpt lat="50.13514" lon="4.15005">
        <ele>232.39999389648</ele>
        <time>2025-01-04T10:12:19.000Z</time>
      </trkpt>
      <trkpt lat="50.13514" lon="4.15002">
        <ele>232.60000610352</ele>
        <time>2025-01-04T10:12:20.000Z</time>
      </trkpt>
      <trkpt lat="50.1352" lon="4.14982">
        <ele>233.19999694824</ele>
        <time>2025-01-04T10:12:26.000Z</time>
      </trkpt>
      <trkpt lat="50.1352" lon="4.14979">
        <ele>233.19999694824</ele>
        <time>2025-01-04T10:12:27.000Z</time>
      </trkpt>
      <trkpt lat="50.13527" lon="4.14964">
        <ele>233.39999389648</ele>
        <time>2025-01-04T10:12:31.000Z</time>
      </trkpt>
      <trkpt lat="50.13531" lon="4.1495">
        <ele>233.60000610352</ele>
        <time>2025-01-04T10:12:34.000Z</time>
      </trkpt>
      <trkpt lat="50.13533" lon="4.14944">
        <ele>233.80000305176</ele>
        <time>2025-01-04T10:12:36.000Z</time>
      </trkpt>
      <trkpt lat="50.1354" lon="4.14913">
        <ele>234</ele>
        <time>2025-01-04T10:12:42.000Z</time>
      </trkpt>
      <trkpt lat="50.13538" lon="4.1491">
        <ele>234</ele>
        <time>2025-01-04T10:12:43.000Z</time>
      </trkpt>
      <trkpt lat="50.13538" lon="4.14908">
        <ele>234.19999694824</ele>
        <time>2025-01-04T10:12:44.000Z</time>
      </trkpt>
      <trkpt lat="50.13538" lon="4.14905">
        <ele>234.19999694824</ele>
        <time>2025-01-04T10:12:45.000Z</time>
      </trkpt>
      <trkpt lat="50.13538" lon="4.149">
        <ele>234.19999694824</ele>
        <time>2025-01-04T10:12:47.000Z</time>
      </trkpt>
      <trkpt lat="50.1354" lon="4.14897">
        <ele>234.19999694824</ele>
        <time>2025-01-04T10:12:48.000Z</time>
      </trkpt>
      <trkpt lat="50.13543" lon="4.14884">
        <ele>234.39999389648</ele>
        <time>2025-01-04T10:12:52.000Z</time>
      </trkpt>
      <trkpt lat="50.13544" lon="4.14854">
        <ele>234.60000610352</ele>
        <time>2025-01-04T10:12:57.000Z</time>
      </trkpt>
      <trkpt lat="50.13549" lon="4.14834">
        <ele>235.39999389648</ele>
        <time>2025-01-04T10:13:01.000Z</time>
      </trkpt>
      <trkpt lat="50.13549" lon="4.14826">
        <ele>236</ele>
        <time>2025-01-04T10:13:03.000Z</time>
      </trkpt>
      <trkpt lat="50.13551" lon="4.14814">
        <ele>236.39999389648</ele>
        <time>2025-01-04T10:13:06.000Z</time>
      </trkpt>
      <trkpt lat="50.13552" lon="4.14811">
        <ele>236.80000305176</ele>
        <time>2025-01-04T10:13:07.000Z</time>
      </trkpt>
      <trkpt lat="50.13554" lon="4.14804">
        <ele>237</ele>
        <time>2025-01-04T10:13:09.000Z</time>
      </trkpt>
      <trkpt lat="50.13556" lon="4.14797">
        <ele>237.39999389648</ele>
        <time>2025-01-04T10:13:11.000Z</time>
      </trkpt>
      <trkpt lat="50.1356" lon="4.14775">
        <ele>238.39999389648</ele>
        <time>2025-01-04T10:13:15.000Z</time>
      </trkpt>
      <trkpt lat="50.13562" lon="4.14749">
        <ele>239.80000305176</ele>
        <time>2025-01-04T10:13:20.000Z</time>
      </trkpt>
      <trkpt lat="50.13564" lon="4.14743">
        <ele>239.80000305176</ele>
        <time>2025-01-04T10:13:21.000Z</time>
      </trkpt>
      <trkpt lat="50.13569" lon="4.14716">
        <ele>240.60000610352</ele>
        <time>2025-01-04T10:13:26.000Z</time>
      </trkpt>
      <trkpt lat="50.13569" lon="4.14711">
        <ele>240.80000305176</ele>
        <time>2025-01-04T10:13:27.000Z</time>
      </trkpt>
      <trkpt lat="50.13568" lon="4.14692">
        <ele>241.60000610352</ele>
        <time>2025-01-04T10:13:31.000Z</time>
      </trkpt>
      <trkpt lat="50.13568" lon="4.14673">
        <ele>242.19999694824</ele>
        <time>2025-01-04T10:13:35.000Z</time>
      </trkpt>
      <trkpt lat="50.1357" lon="4.14664">
        <ele>242.80000305176</ele>
        <time>2025-01-04T10:13:37.000Z</time>
      </trkpt>
      <trkpt lat="50.13572" lon="4.14659">
        <ele>243.19999694824</ele>
        <time>2025-01-04T10:13:40.000Z</time>
      </trkpt>
      <trkpt lat="50.13573" lon="4.14646">
        <ele>244</ele>
        <time>2025-01-04T10:13:45.000Z</time>
      </trkpt>
      <trkpt lat="50.13574" lon="4.14644">
        <ele>244</ele>
        <time>2025-01-04T10:13:46.000Z</time>
      </trkpt>
      <trkpt lat="50.13576" lon="4.14627">
        <ele>244.60000610352</ele>
        <time>2025-01-04T10:13:52.000Z</time>
      </trkpt>
      <trkpt lat="50.13577" lon="4.14624">
        <ele>244.80000305176</ele>
        <time>2025-01-04T10:13:53.000Z</time>
      </trkpt>
      <trkpt lat="50.13579" lon="4.14618">
        <ele>245</ele>
        <time>2025-01-04T10:13:55.000Z</time>
      </trkpt>
      <trkpt lat="50.1358" lon="4.14616">
        <ele>245.19999694824</ele>
        <time>2025-01-04T10:13:56.000Z</time>
      </trkpt>
      <trkpt lat="50.13583" lon="4.14613">
        <ele>245.19999694824</ele>
        <time>2025-01-04T10:13:58.000Z</time>
      </trkpt>
      <trkpt lat="50.13592" lon="4.14598">
        <ele>246</ele>
        <time>2025-01-04T10:14:04.000Z</time>
      </trkpt>
      <trkpt lat="50.13593" lon="4.14594">
        <ele>246.19999694824</ele>
        <time>2025-01-04T10:14:05.000Z</time>
      </trkpt>
      <trkpt lat="50.13605" lon="4.14573">
        <ele>246.60000610352</ele>
        <time>2025-01-04T10:14:11.000Z</time>
      </trkpt>
      <trkpt lat="50.13616" lon="4.14552">
        <ele>247.19999694824</ele>
        <time>2025-01-04T10:14:17.000Z</time>
      </trkpt>
      <trkpt lat="50.13619" lon="4.14549">
        <ele>247.39999389648</ele>
        <time>2025-01-04T10:14:18.000Z</time>
      </trkpt>
      <trkpt lat="50.13628" lon="4.14531">
        <ele>248.19999694824</ele>
        <time>2025-01-04T10:14:22.000Z</time>
      </trkpt>
      <trkpt lat="50.13634" lon="4.14518">
        <ele>248.39999389648</ele>
        <time>2025-01-04T10:14:25.000Z</time>
      </trkpt>
      <trkpt lat="50.13649" lon="4.14491">
        <ele>249</ele>
        <time>2025-01-04T10:14:32.000Z</time>
      </trkpt>
      <trkpt lat="50.13653" lon="4.14483">
        <ele>249</ele>
        <time>2025-01-04T10:14:34.000Z</time>
      </trkpt>
      <trkpt lat="50.13664" lon="4.14456">
        <ele>249.60000610352</ele>
        <time>2025-01-04T10:14:40.000Z</time>
      </trkpt>
      <trkpt lat="50.13669" lon="4.14433">
        <ele>249.39999389648</ele>
        <time>2025-01-04T10:14:44.000Z</time>
      </trkpt>
      <trkpt lat="50.13675" lon="4.14416">
        <ele>249.60000610352</ele>
        <time>2025-01-04T10:14:47.000Z</time>
      </trkpt>
      <trkpt lat="50.1368" lon="4.14399">
        <ele>249.39999389648</ele>
        <time>2025-01-04T10:14:50.000Z</time>
      </trkpt>
      <trkpt lat="50.13687" lon="4.14379">
        <ele>249</ele>
        <time>2025-01-04T10:14:53.000Z</time>
      </trkpt>
      <trkpt lat="50.13689" lon="4.14372">
        <ele>249</ele>
        <time>2025-01-04T10:14:54.000Z</time>
      </trkpt>
      <trkpt lat="50.1369" lon="4.14367">
        <ele>248.80000305176</ele>
        <time>2025-01-04T10:14:55.000Z</time>
      </trkpt>
      <trkpt lat="50.13704" lon="4.14334">
        <ele>248.19999694824</ele>
        <time>2025-01-04T10:15:00.000Z</time>
      </trkpt>
      <trkpt lat="50.13711" lon="4.14319">
        <ele>247.80000305176</ele>
        <time>2025-01-04T10:15:02.000Z</time>
      </trkpt>
      <trkpt lat="50.13723" lon="4.14288">
        <ele>247</ele>
        <time>2025-01-04T10:15:06.000Z</time>
      </trkpt>
      <trkpt lat="50.13726" lon="4.14279">
        <ele>246.80000305176</ele>
        <time>2025-01-04T10:15:07.000Z</time>
      </trkpt>
      <trkpt lat="50.13741" lon="4.14248">
        <ele>245.60000610352</ele>
        <time>2025-01-04T10:15:11.000Z</time>
      </trkpt>
      <trkpt lat="50.13753" lon="4.14227">
        <ele>245.19999694824</ele>
        <time>2025-01-04T10:15:14.000Z</time>
      </trkpt>
      <trkpt lat="50.13765" lon="4.14205">
        <ele>244.60000610352</ele>
        <time>2025-01-04T10:15:17.000Z</time>
      </trkpt>
      <trkpt lat="50.13775" lon="4.14185">
        <ele>244.19999694824</ele>
        <time>2025-01-04T10:15:20.000Z</time>
      </trkpt>
      <trkpt lat="50.13794" lon="4.14162">
        <ele>243.60000610352</ele>
        <time>2025-01-04T10:15:24.000Z</time>
      </trkpt>
      <trkpt lat="50.13799" lon="4.14157">
        <ele>243.19999694824</ele>
        <time>2025-01-04T10:15:25.000Z</time>
      </trkpt>
      <trkpt lat="50.13816" lon="4.14146">
        <ele>242.39999389648</ele>
        <time>2025-01-04T10:15:28.000Z</time>
      </trkpt>
      <trkpt lat="50.13836" lon="4.14136">
        <ele>242</ele>
        <time>2025-01-04T10:15:31.000Z</time>
      </trkpt>
      <trkpt lat="50.13848" lon="4.14127">
        <ele>241.19999694824</ele>
        <time>2025-01-04T10:15:33.000Z</time>
      </trkpt>
      <trkpt lat="50.13864" lon="4.14112">
        <ele>240.19999694824</ele>
        <time>2025-01-04T10:15:36.000Z</time>
      </trkpt>
      <trkpt lat="50.13888" lon="4.14097">
        <ele>238.60000610352</ele>
        <time>2025-01-04T10:15:40.000Z</time>
      </trkpt>
      <trkpt lat="50.13902" lon="4.14088">
        <ele>237.60000610352</ele>
        <time>2025-01-04T10:15:42.000Z</time>
      </trkpt>
      <trkpt lat="50.13915" lon="4.14081">
        <ele>236.19999694824</ele>
        <time>2025-01-04T10:15:44.000Z</time>
      </trkpt>
      <trkpt lat="50.13932" lon="4.1407">
        <ele>235</ele>
        <time>2025-01-04T10:15:47.000Z</time>
      </trkpt>
      <trkpt lat="50.13939" lon="4.14065">
        <ele>234.60000610352</ele>
        <time>2025-01-04T10:15:48.000Z</time>
      </trkpt>
      <trkpt lat="50.13945" lon="4.14061">
        <ele>234.19999694824</ele>
        <time>2025-01-04T10:15:49.000Z</time>
      </trkpt>
      <trkpt lat="50.13956" lon="4.14055">
        <ele>233.80000305176</ele>
        <time>2025-01-04T10:15:51.000Z</time>
      </trkpt>
      <trkpt lat="50.13969" lon="4.14045">
        <ele>233.39999389648</ele>
        <time>2025-01-04T10:15:53.000Z</time>
      </trkpt>
      <trkpt lat="50.1398" lon="4.14033">
        <ele>232.39999389648</ele>
        <time>2025-01-04T10:15:55.000Z</time>
      </trkpt>
      <trkpt lat="50.1399" lon="4.14018">
        <ele>231.80000305176</ele>
        <time>2025-01-04T10:15:57.000Z</time>
      </trkpt>
      <trkpt lat="50.13999" lon="4.14">
        <ele>231.19999694824</ele>
        <time>2025-01-04T10:15:59.000Z</time>
      </trkpt>
      <trkpt lat="50.14009" lon="4.13974">
        <ele>230.39999389648</ele>
        <time>2025-01-04T10:16:02.000Z</time>
      </trkpt>
      <trkpt lat="50.14012" lon="4.13966">
        <ele>229.60000610352</ele>
        <time>2025-01-04T10:16:03.000Z</time>
      </trkpt>
      <trkpt lat="50.14021" lon="4.13938">
        <ele>228.60000610352</ele>
        <time>2025-01-04T10:16:06.000Z</time>
      </trkpt>
      <trkpt lat="50.14032" lon="4.13911">
        <ele>227.39999389648</ele>
        <time>2025-01-04T10:16:09.000Z</time>
      </trkpt>
      <trkpt lat="50.14042" lon="4.13885">
        <ele>226</ele>
        <time>2025-01-04T10:16:12.000Z</time>
      </trkpt>
      <trkpt lat="50.14051" lon="4.13858">
        <ele>225.19999694824</ele>
        <time>2025-01-04T10:16:15.000Z</time>
      </trkpt>
      <trkpt lat="50.14055" lon="4.13848">
        <ele>224.80000305176</ele>
        <time>2025-01-04T10:16:16.000Z</time>
      </trkpt>
      <trkpt lat="50.14066" lon="4.13812">
        <ele>224</ele>
        <time>2025-01-04T10:16:20.000Z</time>
      </trkpt>
      <trkpt lat="50.14071" lon="4.13795">
        <ele>223.80000305176</ele>
        <time>2025-01-04T10:16:22.000Z</time>
      </trkpt>
      <trkpt lat="50.14077" lon="4.13759">
        <ele>222.60000610352</ele>
        <time>2025-01-04T10:16:26.000Z</time>
      </trkpt>
      <trkpt lat="50.14082" lon="4.13733">
        <ele>222</ele>
        <time>2025-01-04T10:16:29.000Z</time>
      </trkpt>
      <trkpt lat="50.14087" lon="4.13717">
        <ele>221.39999389648</ele>
        <time>2025-01-04T10:16:31.000Z</time>
      </trkpt>
      <trkpt lat="50.14097" lon="4.13686">
        <ele>220.19999694824</ele>
        <time>2025-01-04T10:16:35.000Z</time>
      </trkpt>
      <trkpt lat="50.14099" lon="4.13679">
        <ele>220</ele>
        <time>2025-01-04T10:16:36.000Z</time>
      </trkpt>
      <trkpt lat="50.14106" lon="4.13639">
        <ele>219</ele>
        <time>2025-01-04T10:16:41.000Z</time>
      </trkpt>
      <trkpt lat="50.14109" lon="4.13615">
        <ele>218.19999694824</ele>
        <time>2025-01-04T10:16:44.000Z</time>
      </trkpt>
      <trkpt lat="50.1411" lon="4.13607">
        <ele>217.39999389648</ele>
        <time>2025-01-04T10:16:45.000Z</time>
      </trkpt>
      <trkpt lat="50.14115" lon="4.13577">
        <ele>216.19999694824</ele>
        <time>2025-01-04T10:16:49.000Z</time>
      </trkpt>
      <trkpt lat="50.1412" lon="4.13563">
        <ele>215.19999694824</ele>
        <time>2025-01-04T10:16:51.000Z</time>
      </trkpt>
      <trkpt lat="50.14122" lon="4.13557">
        <ele>214.60000610352</ele>
        <time>2025-01-04T10:16:52.000Z</time>
      </trkpt>
      <trkpt lat="50.14131" lon="4.13537">
        <ele>213.19999694824</ele>
        <time>2025-01-04T10:16:55.000Z</time>
      </trkpt>
      <trkpt lat="50.14137" lon="4.13525">
        <ele>211.39999389648</ele>
        <time>2025-01-04T10:16:57.000Z</time>
      </trkpt>
      <trkpt lat="50.14139" lon="4.13519">
        <ele>210.80000305176</ele>
        <time>2025-01-04T10:16:58.000Z</time>
      </trkpt>
      <trkpt lat="50.14142" lon="4.13513">
        <ele>210.39999389648</ele>
        <time>2025-01-04T10:16:59.000Z</time>
      </trkpt>
      <trkpt lat="50.14144" lon="4.13508">
        <ele>209.19999694824</ele>
        <time>2025-01-04T10:17:00.000Z</time>
      </trkpt>
      <trkpt lat="50.14148" lon="4.13499">
        <ele>208.19999694824</ele>
        <time>2025-01-04T10:17:02.000Z</time>
      </trkpt>
      <trkpt lat="50.14148" lon="4.13496">
        <ele>207.80000305176</ele>
        <time>2025-01-04T10:17:03.000Z</time>
      </trkpt>
      <trkpt lat="50.1415" lon="4.13494">
        <ele>207.19999694824</ele>
        <time>2025-01-04T10:17:04.000Z</time>
      </trkpt>
      <trkpt lat="50.14152" lon="4.13494">
        <ele>206.80000305176</ele>
        <time>2025-01-04T10:17:05.000Z</time>
      </trkpt>
      <trkpt lat="50.14155" lon="4.13496">
        <ele>206</ele>
        <time>2025-01-04T10:17:06.000Z</time>
      </trkpt>
      <trkpt lat="50.14158" lon="4.13499">
        <ele>205.39999389648</ele>
        <time>2025-01-04T10:17:07.000Z</time>
      </trkpt>
      <trkpt lat="50.14166" lon="4.13508">
        <ele>204.19999694824</ele>
        <time>2025-01-04T10:17:10.000Z</time>
      </trkpt>
      <trkpt lat="50.14171" lon="4.13513">
        <ele>203.39999389648</ele>
        <time>2025-01-04T10:17:12.000Z</time>
      </trkpt>
      <trkpt lat="50.14176" lon="4.13517">
        <ele>203.19999694824</ele>
        <time>2025-01-04T10:17:14.000Z</time>
      </trkpt>
      <trkpt lat="50.14182" lon="4.13521">
        <ele>203</ele>
        <time>2025-01-04T10:17:17.000Z</time>
      </trkpt>
      <trkpt lat="50.14196" lon="4.13537">
        <ele>203</ele>
        <time>2025-01-04T10:17:23.000Z</time>
      </trkpt>
      <trkpt lat="50.14203" lon="4.13546">
        <ele>203</ele>
        <time>2025-01-04T10:17:27.000Z</time>
      </trkpt>
      <trkpt lat="50.14209" lon="4.1355">
        <ele>203</ele>
        <time>2025-01-04T10:17:29.000Z</time>
      </trkpt>
      <trkpt lat="50.14222" lon="4.13561">
        <ele>203</ele>
        <time>2025-01-04T10:17:34.000Z</time>
      </trkpt>
      <trkpt lat="50.14225" lon="4.13569">
        <ele>203</ele>
        <time>2025-01-04T10:17:37.000Z</time>
      </trkpt>
      <trkpt lat="50.14228" lon="4.13575">
        <ele>203</ele>
        <time>2025-01-04T10:17:39.000Z</time>
      </trkpt>
      <trkpt lat="50.14236" lon="4.13588">
        <ele>203</ele>
        <time>2025-01-04T10:17:43.000Z</time>
      </trkpt>
      <trkpt lat="50.14242" lon="4.13592">
        <ele>203.19999694824</ele>
        <time>2025-01-04T10:17:45.000Z</time>
      </trkpt>
      <trkpt lat="50.14246" lon="4.13595">
        <ele>203.19999694824</ele>
        <time>2025-01-04T10:17:48.000Z</time>
      </trkpt>
      <trkpt lat="50.14251" lon="4.13593">
        <ele>203.39999389648</ele>
        <time>2025-01-04T10:17:50.000Z</time>
      </trkpt>
      <trkpt lat="50.1427" lon="4.13592">
        <ele>204.39999389648</ele>
        <time>2025-01-04T10:17:57.000Z</time>
      </trkpt>
      <trkpt lat="50.14279" lon="4.13595">
        <ele>205.39999389648</ele>
        <time>2025-01-04T10:18:00.000Z</time>
      </trkpt>
      <trkpt lat="50.14299" lon="4.13599">
        <ele>206</ele>
        <time>2025-01-04T10:18:05.000Z</time>
      </trkpt>
      <trkpt lat="50.14301" lon="4.13598">
        <ele>206.39999389648</ele>
        <time>2025-01-04T10:18:06.000Z</time>
      </trkpt>
      <trkpt lat="50.14315" lon="4.13603">
        <ele>207.39999389648</ele>
        <time>2025-01-04T10:18:11.000Z</time>
      </trkpt>
      <trkpt lat="50.14343" lon="4.13613">
        <ele>207.39999389648</ele>
        <time>2025-01-04T10:18:18.000Z</time>
      </trkpt>
      <trkpt lat="50.14351" lon="4.13616">
        <ele>206.60000610352</ele>
        <time>2025-01-04T10:18:21.000Z</time>
      </trkpt>
      <trkpt lat="50.14355" lon="4.13617">
        <ele>206.39999389648</ele>
        <time>2025-01-04T10:18:22.000Z</time>
      </trkpt>
      <trkpt lat="50.14358" lon="4.13617">
        <ele>205.60000610352</ele>
        <time>2025-01-04T10:18:23.000Z</time>
      </trkpt>
      <trkpt lat="50.14363" lon="4.13613">
        <ele>205.19999694824</ele>
        <time>2025-01-04T10:18:25.000Z</time>
      </trkpt>
      <trkpt lat="50.14371" lon="4.13607">
        <ele>204.60000610352</ele>
        <time>2025-01-04T10:18:28.000Z</time>
      </trkpt>
      <trkpt lat="50.14382" lon="4.13607">
        <ele>204.80000305176</ele>
        <time>2025-01-04T10:18:33.000Z</time>
      </trkpt>
      <trkpt lat="50.14403" lon="4.13612">
        <ele>205.39999389648</ele>
        <time>2025-01-04T10:18:40.000Z</time>
      </trkpt>
      <trkpt lat="50.14427" lon="4.13607">
        <ele>205.60000610352</ele>
        <time>2025-01-04T10:18:48.000Z</time>
      </trkpt>
      <trkpt lat="50.14452" lon="4.13596">
        <ele>205.19999694824</ele>
        <time>2025-01-04T10:18:55.000Z</time>
      </trkpt>
      <trkpt lat="50.14469" lon="4.1358">
        <ele>205.19999694824</ele>
        <time>2025-01-04T10:19:01.000Z</time>
      </trkpt>
      <trkpt lat="50.14488" lon="4.13566">
        <ele>205.19999694824</ele>
        <time>2025-01-04T10:19:07.000Z</time>
      </trkpt>
      <trkpt lat="50.14503" lon="4.13558">
        <ele>205.60000610352</ele>
        <time>2025-01-04T10:19:12.000Z</time>
      </trkpt>
      <trkpt lat="50.14518" lon="4.1355">
        <ele>206</ele>
        <time>2025-01-04T10:19:17.000Z</time>
      </trkpt>
      <trkpt lat="50.14521" lon="4.13549">
        <ele>206.19999694824</ele>
        <time>2025-01-04T10:19:18.000Z</time>
      </trkpt>
      <trkpt lat="50.14538" lon="4.13545">
        <ele>207.19999694824</ele>
        <time>2025-01-04T10:19:23.000Z</time>
      </trkpt>
      <trkpt lat="50.14541" lon="4.13544">
        <ele>208</ele>
        <time>2025-01-04T10:19:24.000Z</time>
      </trkpt>
      <trkpt lat="50.14544" lon="4.13544">
        <ele>208.60000610352</ele>
        <time>2025-01-04T10:19:25.000Z</time>
      </trkpt>
      <trkpt lat="50.14552" lon="4.13543">
        <ele>210</ele>
        <time>2025-01-04T10:19:28.000Z</time>
      </trkpt>
      <trkpt lat="50.14563" lon="4.13546">
        <ele>211.39999389648</ele>
        <time>2025-01-04T10:19:31.000Z</time>
      </trkpt>
      <trkpt lat="50.14579" lon="4.13548">
        <ele>212.39999389648</ele>
        <time>2025-01-04T10:19:36.000Z</time>
      </trkpt>
      <trkpt lat="50.14582" lon="4.13552">
        <ele>212.39999389648</ele>
        <time>2025-01-04T10:19:37.000Z</time>
      </trkpt>
      <trkpt lat="50.14609" lon="4.13566">
        <ele>212.80000305176</ele>
        <time>2025-01-04T10:19:45.000Z</time>
      </trkpt>
      <trkpt lat="50.14637" lon="4.13577">
        <ele>213</ele>
        <time>2025-01-04T10:19:53.000Z</time>
      </trkpt>
      <trkpt lat="50.14644" lon="4.13584">
        <ele>213.60000610352</ele>
        <time>2025-01-04T10:19:56.000Z</time>
      </trkpt>
      <trkpt lat="50.14653" lon="4.13591">
        <ele>214.60000610352</ele>
        <time>2025-01-04T10:20:00.000Z</time>
      </trkpt>
      <trkpt lat="50.14656" lon="4.13592">
        <ele>215</ele>
        <time>2025-01-04T10:20:01.000Z</time>
      </trkpt>
      <trkpt lat="50.14658" lon="4.13593">
        <ele>215</ele>
        <time>2025-01-04T10:20:02.000Z</time>
      </trkpt>
      <trkpt lat="50.1467" lon="4.13596">
        <ele>215.19999694824</ele>
        <time>2025-01-04T10:20:07.000Z</time>
      </trkpt>
      <trkpt lat="50.14689" lon="4.13608">
        <ele>214.80000305176</ele>
        <time>2025-01-04T10:20:12.000Z</time>
      </trkpt>
      <trkpt lat="50.14703" lon="4.13624">
        <ele>214.39999389648</ele>
        <time>2025-01-04T10:20:17.000Z</time>
      </trkpt>
      <trkpt lat="50.14716" lon="4.13634">
        <ele>214</ele>
        <time>2025-01-04T10:20:22.000Z</time>
      </trkpt>
      <trkpt lat="50.14733" lon="4.13636">
        <ele>213.39999389648</ele>
        <time>2025-01-04T10:20:27.000Z</time>
      </trkpt>
      <trkpt lat="50.14737" lon="4.13638">
        <ele>212.60000610352</ele>
        <time>2025-01-04T10:20:29.000Z</time>
      </trkpt>
      <trkpt lat="50.14739" lon="4.13639">
        <ele>212</ele>
        <time>2025-01-04T10:20:30.000Z</time>
      </trkpt>
      <trkpt lat="50.14742" lon="4.13642">
        <ele>210.39999389648</ele>
        <time>2025-01-04T10:20:33.000Z</time>
      </trkpt>
      <trkpt lat="50.14742" lon="4.13641">
        <ele>210</ele>
        <time>2025-01-04T10:20:35.000Z</time>
      </trkpt>
      <trkpt lat="50.14744" lon="4.13643">
        <ele>209.39999389648</ele>
        <time>2025-01-04T10:20:38.000Z</time>
      </trkpt>
      <trkpt lat="50.14748" lon="4.13649">
        <ele>209</ele>
        <time>2025-01-04T10:20:42.000Z</time>
      </trkpt>
      <trkpt lat="50.1475" lon="4.13646">
        <ele>208.39999389648</ele>
        <time>2025-01-04T10:20:47.000Z</time>
      </trkpt>
      <trkpt lat="50.14752" lon="4.1364">
        <ele>208.19999694824</ele>
        <time>2025-01-04T10:20:53.000Z</time>
      </trkpt>
      <trkpt lat="50.14755" lon="4.13635">
        <ele>208.19999694824</ele>
        <time>2025-01-04T10:20:56.000Z</time>
      </trkpt>
      <trkpt lat="50.14757" lon="4.13632">
        <ele>208.19999694824</ele>
        <time>2025-01-04T10:20:59.000Z</time>
      </trkpt>
      <trkpt lat="50.14758" lon="4.1363">
        <ele>208.19999694824</ele>
        <time>2025-01-04T10:21:06.000Z</time>
      </trkpt>
      <trkpt lat="50.14768" lon="4.13624">
        <ele>208.80000305176</ele>
        <time>2025-01-04T10:21:14.000Z</time>
      </trkpt>
      <trkpt lat="50.14772" lon="4.13623">
        <ele>209.39999389648</ele>
        <time>2025-01-04T10:21:21.000Z</time>
      </trkpt>
      <trkpt lat="50.14772" lon="4.13623">
        <ele>209.60000610352</ele>
        <time>2025-01-04T10:21:23.000Z</time>
      </trkpt>
      <trkpt lat="50.14773" lon="4.13621">
        <ele>209.80000305176</ele>
        <time>2025-01-04T10:21:46.000Z</time>
      </trkpt>
      <trkpt lat="50.14783" lon="4.13607">
        <ele>209.80000305176</ele>
        <time>2025-01-04T10:21:52.000Z</time>
      </trkpt>
      <trkpt lat="50.1479" lon="4.13593">
        <ele>210.39999389648</ele>
        <time>2025-01-04T10:21:57.000Z</time>
      </trkpt>
      <trkpt lat="50.14794" lon="4.13585">
        <ele>210.60000610352</ele>
        <time>2025-01-04T10:21:59.000Z</time>
      </trkpt>
      <trkpt lat="50.14798" lon="4.13576">
        <ele>211.39999389648</ele>
        <time>2025-01-04T10:22:02.000Z</time>
      </trkpt>
      <trkpt lat="50.14803" lon="4.13564">
        <ele>212.39999389648</ele>
        <time>2025-01-04T10:22:05.000Z</time>
      </trkpt>
      <trkpt lat="50.14806" lon="4.13556">
        <ele>213.39999389648</ele>
        <time>2025-01-04T10:22:07.000Z</time>
      </trkpt>
      <trkpt lat="50.14807" lon="4.13552">
        <ele>214</ele>
        <time>2025-01-04T10:22:08.000Z</time>
      </trkpt>
      <trkpt lat="50.1481" lon="4.13545">
        <ele>214.60000610352</ele>
        <time>2025-01-04T10:22:10.000Z</time>
      </trkpt>
      <trkpt lat="50.14813" lon="4.13533">
        <ele>215.60000610352</ele>
        <time>2025-01-04T10:22:13.000Z</time>
      </trkpt>
      <trkpt lat="50.14818" lon="4.1352">
        <ele>216.80000305176</ele>
        <time>2025-01-04T10:22:16.000Z</time>
      </trkpt>
      <trkpt lat="50.14823" lon="4.13504">
        <ele>218.39999389648</ele>
        <time>2025-01-04T10:22:20.000Z</time>
      </trkpt>
      <trkpt lat="50.14829" lon="4.13486">
        <ele>219.80000305176</ele>
        <time>2025-01-04T10:22:24.000Z</time>
      </trkpt>
      <trkpt lat="50.14835" lon="4.13468">
        <ele>221.19999694824</ele>
        <time>2025-01-04T10:22:28.000Z</time>
      </trkpt>
      <trkpt lat="50.14841" lon="4.13451">
        <ele>222.19999694824</ele>
        <time>2025-01-04T10:22:32.000Z</time>
      </trkpt>
      <trkpt lat="50.14846" lon="4.13438">
        <ele>223.39999389648</ele>
        <time>2025-01-04T10:22:35.000Z</time>
      </trkpt>
      <trkpt lat="50.14855" lon="4.1341">
        <ele>224.39999389648</ele>
        <time>2025-01-04T10:22:41.000Z</time>
      </trkpt>
      <trkpt lat="50.14856" lon="4.13406">
        <ele>224.60000610352</ele>
        <time>2025-01-04T10:22:42.000Z</time>
      </trkpt>
      <trkpt lat="50.14859" lon="4.13397">
        <ele>225.39999389648</ele>
        <time>2025-01-04T10:22:44.000Z</time>
      </trkpt>
      <trkpt lat="50.14865" lon="4.13379">
        <ele>226.60000610352</ele>
        <time>2025-01-04T10:22:48.000Z</time>
      </trkpt>
      <trkpt lat="50.14869" lon="4.13364">
        <ele>227.39999389648</ele>
        <time>2025-01-04T10:22:51.000Z</time>
      </trkpt>
      <trkpt lat="50.14872" lon="4.13355">
        <ele>228</ele>
        <time>2025-01-04T10:22:53.000Z</time>
      </trkpt>
      <trkpt lat="50.14878" lon="4.13331">
        <ele>229.19999694824</ele>
        <time>2025-01-04T10:22:58.000Z</time>
      </trkpt>
      <trkpt lat="50.14881" lon="4.13317">
        <ele>229.80000305176</ele>
        <time>2025-01-04T10:23:01.000Z</time>
      </trkpt>
      <trkpt lat="50.14883" lon="4.13307">
        <ele>230.19999694824</ele>
        <time>2025-01-04T10:23:03.000Z</time>
      </trkpt>
      <trkpt lat="50.14888" lon="4.13281">
        <ele>231.39999389648</ele>
        <time>2025-01-04T10:23:08.000Z</time>
      </trkpt>
      <trkpt lat="50.1489" lon="4.13271">
        <ele>231.80000305176</ele>
        <time>2025-01-04T10:23:10.000Z</time>
      </trkpt>
      <trkpt lat="50.14892" lon="4.13261">
        <ele>232.39999389648</ele>
        <time>2025-01-04T10:23:12.000Z</time>
      </trkpt>
      <trkpt lat="50.14895" lon="4.13235">
        <ele>233.39999389648</ele>
        <time>2025-01-04T10:23:17.000Z</time>
      </trkpt>
      <trkpt lat="50.14896" lon="4.1323">
        <ele>233.80000305176</ele>
        <time>2025-01-04T10:23:18.000Z</time>
      </trkpt>
      <trkpt lat="50.14899" lon="4.13214">
        <ele>234.60000610352</ele>
        <time>2025-01-04T10:23:21.000Z</time>
      </trkpt>
      <trkpt lat="50.14903" lon="4.13193">
        <ele>235.39999389648</ele>
        <time>2025-01-04T10:23:25.000Z</time>
      </trkpt>
      <trkpt lat="50.14905" lon="4.13182">
        <ele>235.60000610352</ele>
        <time>2025-01-04T10:23:27.000Z</time>
      </trkpt>
      <trkpt lat="50.14911" lon="4.13149">
        <ele>236.60000610352</ele>
        <time>2025-01-04T10:23:33.000Z</time>
      </trkpt>
      <trkpt lat="50.14913" lon="4.13138">
        <ele>237.19999694824</ele>
        <time>2025-01-04T10:23:35.000Z</time>
      </trkpt>
      <trkpt lat="50.14915" lon="4.13128">
        <ele>238</ele>
        <time>2025-01-04T10:23:37.000Z</time>
      </trkpt>
      <trkpt lat="50.1492" lon="4.13103">
        <ele>239.19999694824</ele>
        <time>2025-01-04T10:23:42.000Z</time>
      </trkpt>
      <trkpt lat="50.14923" lon="4.13093">
        <ele>239.60000610352</ele>
        <time>2025-01-04T10:23:44.000Z</time>
      </trkpt>
      <trkpt lat="50.14925" lon="4.13084">
        <ele>240.19999694824</ele>
        <time>2025-01-04T10:23:46.000Z</time>
      </trkpt>
      <trkpt lat="50.14933" lon="4.1305">
        <ele>241.39999389648</ele>
        <time>2025-01-04T10:23:53.000Z</time>
      </trkpt>
      <trkpt lat="50.14933" lon="4.13044">
        <ele>241.39999389648</ele>
        <time>2025-01-04T10:23:54.000Z</time>
      </trkpt>
      <trkpt lat="50.14936" lon="4.13024">
        <ele>241.80000305176</ele>
        <time>2025-01-04T10:23:58.000Z</time>
      </trkpt>
      <trkpt lat="50.14941" lon="4.12994">
        <ele>242.19999694824</ele>
        <time>2025-01-04T10:24:04.000Z</time>
      </trkpt>
      <trkpt lat="50.14943" lon="4.12979">
        <ele>242.39999389648</ele>
        <time>2025-01-04T10:24:07.000Z</time>
      </trkpt>
      <trkpt lat="50.14945" lon="4.12957">
        <ele>242.39999389648</ele>
        <time>2025-01-04T10:24:11.000Z</time>
      </trkpt>
      <trkpt lat="50.1495" lon="4.12917">
        <ele>242.39999389648</ele>
        <time>2025-01-04T10:24:19.000Z</time>
      </trkpt>
      <trkpt lat="50.14954" lon="4.12883">
        <ele>242</ele>
        <time>2025-01-04T10:24:26.000Z</time>
      </trkpt>
      <trkpt lat="50.14959" lon="4.12853">
        <ele>241.39999389648</ele>
        <time>2025-01-04T10:24:32.000Z</time>
      </trkpt>
      <trkpt lat="50.14972" lon="4.12844">
        <ele>241</ele>
        <time>2025-01-04T10:24:36.000Z</time>
      </trkpt>
      <trkpt lat="50.15" lon="4.12832">
        <ele>241.19999694824</ele>
        <time>2025-01-04T10:24:44.000Z</time>
      </trkpt>
      <trkpt lat="50.15033" lon="4.1281">
        <ele>241.80000305176</ele>
        <time>2025-01-04T10:24:53.000Z</time>
      </trkpt>
      <trkpt lat="50.15069" lon="4.12779">
        <ele>242.60000610352</ele>
        <time>2025-01-04T10:25:03.000Z</time>
      </trkpt>
      <trkpt lat="50.1508" lon="4.1277">
        <ele>242.60000610352</ele>
        <time>2025-01-04T10:25:06.000Z</time>
      </trkpt>
      <trkpt lat="50.15127" lon="4.12733">
        <ele>242.80000305176</ele>
        <time>2025-01-04T10:25:18.000Z</time>
      </trkpt>
      <trkpt lat="50.15165" lon="4.12708">
        <ele>243.39999389648</ele>
        <time>2025-01-04T10:25:27.000Z</time>
      </trkpt>
      <trkpt lat="50.15178" lon="4.127">
        <ele>243.60000610352</ele>
        <time>2025-01-04T10:25:30.000Z</time>
      </trkpt>
      <trkpt lat="50.15206" lon="4.12675">
        <ele>244.19999694824</ele>
        <time>2025-01-04T10:25:37.000Z</time>
      </trkpt>
      <trkpt lat="50.15221" lon="4.12662">
        <ele>244.80000305176</ele>
        <time>2025-01-04T10:25:41.000Z</time>
      </trkpt>
      <trkpt lat="50.15248" lon="4.12638">
        <ele>246</ele>
        <time>2025-01-04T10:25:48.000Z</time>
      </trkpt>
      <trkpt lat="50.15252" lon="4.12635">
        <ele>246.19999694824</ele>
        <time>2025-01-04T10:25:49.000Z</time>
      </trkpt>
      <trkpt lat="50.15275" lon="4.12614">
        <ele>247.19999694824</ele>
        <time>2025-01-04T10:25:55.000Z</time>
      </trkpt>
      <trkpt lat="50.15295" lon="4.12597">
        <ele>248.19999694824</ele>
        <time>2025-01-04T10:26:00.000Z</time>
      </trkpt>
      <trkpt lat="50.15299" lon="4.12593">
        <ele>248.19999694824</ele>
        <time>2025-01-04T10:26:01.000Z</time>
      </trkpt>
      <trkpt lat="50.15326" lon="4.12569">
        <ele>249.39999389648</ele>
        <time>2025-01-04T10:26:08.000Z</time>
      </trkpt>
      <trkpt lat="50.1533" lon="4.12566">
        <ele>249.39999389648</ele>
        <time>2025-01-04T10:26:09.000Z</time>
      </trkpt>
      <trkpt lat="50.15368" lon="4.12532">
        <ele>250</ele>
        <time>2025-01-04T10:26:19.000Z</time>
      </trkpt>
      <trkpt lat="50.15415" lon="4.12491">
        <ele>248.60000610352</ele>
        <time>2025-01-04T10:26:29.000Z</time>
      </trkpt>
      <trkpt lat="50.15424" lon="4.12482">
        <ele>248.39999389648</ele>
        <time>2025-01-04T10:26:31.000Z</time>
      </trkpt>
      <trkpt lat="50.15448" lon="4.1246">
        <ele>247.19999694824</ele>
        <time>2025-01-04T10:26:36.000Z</time>
      </trkpt>
      <trkpt lat="50.15467" lon="4.12444">
        <ele>246.80000305176</ele>
        <time>2025-01-04T10:26:40.000Z</time>
      </trkpt>
      <trkpt lat="50.15492" lon="4.1243">
        <ele>246.39999389648</ele>
        <time>2025-01-04T10:26:45.000Z</time>
      </trkpt>
      <trkpt lat="50.15502" lon="4.12426">
        <ele>246.39999389648</ele>
        <time>2025-01-04T10:26:47.000Z</time>
      </trkpt>
      <trkpt lat="50.15555" lon="4.12411">
        <ele>246.60000610352</ele>
        <time>2025-01-04T10:26:57.000Z</time>
      </trkpt>
      <trkpt lat="50.15607" lon="4.12396">
        <ele>247.19999694824</ele>
        <time>2025-01-04T10:27:07.000Z</time>
      </trkpt>
      <trkpt lat="50.15618" lon="4.12393">
        <ele>247.60000610352</ele>
        <time>2025-01-04T10:27:09.000Z</time>
      </trkpt>
      <trkpt lat="50.15655" lon="4.12385">
        <ele>248.39999389648</ele>
        <time>2025-01-04T10:27:16.000Z</time>
      </trkpt>
      <trkpt lat="50.15665" lon="4.12382">
        <ele>248.60000610352</ele>
        <time>2025-01-04T10:27:18.000Z</time>
      </trkpt>
      <trkpt lat="50.15702" lon="4.1237">
        <ele>249.80000305176</ele>
        <time>2025-01-04T10:27:25.000Z</time>
      </trkpt>
      <trkpt lat="50.15711" lon="4.12366">
        <ele>250</ele>
        <time>2025-01-04T10:27:27.000Z</time>
      </trkpt>
      <trkpt lat="50.15716" lon="4.12364">
        <ele>250.19999694824</ele>
        <time>2025-01-04T10:27:28.000Z</time>
      </trkpt>
      <trkpt lat="50.15732" lon="4.12354">
        <ele>250.80000305176</ele>
        <time>2025-01-04T10:27:32.000Z</time>
      </trkpt>
      <trkpt lat="50.15735" lon="4.12351">
        <ele>250.80000305176</ele>
        <time>2025-01-04T10:27:33.000Z</time>
      </trkpt>
      <trkpt lat="50.15751" lon="4.1234">
        <ele>251.19999694824</ele>
        <time>2025-01-04T10:27:38.000Z</time>
      </trkpt>
      <trkpt lat="50.15753" lon="4.12329">
        <ele>251.39999389648</ele>
        <time>2025-01-04T10:27:40.000Z</time>
      </trkpt>
      <trkpt lat="50.15753" lon="4.12322">
        <ele>251.39999389648</ele>
        <time>2025-01-04T10:27:41.000Z</time>
      </trkpt>
      <trkpt lat="50.15747" lon="4.12268">
        <ele>251.19999694824</ele>
        <time>2025-01-04T10:27:49.000Z</time>
      </trkpt>
      <trkpt lat="50.15747" lon="4.12232">
        <ele>250.80000305176</ele>
        <time>2025-01-04T10:27:55.000Z</time>
      </trkpt>
      <trkpt lat="50.15753" lon="4.12225">
        <ele>250.80000305176</ele>
        <time>2025-01-04T10:27:57.000Z</time>
      </trkpt>
      <trkpt lat="50.15757" lon="4.12223">
        <ele>250.80000305176</ele>
        <time>2025-01-04T10:27:58.000Z</time>
      </trkpt>
      <trkpt lat="50.15772" lon="4.12215">
        <ele>250.60000610352</ele>
        <time>2025-01-04T10:28:02.000Z</time>
      </trkpt>
      <trkpt lat="50.15784" lon="4.12209">
        <ele>250.60000610352</ele>
        <time>2025-01-04T10:28:05.000Z</time>
      </trkpt>
      <trkpt lat="50.15819" lon="4.12193">
        <ele>250.19999694824</ele>
        <time>2025-01-04T10:28:13.000Z</time>
      </trkpt>
      <trkpt lat="50.15828" lon="4.12189">
        <ele>250</ele>
        <time>2025-01-04T10:28:15.000Z</time>
      </trkpt>
      <trkpt lat="50.15836" lon="4.12185">
        <ele>249.80000305176</ele>
        <time>2025-01-04T10:28:17.000Z</time>
      </trkpt>
      <trkpt lat="50.15845" lon="4.12181">
        <ele>249.60000610352</ele>
        <time>2025-01-04T10:28:19.000Z</time>
      </trkpt>
      <trkpt lat="50.15858" lon="4.12174">
        <ele>249.60000610352</ele>
        <time>2025-01-04T10:28:22.000Z</time>
      </trkpt>
      <trkpt lat="50.15872" lon="4.1216">
        <ele>249.19999694824</ele>
        <time>2025-01-04T10:28:25.000Z</time>
      </trkpt>
      <trkpt lat="50.15881" lon="4.1215">
        <ele>249</ele>
        <time>2025-01-04T10:28:27.000Z</time>
      </trkpt>
      <trkpt lat="50.15885" lon="4.12143">
        <ele>248.80000305176</ele>
        <time>2025-01-04T10:28:28.000Z</time>
      </trkpt>
      <trkpt lat="50.15897" lon="4.12123">
        <ele>248.39999389648</ele>
        <time>2025-01-04T10:28:31.000Z</time>
      </trkpt>
      <trkpt lat="50.15915" lon="4.12094">
        <ele>247.60000610352</ele>
        <time>2025-01-04T10:28:35.000Z</time>
      </trkpt>
      <trkpt lat="50.15919" lon="4.12086">
        <ele>247.39999389648</ele>
        <time>2025-01-04T10:28:36.000Z</time>
      </trkpt>
      <trkpt lat="50.15934" lon="4.12063">
        <ele>246.60000610352</ele>
        <time>2025-01-04T10:28:39.000Z</time>
      </trkpt>
      <trkpt lat="50.15955" lon="4.12032">
        <ele>245</ele>
        <time>2025-01-04T10:28:43.000Z</time>
      </trkpt>
      <trkpt lat="50.15966" lon="4.12017">
        <ele>244.39999389648</ele>
        <time>2025-01-04T10:28:45.000Z</time>
      </trkpt>
      <trkpt lat="50.15982" lon="4.11995">
        <ele>244</ele>
        <time>2025-01-04T10:28:48.000Z</time>
      </trkpt>
      <trkpt lat="50.16006" lon="4.11972">
        <ele>242.80000305176</ele>
        <time>2025-01-04T10:28:52.000Z</time>
      </trkpt>
      <trkpt lat="50.16038" lon="4.1195">
        <ele>241.60000610352</ele>
        <time>2025-01-04T10:28:57.000Z</time>
      </trkpt>
      <trkpt lat="50.16057" lon="4.11933">
        <ele>241.19999694824</ele>
        <time>2025-01-04T10:29:00.000Z</time>
      </trkpt>
      <trkpt lat="50.16068" lon="4.1192">
        <ele>240.80000305176</ele>
        <time>2025-01-04T10:29:02.000Z</time>
      </trkpt>
      <trkpt lat="50.16077" lon="4.11902">
        <ele>240.60000610352</ele>
        <time>2025-01-04T10:29:04.000Z</time>
      </trkpt>
      <trkpt lat="50.16082" lon="4.11881">
        <ele>240.19999694824</ele>
        <time>2025-01-04T10:29:06.000Z</time>
      </trkpt>
      <trkpt lat="50.16085" lon="4.11859">
        <ele>239.39999389648</ele>
        <time>2025-01-04T10:29:08.000Z</time>
      </trkpt>
      <trkpt lat="50.16091" lon="4.11791">
        <ele>238.19999694824</ele>
        <time>2025-01-04T10:29:14.000Z</time>
      </trkpt>
      <trkpt lat="50.16093" lon="4.11757">
        <ele>237.39999389648</ele>
        <time>2025-01-04T10:29:17.000Z</time>
      </trkpt>
      <trkpt lat="50.16094" lon="4.11746">
        <ele>237</ele>
        <time>2025-01-04T10:29:18.000Z</time>
      </trkpt>
      <trkpt lat="50.16102" lon="4.11694">
        <ele>235.80000305176</ele>
        <time>2025-01-04T10:29:23.000Z</time>
      </trkpt>
      <trkpt lat="50.16107" lon="4.11675">
        <ele>235.19999694824</ele>
        <time>2025-01-04T10:29:25.000Z</time>
      </trkpt>
      <trkpt lat="50.16119" lon="4.11638">
        <ele>234.60000610352</ele>
        <time>2025-01-04T10:29:29.000Z</time>
      </trkpt>
      <trkpt lat="50.1613" lon="4.11611">
        <ele>234</ele>
        <time>2025-01-04T10:29:32.000Z</time>
      </trkpt>
      <trkpt lat="50.16137" lon="4.11593">
        <ele>233.39999389648</ele>
        <time>2025-01-04T10:29:34.000Z</time>
      </trkpt>
      <trkpt lat="50.16151" lon="4.11557">
        <ele>232.19999694824</ele>
        <time>2025-01-04T10:29:38.000Z</time>
      </trkpt>
      <trkpt lat="50.1617" lon="4.11514">
        <ele>231.19999694824</ele>
        <time>2025-01-04T10:29:43.000Z</time>
      </trkpt>
      <trkpt lat="50.16178" lon="4.11496">
        <ele>230.80000305176</ele>
        <time>2025-01-04T10:29:45.000Z</time>
      </trkpt>
      <trkpt lat="50.16186" lon="4.11478">
        <ele>230</ele>
        <time>2025-01-04T10:29:47.000Z</time>
      </trkpt>
      <trkpt lat="50.16207" lon="4.11435">
        <ele>228.60000610352</ele>
        <time>2025-01-04T10:29:52.000Z</time>
      </trkpt>
      <trkpt lat="50.16216" lon="4.1142">
        <ele>228</ele>
        <time>2025-01-04T10:29:54.000Z</time>
      </trkpt>
      <trkpt lat="50.16226" lon="4.11405">
        <ele>227</ele>
        <time>2025-01-04T10:29:56.000Z</time>
      </trkpt>
      <trkpt lat="50.16239" lon="4.11394">
        <ele>226.39999389648</ele>
        <time>2025-01-04T10:29:58.000Z</time>
      </trkpt>
      <trkpt lat="50.16247" lon="4.1139">
        <ele>226.19999694824</ele>
        <time>2025-01-04T10:29:59.000Z</time>
      </trkpt>
      <trkpt lat="50.16254" lon="4.11388">
        <ele>225.60000610352</ele>
        <time>2025-01-04T10:30:00.000Z</time>
      </trkpt>
      <trkpt lat="50.16261" lon="4.11388">
        <ele>225</ele>
        <time>2025-01-04T10:30:01.000Z</time>
      </trkpt>
      <trkpt lat="50.16268" lon="4.11389">
        <ele>224.19999694824</ele>
        <time>2025-01-04T10:30:02.000Z</time>
      </trkpt>
      <trkpt lat="50.16274" lon="4.1139">
        <ele>224</ele>
        <time>2025-01-04T10:30:03.000Z</time>
      </trkpt>
      <trkpt lat="50.16279" lon="4.11391">
        <ele>223.60000610352</ele>
        <time>2025-01-04T10:30:04.000Z</time>
      </trkpt>
      <trkpt lat="50.16296" lon="4.11397">
        <ele>223.60000610352</ele>
        <time>2025-01-04T10:30:07.000Z</time>
      </trkpt>
      <trkpt lat="50.16334" lon="4.11413">
        <ele>225.19999694824</ele>
        <time>2025-01-04T10:30:14.000Z</time>
      </trkpt>
      <trkpt lat="50.16344" lon="4.11417">
        <ele>225.80000305176</ele>
        <time>2025-01-04T10:30:16.000Z</time>
      </trkpt>
      <trkpt lat="50.16349" lon="4.11418">
        <ele>226.19999694824</ele>
        <time>2025-01-04T10:30:17.000Z</time>
      </trkpt>
      <trkpt lat="50.16363" lon="4.11424">
        <ele>227.39999389648</ele>
        <time>2025-01-04T10:30:20.000Z</time>
      </trkpt>
      <trkpt lat="50.16377" lon="4.11431">
        <ele>228.19999694824</ele>
        <time>2025-01-04T10:30:23.000Z</time>
      </trkpt>
      <trkpt lat="50.16381" lon="4.11434">
        <ele>228.39999389648</ele>
        <time>2025-01-04T10:30:24.000Z</time>
      </trkpt>
      <trkpt lat="50.16406" lon="4.11449">
        <ele>228.80000305176</ele>
        <time>2025-01-04T10:30:29.000Z</time>
      </trkpt>
      <trkpt lat="50.16416" lon="4.11452">
        <ele>228.80000305176</ele>
        <time>2025-01-04T10:30:31.000Z</time>
      </trkpt>
      <trkpt lat="50.16422" lon="4.11452">
        <ele>228.80000305176</ele>
        <time>2025-01-04T10:30:32.000Z</time>
      </trkpt>
      <trkpt lat="50.16433" lon="4.11449">
        <ele>228.80000305176</ele>
        <time>2025-01-04T10:30:34.000Z</time>
      </trkpt>
      <trkpt lat="50.16438" lon="4.11445">
        <ele>228.60000610352</ele>
        <time>2025-01-04T10:30:35.000Z</time>
      </trkpt>
      <trkpt lat="50.16461" lon="4.11423">
        <ele>228</ele>
        <time>2025-01-04T10:30:39.000Z</time>
      </trkpt>
      <trkpt lat="50.16478" lon="4.114">
        <ele>226.80000305176</ele>
        <time>2025-01-04T10:30:42.000Z</time>
      </trkpt>
      <trkpt lat="50.16492" lon="4.11375">
        <ele>226</ele>
        <time>2025-01-04T10:30:45.000Z</time>
      </trkpt>
      <trkpt lat="50.16496" lon="4.11366">
        <ele>225.39999389648</ele>
        <time>2025-01-04T10:30:46.000Z</time>
      </trkpt>
      <trkpt lat="50.16504" lon="4.11339">
        <ele>224.60000610352</ele>
        <time>2025-01-04T10:30:49.000Z</time>
      </trkpt>
      <trkpt lat="50.16511" lon="4.11314">
        <ele>224.39999389648</ele>
        <time>2025-01-04T10:30:52.000Z</time>
      </trkpt>
      <trkpt lat="50.16521" lon="4.11285">
        <ele>224</ele>
        <time>2025-01-04T10:30:56.000Z</time>
      </trkpt>
      <trkpt lat="50.16542" lon="4.11249">
        <ele>224</ele>
        <time>2025-01-04T10:31:02.000Z</time>
      </trkpt>
      <trkpt lat="50.16546" lon="4.11244">
        <ele>224</ele>
        <time>2025-01-04T10:31:03.000Z</time>
      </trkpt>
      <trkpt lat="50.16579" lon="4.11216">
        <ele>224.60000610352</ele>
        <time>2025-01-04T10:31:10.000Z</time>
      </trkpt>
      <trkpt lat="50.16597" lon="4.11203">
        <ele>225.39999389648</ele>
        <time>2025-01-04T10:31:14.000Z</time>
      </trkpt>
      <trkpt lat="50.16611" lon="4.11192">
        <ele>226</ele>
        <time>2025-01-04T10:31:17.000Z</time>
      </trkpt>
      <trkpt lat="50.16619" lon="4.11183">
        <ele>226.80000305176</ele>
        <time>2025-01-04T10:31:19.000Z</time>
      </trkpt>
      <trkpt lat="50.16632" lon="4.11165">
        <ele>228</ele>
        <time>2025-01-04T10:31:23.000Z</time>
      </trkpt>
      <trkpt lat="50.16635" lon="4.1116">
        <ele>228.39999389648</ele>
        <time>2025-01-04T10:31:24.000Z</time>
      </trkpt>
      <trkpt lat="50.1664" lon="4.1115">
        <ele>229.19999694824</ele>
        <time>2025-01-04T10:31:26.000Z</time>
      </trkpt>
      <trkpt lat="50.16643" lon="4.11145">
        <ele>229.39999389648</ele>
        <time>2025-01-04T10:31:27.000Z</time>
      </trkpt>
      <trkpt lat="50.16649" lon="4.11128">
        <ele>230.39999389648</ele>
        <time>2025-01-04T10:31:30.000Z</time>
      </trkpt>
      <trkpt lat="50.16651" lon="4.11122">
        <ele>230.60000610352</ele>
        <time>2025-01-04T10:31:31.000Z</time>
      </trkpt>
      <trkpt lat="50.16659" lon="4.111">
        <ele>231.19999694824</ele>
        <time>2025-01-04T10:31:35.000Z</time>
      </trkpt>
      <trkpt lat="50.16668" lon="4.11085">
        <ele>231.80000305176</ele>
        <time>2025-01-04T10:31:38.000Z</time>
      </trkpt>
      <trkpt lat="50.16691" lon="4.11062">
        <ele>232.19999694824</ele>
        <time>2025-01-04T10:31:45.000Z</time>
      </trkpt>
      <trkpt lat="50.16703" lon="4.11063">
        <ele>232.60000610352</ele>
        <time>2025-01-04T10:31:49.000Z</time>
      </trkpt>
      <trkpt lat="50.16705" lon="4.11065">
        <ele>232.80000305176</ele>
        <time>2025-01-04T10:31:50.000Z</time>
      </trkpt>
      <trkpt lat="50.1671" lon="4.11074">
        <ele>233</ele>
        <time>2025-01-04T10:31:53.000Z</time>
      </trkpt>
      <trkpt lat="50.16714" lon="4.11099">
        <ele>233.19999694824</ele>
        <time>2025-01-04T10:31:58.000Z</time>
      </trkpt>
      <trkpt lat="50.16716" lon="4.11128">
        <ele>233.19999694824</ele>
        <time>2025-01-04T10:32:03.000Z</time>
      </trkpt>
      <trkpt lat="50.16717" lon="4.11135">
        <ele>233.19999694824</ele>
        <time>2025-01-04T10:32:04.000Z</time>
      </trkpt>
      <trkpt lat="50.16718" lon="4.11141">
        <ele>233.19999694824</ele>
        <time>2025-01-04T10:32:05.000Z</time>
      </trkpt>
      <trkpt lat="50.16727" lon="4.1116">
        <ele>233.19999694824</ele>
        <time>2025-01-04T10:32:08.000Z</time>
      </trkpt>
      <trkpt lat="50.1673" lon="4.11165">
        <ele>233.19999694824</ele>
        <time>2025-01-04T10:32:09.000Z</time>
      </trkpt>
      <trkpt lat="50.16756" lon="4.11195">
        <ele>233.19999694824</ele>
        <time>2025-01-04T10:32:16.000Z</time>
      </trkpt>
      <trkpt lat="50.16781" lon="4.11234">
        <ele>232.80000305176</ele>
        <time>2025-01-04T10:32:23.000Z</time>
      </trkpt>
      <trkpt lat="50.16802" lon="4.11283">
        <ele>232.19999694824</ele>
        <time>2025-01-04T10:32:30.000Z</time>
      </trkpt>
      <trkpt lat="50.1682" lon="4.11329">
        <ele>232</ele>
        <time>2025-01-04T10:32:36.000Z</time>
      </trkpt>
      <trkpt lat="50.16831" lon="4.11348">
        <ele>232</ele>
        <time>2025-01-04T10:32:39.000Z</time>
      </trkpt>
      <trkpt lat="50.16875" lon="4.11411">
        <ele>232.39999389648</ele>
        <time>2025-01-04T10:32:50.000Z</time>
      </trkpt>
      <trkpt lat="50.16882" lon="4.11421">
        <ele>233.19999694824</ele>
        <time>2025-01-04T10:32:52.000Z</time>
      </trkpt>
      <trkpt lat="50.16893" lon="4.11438">
        <ele>234.19999694824</ele>
        <time>2025-01-04T10:32:55.000Z</time>
      </trkpt>
      <trkpt lat="50.169" lon="4.1145">
        <ele>234.60000610352</ele>
        <time>2025-01-04T10:32:57.000Z</time>
      </trkpt>
      <trkpt lat="50.16907" lon="4.11462">
        <ele>235.39999389648</ele>
        <time>2025-01-04T10:32:59.000Z</time>
      </trkpt>
      <trkpt lat="50.16936" lon="4.11505">
        <ele>236.19999694824</ele>
        <time>2025-01-04T10:33:07.000Z</time>
      </trkpt>
      <trkpt lat="50.1694" lon="4.11511">
        <ele>236.39999389648</ele>
        <time>2025-01-04T10:33:08.000Z</time>
      </trkpt>
      <trkpt lat="50.16964" lon="4.11548">
        <ele>237.19999694824</ele>
        <time>2025-01-04T10:33:16.000Z</time>
      </trkpt>
      <trkpt lat="50.16968" lon="4.11554">
        <ele>237.39999389648</ele>
        <time>2025-01-04T10:33:18.000Z</time>
      </trkpt>
      <trkpt lat="50.16975" lon="4.1156">
        <ele>237.80000305176</ele>
        <time>2025-01-04T10:33:21.000Z</time>
      </trkpt>
      <trkpt lat="50.16989" lon="4.11579">
        <ele>238.60000610352</ele>
        <time>2025-01-04T10:33:26.000Z</time>
      </trkpt>
      <trkpt lat="50.16992" lon="4.11584">
        <ele>238.60000610352</ele>
        <time>2025-01-04T10:33:27.000Z</time>
      </trkpt>
      <trkpt lat="50.17018" lon="4.1163">
        <ele>239.19999694824</ele>
        <time>2025-01-04T10:33:36.000Z</time>
      </trkpt>
      <trkpt lat="50.17054" lon="4.11698">
        <ele>239</ele>
        <time>2025-01-04T10:33:48.000Z</time>
      </trkpt>
      <trkpt lat="50.17057" lon="4.11704">
        <ele>239</ele>
        <time>2025-01-04T10:33:49.000Z</time>
      </trkpt>
      <trkpt lat="50.17081" lon="4.11762">
        <ele>237.60000610352</ele>
        <time>2025-01-04T10:33:59.000Z</time>
      </trkpt>
      <trkpt lat="50.17106" lon="4.1182">
        <ele>236.39999389648</ele>
        <time>2025-01-04T10:34:06.000Z</time>
      </trkpt>
      <trkpt lat="50.17109" lon="4.11826">
        <ele>236.39999389648</ele>
        <time>2025-01-04T10:34:07.000Z</time>
      </trkpt>
      <trkpt lat="50.17125" lon="4.11852">
        <ele>235.39999389648</ele>
        <time>2025-01-04T10:34:11.000Z</time>
      </trkpt>
      <trkpt lat="50.17134" lon="4.11865">
        <ele>234.60000610352</ele>
        <time>2025-01-04T10:34:13.000Z</time>
      </trkpt>
      <trkpt lat="50.17134" lon="4.11865">
        <ele>234.19999694824</ele>
        <time>2025-01-04T10:34:14.000Z</time>
      </trkpt>
      <trkpt lat="50.17157" lon="4.11891">
        <ele>233</ele>
        <time>2025-01-04T10:34:17.000Z</time>
      </trkpt>
      <trkpt lat="50.17181" lon="4.11919">
        <ele>231.80000305176</ele>
        <time>2025-01-04T10:34:21.000Z</time>
      </trkpt>
      <trkpt lat="50.17206" lon="4.11947">
        <ele>230.39999389648</ele>
        <time>2025-01-04T10:34:25.000Z</time>
      </trkpt>
      <trkpt lat="50.17229" lon="4.11967">
        <ele>229.19999694824</ele>
        <time>2025-01-04T10:34:29.000Z</time>
      </trkpt>
      <trkpt lat="50.17257" lon="4.11983">
        <ele>229</ele>
        <time>2025-01-04T10:34:34.000Z</time>
      </trkpt>
      <trkpt lat="50.17299" lon="4.12002">
        <ele>229</ele>
        <time>2025-01-04T10:34:42.000Z</time>
      </trkpt>
      <trkpt lat="50.17339" lon="4.12035">
        <ele>229</ele>
        <time>2025-01-04T10:34:50.000Z</time>
      </trkpt>
      <trkpt lat="50.17365" lon="4.12064">
        <ele>228.19999694824</ele>
        <time>2025-01-04T10:34:55.000Z</time>
      </trkpt>
      <trkpt lat="50.17376" lon="4.12076">
        <ele>227.60000610352</ele>
        <time>2025-01-04T10:34:57.000Z</time>
      </trkpt>
      <trkpt lat="50.17387" lon="4.12089">
        <ele>226.80000305176</ele>
        <time>2025-01-04T10:34:59.000Z</time>
      </trkpt>
      <trkpt lat="50.17409" lon="4.12115">
        <ele>225.60000610352</ele>
        <time>2025-01-04T10:35:03.000Z</time>
      </trkpt>
      <trkpt lat="50.17432" lon="4.1214">
        <ele>224.39999389648</ele>
        <time>2025-01-04T10:35:07.000Z</time>
      </trkpt>
      <trkpt lat="50.17438" lon="4.12147">
        <ele>224.39999389648</ele>
        <time>2025-01-04T10:35:08.000Z</time>
      </trkpt>
      <trkpt lat="50.17455" lon="4.12165">
        <ele>223.39999389648</ele>
        <time>2025-01-04T10:35:11.000Z</time>
      </trkpt>
      <trkpt lat="50.1748" lon="4.1219">
        <ele>222.19999694824</ele>
        <time>2025-01-04T10:35:15.000Z</time>
      </trkpt>
      <trkpt lat="50.17493" lon="4.122">
        <ele>221.60000610352</ele>
        <time>2025-01-04T10:35:17.000Z</time>
      </trkpt>
      <trkpt lat="50.17506" lon="4.1221">
        <ele>221</ele>
        <time>2025-01-04T10:35:19.000Z</time>
      </trkpt>
      <trkpt lat="50.17526" lon="4.12221">
        <ele>220</ele>
        <time>2025-01-04T10:35:22.000Z</time>
      </trkpt>
      <trkpt lat="50.17539" lon="4.12227">
        <ele>219.60000610352</ele>
        <time>2025-01-04T10:35:24.000Z</time>
      </trkpt>
      <trkpt lat="50.17565" lon="4.12237">
        <ele>218.80000305176</ele>
        <time>2025-01-04T10:35:28.000Z</time>
      </trkpt>
      <trkpt lat="50.17584" lon="4.12243">
        <ele>217.80000305176</ele>
        <time>2025-01-04T10:35:31.000Z</time>
      </trkpt>
      <trkpt lat="50.17596" lon="4.12245">
        <ele>217.39999389648</ele>
        <time>2025-01-04T10:35:33.000Z</time>
      </trkpt>
      <trkpt lat="50.17637" lon="4.12251">
        <ele>216.80000305176</ele>
        <time>2025-01-04T10:35:40.000Z</time>
      </trkpt>
      <trkpt lat="50.17648" lon="4.12253">
        <ele>216.60000610352</ele>
        <time>2025-01-04T10:35:42.000Z</time>
      </trkpt>
      <trkpt lat="50.17664" lon="4.12258">
        <ele>216.19999694824</ele>
        <time>2025-01-04T10:35:45.000Z</time>
      </trkpt>
      <trkpt lat="50.17672" lon="4.12267">
        <ele>216</ele>
        <time>2025-01-04T10:35:47.000Z</time>
      </trkpt>
      <trkpt lat="50.17676" lon="4.1228">
        <ele>216</ele>
        <time>2025-01-04T10:35:49.000Z</time>
      </trkpt>
      <trkpt lat="50.17677" lon="4.12288">
        <ele>216</ele>
        <time>2025-01-04T10:35:50.000Z</time>
      </trkpt>
      <trkpt lat="50.17682" lon="4.12338">
        <ele>215.80000305176</ele>
        <time>2025-01-04T10:35:56.000Z</time>
      </trkpt>
      <trkpt lat="50.17683" lon="4.12364">
        <ele>215.60000610352</ele>
        <time>2025-01-04T10:35:59.000Z</time>
      </trkpt>
      <trkpt lat="50.17683" lon="4.12449">
        <ele>216</ele>
        <time>2025-01-04T10:36:09.000Z</time>
      </trkpt>
      <trkpt lat="50.17678" lon="4.12491">
        <ele>217</ele>
        <time>2025-01-04T10:36:14.000Z</time>
      </trkpt>
      <trkpt lat="50.17671" lon="4.12531">
        <ele>217.19999694824</ele>
        <time>2025-01-04T10:36:19.000Z</time>
      </trkpt>
      <trkpt lat="50.17663" lon="4.12571">
        <ele>217.19999694824</ele>
        <time>2025-01-04T10:36:25.000Z</time>
      </trkpt>
      <trkpt lat="50.17666" lon="4.12586">
        <ele>217.19999694824</ele>
        <time>2025-01-04T10:36:28.000Z</time>
      </trkpt>
      <trkpt lat="50.17669" lon="4.1259">
        <ele>217.19999694824</ele>
        <time>2025-01-04T10:36:29.000Z</time>
      </trkpt>
      <trkpt lat="50.17673" lon="4.12593">
        <ele>217.19999694824</ele>
        <time>2025-01-04T10:36:30.000Z</time>
      </trkpt>
      <trkpt lat="50.17689" lon="4.12598">
        <ele>217</ele>
        <time>2025-01-04T10:36:34.000Z</time>
      </trkpt>
      <trkpt lat="50.17714" lon="4.12602">
        <ele>216.19999694824</ele>
        <time>2025-01-04T10:36:40.000Z</time>
      </trkpt>
      <trkpt lat="50.17723" lon="4.12608">
        <ele>216</ele>
        <time>2025-01-04T10:36:42.000Z</time>
      </trkpt>
      <trkpt lat="50.17726" lon="4.12613">
        <ele>216</ele>
        <time>2025-01-04T10:36:43.000Z</time>
      </trkpt>
      <trkpt lat="50.17729" lon="4.12619">
        <ele>215.80000305176</ele>
        <time>2025-01-04T10:36:44.000Z</time>
      </trkpt>
      <trkpt lat="50.17732" lon="4.12632">
        <ele>215.80000305176</ele>
        <time>2025-01-04T10:36:46.000Z</time>
      </trkpt>
      <trkpt lat="50.17738" lon="4.12659">
        <ele>215.60000610352</ele>
        <time>2025-01-04T10:36:50.000Z</time>
      </trkpt>
      <trkpt lat="50.17739" lon="4.1268">
        <ele>215.39999389648</ele>
        <time>2025-01-04T10:36:53.000Z</time>
      </trkpt>
      <trkpt lat="50.17742" lon="4.12716">
        <ele>215.19999694824</ele>
        <time>2025-01-04T10:36:58.000Z</time>
      </trkpt>
      <trkpt lat="50.17744" lon="4.12746">
        <ele>214.80000305176</ele>
        <time>2025-01-04T10:37:02.000Z</time>
      </trkpt>
      <trkpt lat="50.17744" lon="4.12754">
        <ele>214.60000610352</ele>
        <time>2025-01-04T10:37:03.000Z</time>
      </trkpt>
      <trkpt lat="50.17747" lon="4.12793">
        <ele>214</ele>
        <time>2025-01-04T10:37:08.000Z</time>
      </trkpt>
      <trkpt lat="50.17747" lon="4.12815">
        <ele>214</ele>
        <time>2025-01-04T10:37:11.000Z</time>
      </trkpt>
      <trkpt lat="50.1775" lon="4.12828">
        <ele>214</ele>
        <time>2025-01-04T10:37:13.000Z</time>
      </trkpt>
      <trkpt lat="50.17752" lon="4.12834">
        <ele>214</ele>
        <time>2025-01-04T10:37:14.000Z</time>
      </trkpt>
      <trkpt lat="50.17758" lon="4.12846">
        <ele>214</ele>
        <time>2025-01-04T10:37:16.000Z</time>
      </trkpt>
      <trkpt lat="50.17765" lon="4.12867">
        <ele>214.19999694824</ele>
        <time>2025-01-04T10:37:19.000Z</time>
      </trkpt>
      <trkpt lat="50.17776" lon="4.12927">
        <ele>214.80000305176</ele>
        <time>2025-01-04T10:37:27.000Z</time>
      </trkpt>
      <trkpt lat="50.17778" lon="4.12942">
        <ele>215.60000610352</ele>
        <time>2025-01-04T10:37:29.000Z</time>
      </trkpt>
      <trkpt lat="50.1778" lon="4.1295">
        <ele>215.80000305176</ele>
        <time>2025-01-04T10:37:30.000Z</time>
      </trkpt>
      <trkpt lat="50.1778" lon="4.12957">
        <ele>216.39999389648</ele>
        <time>2025-01-04T10:37:31.000Z</time>
      </trkpt>
      <trkpt lat="50.17779" lon="4.12964">
        <ele>216.60000610352</ele>
        <time>2025-01-04T10:37:32.000Z</time>
      </trkpt>
      <trkpt lat="50.17779" lon="4.12972">
        <ele>217.19999694824</ele>
        <time>2025-01-04T10:37:33.000Z</time>
      </trkpt>
      <trkpt lat="50.17775" lon="4.12999">
        <ele>218.39999389648</ele>
        <time>2025-01-04T10:37:37.000Z</time>
      </trkpt>
      <trkpt lat="50.17772" lon="4.13021">
        <ele>219.80000305176</ele>
        <time>2025-01-04T10:37:40.000Z</time>
      </trkpt>
      <trkpt lat="50.17768" lon="4.1308">
        <ele>220.80000305176</ele>
        <time>2025-01-04T10:37:48.000Z</time>
      </trkpt>
      <trkpt lat="50.17767" lon="4.13087">
        <ele>220.80000305176</ele>
        <time>2025-01-04T10:37:49.000Z</time>
      </trkpt>
      <trkpt lat="50.17767" lon="4.13138">
        <ele>221.60000610352</ele>
        <time>2025-01-04T10:37:56.000Z</time>
      </trkpt>
      <trkpt lat="50.17766" lon="4.13152">
        <ele>221.80000305176</ele>
        <time>2025-01-04T10:37:58.000Z</time>
      </trkpt>
      <trkpt lat="50.17765" lon="4.13159">
        <ele>222</ele>
        <time>2025-01-04T10:37:59.000Z</time>
      </trkpt>
      <trkpt lat="50.17758" lon="4.13211">
        <ele>222.39999389648</ele>
        <time>2025-01-04T10:38:06.000Z</time>
      </trkpt>
      <trkpt lat="50.17756" lon="4.13228">
        <ele>222</ele>
        <time>2025-01-04T10:38:08.000Z</time>
      </trkpt>
      <trkpt lat="50.17756" lon="4.13245">
        <ele>222</ele>
        <time>2025-01-04T10:38:10.000Z</time>
      </trkpt>
      <trkpt lat="50.17757" lon="4.13253">
        <ele>221.80000305176</ele>
        <time>2025-01-04T10:38:11.000Z</time>
      </trkpt>
      <trkpt lat="50.17758" lon="4.1326">
        <ele>221.80000305176</ele>
        <time>2025-01-04T10:38:12.000Z</time>
      </trkpt>
      <trkpt lat="50.17764" lon="4.13277">
        <ele>220.80000305176</ele>
        <time>2025-01-04T10:38:15.000Z</time>
      </trkpt>
      <trkpt lat="50.17774" lon="4.13302">
        <ele>220.39999389648</ele>
        <time>2025-01-04T10:38:22.000Z</time>
      </trkpt>
      <trkpt lat="50.17786" lon="4.13333">
        <ele>220.19999694824</ele>
        <time>2025-01-04T10:38:29.000Z</time>
      </trkpt>
      <trkpt lat="50.17796" lon="4.13366">
        <ele>220.19999694824</ele>
        <time>2025-01-04T10:38:35.000Z</time>
      </trkpt>
      <trkpt lat="50.17809" lon="4.13415">
        <ele>220.39999389648</ele>
        <time>2025-01-04T10:38:43.000Z</time>
      </trkpt>
      <trkpt lat="50.1782" lon="4.13485">
        <ele>221</ele>
        <time>2025-01-04T10:38:53.000Z</time>
      </trkpt>
      <trkpt lat="50.17825" lon="4.13519">
        <ele>221.39999389648</ele>
        <time>2025-01-04T10:38:59.000Z</time>
      </trkpt>
      <trkpt lat="50.17833" lon="4.13573">
        <ele>221</ele>
        <time>2025-01-04T10:39:08.000Z</time>
      </trkpt>
      <trkpt lat="50.17844" lon="4.13634">
        <ele>221.19999694824</ele>
        <time>2025-01-04T10:39:18.000Z</time>
      </trkpt>
      <trkpt lat="50.17855" lon="4.1367">
        <ele>221.80000305176</ele>
        <time>2025-01-04T10:39:26.000Z</time>
      </trkpt>
      <trkpt lat="50.17861" lon="4.13682">
        <ele>222.19999694824</ele>
        <time>2025-01-04T10:39:30.000Z</time>
      </trkpt>
      <trkpt lat="50.17876" lon="4.13701">
        <ele>222.80000305176</ele>
        <time>2025-01-04T10:39:37.000Z</time>
      </trkpt>
      <trkpt lat="50.17885" lon="4.13708">
        <ele>223.39999389648</ele>
        <time>2025-01-04T10:39:40.000Z</time>
      </trkpt>
      <trkpt lat="50.17902" lon="4.13721">
        <ele>224</ele>
        <time>2025-01-04T10:39:45.000Z</time>
      </trkpt>
      <trkpt lat="50.17912" lon="4.1373">
        <ele>224.39999389648</ele>
        <time>2025-01-04T10:39:48.000Z</time>
      </trkpt>
      <trkpt lat="50.1793" lon="4.13746">
        <ele>225.39999389648</ele>
        <time>2025-01-04T10:39:53.000Z</time>
      </trkpt>
      <trkpt lat="50.17938" lon="4.13753">
        <ele>225.60000610352</ele>
        <time>2025-01-04T10:39:55.000Z</time>
      </trkpt>
      <trkpt lat="50.17948" lon="4.13765">
        <ele>226</ele>
        <time>2025-01-04T10:39:58.000Z</time>
      </trkpt>
      <trkpt lat="50.17954" lon="4.13774">
        <ele>226.19999694824</ele>
        <time>2025-01-04T10:40:00.000Z</time>
      </trkpt>
      <trkpt lat="50.17957" lon="4.13778">
        <ele>226.39999389648</ele>
        <time>2025-01-04T10:40:01.000Z</time>
      </trkpt>
      <trkpt lat="50.1796" lon="4.13783">
        <ele>226.60000610352</ele>
        <time>2025-01-04T10:40:02.000Z</time>
      </trkpt>
      <trkpt lat="50.17979" lon="4.13824">
        <ele>227.19999694824</ele>
        <time>2025-01-04T10:40:09.000Z</time>
      </trkpt>
      <trkpt lat="50.17987" lon="4.13845">
        <ele>227.60000610352</ele>
        <time>2025-01-04T10:40:12.000Z</time>
      </trkpt>
      <trkpt lat="50.17989" lon="4.13851">
        <ele>227.60000610352</ele>
        <time>2025-01-04T10:40:13.000Z</time>
      </trkpt>
      <trkpt lat="50.17995" lon="4.13862">
        <ele>227.80000305176</ele>
        <time>2025-01-04T10:40:15.000Z</time>
      </trkpt>
      <trkpt lat="50.18019" lon="4.13902">
        <ele>228.19999694824</ele>
        <time>2025-01-04T10:40:23.000Z</time>
      </trkpt>
      <trkpt lat="50.18027" lon="4.13915">
        <ele>228.39999389648</ele>
        <time>2025-01-04T10:40:26.000Z</time>
      </trkpt>
      <trkpt lat="50.18033" lon="4.13924">
        <ele>228.60000610352</ele>
        <time>2025-01-04T10:40:28.000Z</time>
      </trkpt>
      <trkpt lat="50.18036" lon="4.1393">
        <ele>228.80000305176</ele>
        <time>2025-01-04T10:40:29.000Z</time>
      </trkpt>
      <trkpt lat="50.18038" lon="4.13937">
        <ele>228.80000305176</ele>
        <time>2025-01-04T10:40:30.000Z</time>
      </trkpt>
      <trkpt lat="50.1804" lon="4.13943">
        <ele>229.19999694824</ele>
        <time>2025-01-04T10:40:31.000Z</time>
      </trkpt>
      <trkpt lat="50.18046" lon="4.13976">
        <ele>229.39999389648</ele>
        <time>2025-01-04T10:40:36.000Z</time>
      </trkpt>
      <trkpt lat="50.18059" lon="4.14037">
        <ele>229.39999389648</ele>
        <time>2025-01-04T10:40:45.000Z</time>
      </trkpt>
      <trkpt lat="50.18063" lon="4.1405">
        <ele>230</ele>
        <time>2025-01-04T10:40:47.000Z</time>
      </trkpt>
      <trkpt lat="50.1807" lon="4.14082">
        <ele>230.80000305176</ele>
        <time>2025-01-04T10:40:52.000Z</time>
      </trkpt>
      <trkpt lat="50.18074" lon="4.14102">
        <ele>231.39999389648</ele>
        <time>2025-01-04T10:40:55.000Z</time>
      </trkpt>
      <trkpt lat="50.18076" lon="4.14137">
        <ele>232</ele>
        <time>2025-01-04T10:41:00.000Z</time>
      </trkpt>
      <trkpt lat="50.18076" lon="4.14144">
        <ele>232</ele>
        <time>2025-01-04T10:41:01.000Z</time>
      </trkpt>
      <trkpt lat="50.18074" lon="4.14157">
        <ele>232</ele>
        <time>2025-01-04T10:41:03.000Z</time>
      </trkpt>
      <trkpt lat="50.1807" lon="4.14194">
        <ele>232</ele>
        <time>2025-01-04T10:41:09.000Z</time>
      </trkpt>
      <trkpt lat="50.18066" lon="4.14217">
        <ele>231.80000305176</ele>
        <time>2025-01-04T10:41:14.000Z</time>
      </trkpt>
      <trkpt lat="50.18055" lon="4.14249">
        <ele>232</ele>
        <time>2025-01-04T10:41:22.000Z</time>
      </trkpt>
      <trkpt lat="50.18038" lon="4.1429">
        <ele>232</ele>
        <time>2025-01-04T10:41:31.000Z</time>
      </trkpt>
      <trkpt lat="50.18019" lon="4.14321">
        <ele>232.60000610352</ele>
        <time>2025-01-04T10:41:38.000Z</time>
      </trkpt>
      <trkpt lat="50.17999" lon="4.14341">
        <ele>233.19999694824</ele>
        <time>2025-01-04T10:41:44.000Z</time>
      </trkpt>
      <trkpt lat="50.17993" lon="4.14349">
        <ele>233.19999694824</ele>
        <time>2025-01-04T10:41:46.000Z</time>
      </trkpt>
      <trkpt lat="50.17976" lon="4.14387">
        <ele>233.80000305176</ele>
        <time>2025-01-04T10:41:53.000Z</time>
      </trkpt>
      <trkpt lat="50.17966" lon="4.14423">
        <ele>234.39999389648</ele>
        <time>2025-01-04T10:41:59.000Z</time>
      </trkpt>
      <trkpt lat="50.17954" lon="4.14465">
        <ele>235.39999389648</ele>
        <time>2025-01-04T10:42:06.000Z</time>
      </trkpt>
      <trkpt lat="50.17945" lon="4.14496">
        <ele>236.60000610352</ele>
        <time>2025-01-04T10:42:11.000Z</time>
      </trkpt>
      <trkpt lat="50.17943" lon="4.14503">
        <ele>236.60000610352</ele>
        <time>2025-01-04T10:42:12.000Z</time>
      </trkpt>
      <trkpt lat="50.17938" lon="4.14521">
        <ele>237.39999389648</ele>
        <time>2025-01-04T10:42:15.000Z</time>
      </trkpt>
      <trkpt lat="50.17937" lon="4.14528">
        <ele>237.80000305176</ele>
        <time>2025-01-04T10:42:16.000Z</time>
      </trkpt>
      <trkpt lat="50.17932" lon="4.14561">
        <ele>238.19999694824</ele>
        <time>2025-01-04T10:42:21.000Z</time>
      </trkpt>
      <trkpt lat="50.17932" lon="4.14567">
        <ele>238.19999694824</ele>
        <time>2025-01-04T10:42:22.000Z</time>
      </trkpt>
      <trkpt lat="50.17934" lon="4.14607">
        <ele>238.80000305176</ele>
        <time>2025-01-04T10:42:28.000Z</time>
      </trkpt>
      <trkpt lat="50.17935" lon="4.14626">
        <ele>239.39999389648</ele>
        <time>2025-01-04T10:42:31.000Z</time>
      </trkpt>
      <trkpt lat="50.17937" lon="4.14639">
        <ele>240</ele>
        <time>2025-01-04T10:42:33.000Z</time>
      </trkpt>
      <trkpt lat="50.17939" lon="4.14652">
        <ele>240.39999389648</ele>
        <time>2025-01-04T10:42:35.000Z</time>
      </trkpt>
      <trkpt lat="50.17944" lon="4.14677">
        <ele>240.80000305176</ele>
        <time>2025-01-04T10:42:39.000Z</time>
      </trkpt>
      <trkpt lat="50.17944" lon="4.14684">
        <ele>241</ele>
        <time>2025-01-04T10:42:40.000Z</time>
      </trkpt>
      <trkpt lat="50.17948" lon="4.14711">
        <ele>241.60000610352</ele>
        <time>2025-01-04T10:42:44.000Z</time>
      </trkpt>
      <trkpt lat="50.17951" lon="4.14731">
        <ele>242</ele>
        <time>2025-01-04T10:42:47.000Z</time>
      </trkpt>
      <trkpt lat="50.17957" lon="4.14768">
        <ele>242.19999694824</ele>
        <time>2025-01-04T10:42:53.000Z</time>
      </trkpt>
      <trkpt lat="50.17961" lon="4.14788">
        <ele>243</ele>
        <time>2025-01-04T10:42:56.000Z</time>
      </trkpt>
      <trkpt lat="50.17967" lon="4.14824">
        <ele>244</ele>
        <time>2025-01-04T10:43:02.000Z</time>
      </trkpt>
      <trkpt lat="50.17972" lon="4.14842">
        <ele>244.80000305176</ele>
        <time>2025-01-04T10:43:06.000Z</time>
      </trkpt>
      <trkpt lat="50.17979" lon="4.14848">
        <ele>244.80000305176</ele>
        <time>2025-01-04T10:43:09.000Z</time>
      </trkpt>
      <trkpt lat="50.17981" lon="4.14848">
        <ele>245</ele>
        <time>2025-01-04T10:43:10.000Z</time>
      </trkpt>
      <trkpt lat="50.17991" lon="4.14847">
        <ele>245.19999694824</ele>
        <time>2025-01-04T10:43:15.000Z</time>
      </trkpt>
      <trkpt lat="50.17993" lon="4.14847">
        <ele>245.19999694824</ele>
        <time>2025-01-04T10:43:16.000Z</time>
      </trkpt>
      <trkpt lat="50.17995" lon="4.14844">
        <ele>245.39999389648</ele>
        <time>2025-01-04T10:43:18.000Z</time>
      </trkpt>
      <trkpt lat="50.17996" lon="4.1484">
        <ele>245.60000610352</ele>
        <time>2025-01-04T10:43:20.000Z</time>
      </trkpt>
      <trkpt lat="50.17996" lon="4.14839">
        <ele>245.80000305176</ele>
        <time>2025-01-04T10:43:25.000Z</time>
      </trkpt>
      <trkpt lat="50.17996" lon="4.14839">
        <ele>245.80000305176</ele>
        <time>2025-01-04T10:43:38.000Z</time>
      </trkpt>
      <trkpt lat="50.17996" lon="4.14838">
        <ele>245.60000610352</ele>
        <time>2025-01-04T10:44:05.000Z</time>
      </trkpt>
      <trkpt lat="50.18001" lon="4.14828">
        <ele>245.60000610352</ele>
        <time>2025-01-04T10:44:08.000Z</time>
      </trkpt>
      <trkpt lat="50.1801" lon="4.14802">
        <ele>245.80000305176</ele>
        <time>2025-01-04T10:44:13.000Z</time>
      </trkpt>
      <trkpt lat="50.18023" lon="4.14779">
        <ele>246.39999389648</ele>
        <time>2025-01-04T10:44:19.000Z</time>
      </trkpt>
      <trkpt lat="50.18036" lon="4.14758">
        <ele>246.39999389648</ele>
        <time>2025-01-04T10:44:25.000Z</time>
      </trkpt>
      <trkpt lat="50.18053" lon="4.14731">
        <ele>246.60000610352</ele>
        <time>2025-01-04T10:44:32.000Z</time>
      </trkpt>
      <trkpt lat="50.18071" lon="4.14706">
        <ele>246.60000610352</ele>
        <time>2025-01-04T10:44:38.000Z</time>
      </trkpt>
      <trkpt lat="50.18085" lon="4.1469">
        <ele>246.39999389648</ele>
        <time>2025-01-04T10:44:44.000Z</time>
      </trkpt>
      <trkpt lat="50.18092" lon="4.14683">
        <ele>246.19999694824</ele>
        <time>2025-01-04T10:44:48.000Z</time>
      </trkpt>
      <trkpt lat="50.18106" lon="4.14673">
        <ele>246.19999694824</ele>
        <time>2025-01-04T10:44:53.000Z</time>
      </trkpt>
      <trkpt lat="50.18123" lon="4.14657">
        <ele>245.80000305176</ele>
        <time>2025-01-04T10:44:59.000Z</time>
      </trkpt>
      <trkpt lat="50.18127" lon="4.14653">
        <ele>245.80000305176</ele>
        <time>2025-01-04T10:45:00.000Z</time>
      </trkpt>
      <trkpt lat="50.18134" lon="4.14645">
        <ele>245.80000305176</ele>
        <time>2025-01-04T10:45:02.000Z</time>
      </trkpt>
      <trkpt lat="50.1814" lon="4.14636">
        <ele>245.80000305176</ele>
        <time>2025-01-04T10:45:04.000Z</time>
      </trkpt>
      <trkpt lat="50.18162" lon="4.14607">
        <ele>246</ele>
        <time>2025-01-04T10:45:11.000Z</time>
      </trkpt>
      <trkpt lat="50.18183" lon="4.1457">
        <ele>245.60000610352</ele>
        <time>2025-01-04T10:45:17.000Z</time>
      </trkpt>
      <trkpt lat="50.18188" lon="4.14564">
        <ele>245.39999389648</ele>
        <time>2025-01-04T10:45:18.000Z</time>
      </trkpt>
      <trkpt lat="50.18204" lon="4.14539">
        <ele>245.19999694824</ele>
        <time>2025-01-04T10:45:22.000Z</time>
      </trkpt>
      <trkpt lat="50.18207" lon="4.14534">
        <ele>245.19999694824</ele>
        <time>2025-01-04T10:45:23.000Z</time>
      </trkpt>
      <trkpt lat="50.18219" lon="4.14513">
        <ele>245</ele>
        <time>2025-01-04T10:45:27.000Z</time>
      </trkpt>
      <trkpt lat="50.18233" lon="4.14498">
        <ele>245</ele>
        <time>2025-01-04T10:45:31.000Z</time>
      </trkpt>
      <trkpt lat="50.18238" lon="4.14489">
        <ele>245</ele>
        <time>2025-01-04T10:45:33.000Z</time>
      </trkpt>
      <trkpt lat="50.18246" lon="4.14469">
        <ele>245</ele>
        <time>2025-01-04T10:45:36.000Z</time>
      </trkpt>
      <trkpt lat="50.18248" lon="4.14461">
        <ele>245</ele>
        <time>2025-01-04T10:45:37.000Z</time>
      </trkpt>
      <trkpt lat="50.18252" lon="4.14444">
        <ele>244.39999389648</ele>
        <time>2025-01-04T10:45:39.000Z</time>
      </trkpt>
      <trkpt lat="50.18254" lon="4.14436">
        <ele>244.39999389648</ele>
        <time>2025-01-04T10:45:40.000Z</time>
      </trkpt>
      <trkpt lat="50.18257" lon="4.14418">
        <ele>244</ele>
        <time>2025-01-04T10:45:42.000Z</time>
      </trkpt>
      <trkpt lat="50.18259" lon="4.14389">
        <ele>243.60000610352</ele>
        <time>2025-01-04T10:45:46.000Z</time>
      </trkpt>
      <trkpt lat="50.18259" lon="4.14365">
        <ele>243.39999389648</ele>
        <time>2025-01-04T10:45:51.000Z</time>
      </trkpt>
      <trkpt lat="50.18257" lon="4.14337">
        <ele>243.19999694824</ele>
        <time>2025-01-04T10:45:57.000Z</time>
      </trkpt>
      <trkpt lat="50.18262" lon="4.14306">
        <ele>243.19999694824</ele>
        <time>2025-01-04T10:46:02.000Z</time>
      </trkpt>
      <trkpt lat="50.18263" lon="4.14295">
        <ele>243</ele>
        <time>2025-01-04T10:46:04.000Z</time>
      </trkpt>
      <trkpt lat="50.18265" lon="4.14289">
        <ele>243</ele>
        <time>2025-01-04T10:46:05.000Z</time>
      </trkpt>
      <trkpt lat="50.18268" lon="4.14276">
        <ele>242.80000305176</ele>
        <time>2025-01-04T10:46:07.000Z</time>
      </trkpt>
      <trkpt lat="50.18278" lon="4.1423">
        <ele>243</ele>
        <time>2025-01-04T10:46:14.000Z</time>
      </trkpt>
      <trkpt lat="50.18282" lon="4.14209">
        <ele>243</ele>
        <time>2025-01-04T10:46:17.000Z</time>
      </trkpt>
      <trkpt lat="50.18286" lon="4.14188">
        <ele>243.19999694824</ele>
        <time>2025-01-04T10:46:20.000Z</time>
      </trkpt>
      <trkpt lat="50.18298" lon="4.14145">
        <ele>243</ele>
        <time>2025-01-04T10:46:26.000Z</time>
      </trkpt>
      <trkpt lat="50.18301" lon="4.14131">
        <ele>242.80000305176</ele>
        <time>2025-01-04T10:46:28.000Z</time>
      </trkpt>
      <trkpt lat="50.18305" lon="4.141">
        <ele>242.60000610352</ele>
        <time>2025-01-04T10:46:32.000Z</time>
      </trkpt>
      <trkpt lat="50.1832" lon="4.1404">
        <ele>242.80000305176</ele>
        <time>2025-01-04T10:46:40.000Z</time>
      </trkpt>
      <trkpt lat="50.18323" lon="4.14025">
        <ele>242.80000305176</ele>
        <time>2025-01-04T10:46:42.000Z</time>
      </trkpt>
      <trkpt lat="50.18325" lon="4.14012">
        <ele>242.80000305176</ele>
        <time>2025-01-04T10:46:44.000Z</time>
      </trkpt>
      <trkpt lat="50.18329" lon="4.14">
        <ele>242.39999389648</ele>
        <time>2025-01-04T10:46:46.000Z</time>
      </trkpt>
      <trkpt lat="50.18333" lon="4.13979">
        <ele>242.39999389648</ele>
        <time>2025-01-04T10:46:49.000Z</time>
      </trkpt>
      <trkpt lat="50.18341" lon="4.13944">
        <ele>242.19999694824</ele>
        <time>2025-01-04T10:46:55.000Z</time>
      </trkpt>
      <trkpt lat="50.18344" lon="4.13941">
        <ele>242.19999694824</ele>
        <time>2025-01-04T10:46:56.000Z</time>
      </trkpt>
      <trkpt lat="50.1835" lon="4.1394">
        <ele>242.39999389648</ele>
        <time>2025-01-04T10:46:58.000Z</time>
      </trkpt>
      <trkpt lat="50.18369" lon="4.13944">
        <ele>242.80000305176</ele>
        <time>2025-01-04T10:47:04.000Z</time>
      </trkpt>
      <trkpt lat="50.18393" lon="4.13946">
        <ele>243.60000610352</ele>
        <time>2025-01-04T10:47:10.000Z</time>
      </trkpt>
      <trkpt lat="50.18405" lon="4.13947">
        <ele>244.19999694824</ele>
        <time>2025-01-04T10:47:13.000Z</time>
      </trkpt>
      <trkpt lat="50.18418" lon="4.13948">
        <ele>244.39999389648</ele>
        <time>2025-01-04T10:47:16.000Z</time>
      </trkpt>
      <trkpt lat="50.18424" lon="4.13949">
        <ele>244.39999389648</ele>
        <time>2025-01-04T10:47:18.000Z</time>
      </trkpt>
      <trkpt lat="50.18438" lon="4.1395">
        <ele>244.60000610352</ele>
        <time>2025-01-04T10:47:21.000Z</time>
      </trkpt>
      <trkpt lat="50.18449" lon="4.13952">
        <ele>245</ele>
        <time>2025-01-04T10:47:24.000Z</time>
      </trkpt>
      <trkpt lat="50.18453" lon="4.13953">
        <ele>245.19999694824</ele>
        <time>2025-01-04T10:47:25.000Z</time>
      </trkpt>
      <trkpt lat="50.18479" lon="4.13954">
        <ele>246</ele>
        <time>2025-01-04T10:47:30.000Z</time>
      </trkpt>
      <trkpt lat="50.18497" lon="4.13954">
        <ele>246.39999389648</ele>
        <time>2025-01-04T10:47:34.000Z</time>
      </trkpt>
      <trkpt lat="50.18517" lon="4.13955">
        <ele>246.80000305176</ele>
        <time>2025-01-04T10:47:38.000Z</time>
      </trkpt>
      <trkpt lat="50.18535" lon="4.13956">
        <ele>247.19999694824</ele>
        <time>2025-01-04T10:47:42.000Z</time>
      </trkpt>
      <trkpt lat="50.18545" lon="4.13958">
        <ele>247.39999389648</ele>
        <time>2025-01-04T10:47:44.000Z</time>
      </trkpt>
      <trkpt lat="50.18549" lon="4.13958">
        <ele>247.60000610352</ele>
        <time>2025-01-04T10:47:45.000Z</time>
      </trkpt>
      <trkpt lat="50.18572" lon="4.13962">
        <ele>248.60000610352</ele>
        <time>2025-01-04T10:47:51.000Z</time>
      </trkpt>
      <trkpt lat="50.18582" lon="4.13963">
        <ele>248.80000305176</ele>
        <time>2025-01-04T10:47:53.000Z</time>
      </trkpt>
      <trkpt lat="50.18604" lon="4.13964">
        <ele>249</ele>
        <time>2025-01-04T10:47:57.000Z</time>
      </trkpt>
      <trkpt lat="50.18639" lon="4.13963">
        <ele>249</ele>
        <time>2025-01-04T10:48:03.000Z</time>
      </trkpt>
      <trkpt lat="50.18669" lon="4.13967">
        <ele>249</ele>
        <time>2025-01-04T10:48:09.000Z</time>
      </trkpt>
      <trkpt lat="50.18703" lon="4.13966">
        <ele>248.39999389648</ele>
        <time>2025-01-04T10:48:15.000Z</time>
      </trkpt>
      <trkpt lat="50.18715" lon="4.13969">
        <ele>248.39999389648</ele>
        <time>2025-01-04T10:48:17.000Z</time>
      </trkpt>
      <trkpt lat="50.18755" lon="4.13972">
        <ele>247.39999389648</ele>
        <time>2025-01-04T10:48:23.000Z</time>
      </trkpt>
      <trkpt lat="50.18797" lon="4.13975">
        <ele>246.39999389648</ele>
        <time>2025-01-04T10:48:30.000Z</time>
      </trkpt>
      <trkpt lat="50.18803" lon="4.13977">
        <ele>246.39999389648</ele>
        <time>2025-01-04T10:48:31.000Z</time>
      </trkpt>
      <trkpt lat="50.18809" lon="4.13979">
        <ele>246.39999389648</ele>
        <time>2025-01-04T10:48:32.000Z</time>
      </trkpt>
      <trkpt lat="50.18851" lon="4.13977">
        <ele>246.60000610352</ele>
        <time>2025-01-04T10:48:39.000Z</time>
      </trkpt>
      <trkpt lat="50.18884" lon="4.13979">
        <ele>247.60000610352</ele>
        <time>2025-01-04T10:48:45.000Z</time>
      </trkpt>
      <trkpt lat="50.18906" lon="4.13976">
        <ele>247.80000305176</ele>
        <time>2025-01-04T10:48:49.000Z</time>
      </trkpt>
      <trkpt lat="50.18945" lon="4.13971">
        <ele>248</ele>
        <time>2025-01-04T10:48:56.000Z</time>
      </trkpt>
      <trkpt lat="50.1895" lon="4.13971">
        <ele>248.19999694824</ele>
        <time>2025-01-04T10:48:57.000Z</time>
      </trkpt>
      <trkpt lat="50.1897" lon="4.13972">
        <ele>248.39999389648</ele>
        <time>2025-01-04T10:49:01.000Z</time>
      </trkpt>
      <trkpt lat="50.1899" lon="4.13972">
        <ele>248.39999389648</ele>
        <time>2025-01-04T10:49:05.000Z</time>
      </trkpt>
      <trkpt lat="50.18999" lon="4.13973">
        <ele>248.39999389648</ele>
        <time>2025-01-04T10:49:07.000Z</time>
      </trkpt>
      <trkpt lat="50.19033" lon="4.13976">
        <ele>248.19999694824</ele>
        <time>2025-01-04T10:49:14.000Z</time>
      </trkpt>
      <trkpt lat="50.19037" lon="4.13977">
        <ele>248.19999694824</ele>
        <time>2025-01-04T10:49:15.000Z</time>
      </trkpt>
      <trkpt lat="50.19049" lon="4.13979">
        <ele>248.19999694824</ele>
        <time>2025-01-04T10:49:18.000Z</time>
      </trkpt>
      <trkpt lat="50.19071" lon="4.1398">
        <ele>248</ele>
        <time>2025-01-04T10:49:22.000Z</time>
      </trkpt>
      <trkpt lat="50.19083" lon="4.13977">
        <ele>248</ele>
        <time>2025-01-04T10:49:24.000Z</time>
      </trkpt>
      <trkpt lat="50.19091" lon="4.13974">
        <ele>248</ele>
        <time>2025-01-04T10:49:25.000Z</time>
      </trkpt>
      <trkpt lat="50.19131" lon="4.13952">
        <ele>247.60000610352</ele>
        <time>2025-01-04T10:49:32.000Z</time>
      </trkpt>
      <trkpt lat="50.19147" lon="4.1394">
        <ele>246.39999389648</ele>
        <time>2025-01-04T10:49:35.000Z</time>
      </trkpt>
      <trkpt lat="50.19165" lon="4.13925">
        <ele>245</ele>
        <time>2025-01-04T10:49:39.000Z</time>
      </trkpt>
      <trkpt lat="50.19181" lon="4.13906">
        <ele>243.60000610352</ele>
        <time>2025-01-04T10:49:44.000Z</time>
      </trkpt>
      <trkpt lat="50.19193" lon="4.13889">
        <ele>242.19999694824</ele>
        <time>2025-01-04T10:49:48.000Z</time>
      </trkpt>
      <trkpt lat="50.19201" lon="4.13877">
        <ele>241.39999389648</ele>
        <time>2025-01-04T10:49:51.000Z</time>
      </trkpt>
      <trkpt lat="50.19206" lon="4.13866">
        <ele>241</ele>
        <time>2025-01-04T10:49:54.000Z</time>
      </trkpt>
      <trkpt lat="50.19209" lon="4.13862">
        <ele>240.80000305176</ele>
        <time>2025-01-04T10:49:56.000Z</time>
      </trkpt>
      <trkpt lat="50.1922" lon="4.13858">
        <ele>240.39999389648</ele>
        <time>2025-01-04T10:50:00.000Z</time>
      </trkpt>
      <trkpt lat="50.19224" lon="4.13856">
        <ele>240.39999389648</ele>
        <time>2025-01-04T10:50:01.000Z</time>
      </trkpt>
      <trkpt lat="50.19228" lon="4.13853">
        <ele>240.39999389648</ele>
        <time>2025-01-04T10:50:02.000Z</time>
      </trkpt>
      <trkpt lat="50.19243" lon="4.13843">
        <ele>240.19999694824</ele>
        <time>2025-01-04T10:50:05.000Z</time>
      </trkpt>
      <trkpt lat="50.19255" lon="4.13835">
        <ele>239.60000610352</ele>
        <time>2025-01-04T10:50:07.000Z</time>
      </trkpt>
      <trkpt lat="50.19267" lon="4.13826">
        <ele>238.80000305176</ele>
        <time>2025-01-04T10:50:09.000Z</time>
      </trkpt>
      <trkpt lat="50.1928" lon="4.13814">
        <ele>237.80000305176</ele>
        <time>2025-01-04T10:50:11.000Z</time>
      </trkpt>
      <trkpt lat="50.19286" lon="4.13808">
        <ele>237.39999389648</ele>
        <time>2025-01-04T10:50:12.000Z</time>
      </trkpt>
      <trkpt lat="50.19299" lon="4.13796">
        <ele>236.19999694824</ele>
        <time>2025-01-04T10:50:14.000Z</time>
      </trkpt>
      <trkpt lat="50.19314" lon="4.1378">
        <ele>235.19999694824</ele>
        <time>2025-01-04T10:50:17.000Z</time>
      </trkpt>
      <trkpt lat="50.19325" lon="4.13768">
        <ele>234.39999389648</ele>
        <time>2025-01-04T10:50:19.000Z</time>
      </trkpt>
      <trkpt lat="50.19338" lon="4.13751">
        <ele>233.60000610352</ele>
        <time>2025-01-04T10:50:21.000Z</time>
      </trkpt>
      <trkpt lat="50.19349" lon="4.13736">
        <ele>232.19999694824</ele>
        <time>2025-01-04T10:50:23.000Z</time>
      </trkpt>
      <trkpt lat="50.19356" lon="4.13725">
        <ele>232</ele>
        <time>2025-01-04T10:50:24.000Z</time>
      </trkpt>
      <trkpt lat="50.19368" lon="4.13705">
        <ele>231</ele>
        <time>2025-01-04T10:50:26.000Z</time>
      </trkpt>
      <trkpt lat="50.19379" lon="4.13687">
        <ele>230</ele>
        <time>2025-01-04T10:50:28.000Z</time>
      </trkpt>
      <trkpt lat="50.19388" lon="4.1367">
        <ele>228.19999694824</ele>
        <time>2025-01-04T10:50:30.000Z</time>
      </trkpt>
      <trkpt lat="50.19391" lon="4.13663">
        <ele>227.80000305176</ele>
        <time>2025-01-04T10:50:31.000Z</time>
      </trkpt>
      <trkpt lat="50.19398" lon="4.13651">
        <ele>227</ele>
        <time>2025-01-04T10:50:33.000Z</time>
      </trkpt>
      <trkpt lat="50.19402" lon="4.13644">
        <ele>226.19999694824</ele>
        <time>2025-01-04T10:50:35.000Z</time>
      </trkpt>
      <trkpt lat="50.19404" lon="4.13643">
        <ele>226</ele>
        <time>2025-01-04T10:50:36.000Z</time>
      </trkpt>
      <trkpt lat="50.19408" lon="4.13647">
        <ele>225.39999389648</ele>
        <time>2025-01-04T10:50:38.000Z</time>
      </trkpt>
      <trkpt lat="50.19419" lon="4.13671">
        <ele>225.19999694824</ele>
        <time>2025-01-04T10:50:44.000Z</time>
      </trkpt>
      <trkpt lat="50.19427" lon="4.13708">
        <ele>225.39999389648</ele>
        <time>2025-01-04T10:50:50.000Z</time>
      </trkpt>
      <trkpt lat="50.19432" lon="4.13752">
        <ele>227.19999694824</ele>
        <time>2025-01-04T10:50:58.000Z</time>
      </trkpt>
      <trkpt lat="50.19433" lon="4.13758">
        <ele>227.39999389648</ele>
        <time>2025-01-04T10:50:59.000Z</time>
      </trkpt>
      <trkpt lat="50.19439" lon="4.13785">
        <ele>228.60000610352</ele>
        <time>2025-01-04T10:51:05.000Z</time>
      </trkpt>
      <trkpt lat="50.1944" lon="4.13788">
        <ele>228.60000610352</ele>
        <time>2025-01-04T10:51:06.000Z</time>
      </trkpt>
      <trkpt lat="50.19453" lon="4.13813">
        <ele>229.39999389648</ele>
        <time>2025-01-04T10:51:12.000Z</time>
      </trkpt>
      <trkpt lat="50.19456" lon="4.13818">
        <ele>229.60000610352</ele>
        <time>2025-01-04T10:51:13.000Z</time>
      </trkpt>
      <trkpt lat="50.1947" lon="4.13837">
        <ele>231</ele>
        <time>2025-01-04T10:51:18.000Z</time>
      </trkpt>
      <trkpt lat="50.19479" lon="4.13849">
        <ele>231.80000305176</ele>
        <time>2025-01-04T10:51:21.000Z</time>
      </trkpt>
      <trkpt lat="50.19482" lon="4.13853">
        <ele>232</ele>
        <time>2025-01-04T10:51:22.000Z</time>
      </trkpt>
      <trkpt lat="50.19497" lon="4.1388">
        <ele>233.39999389648</ele>
        <time>2025-01-04T10:51:28.000Z</time>
      </trkpt>
      <trkpt lat="50.19507" lon="4.139">
        <ele>234.39999389648</ele>
        <time>2025-01-04T10:51:32.000Z</time>
      </trkpt>
      <trkpt lat="50.19527" lon="4.13943">
        <ele>235.39999389648</ele>
        <time>2025-01-04T10:51:40.000Z</time>
      </trkpt>
      <trkpt lat="50.1953" lon="4.13949">
        <ele>235.39999389648</ele>
        <time>2025-01-04T10:51:41.000Z</time>
      </trkpt>
      <trkpt lat="50.19542" lon="4.13974">
        <ele>235.39999389648</ele>
        <time>2025-01-04T10:51:45.000Z</time>
      </trkpt>
      <trkpt lat="50.19557" lon="4.14002">
        <ele>234.80000305176</ele>
        <time>2025-01-04T10:51:50.000Z</time>
      </trkpt>
      <trkpt lat="50.19569" lon="4.14024">
        <ele>234.39999389648</ele>
        <time>2025-01-04T10:51:54.000Z</time>
      </trkpt>
      <trkpt lat="50.19576" lon="4.14039">
        <ele>234.39999389648</ele>
        <time>2025-01-04T10:51:57.000Z</time>
      </trkpt>
      <trkpt lat="50.19604" lon="4.14089">
        <ele>234.39999389648</ele>
        <time>2025-01-04T10:52:06.000Z</time>
      </trkpt>
      <trkpt lat="50.19613" lon="4.14103">
        <ele>234.19999694824</ele>
        <time>2025-01-04T10:52:09.000Z</time>
      </trkpt>
      <trkpt lat="50.19624" lon="4.14118">
        <ele>234.19999694824</ele>
        <time>2025-01-04T10:52:12.000Z</time>
      </trkpt>
      <trkpt lat="50.19632" lon="4.14134">
        <ele>233.80000305176</ele>
        <time>2025-01-04T10:52:15.000Z</time>
      </trkpt>
      <trkpt lat="50.19642" lon="4.14147">
        <ele>233.60000610352</ele>
        <time>2025-01-04T10:52:18.000Z</time>
      </trkpt>
      <trkpt lat="50.1965" lon="4.14159">
        <ele>233.39999389648</ele>
        <time>2025-01-04T10:52:20.000Z</time>
      </trkpt>
      <trkpt lat="50.1966" lon="4.14173">
        <ele>233.19999694824</ele>
        <time>2025-01-04T10:52:23.000Z</time>
      </trkpt>
      <trkpt lat="50.19683" lon="4.14206">
        <ele>232.39999389648</ele>
        <time>2025-01-04T10:52:29.000Z</time>
      </trkpt>
      <trkpt lat="50.19696" lon="4.14226">
        <ele>232.19999694824</ele>
        <time>2025-01-04T10:52:33.000Z</time>
      </trkpt>
      <trkpt lat="50.197" lon="4.14233">
        <ele>231.80000305176</ele>
        <time>2025-01-04T10:52:34.000Z</time>
      </trkpt>
      <trkpt lat="50.19702" lon="4.14239">
        <ele>231.19999694824</ele>
        <time>2025-01-04T10:52:35.000Z</time>
      </trkpt>
      <trkpt lat="50.19708" lon="4.14259">
        <ele>230.60000610352</ele>
        <time>2025-01-04T10:52:38.000Z</time>
      </trkpt>
      <trkpt lat="50.1971" lon="4.14265">
        <ele>230.19999694824</ele>
        <time>2025-01-04T10:52:39.000Z</time>
      </trkpt>
      <trkpt lat="50.19721" lon="4.14308">
        <ele>229.19999694824</ele>
        <time>2025-01-04T10:52:46.000Z</time>
      </trkpt>
      <trkpt lat="50.19724" lon="4.1432">
        <ele>228.60000610352</ele>
        <time>2025-01-04T10:52:48.000Z</time>
      </trkpt>
      <trkpt lat="50.19727" lon="4.14331">
        <ele>228</ele>
        <time>2025-01-04T10:52:50.000Z</time>
      </trkpt>
      <trkpt lat="50.19735" lon="4.14361">
        <ele>227</ele>
        <time>2025-01-04T10:52:56.000Z</time>
      </trkpt>
      <trkpt lat="50.19738" lon="4.14373">
        <ele>226.80000305176</ele>
        <time>2025-01-04T10:52:58.000Z</time>
      </trkpt>
      <trkpt lat="50.19744" lon="4.14402">
        <ele>226.19999694824</ele>
        <time>2025-01-04T10:53:03.000Z</time>
      </trkpt>
      <trkpt lat="50.19743" lon="4.14414">
        <ele>225.60000610352</ele>
        <time>2025-01-04T10:53:05.000Z</time>
      </trkpt>
      <trkpt lat="50.1974" lon="4.14438">
        <ele>225</ele>
        <time>2025-01-04T10:53:08.000Z</time>
      </trkpt>
      <trkpt lat="50.19736" lon="4.14471">
        <ele>224.39999389648</ele>
        <time>2025-01-04T10:53:12.000Z</time>
      </trkpt>
      <trkpt lat="50.19736" lon="4.14486">
        <ele>224.19999694824</ele>
        <time>2025-01-04T10:53:14.000Z</time>
      </trkpt>
      <trkpt lat="50.19737" lon="4.14494">
        <ele>223.80000305176</ele>
        <time>2025-01-04T10:53:15.000Z</time>
      </trkpt>
      <trkpt lat="50.19741" lon="4.14509">
        <ele>222.80000305176</ele>
        <time>2025-01-04T10:53:17.000Z</time>
      </trkpt>
      <trkpt lat="50.19743" lon="4.14515">
        <ele>222.60000610352</ele>
        <time>2025-01-04T10:53:18.000Z</time>
      </trkpt>
      <trkpt lat="50.19754" lon="4.14535">
        <ele>221.60000610352</ele>
        <time>2025-01-04T10:53:21.000Z</time>
      </trkpt>
      <trkpt lat="50.19769" lon="4.1456">
        <ele>221</ele>
        <time>2025-01-04T10:53:25.000Z</time>
      </trkpt>
      <trkpt lat="50.19776" lon="4.14574">
        <ele>220.80000305176</ele>
        <time>2025-01-04T10:53:27.000Z</time>
      </trkpt>
      <trkpt lat="50.19779" lon="4.1458">
        <ele>220.60000610352</ele>
        <time>2025-01-04T10:53:28.000Z</time>
      </trkpt>
      <trkpt lat="50.19797" lon="4.14615">
        <ele>219.39999389648</ele>
        <time>2025-01-04T10:53:34.000Z</time>
      </trkpt>
      <trkpt lat="50.19815" lon="4.14649">
        <ele>218.60000610352</ele>
        <time>2025-01-04T10:53:38.000Z</time>
      </trkpt>
      <trkpt lat="50.19818" lon="4.14656">
        <ele>218.39999389648</ele>
        <time>2025-01-04T10:53:39.000Z</time>
      </trkpt>
      <trkpt lat="50.19829" lon="4.14678">
        <ele>217.60000610352</ele>
        <time>2025-01-04T10:53:42.000Z</time>
      </trkpt>
      <trkpt lat="50.19847" lon="4.1471">
        <ele>216.60000610352</ele>
        <time>2025-01-04T10:53:47.000Z</time>
      </trkpt>
      <trkpt lat="50.19858" lon="4.14733">
        <ele>215</ele>
        <time>2025-01-04T10:53:51.000Z</time>
      </trkpt>
      <trkpt lat="50.19863" lon="4.14741">
        <ele>214.39999389648</ele>
        <time>2025-01-04T10:53:53.000Z</time>
      </trkpt>
      <trkpt lat="50.19868" lon="4.14747">
        <ele>213.80000305176</ele>
        <time>2025-01-04T10:53:55.000Z</time>
      </trkpt>
      <trkpt lat="50.19872" lon="4.14749">
        <ele>213.80000305176</ele>
        <time>2025-01-04T10:53:56.000Z</time>
      </trkpt>
      <trkpt lat="50.19876" lon="4.1475">
        <ele>213.19999694824</ele>
        <time>2025-01-04T10:53:57.000Z</time>
      </trkpt>
      <trkpt lat="50.19885" lon="4.14752">
        <ele>212.80000305176</ele>
        <time>2025-01-04T10:53:59.000Z</time>
      </trkpt>
      <trkpt lat="50.19894" lon="4.14758">
        <ele>212.39999389648</ele>
        <time>2025-01-04T10:54:01.000Z</time>
      </trkpt>
      <trkpt lat="50.19898" lon="4.14762">
        <ele>212.19999694824</ele>
        <time>2025-01-04T10:54:02.000Z</time>
      </trkpt>
      <trkpt lat="50.19921" lon="4.14803">
        <ele>211.80000305176</ele>
        <time>2025-01-04T10:54:09.000Z</time>
      </trkpt>
      <trkpt lat="50.19931" lon="4.14821">
        <ele>211.60000610352</ele>
        <time>2025-01-04T10:54:12.000Z</time>
      </trkpt>
      <trkpt lat="50.1995" lon="4.14857">
        <ele>211.39999389648</ele>
        <time>2025-01-04T10:54:18.000Z</time>
      </trkpt>
      <trkpt lat="50.1998" lon="4.14915">
        <ele>211</ele>
        <time>2025-01-04T10:54:27.000Z</time>
      </trkpt>
      <trkpt lat="50.19995" lon="4.14945">
        <ele>210.60000610352</ele>
        <time>2025-01-04T10:54:32.000Z</time>
      </trkpt>
      <trkpt lat="50.20002" lon="4.14966">
        <ele>210.39999389648</ele>
        <time>2025-01-04T10:54:35.000Z</time>
      </trkpt>
      <trkpt lat="50.20003" lon="4.14983">
        <ele>210</ele>
        <time>2025-01-04T10:54:37.000Z</time>
      </trkpt>
      <trkpt lat="50.20002" lon="4.15009">
        <ele>209.60000610352</ele>
        <time>2025-01-04T10:54:40.000Z</time>
      </trkpt>
      <trkpt lat="50.2" lon="4.15033">
        <ele>208.39999389648</ele>
        <time>2025-01-04T10:54:43.000Z</time>
      </trkpt>
      <trkpt lat="50.19999" lon="4.15048">
        <ele>208.19999694824</ele>
        <time>2025-01-04T10:54:45.000Z</time>
      </trkpt>
      <trkpt lat="50.2" lon="4.15056">
        <ele>208</ele>
        <time>2025-01-04T10:54:46.000Z</time>
      </trkpt>
      <trkpt lat="50.20002" lon="4.15063">
        <ele>207.80000305176</ele>
        <time>2025-01-04T10:54:47.000Z</time>
      </trkpt>
      <trkpt lat="50.20008" lon="4.15074">
        <ele>207.39999389648</ele>
        <time>2025-01-04T10:54:49.000Z</time>
      </trkpt>
      <trkpt lat="50.20012" lon="4.15078">
        <ele>207.39999389648</ele>
        <time>2025-01-04T10:54:50.000Z</time>
      </trkpt>
      <trkpt lat="50.20016" lon="4.15081">
        <ele>207.19999694824</ele>
        <time>2025-01-04T10:54:51.000Z</time>
      </trkpt>
      <trkpt lat="50.20025" lon="4.15085">
        <ele>207.19999694824</ele>
        <time>2025-01-04T10:54:53.000Z</time>
      </trkpt>
      <trkpt lat="50.20029" lon="4.15088">
        <ele>207.19999694824</ele>
        <time>2025-01-04T10:54:54.000Z</time>
      </trkpt>
      <trkpt lat="50.20042" lon="4.15095">
        <ele>207.39999389648</ele>
        <time>2025-01-04T10:54:57.000Z</time>
      </trkpt>
      <trkpt lat="50.20057" lon="4.151">
        <ele>207.39999389648</ele>
        <time>2025-01-04T10:55:00.000Z</time>
      </trkpt>
      <trkpt lat="50.20094" lon="4.15115">
        <ele>207.19999694824</ele>
        <time>2025-01-04T10:55:08.000Z</time>
      </trkpt>
      <trkpt lat="50.2011" lon="4.15121">
        <ele>206.80000305176</ele>
        <time>2025-01-04T10:55:12.000Z</time>
      </trkpt>
      <trkpt lat="50.20112" lon="4.15125">
        <ele>206.80000305176</ele>
        <time>2025-01-04T10:55:13.000Z</time>
      </trkpt>
      <trkpt lat="50.20113" lon="4.15132">
        <ele>206.60000610352</ele>
        <time>2025-01-04T10:55:14.000Z</time>
      </trkpt>
      <trkpt lat="50.20114" lon="4.15139">
        <ele>206.19999694824</ele>
        <time>2025-01-04T10:55:15.000Z</time>
      </trkpt>
      <trkpt lat="50.20113" lon="4.15154">
        <ele>205.60000610352</ele>
        <time>2025-01-04T10:55:17.000Z</time>
      </trkpt>
      <trkpt lat="50.20112" lon="4.15168">
        <ele>204.80000305176</ele>
        <time>2025-01-04T10:55:19.000Z</time>
      </trkpt>
      <trkpt lat="50.20109" lon="4.15194">
        <ele>203.39999389648</ele>
        <time>2025-01-04T10:55:23.000Z</time>
      </trkpt>
      <trkpt lat="50.20108" lon="4.152">
        <ele>203.19999694824</ele>
        <time>2025-01-04T10:55:24.000Z</time>
      </trkpt>
      <trkpt lat="50.20107" lon="4.15207">
        <ele>202.39999389648</ele>
        <time>2025-01-04T10:55:25.000Z</time>
      </trkpt>
      <trkpt lat="50.20107" lon="4.15221">
        <ele>201.39999389648</ele>
        <time>2025-01-04T10:55:27.000Z</time>
      </trkpt>
      <trkpt lat="50.20108" lon="4.15235">
        <ele>200.39999389648</ele>
        <time>2025-01-04T10:55:29.000Z</time>
      </trkpt>
      <trkpt lat="50.20108" lon="4.15241">
        <ele>200</ele>
        <time>2025-01-04T10:55:30.000Z</time>
      </trkpt>
      <trkpt lat="50.2011" lon="4.15252">
        <ele>198.60000610352</ele>
        <time>2025-01-04T10:55:32.000Z</time>
      </trkpt>
      <trkpt lat="50.20112" lon="4.15255">
        <ele>197.60000610352</ele>
        <time>2025-01-04T10:55:33.000Z</time>
      </trkpt>
      <trkpt lat="50.20115" lon="4.15259">
        <ele>197.19999694824</ele>
        <time>2025-01-04T10:55:34.000Z</time>
      </trkpt>
      <trkpt lat="50.20118" lon="4.15262">
        <ele>196.19999694824</ele>
        <time>2025-01-04T10:55:35.000Z</time>
      </trkpt>
      <trkpt lat="50.20125" lon="4.15263">
        <ele>195.39999389648</ele>
        <time>2025-01-04T10:55:37.000Z</time>
      </trkpt>
      <trkpt lat="50.20129" lon="4.15261">
        <ele>194.80000305176</ele>
        <time>2025-01-04T10:55:38.000Z</time>
      </trkpt>
      <trkpt lat="50.20138" lon="4.15258">
        <ele>194.19999694824</ele>
        <time>2025-01-04T10:55:40.000Z</time>
      </trkpt>
      <trkpt lat="50.20153" lon="4.15258">
        <ele>193.80000305176</ele>
        <time>2025-01-04T10:55:43.000Z</time>
      </trkpt>
      <trkpt lat="50.20192" lon="4.15261">
        <ele>194.39999389648</ele>
        <time>2025-01-04T10:55:50.000Z</time>
      </trkpt>
      <trkpt lat="50.20246" lon="4.15266">
        <ele>194.60000610352</ele>
        <time>2025-01-04T10:56:00.000Z</time>
      </trkpt>
      <trkpt lat="50.20302" lon="4.15276">
        <ele>194.19999694824</ele>
        <time>2025-01-04T10:56:10.000Z</time>
      </trkpt>
      <trkpt lat="50.20308" lon="4.15278">
        <ele>194.19999694824</ele>
        <time>2025-01-04T10:56:11.000Z</time>
      </trkpt>
      <trkpt lat="50.20361" lon="4.15295">
        <ele>193.60000610352</ele>
        <time>2025-01-04T10:56:20.000Z</time>
      </trkpt>
      <trkpt lat="50.20407" lon="4.15315">
        <ele>193.19999694824</ele>
        <time>2025-01-04T10:56:28.000Z</time>
      </trkpt>
      <trkpt lat="50.20424" lon="4.15323">
        <ele>193.19999694824</ele>
        <time>2025-01-04T10:56:31.000Z</time>
      </trkpt>
      <trkpt lat="50.2047" lon="4.15343">
        <ele>193.19999694824</ele>
        <time>2025-01-04T10:56:39.000Z</time>
      </trkpt>
      <trkpt lat="50.20482" lon="4.15345">
        <ele>193.19999694824</ele>
        <time>2025-01-04T10:56:41.000Z</time>
      </trkpt>
      <trkpt lat="50.20494" lon="4.15344">
        <ele>193.19999694824</ele>
        <time>2025-01-04T10:56:43.000Z</time>
      </trkpt>
      <trkpt lat="50.20501" lon="4.15341">
        <ele>193.19999694824</ele>
        <time>2025-01-04T10:56:44.000Z</time>
      </trkpt>
      <trkpt lat="50.20534" lon="4.1532">
        <ele>192.19999694824</ele>
        <time>2025-01-04T10:56:49.000Z</time>
      </trkpt>
      <trkpt lat="50.2054" lon="4.15316">
        <ele>191.80000305176</ele>
        <time>2025-01-04T10:56:50.000Z</time>
      </trkpt>
      <trkpt lat="50.20565" lon="4.15299">
        <ele>190.80000305176</ele>
        <time>2025-01-04T10:56:54.000Z</time>
      </trkpt>
      <trkpt lat="50.20582" lon="4.15283">
        <ele>190.60000610352</ele>
        <time>2025-01-04T10:56:57.000Z</time>
      </trkpt>
      <trkpt lat="50.20591" lon="4.15271">
        <ele>190.39999389648</ele>
        <time>2025-01-04T10:56:59.000Z</time>
      </trkpt>
      <trkpt lat="50.20598" lon="4.15257">
        <ele>190.39999389648</ele>
        <time>2025-01-04T10:57:01.000Z</time>
      </trkpt>
      <trkpt lat="50.20601" lon="4.15249">
        <ele>190.39999389648</ele>
        <time>2025-01-04T10:57:02.000Z</time>
      </trkpt>
      <trkpt lat="50.20609" lon="4.15218">
        <ele>190.60000610352</ele>
        <time>2025-01-04T10:57:06.000Z</time>
      </trkpt>
      <trkpt lat="50.2061" lon="4.15212">
        <ele>190.60000610352</ele>
        <time>2025-01-04T10:57:07.000Z</time>
      </trkpt>
      <trkpt lat="50.2061" lon="4.15204">
        <ele>190.60000610352</ele>
        <time>2025-01-04T10:57:08.000Z</time>
      </trkpt>
      <trkpt lat="50.20609" lon="4.15188">
        <ele>190.60000610352</ele>
        <time>2025-01-04T10:57:10.000Z</time>
      </trkpt>
      <trkpt lat="50.20607" lon="4.1518">
        <ele>190.60000610352</ele>
        <time>2025-01-04T10:57:11.000Z</time>
      </trkpt>
      <trkpt lat="50.20597" lon="4.15133">
        <ele>190.39999389648</ele>
        <time>2025-01-04T10:57:17.000Z</time>
      </trkpt>
      <trkpt lat="50.20597" lon="4.15125">
        <ele>190.19999694824</ele>
        <time>2025-01-04T10:57:18.000Z</time>
      </trkpt>
      <trkpt lat="50.20598" lon="4.15118">
        <ele>190</ele>
        <time>2025-01-04T10:57:19.000Z</time>
      </trkpt>
      <trkpt lat="50.20603" lon="4.15104">
        <ele>189.80000305176</ele>
        <time>2025-01-04T10:57:21.000Z</time>
      </trkpt>
      <trkpt lat="50.20606" lon="4.15098">
        <ele>189.60000610352</ele>
        <time>2025-01-04T10:57:22.000Z</time>
      </trkpt>
      <trkpt lat="50.20616" lon="4.15077">
        <ele>189.60000610352</ele>
        <time>2025-01-04T10:57:25.000Z</time>
      </trkpt>
      <trkpt lat="50.20625" lon="4.15054">
        <ele>189.60000610352</ele>
        <time>2025-01-04T10:57:28.000Z</time>
      </trkpt>
      <trkpt lat="50.20627" lon="4.15045">
        <ele>189.80000305176</ele>
        <time>2025-01-04T10:57:29.000Z</time>
      </trkpt>
      <trkpt lat="50.20629" lon="4.15037">
        <ele>189.80000305176</ele>
        <time>2025-01-04T10:57:30.000Z</time>
      </trkpt>
      <trkpt lat="50.20631" lon="4.15021">
        <ele>189.80000305176</ele>
        <time>2025-01-04T10:57:32.000Z</time>
      </trkpt>
      <trkpt lat="50.20633" lon="4.15002">
        <ele>190</ele>
        <time>2025-01-04T10:57:34.000Z</time>
      </trkpt>
      <trkpt lat="50.20633" lon="4.14974">
        <ele>190.39999389648</ele>
        <time>2025-01-04T10:57:37.000Z</time>
      </trkpt>
      <trkpt lat="50.20634" lon="4.14959">
        <ele>190.80000305176</ele>
        <time>2025-01-04T10:57:39.000Z</time>
      </trkpt>
      <trkpt lat="50.20637" lon="4.14953">
        <ele>191</ele>
        <time>2025-01-04T10:57:40.000Z</time>
      </trkpt>
      <trkpt lat="50.20642" lon="4.14944">
        <ele>191.80000305176</ele>
        <time>2025-01-04T10:57:42.000Z</time>
      </trkpt>
      <trkpt lat="50.20646" lon="4.14941">
        <ele>192.60000610352</ele>
        <time>2025-01-04T10:57:43.000Z</time>
      </trkpt>
      <trkpt lat="50.20653" lon="4.14939">
        <ele>193.80000305176</ele>
        <time>2025-01-04T10:57:45.000Z</time>
      </trkpt>
      <trkpt lat="50.20657" lon="4.14937">
        <ele>194</ele>
        <time>2025-01-04T10:57:46.000Z</time>
      </trkpt>
      <trkpt lat="50.20663" lon="4.14932">
        <ele>195</ele>
        <time>2025-01-04T10:57:48.000Z</time>
      </trkpt>
      <trkpt lat="50.20672" lon="4.14924">
        <ele>196</ele>
        <time>2025-01-04T10:57:51.000Z</time>
      </trkpt>
      <trkpt lat="50.20675" lon="4.14921">
        <ele>196.19999694824</ele>
        <time>2025-01-04T10:57:52.000Z</time>
      </trkpt>
      <trkpt lat="50.20688" lon="4.14907">
        <ele>196.80000305176</ele>
        <time>2025-01-04T10:57:56.000Z</time>
      </trkpt>
      <trkpt lat="50.20695" lon="4.14901">
        <ele>197.39999389648</ele>
        <time>2025-01-04T10:57:58.000Z</time>
      </trkpt>
      <trkpt lat="50.20707" lon="4.14888">
        <ele>198.39999389648</ele>
        <time>2025-01-04T10:58:02.000Z</time>
      </trkpt>
      <trkpt lat="50.2071" lon="4.14884">
        <ele>198.60000610352</ele>
        <time>2025-01-04T10:58:03.000Z</time>
      </trkpt>
      <trkpt lat="50.2072" lon="4.14874">
        <ele>199.60000610352</ele>
        <time>2025-01-04T10:58:06.000Z</time>
      </trkpt>
      <trkpt lat="50.20737" lon="4.14857">
        <ele>200.80000305176</ele>
        <time>2025-01-04T10:58:11.000Z</time>
      </trkpt>
      <trkpt lat="50.20756" lon="4.14838">
        <ele>202</ele>
        <time>2025-01-04T10:58:17.000Z</time>
      </trkpt>
      <trkpt lat="50.20762" lon="4.14832">
        <ele>203</ele>
        <time>2025-01-04T10:58:19.000Z</time>
      </trkpt>
      <trkpt lat="50.20775" lon="4.1482">
        <ele>204.19999694824</ele>
        <time>2025-01-04T10:58:23.000Z</time>
      </trkpt>
      <trkpt lat="50.20786" lon="4.14812">
        <ele>205.19999694824</ele>
        <time>2025-01-04T10:58:26.000Z</time>
      </trkpt>
      <trkpt lat="50.2079" lon="4.14809">
        <ele>206</ele>
        <time>2025-01-04T10:58:27.000Z</time>
      </trkpt>
      <trkpt lat="50.20804" lon="4.14801">
        <ele>207</ele>
        <time>2025-01-04T10:58:31.000Z</time>
      </trkpt>
      <trkpt lat="50.20811" lon="4.14798">
        <ele>207.60000610352</ele>
        <time>2025-01-04T10:58:33.000Z</time>
      </trkpt>
      <trkpt lat="50.20822" lon="4.14794">
        <ele>208.19999694824</ele>
        <time>2025-01-04T10:58:36.000Z</time>
      </trkpt>
      <trkpt lat="50.20829" lon="4.14793">
        <ele>208.39999389648</ele>
        <time>2025-01-04T10:58:38.000Z</time>
      </trkpt>
      <trkpt lat="50.20856" lon="4.14789">
        <ele>209.19999694824</ele>
        <time>2025-01-04T10:58:45.000Z</time>
      </trkpt>
      <trkpt lat="50.2086" lon="4.14788">
        <ele>209.39999389648</ele>
        <time>2025-01-04T10:58:46.000Z</time>
      </trkpt>
      <trkpt lat="50.20872" lon="4.14786">
        <ele>209.60000610352</ele>
        <time>2025-01-04T10:58:49.000Z</time>
      </trkpt>
      <trkpt lat="50.20885" lon="4.14784">
        <ele>209.60000610352</ele>
        <time>2025-01-04T10:58:52.000Z</time>
      </trkpt>
      <trkpt lat="50.2091" lon="4.1478">
        <ele>208.60000610352</ele>
        <time>2025-01-04T10:58:58.000Z</time>
      </trkpt>
      <trkpt lat="50.20919" lon="4.14779">
        <ele>208.60000610352</ele>
        <time>2025-01-04T10:59:00.000Z</time>
      </trkpt>
      <trkpt lat="50.20928" lon="4.14777">
        <ele>208.39999389648</ele>
        <time>2025-01-04T10:59:02.000Z</time>
      </trkpt>
      <trkpt lat="50.20958" lon="4.14771">
        <ele>208</ele>
        <time>2025-01-04T10:59:09.000Z</time>
      </trkpt>
      <trkpt lat="50.20977" lon="4.14769">
        <ele>208</ele>
        <time>2025-01-04T10:59:15.000Z</time>
      </trkpt>
      <trkpt lat="50.20997" lon="4.14785">
        <ele>208</ele>
        <time>2025-01-04T10:59:22.000Z</time>
      </trkpt>
      <trkpt lat="50.21014" lon="4.14825">
        <ele>207.60000610352</ele>
        <time>2025-01-04T10:59:29.000Z</time>
      </trkpt>
      <trkpt lat="50.21018" lon="4.14836">
        <ele>207.39999389648</ele>
        <time>2025-01-04T10:59:31.000Z</time>
      </trkpt>
      <trkpt lat="50.21029" lon="4.14863">
        <ele>207</ele>
        <time>2025-01-04T10:59:36.000Z</time>
      </trkpt>
      <trkpt lat="50.21038" lon="4.14886">
        <ele>206.80000305176</ele>
        <time>2025-01-04T10:59:40.000Z</time>
      </trkpt>
      <trkpt lat="50.21047" lon="4.1491">
        <ele>206.80000305176</ele>
        <time>2025-01-04T10:59:44.000Z</time>
      </trkpt>
      <trkpt lat="50.21051" lon="4.1492">
        <ele>206.80000305176</ele>
        <time>2025-01-04T10:59:46.000Z</time>
      </trkpt>
      <trkpt lat="50.21057" lon="4.14932">
        <ele>206.80000305176</ele>
        <time>2025-01-04T10:59:48.000Z</time>
      </trkpt>
      <trkpt lat="50.21061" lon="4.14944">
        <ele>207</ele>
        <time>2025-01-04T10:59:50.000Z</time>
      </trkpt>
      <trkpt lat="50.2107" lon="4.14967">
        <ele>206.80000305176</ele>
        <time>2025-01-04T10:59:54.000Z</time>
      </trkpt>
      <trkpt lat="50.2108" lon="4.14986">
        <ele>206.39999389648</ele>
        <time>2025-01-04T10:59:58.000Z</time>
      </trkpt>
      <trkpt lat="50.21089" lon="4.15">
        <ele>206.19999694824</ele>
        <time>2025-01-04T11:00:02.000Z</time>
      </trkpt>
      <trkpt lat="50.2109" lon="4.15003">
        <ele>206.19999694824</ele>
        <time>2025-01-04T11:00:03.000Z</time>
      </trkpt>
      <trkpt lat="50.21092" lon="4.15007">
        <ele>206.19999694824</ele>
        <time>2025-01-04T11:00:04.000Z</time>
      </trkpt>
      <trkpt lat="50.21093" lon="4.15014">
        <ele>206</ele>
        <time>2025-01-04T11:00:06.000Z</time>
      </trkpt>
      <trkpt lat="50.21098" lon="4.15021">
        <ele>206</ele>
        <time>2025-01-04T11:00:08.000Z</time>
      </trkpt>
      <trkpt lat="50.21107" lon="4.15028">
        <ele>205.60000610352</ele>
        <time>2025-01-04T11:00:10.000Z</time>
      </trkpt>
      <trkpt lat="50.21114" lon="4.15036">
        <ele>205.19999694824</ele>
        <time>2025-01-04T11:00:12.000Z</time>
      </trkpt>
      <trkpt lat="50.21118" lon="4.15039">
        <ele>205</ele>
        <time>2025-01-04T11:00:13.000Z</time>
      </trkpt>
      <trkpt lat="50.21123" lon="4.15043">
        <ele>204.80000305176</ele>
        <time>2025-01-04T11:00:14.000Z</time>
      </trkpt>
      <trkpt lat="50.21145" lon="4.15056">
        <ele>203.80000305176</ele>
        <time>2025-01-04T11:00:17.000Z</time>
      </trkpt>
      <trkpt lat="50.21154" lon="4.15058">
        <ele>203.60000610352</ele>
        <time>2025-01-04T11:00:18.000Z</time>
      </trkpt>
      <trkpt lat="50.21158" lon="4.15058">
        <ele>203</ele>
        <time>2025-01-04T11:00:19.000Z</time>
      </trkpt>
      <trkpt lat="50.21163" lon="4.15058">
        <ele>202.80000305176</ele>
        <time>2025-01-04T11:00:20.000Z</time>
      </trkpt>
      <trkpt lat="50.21171" lon="4.15055">
        <ele>202</ele>
        <time>2025-01-04T11:00:22.000Z</time>
      </trkpt>
      <trkpt lat="50.21176" lon="4.15052">
        <ele>201.39999389648</ele>
        <time>2025-01-04T11:00:23.000Z</time>
      </trkpt>
      <trkpt lat="50.21179" lon="4.15049">
        <ele>201</ele>
        <time>2025-01-04T11:00:24.000Z</time>
      </trkpt>
      <trkpt lat="50.21188" lon="4.15041">
        <ele>200.19999694824</ele>
        <time>2025-01-04T11:00:26.000Z</time>
      </trkpt>
      <trkpt lat="50.21199" lon="4.15031">
        <ele>199.19999694824</ele>
        <time>2025-01-04T11:00:28.000Z</time>
      </trkpt>
      <trkpt lat="50.21204" lon="4.15026">
        <ele>198.60000610352</ele>
        <time>2025-01-04T11:00:29.000Z</time>
      </trkpt>
      <trkpt lat="50.21212" lon="4.15016">
        <ele>198</ele>
        <time>2025-01-04T11:00:31.000Z</time>
      </trkpt>
      <trkpt lat="50.21225" lon="4.15003">
        <ele>197.39999389648</ele>
        <time>2025-01-04T11:00:34.000Z</time>
      </trkpt>
      <trkpt lat="50.21229" lon="4.14998">
        <ele>196.60000610352</ele>
        <time>2025-01-04T11:00:35.000Z</time>
      </trkpt>
      <trkpt lat="50.21234" lon="4.14993">
        <ele>195.80000305176</ele>
        <time>2025-01-04T11:00:36.000Z</time>
      </trkpt>
      <trkpt lat="50.21239" lon="4.1499">
        <ele>195.60000610352</ele>
        <time>2025-01-04T11:00:37.000Z</time>
      </trkpt>
      <trkpt lat="50.21247" lon="4.14984">
        <ele>194.39999389648</ele>
        <time>2025-01-04T11:00:39.000Z</time>
      </trkpt>
      <trkpt lat="50.21252" lon="4.14981">
        <ele>193</ele>
        <time>2025-01-04T11:00:40.000Z</time>
      </trkpt>
      <trkpt lat="50.21268" lon="4.14973">
        <ele>192</ele>
        <time>2025-01-04T11:00:43.000Z</time>
      </trkpt>
      <trkpt lat="50.21285" lon="4.14966">
        <ele>190.80000305176</ele>
        <time>2025-01-04T11:00:47.000Z</time>
      </trkpt>
      <trkpt lat="50.21297" lon="4.14971">
        <ele>189.60000610352</ele>
        <time>2025-01-04T11:00:51.000Z</time>
      </trkpt>
      <trkpt lat="50.21315" lon="4.14983">
        <ele>188.39999389648</ele>
        <time>2025-01-04T11:00:56.000Z</time>
      </trkpt>
      <trkpt lat="50.2132" lon="4.14988">
        <ele>188.19999694824</ele>
        <time>2025-01-04T11:00:58.000Z</time>
      </trkpt>
      <trkpt lat="50.2134" lon="4.15006">
        <ele>187.80000305176</ele>
        <time>2025-01-04T11:01:05.000Z</time>
      </trkpt>
      <trkpt lat="50.21367" lon="4.15034">
        <ele>187.80000305176</ele>
        <time>2025-01-04T11:01:15.000Z</time>
      </trkpt>
      <trkpt lat="50.21372" lon="4.15037">
        <ele>188</ele>
        <time>2025-01-04T11:01:17.000Z</time>
      </trkpt>
      <trkpt lat="50.21376" lon="4.15034">
        <ele>188.19999694824</ele>
        <time>2025-01-04T11:01:19.000Z</time>
      </trkpt>
      <trkpt lat="50.21389" lon="4.15017">
        <ele>188.60000610352</ele>
        <time>2025-01-04T11:01:25.000Z</time>
      </trkpt>
      <trkpt lat="50.21404" lon="4.14995">
        <ele>188.80000305176</ele>
        <time>2025-01-04T11:01:30.000Z</time>
      </trkpt>
      <trkpt lat="50.21408" lon="4.14991">
        <ele>188.80000305176</ele>
        <time>2025-01-04T11:01:31.000Z</time>
      </trkpt>
      <trkpt lat="50.21416" lon="4.14981">
        <ele>188.60000610352</ele>
        <time>2025-01-04T11:01:33.000Z</time>
      </trkpt>
      <trkpt lat="50.2142" lon="4.14977">
        <ele>188.60000610352</ele>
        <time>2025-01-04T11:01:34.000Z</time>
      </trkpt>
      <trkpt lat="50.21448" lon="4.14947">
        <ele>188.60000610352</ele>
        <time>2025-01-04T11:01:41.000Z</time>
      </trkpt>
      <trkpt lat="50.21452" lon="4.14944">
        <ele>188.80000305176</ele>
        <time>2025-01-04T11:01:42.000Z</time>
      </trkpt>
      <trkpt lat="50.2146" lon="4.14936">
        <ele>188.80000305176</ele>
        <time>2025-01-04T11:01:44.000Z</time>
      </trkpt>
      <trkpt lat="50.21474" lon="4.14926">
        <ele>189</ele>
        <time>2025-01-04T11:01:47.000Z</time>
      </trkpt>
      <trkpt lat="50.21479" lon="4.14924">
        <ele>189</ele>
        <time>2025-01-04T11:01:48.000Z</time>
      </trkpt>
      <trkpt lat="50.21487" lon="4.14924">
        <ele>189</ele>
        <time>2025-01-04T11:01:50.000Z</time>
      </trkpt>
      <trkpt lat="50.21497" lon="4.14924">
        <ele>189</ele>
        <time>2025-01-04T11:01:52.000Z</time>
      </trkpt>
      <trkpt lat="50.21518" lon="4.14934">
        <ele>189</ele>
        <time>2025-01-04T11:01:57.000Z</time>
      </trkpt>
      <trkpt lat="50.21521" lon="4.14936">
        <ele>189</ele>
        <time>2025-01-04T11:01:58.000Z</time>
      </trkpt>
      <trkpt lat="50.21539" lon="4.14954">
        <ele>189.19999694824</ele>
        <time>2025-01-04T11:02:02.000Z</time>
      </trkpt>
      <trkpt lat="50.21546" lon="4.14961">
        <ele>189.39999389648</ele>
        <time>2025-01-04T11:02:04.000Z</time>
      </trkpt>
      <trkpt lat="50.2155" lon="4.14965">
        <ele>189.60000610352</ele>
        <time>2025-01-04T11:02:05.000Z</time>
      </trkpt>
      <trkpt lat="50.21553" lon="4.1497">
        <ele>189.80000305176</ele>
        <time>2025-01-04T11:02:06.000Z</time>
      </trkpt>
      <trkpt lat="50.21559" lon="4.14978">
        <ele>190.19999694824</ele>
        <time>2025-01-04T11:02:08.000Z</time>
      </trkpt>
      <trkpt lat="50.21562" lon="4.14982">
        <ele>190.19999694824</ele>
        <time>2025-01-04T11:02:09.000Z</time>
      </trkpt>
      <trkpt lat="50.21573" lon="4.14996">
        <ele>190.39999389648</ele>
        <time>2025-01-04T11:02:12.000Z</time>
      </trkpt>
      <trkpt lat="50.2158" lon="4.15005">
        <ele>190.39999389648</ele>
        <time>2025-01-04T11:02:14.000Z</time>
      </trkpt>
      <trkpt lat="50.21584" lon="4.1501">
        <ele>190.39999389648</ele>
        <time>2025-01-04T11:02:15.000Z</time>
      </trkpt>
      <trkpt lat="50.21603" lon="4.15028">
        <ele>190.19999694824</ele>
        <time>2025-01-04T11:02:19.000Z</time>
      </trkpt>
      <trkpt lat="50.21612" lon="4.15036">
        <ele>190.19999694824</ele>
        <time>2025-01-04T11:02:21.000Z</time>
      </trkpt>
      <trkpt lat="50.21628" lon="4.1505">
        <ele>190.39999389648</ele>
        <time>2025-01-04T11:02:25.000Z</time>
      </trkpt>
      <trkpt lat="50.21636" lon="4.15055">
        <ele>190.60000610352</ele>
        <time>2025-01-04T11:02:27.000Z</time>
      </trkpt>
      <trkpt lat="50.2164" lon="4.15059">
        <ele>190.60000610352</ele>
        <time>2025-01-04T11:02:28.000Z</time>
      </trkpt>
      <trkpt lat="50.21658" lon="4.15072">
        <ele>191.19999694824</ele>
        <time>2025-01-04T11:02:32.000Z</time>
      </trkpt>
      <trkpt lat="50.21671" lon="4.15075">
        <ele>191.60000610352</ele>
        <time>2025-01-04T11:02:35.000Z</time>
      </trkpt>
      <trkpt lat="50.21682" lon="4.15079">
        <ele>191.80000305176</ele>
        <time>2025-01-04T11:02:37.000Z</time>
      </trkpt>
      <trkpt lat="50.21689" lon="4.15085">
        <ele>192</ele>
        <time>2025-01-04T11:02:38.000Z</time>
      </trkpt>
      <trkpt lat="50.21696" lon="4.15089">
        <ele>192</ele>
        <time>2025-01-04T11:02:39.000Z</time>
      </trkpt>
      <trkpt lat="50.21705" lon="4.15087">
        <ele>192</ele>
        <time>2025-01-04T11:02:41.000Z</time>
      </trkpt>
      <trkpt lat="50.2171" lon="4.15085">
        <ele>192</ele>
        <time>2025-01-04T11:02:42.000Z</time>
      </trkpt>
      <trkpt lat="50.21716" lon="4.15085">
        <ele>191.80000305176</ele>
        <time>2025-01-04T11:02:43.000Z</time>
      </trkpt>
      <trkpt lat="50.21743" lon="4.15084">
        <ele>191.39999389648</ele>
        <time>2025-01-04T11:02:47.000Z</time>
      </trkpt>
      <trkpt lat="50.21765" lon="4.15076">
        <ele>190.60000610352</ele>
        <time>2025-01-04T11:02:51.000Z</time>
      </trkpt>
      <trkpt lat="50.21771" lon="4.15076">
        <ele>190.60000610352</ele>
        <time>2025-01-04T11:02:52.000Z</time>
      </trkpt>
      <trkpt lat="50.21782" lon="4.15077">
        <ele>190.19999694824</ele>
        <time>2025-01-04T11:02:54.000Z</time>
      </trkpt>
      <trkpt lat="50.21797" lon="4.15077">
        <ele>190</ele>
        <time>2025-01-04T11:02:57.000Z</time>
      </trkpt>
      <trkpt lat="50.21802" lon="4.15076">
        <ele>189.80000305176</ele>
        <time>2025-01-04T11:02:58.000Z</time>
      </trkpt>
      <trkpt lat="50.21818" lon="4.15076">
        <ele>189.60000610352</ele>
        <time>2025-01-04T11:03:02.000Z</time>
      </trkpt>
      <trkpt lat="50.21826" lon="4.15076">
        <ele>189.39999389648</ele>
        <time>2025-01-04T11:03:05.000Z</time>
      </trkpt>
      <trkpt lat="50.21834" lon="4.15078">
        <ele>189.39999389648</ele>
        <time>2025-01-04T11:03:07.000Z</time>
      </trkpt>
      <trkpt lat="50.21844" lon="4.15092">
        <ele>189</ele>
        <time>2025-01-04T11:03:12.000Z</time>
      </trkpt>
      <trkpt lat="50.21851" lon="4.15105">
        <ele>189.60000610352</ele>
        <time>2025-01-04T11:03:17.000Z</time>
      </trkpt>
      <trkpt lat="50.21852" lon="4.15107">
        <ele>190.19999694824</ele>
        <time>2025-01-04T11:03:21.000Z</time>
      </trkpt>
      <trkpt lat="50.21852" lon="4.15107">
        <ele>190.60000610352</ele>
        <time>2025-01-04T11:03:23.000Z</time>
      </trkpt>
      <trkpt lat="50.21853" lon="4.1511">
        <ele>190.80000305176</ele>
        <time>2025-01-04T11:03:29.000Z</time>
      </trkpt>
      <trkpt lat="50.21858" lon="4.15117">
        <ele>190.80000305176</ele>
        <time>2025-01-04T11:03:35.000Z</time>
      </trkpt>
      <trkpt lat="50.2186" lon="4.15127">
        <ele>190.80000305176</ele>
        <time>2025-01-04T11:03:43.000Z</time>
      </trkpt>
      <trkpt lat="50.21858" lon="4.15133">
        <ele>190.80000305176</ele>
        <time>2025-01-04T11:03:48.000Z</time>
      </trkpt>
      <trkpt lat="50.21858" lon="4.15133">
        <ele>190.80000305176</ele>
        <time>2025-01-04T11:03:54.000Z</time>
      </trkpt>
      <trkpt lat="50.21858" lon="4.15133">
        <ele>190</ele>
        <time>2025-01-04T11:08:59.000Z</time>
      </trkpt>
      <trkpt lat="50.21862" lon="4.15148">
        <ele>190</ele>
        <time>2025-01-04T11:10:37.000Z</time>
      </trkpt>
      <trkpt lat="50.21865" lon="4.15173">
        <ele>190</ele>
        <time>2025-01-04T11:10:43.000Z</time>
      </trkpt>
      <trkpt lat="50.21867" lon="4.15194">
        <ele>190.39999389648</ele>
        <time>2025-01-04T11:10:47.000Z</time>
      </trkpt>
      <trkpt lat="50.21867" lon="4.15204">
        <ele>190.60000610352</ele>
        <time>2025-01-04T11:10:49.000Z</time>
      </trkpt>
      <trkpt lat="50.21867" lon="4.15237">
        <ele>191.19999694824</ele>
        <time>2025-01-04T11:10:54.000Z</time>
      </trkpt>
      <trkpt lat="50.2187" lon="4.15249">
        <ele>191.39999389648</ele>
        <time>2025-01-04T11:10:56.000Z</time>
      </trkpt>
      <trkpt lat="50.2187" lon="4.15267">
        <ele>191.60000610352</ele>
        <time>2025-01-04T11:10:59.000Z</time>
      </trkpt>
      <trkpt lat="50.21868" lon="4.1529">
        <ele>192</ele>
        <time>2025-01-04T11:11:04.000Z</time>
      </trkpt>
      <trkpt lat="50.21869" lon="4.15306">
        <ele>192.19999694824</ele>
        <time>2025-01-04T11:11:08.000Z</time>
      </trkpt>
      <trkpt lat="50.21868" lon="4.15318">
        <ele>192.39999389648</ele>
        <time>2025-01-04T11:11:10.000Z</time>
      </trkpt>
      <trkpt lat="50.21867" lon="4.15338">
        <ele>192.60000610352</ele>
        <time>2025-01-04T11:11:14.000Z</time>
      </trkpt>
      <trkpt lat="50.21867" lon="4.15365">
        <ele>193.19999694824</ele>
        <time>2025-01-04T11:11:20.000Z</time>
      </trkpt>
      <trkpt lat="50.21865" lon="4.15391">
        <ele>193.60000610352</ele>
        <time>2025-01-04T11:11:24.000Z</time>
      </trkpt>
      <trkpt lat="50.21865" lon="4.15399">
        <ele>193.39999389648</ele>
        <time>2025-01-04T11:11:25.000Z</time>
      </trkpt>
      <trkpt lat="50.21869" lon="4.15424">
        <ele>194.39999389648</ele>
        <time>2025-01-04T11:11:30.000Z</time>
      </trkpt>
      <trkpt lat="50.21875" lon="4.15447">
        <ele>195.19999694824</ele>
        <time>2025-01-04T11:11:35.000Z</time>
      </trkpt>
      <trkpt lat="50.21879" lon="4.15465">
        <ele>195.60000610352</ele>
        <time>2025-01-04T11:11:38.000Z</time>
      </trkpt>
      <trkpt lat="50.21885" lon="4.15482">
        <ele>196.19999694824</ele>
        <time>2025-01-04T11:11:41.000Z</time>
      </trkpt>
      <trkpt lat="50.21889" lon="4.15497">
        <ele>196.80000305176</ele>
        <time>2025-01-04T11:11:44.000Z</time>
      </trkpt>
      <trkpt lat="50.21893" lon="4.15522">
        <ele>198</ele>
        <time>2025-01-04T11:11:47.000Z</time>
      </trkpt>
      <trkpt lat="50.21894" lon="4.15527">
        <ele>198.19999694824</ele>
        <time>2025-01-04T11:11:48.000Z</time>
      </trkpt>
      <trkpt lat="50.21894" lon="4.15539">
        <ele>199.19999694824</ele>
        <time>2025-01-04T11:11:50.000Z</time>
      </trkpt>
      <trkpt lat="50.21892" lon="4.15556">
        <ele>200.39999389648</ele>
        <time>2025-01-04T11:11:53.000Z</time>
      </trkpt>
      <trkpt lat="50.21892" lon="4.15559">
        <ele>201</ele>
        <time>2025-01-04T11:11:54.000Z</time>
      </trkpt>
      <trkpt lat="50.21894" lon="4.15588">
        <ele>201.60000610352</ele>
        <time>2025-01-04T11:11:58.000Z</time>
      </trkpt>
      <trkpt lat="50.21896" lon="4.15601">
        <ele>201.80000305176</ele>
        <time>2025-01-04T11:12:00.000Z</time>
      </trkpt>
      <trkpt lat="50.21894" lon="4.15623">
        <ele>202.60000610352</ele>
        <time>2025-01-04T11:12:04.000Z</time>
      </trkpt>
      <trkpt lat="50.21894" lon="4.15628">
        <ele>202.60000610352</ele>
        <time>2025-01-04T11:12:05.000Z</time>
      </trkpt>
      <trkpt lat="50.21895" lon="4.1565">
        <ele>203.39999389648</ele>
        <time>2025-01-04T11:12:10.000Z</time>
      </trkpt>
      <trkpt lat="50.21896" lon="4.15653">
        <ele>203.60000610352</ele>
        <time>2025-01-04T11:12:11.000Z</time>
      </trkpt>
      <trkpt lat="50.21895" lon="4.15665">
        <ele>204.80000305176</ele>
        <time>2025-01-04T11:12:14.000Z</time>
      </trkpt>
      <trkpt lat="50.21894" lon="4.15672">
        <ele>205</ele>
        <time>2025-01-04T11:12:15.000Z</time>
      </trkpt>
      <trkpt lat="50.21892" lon="4.1569">
        <ele>206</ele>
        <time>2025-01-04T11:12:19.000Z</time>
      </trkpt>
      <trkpt lat="50.21892" lon="4.15697">
        <ele>206.80000305176</ele>
        <time>2025-01-04T11:12:21.000Z</time>
      </trkpt>
      <trkpt lat="50.21891" lon="4.15701">
        <ele>207.19999694824</ele>
        <time>2025-01-04T11:12:22.000Z</time>
      </trkpt>
      <trkpt lat="50.21888" lon="4.15721">
        <ele>208.60000610352</ele>
        <time>2025-01-04T11:12:26.000Z</time>
      </trkpt>
      <trkpt lat="50.21887" lon="4.1573">
        <ele>209.60000610352</ele>
        <time>2025-01-04T11:12:28.000Z</time>
      </trkpt>
      <trkpt lat="50.21883" lon="4.15745">
        <ele>210.80000305176</ele>
        <time>2025-01-04T11:12:32.000Z</time>
      </trkpt>
      <trkpt lat="50.21881" lon="4.1575">
        <ele>211</ele>
        <time>2025-01-04T11:12:34.000Z</time>
      </trkpt>
      <trkpt lat="50.21877" lon="4.15756">
        <ele>212.19999694824</ele>
        <time>2025-01-04T11:12:36.000Z</time>
      </trkpt>
      <trkpt lat="50.21874" lon="4.15759">
        <ele>213.19999694824</ele>
        <time>2025-01-04T11:12:38.000Z</time>
      </trkpt>
      <trkpt lat="50.21872" lon="4.1576">
        <ele>213.39999389648</ele>
        <time>2025-01-04T11:12:39.000Z</time>
      </trkpt>
      <trkpt lat="50.21871" lon="4.15759">
        <ele>214</ele>
        <time>2025-01-04T11:12:40.000Z</time>
      </trkpt>
      <trkpt lat="50.21867" lon="4.1576">
        <ele>214.80000305176</ele>
        <time>2025-01-04T11:12:42.000Z</time>
      </trkpt>
      <trkpt lat="50.21861" lon="4.15763">
        <ele>216</ele>
        <time>2025-01-04T11:12:46.000Z</time>
      </trkpt>
      <trkpt lat="50.21856" lon="4.15765">
        <ele>217.19999694824</ele>
        <time>2025-01-04T11:12:49.000Z</time>
      </trkpt>
      <trkpt lat="50.21852" lon="4.15766">
        <ele>218.39999389648</ele>
        <time>2025-01-04T11:12:52.000Z</time>
      </trkpt>
      <trkpt lat="50.21848" lon="4.15767">
        <ele>219.80000305176</ele>
        <time>2025-01-04T11:12:55.000Z</time>
      </trkpt>
      <trkpt lat="50.21845" lon="4.15768">
        <ele>220.19999694824</ele>
        <time>2025-01-04T11:12:57.000Z</time>
      </trkpt>
      <trkpt lat="50.21842" lon="4.1577">
        <ele>220.80000305176</ele>
        <time>2025-01-04T11:12:59.000Z</time>
      </trkpt>
      <trkpt lat="50.21837" lon="4.15772">
        <ele>222.39999389648</ele>
        <time>2025-01-04T11:13:02.000Z</time>
      </trkpt>
      <trkpt lat="50.21833" lon="4.15772">
        <ele>223</ele>
        <time>2025-01-04T11:13:04.000Z</time>
      </trkpt>
      <trkpt lat="50.21829" lon="4.15774">
        <ele>223.60000610352</ele>
        <time>2025-01-04T11:13:06.000Z</time>
      </trkpt>
      <trkpt lat="50.21821" lon="4.15776">
        <ele>224.80000305176</ele>
        <time>2025-01-04T11:13:10.000Z</time>
      </trkpt>
      <trkpt lat="50.21817" lon="4.15778">
        <ele>225.19999694824</ele>
        <time>2025-01-04T11:13:12.000Z</time>
      </trkpt>
      <trkpt lat="50.21808" lon="4.15783">
        <ele>225.80000305176</ele>
        <time>2025-01-04T11:13:15.000Z</time>
      </trkpt>
      <trkpt lat="50.218" lon="4.15788">
        <ele>226.80000305176</ele>
        <time>2025-01-04T11:13:19.000Z</time>
      </trkpt>
      <trkpt lat="50.21792" lon="4.1579">
        <ele>227.39999389648</ele>
        <time>2025-01-04T11:13:21.000Z</time>
      </trkpt>
      <trkpt lat="50.21786" lon="4.15791">
        <ele>228</ele>
        <time>2025-01-04T11:13:24.000Z</time>
      </trkpt>
      <trkpt lat="50.21783" lon="4.15791">
        <ele>228.39999389648</ele>
        <time>2025-01-04T11:13:26.000Z</time>
      </trkpt>
      <trkpt lat="50.21773" lon="4.15796">
        <ele>229</ele>
        <time>2025-01-04T11:13:30.000Z</time>
      </trkpt>
      <trkpt lat="50.21763" lon="4.158">
        <ele>229.60000610352</ele>
        <time>2025-01-04T11:13:34.000Z</time>
      </trkpt>
      <trkpt lat="50.21755" lon="4.15804">
        <ele>230.19999694824</ele>
        <time>2025-01-04T11:13:37.000Z</time>
      </trkpt>
      <trkpt lat="50.21745" lon="4.15808">
        <ele>230.80000305176</ele>
        <time>2025-01-04T11:13:42.000Z</time>
      </trkpt>
      <trkpt lat="50.21736" lon="4.15815">
        <ele>231.19999694824</ele>
        <time>2025-01-04T11:13:46.000Z</time>
      </trkpt>
      <trkpt lat="50.2172" lon="4.15819">
        <ele>231.39999389648</ele>
        <time>2025-01-04T11:13:50.000Z</time>
      </trkpt>
      <trkpt lat="50.21692" lon="4.15829">
        <ele>232.19999694824</ele>
        <time>2025-01-04T11:13:59.000Z</time>
      </trkpt>
      <trkpt lat="50.21689" lon="4.15831">
        <ele>232.19999694824</ele>
        <time>2025-01-04T11:14:00.000Z</time>
      </trkpt>
      <trkpt lat="50.21672" lon="4.15843">
        <ele>232.19999694824</ele>
        <time>2025-01-04T11:14:06.000Z</time>
      </trkpt>
      <trkpt lat="50.21662" lon="4.15848">
        <ele>232.19999694824</ele>
        <time>2025-01-04T11:14:12.000Z</time>
      </trkpt>
      <trkpt lat="50.21636" lon="4.1586">
        <ele>232.19999694824</ele>
        <time>2025-01-04T11:14:23.000Z</time>
      </trkpt>
      <trkpt lat="50.21627" lon="4.15866">
        <ele>232.19999694824</ele>
        <time>2025-01-04T11:14:29.000Z</time>
      </trkpt>
      <trkpt lat="50.21625" lon="4.15868">
        <ele>232</ele>
        <time>2025-01-04T11:14:35.000Z</time>
      </trkpt>
      <trkpt lat="50.21622" lon="4.15868">
        <ele>232</ele>
        <time>2025-01-04T11:14:40.000Z</time>
      </trkpt>
      <trkpt lat="50.21614" lon="4.1587">
        <ele>232</ele>
        <time>2025-01-04T11:14:46.000Z</time>
      </trkpt>
      <trkpt lat="50.21593" lon="4.15878">
        <ele>232.39999389648</ele>
        <time>2025-01-04T11:14:53.000Z</time>
      </trkpt>
      <trkpt lat="50.21563" lon="4.1589">
        <ele>232.60000610352</ele>
        <time>2025-01-04T11:15:03.000Z</time>
      </trkpt>
      <trkpt lat="50.21552" lon="4.15899">
        <ele>233</ele>
        <time>2025-01-04T11:15:08.000Z</time>
      </trkpt>
      <trkpt lat="50.21551" lon="4.15902">
        <ele>233</ele>
        <time>2025-01-04T11:15:09.000Z</time>
      </trkpt>
      <trkpt lat="50.21552" lon="4.15908">
        <ele>233</ele>
        <time>2025-01-04T11:15:11.000Z</time>
      </trkpt>
      <trkpt lat="50.21554" lon="4.15921">
        <ele>233.19999694824</ele>
        <time>2025-01-04T11:15:15.000Z</time>
      </trkpt>
      <trkpt lat="50.21556" lon="4.15929">
        <ele>233.60000610352</ele>
        <time>2025-01-04T11:15:21.000Z</time>
      </trkpt>
      <trkpt lat="50.21556" lon="4.15929">
        <ele>234</ele>
        <time>2025-01-04T11:15:32.000Z</time>
      </trkpt>
      <trkpt lat="50.21557" lon="4.15935">
        <ele>234</ele>
        <time>2025-01-04T11:15:42.000Z</time>
      </trkpt>
      <trkpt lat="50.21558" lon="4.15942">
        <ele>234</ele>
        <time>2025-01-04T11:15:46.000Z</time>
      </trkpt>
      <trkpt lat="50.21563" lon="4.15973">
        <ele>234.60000610352</ele>
        <time>2025-01-04T11:15:53.000Z</time>
      </trkpt>
      <trkpt lat="50.21565" lon="4.15983">
        <ele>235</ele>
        <time>2025-01-04T11:15:55.000Z</time>
      </trkpt>
      <trkpt lat="50.2157" lon="4.16013">
        <ele>235.80000305176</ele>
        <time>2025-01-04T11:16:01.000Z</time>
      </trkpt>
      <trkpt lat="50.21573" lon="4.16027">
        <ele>236</ele>
        <time>2025-01-04T11:16:04.000Z</time>
      </trkpt>
      <trkpt lat="50.21578" lon="4.16053">
        <ele>236.60000610352</ele>
        <time>2025-01-04T11:16:10.000Z</time>
      </trkpt>
      <trkpt lat="50.21578" lon="4.16062">
        <ele>237.39999389648</ele>
        <time>2025-01-04T11:16:12.000Z</time>
      </trkpt>
      <trkpt lat="50.21579" lon="4.16075">
        <ele>238.19999694824</ele>
        <time>2025-01-04T11:16:16.000Z</time>
      </trkpt>
      <trkpt lat="50.21581" lon="4.16085">
        <ele>238.60000610352</ele>
        <time>2025-01-04T11:16:18.000Z</time>
      </trkpt>
      <trkpt lat="50.21585" lon="4.16108">
        <ele>239</ele>
        <time>2025-01-04T11:16:23.000Z</time>
      </trkpt>
      <trkpt lat="50.21589" lon="4.1613">
        <ele>239.60000610352</ele>
        <time>2025-01-04T11:16:28.000Z</time>
      </trkpt>
      <trkpt lat="50.2159" lon="4.1614">
        <ele>240.19999694824</ele>
        <time>2025-01-04T11:16:30.000Z</time>
      </trkpt>
      <trkpt lat="50.21593" lon="4.16148">
        <ele>240.60000610352</ele>
        <time>2025-01-04T11:16:32.000Z</time>
      </trkpt>
      <trkpt lat="50.21595" lon="4.16167">
        <ele>241.19999694824</ele>
        <time>2025-01-04T11:16:36.000Z</time>
      </trkpt>
      <trkpt lat="50.21598" lon="4.16191">
        <ele>242.19999694824</ele>
        <time>2025-01-04T11:16:41.000Z</time>
      </trkpt>
      <trkpt lat="50.216" lon="4.16204">
        <ele>242.80000305176</ele>
        <time>2025-01-04T11:16:44.000Z</time>
      </trkpt>
      <trkpt lat="50.21604" lon="4.16227">
        <ele>243.39999389648</ele>
        <time>2025-01-04T11:16:49.000Z</time>
      </trkpt>
      <trkpt lat="50.21606" lon="4.16236">
        <ele>243.80000305176</ele>
        <time>2025-01-04T11:16:51.000Z</time>
      </trkpt>
      <trkpt lat="50.21611" lon="4.16256">
        <ele>244.39999389648</ele>
        <time>2025-01-04T11:16:56.000Z</time>
      </trkpt>
      <trkpt lat="50.21613" lon="4.1627">
        <ele>244.80000305176</ele>
        <time>2025-01-04T11:16:59.000Z</time>
      </trkpt>
      <trkpt lat="50.21616" lon="4.16293">
        <ele>245.39999389648</ele>
        <time>2025-01-04T11:17:04.000Z</time>
      </trkpt>
      <trkpt lat="50.21618" lon="4.16301">
        <ele>246</ele>
        <time>2025-01-04T11:17:06.000Z</time>
      </trkpt>
      <trkpt lat="50.2162" lon="4.16314">
        <ele>246.60000610352</ele>
        <time>2025-01-04T11:17:09.000Z</time>
      </trkpt>
      <trkpt lat="50.21623" lon="4.16328">
        <ele>246.80000305176</ele>
        <time>2025-01-04T11:17:12.000Z</time>
      </trkpt>
      <trkpt lat="50.21628" lon="4.16352">
        <ele>247.19999694824</ele>
        <time>2025-01-04T11:17:18.000Z</time>
      </trkpt>
      <trkpt lat="50.21633" lon="4.16384">
        <ele>247</ele>
        <time>2025-01-04T11:17:25.000Z</time>
      </trkpt>
      <trkpt lat="50.21641" lon="4.16424">
        <ele>246.80000305176</ele>
        <time>2025-01-04T11:17:33.000Z</time>
      </trkpt>
      <trkpt lat="50.21647" lon="4.16467">
        <ele>246.39999389648</ele>
        <time>2025-01-04T11:17:41.000Z</time>
      </trkpt>
      <trkpt lat="50.21655" lon="4.16493">
        <ele>246</ele>
        <time>2025-01-04T11:17:47.000Z</time>
      </trkpt>
      <trkpt lat="50.21662" lon="4.16503">
        <ele>245.60000610352</ele>
        <time>2025-01-04T11:17:51.000Z</time>
      </trkpt>
      <trkpt lat="50.21687" lon="4.16514">
        <ele>245</ele>
        <time>2025-01-04T11:17:58.000Z</time>
      </trkpt>
      <trkpt lat="50.21701" lon="4.16518">
        <ele>244.60000610352</ele>
        <time>2025-01-04T11:18:02.000Z</time>
      </trkpt>
      <trkpt lat="50.21713" lon="4.1652">
        <ele>244.19999694824</ele>
        <time>2025-01-04T11:18:05.000Z</time>
      </trkpt>
      <trkpt lat="50.21721" lon="4.16523">
        <ele>244.19999694824</ele>
        <time>2025-01-04T11:18:07.000Z</time>
      </trkpt>
      <trkpt lat="50.21734" lon="4.16525">
        <ele>243.80000305176</ele>
        <time>2025-01-04T11:18:10.000Z</time>
      </trkpt>
      <trkpt lat="50.21738" lon="4.16526">
        <ele>243.80000305176</ele>
        <time>2025-01-04T11:18:11.000Z</time>
      </trkpt>
      <trkpt lat="50.21751" lon="4.16529">
        <ele>243.39999389648</ele>
        <time>2025-01-04T11:18:14.000Z</time>
      </trkpt>
      <trkpt lat="50.21762" lon="4.16529">
        <ele>243.19999694824</ele>
        <time>2025-01-04T11:18:17.000Z</time>
      </trkpt>
      <trkpt lat="50.21783" lon="4.16525">
        <ele>242.39999389648</ele>
        <time>2025-01-04T11:18:23.000Z</time>
      </trkpt>
      <trkpt lat="50.21801" lon="4.16528">
        <ele>241.39999389648</ele>
        <time>2025-01-04T11:18:28.000Z</time>
      </trkpt>
      <trkpt lat="50.21805" lon="4.16528">
        <ele>241.19999694824</ele>
        <time>2025-01-04T11:18:29.000Z</time>
      </trkpt>
      <trkpt lat="50.21814" lon="4.16526">
        <ele>240.60000610352</ele>
        <time>2025-01-04T11:18:31.000Z</time>
      </trkpt>
      <trkpt lat="50.21824" lon="4.16522">
        <ele>240.19999694824</ele>
        <time>2025-01-04T11:18:33.000Z</time>
      </trkpt>
      <trkpt lat="50.21843" lon="4.16513">
        <ele>239.60000610352</ele>
        <time>2025-01-04T11:18:37.000Z</time>
      </trkpt>
      <trkpt lat="50.21851" lon="4.1651">
        <ele>239.19999694824</ele>
        <time>2025-01-04T11:18:39.000Z</time>
      </trkpt>
      <trkpt lat="50.2186" lon="4.16504">
        <ele>238.60000610352</ele>
        <time>2025-01-04T11:18:42.000Z</time>
      </trkpt>
      <trkpt lat="50.21869" lon="4.16499">
        <ele>238.19999694824</ele>
        <time>2025-01-04T11:18:45.000Z</time>
      </trkpt>
      <trkpt lat="50.21885" lon="4.16493">
        <ele>237.60000610352</ele>
        <time>2025-01-04T11:18:49.000Z</time>
      </trkpt>
      <trkpt lat="50.21893" lon="4.1649">
        <ele>237.60000610352</ele>
        <time>2025-01-04T11:18:51.000Z</time>
      </trkpt>
      <trkpt lat="50.21911" lon="4.16488">
        <ele>237</ele>
        <time>2025-01-04T11:18:55.000Z</time>
      </trkpt>
      <trkpt lat="50.21949" lon="4.16487">
        <ele>236.19999694824</ele>
        <time>2025-01-04T11:19:02.000Z</time>
      </trkpt>
      <trkpt lat="50.21959" lon="4.16488">
        <ele>236</ele>
        <time>2025-01-04T11:19:04.000Z</time>
      </trkpt>
      <trkpt lat="50.21975" lon="4.16489">
        <ele>235</ele>
        <time>2025-01-04T11:19:07.000Z</time>
      </trkpt>
      <trkpt lat="50.21984" lon="4.16491">
        <ele>234.60000610352</ele>
        <time>2025-01-04T11:19:09.000Z</time>
      </trkpt>
      <trkpt lat="50.21997" lon="4.16493">
        <ele>233.60000610352</ele>
        <time>2025-01-04T11:19:13.000Z</time>
      </trkpt>
      <trkpt lat="50.22" lon="4.16493">
        <ele>233.60000610352</ele>
        <time>2025-01-04T11:19:14.000Z</time>
      </trkpt>
      <trkpt lat="50.22009" lon="4.16493">
        <ele>232.39999389648</ele>
        <time>2025-01-04T11:19:17.000Z</time>
      </trkpt>
      <trkpt lat="50.22024" lon="4.16493">
        <ele>231.60000610352</ele>
        <time>2025-01-04T11:19:21.000Z</time>
      </trkpt>
      <trkpt lat="50.22028" lon="4.16493">
        <ele>231.39999389648</ele>
        <time>2025-01-04T11:19:22.000Z</time>
      </trkpt>
      <trkpt lat="50.22048" lon="4.16492">
        <ele>230.60000610352</ele>
        <time>2025-01-04T11:19:26.000Z</time>
      </trkpt>
      <trkpt lat="50.22059" lon="4.16491">
        <ele>230.39999389648</ele>
        <time>2025-01-04T11:19:28.000Z</time>
      </trkpt>
      <trkpt lat="50.22073" lon="4.16492">
        <ele>229.19999694824</ele>
        <time>2025-01-04T11:19:30.000Z</time>
      </trkpt>
      <trkpt lat="50.22101" lon="4.16496">
        <ele>227.60000610352</ele>
        <time>2025-01-04T11:19:34.000Z</time>
      </trkpt>
      <trkpt lat="50.22128" lon="4.165">
        <ele>226.19999694824</ele>
        <time>2025-01-04T11:19:38.000Z</time>
      </trkpt>
      <trkpt lat="50.22141" lon="4.16503">
        <ele>225.60000610352</ele>
        <time>2025-01-04T11:19:40.000Z</time>
      </trkpt>
      <trkpt lat="50.22148" lon="4.16505">
        <ele>225</ele>
        <time>2025-01-04T11:19:41.000Z</time>
      </trkpt>
      <trkpt lat="50.22175" lon="4.16511">
        <ele>223.80000305176</ele>
        <time>2025-01-04T11:19:45.000Z</time>
      </trkpt>
      <trkpt lat="50.22182" lon="4.16512">
        <ele>223.60000610352</ele>
        <time>2025-01-04T11:19:46.000Z</time>
      </trkpt>
      <trkpt lat="50.22194" lon="4.16513">
        <ele>222.80000305176</ele>
        <time>2025-01-04T11:19:48.000Z</time>
      </trkpt>
      <trkpt lat="50.22219" lon="4.16513">
        <ele>221.80000305176</ele>
        <time>2025-01-04T11:19:52.000Z</time>
      </trkpt>
      <trkpt lat="50.22249" lon="4.16514">
        <ele>220.60000610352</ele>
        <time>2025-01-04T11:19:57.000Z</time>
      </trkpt>
      <trkpt lat="50.22268" lon="4.16512">
        <ele>220</ele>
        <time>2025-01-04T11:20:00.000Z</time>
      </trkpt>
      <trkpt lat="50.22281" lon="4.16512">
        <ele>219.60000610352</ele>
        <time>2025-01-04T11:20:02.000Z</time>
      </trkpt>
      <trkpt lat="50.22291" lon="4.16515">
        <ele>219</ele>
        <time>2025-01-04T11:20:04.000Z</time>
      </trkpt>
      <trkpt lat="50.22301" lon="4.1652">
        <ele>218.19999694824</ele>
        <time>2025-01-04T11:20:06.000Z</time>
      </trkpt>
      <trkpt lat="50.22307" lon="4.16525">
        <ele>218.19999694824</ele>
        <time>2025-01-04T11:20:07.000Z</time>
      </trkpt>
      <trkpt lat="50.22314" lon="4.16536">
        <ele>218</ele>
        <time>2025-01-04T11:20:09.000Z</time>
      </trkpt>
      <trkpt lat="50.22319" lon="4.16547">
        <ele>218</ele>
        <time>2025-01-04T11:20:11.000Z</time>
      </trkpt>
      <trkpt lat="50.22325" lon="4.16557">
        <ele>218</ele>
        <time>2025-01-04T11:20:13.000Z</time>
      </trkpt>
      <trkpt lat="50.2233" lon="4.16567">
        <ele>218.60000610352</ele>
        <time>2025-01-04T11:20:15.000Z</time>
      </trkpt>
      <trkpt lat="50.22336" lon="4.16573">
        <ele>219.60000610352</ele>
        <time>2025-01-04T11:20:17.000Z</time>
      </trkpt>
      <trkpt lat="50.2234" lon="4.16576">
        <ele>219.80000305176</ele>
        <time>2025-01-04T11:20:18.000Z</time>
      </trkpt>
      <trkpt lat="50.22342" lon="4.16578">
        <ele>220</ele>
        <time>2025-01-04T11:20:19.000Z</time>
      </trkpt>
      <trkpt lat="50.22365" lon="4.16593">
        <ele>220.60000610352</ele>
        <time>2025-01-04T11:20:23.000Z</time>
      </trkpt>
      <trkpt lat="50.22379" lon="4.16604">
        <ele>221</ele>
        <time>2025-01-04T11:20:26.000Z</time>
      </trkpt>
      <trkpt lat="50.22405" lon="4.16613">
        <ele>221.80000305176</ele>
        <time>2025-01-04T11:20:31.000Z</time>
      </trkpt>
      <trkpt lat="50.22414" lon="4.16616">
        <ele>222</ele>
        <time>2025-01-04T11:20:33.000Z</time>
      </trkpt>
      <trkpt lat="50.22436" lon="4.16626">
        <ele>223.19999694824</ele>
        <time>2025-01-04T11:20:38.000Z</time>
      </trkpt>
      <trkpt lat="50.22457" lon="4.16637">
        <ele>224.19999694824</ele>
        <time>2025-01-04T11:20:43.000Z</time>
      </trkpt>
      <trkpt lat="50.22469" lon="4.16643">
        <ele>225.19999694824</ele>
        <time>2025-01-04T11:20:46.000Z</time>
      </trkpt>
      <trkpt lat="50.2248" lon="4.16651">
        <ele>225.60000610352</ele>
        <time>2025-01-04T11:20:49.000Z</time>
      </trkpt>
      <trkpt lat="50.22488" lon="4.16658">
        <ele>226</ele>
        <time>2025-01-04T11:20:51.000Z</time>
      </trkpt>
      <trkpt lat="50.225" lon="4.16675">
        <ele>226.39999389648</ele>
        <time>2025-01-04T11:20:55.000Z</time>
      </trkpt>
      <trkpt lat="50.22509" lon="4.16688">
        <ele>227</ele>
        <time>2025-01-04T11:20:59.000Z</time>
      </trkpt>
      <trkpt lat="50.2251" lon="4.16692">
        <ele>227</ele>
        <time>2025-01-04T11:21:00.000Z</time>
      </trkpt>
      <trkpt lat="50.22509" lon="4.167">
        <ele>227.19999694824</ele>
        <time>2025-01-04T11:21:02.000Z</time>
      </trkpt>
      <trkpt lat="50.22506" lon="4.16709">
        <ele>227.39999389648</ele>
        <time>2025-01-04T11:21:04.000Z</time>
      </trkpt>
      <trkpt lat="50.22502" lon="4.16718">
        <ele>228.39999389648</ele>
        <time>2025-01-04T11:21:06.000Z</time>
      </trkpt>
      <trkpt lat="50.22498" lon="4.16729">
        <ele>229.19999694824</ele>
        <time>2025-01-04T11:21:08.000Z</time>
      </trkpt>
      <trkpt lat="50.22492" lon="4.16746">
        <ele>229.60000610352</ele>
        <time>2025-01-04T11:21:11.000Z</time>
      </trkpt>
      <trkpt lat="50.22482" lon="4.16781">
        <ele>230.39999389648</ele>
        <time>2025-01-04T11:21:17.000Z</time>
      </trkpt>
      <trkpt lat="50.22476" lon="4.16803">
        <ele>230.80000305176</ele>
        <time>2025-01-04T11:21:21.000Z</time>
      </trkpt>
      <trkpt lat="50.2247" lon="4.16825">
        <ele>231.39999389648</ele>
        <time>2025-01-04T11:21:25.000Z</time>
      </trkpt>
      <trkpt lat="50.22464" lon="4.16854">
        <ele>231.80000305176</ele>
        <time>2025-01-04T11:21:31.000Z</time>
      </trkpt>
      <trkpt lat="50.22459" lon="4.16873">
        <ele>231.80000305176</ele>
        <time>2025-01-04T11:21:35.000Z</time>
      </trkpt>
      <trkpt lat="50.22457" lon="4.16893">
        <ele>232</ele>
        <time>2025-01-04T11:21:39.000Z</time>
      </trkpt>
      <trkpt lat="50.22451" lon="4.16934">
        <ele>232.60000610352</ele>
        <time>2025-01-04T11:21:47.000Z</time>
      </trkpt>
      <trkpt lat="50.22446" lon="4.16977">
        <ele>232.19999694824</ele>
        <time>2025-01-04T11:21:55.000Z</time>
      </trkpt>
      <trkpt lat="50.22448" lon="4.17008">
        <ele>232.39999389648</ele>
        <time>2025-01-04T11:22:02.000Z</time>
      </trkpt>
      <trkpt lat="50.22453" lon="4.17038">
        <ele>232.60000610352</ele>
        <time>2025-01-04T11:22:09.000Z</time>
      </trkpt>
      <trkpt lat="50.22467" lon="4.17076">
        <ele>233</ele>
        <time>2025-01-04T11:22:18.000Z</time>
      </trkpt>
      <trkpt lat="50.22472" lon="4.17085">
        <ele>233</ele>
        <time>2025-01-04T11:22:20.000Z</time>
      </trkpt>
      <trkpt lat="50.22481" lon="4.17102">
        <ele>233.39999389648</ele>
        <time>2025-01-04T11:22:24.000Z</time>
      </trkpt>
      <trkpt lat="50.22496" lon="4.17133">
        <ele>234</ele>
        <time>2025-01-04T11:22:31.000Z</time>
      </trkpt>
      <trkpt lat="50.22505" lon="4.17151">
        <ele>234.39999389648</ele>
        <time>2025-01-04T11:22:35.000Z</time>
      </trkpt>
      <trkpt lat="50.2251" lon="4.17157">
        <ele>234.39999389648</ele>
        <time>2025-01-04T11:22:37.000Z</time>
      </trkpt>
      <trkpt lat="50.22516" lon="4.17167">
        <ele>234.39999389648</ele>
        <time>2025-01-04T11:22:39.000Z</time>
      </trkpt>
      <trkpt lat="50.22534" lon="4.17196">
        <ele>234.39999389648</ele>
        <time>2025-01-04T11:22:46.000Z</time>
      </trkpt>
      <trkpt lat="50.22543" lon="4.17227">
        <ele>234.80000305176</ele>
        <time>2025-01-04T11:22:52.000Z</time>
      </trkpt>
      <trkpt lat="50.22546" lon="4.17267">
        <ele>235.19999694824</ele>
        <time>2025-01-04T11:22:58.000Z</time>
      </trkpt>
      <trkpt lat="50.22548" lon="4.17302">
        <ele>235.19999694824</ele>
        <time>2025-01-04T11:23:03.000Z</time>
      </trkpt>
      <trkpt lat="50.22549" lon="4.17315">
        <ele>235.19999694824</ele>
        <time>2025-01-04T11:23:05.000Z</time>
      </trkpt>
      <trkpt lat="50.22551" lon="4.17337">
        <ele>235.19999694824</ele>
        <time>2025-01-04T11:23:08.000Z</time>
      </trkpt>
      <trkpt lat="50.22554" lon="4.17364">
        <ele>235.19999694824</ele>
        <time>2025-01-04T11:23:12.000Z</time>
      </trkpt>
      <trkpt lat="50.22554" lon="4.17375">
        <ele>235.60000610352</ele>
        <time>2025-01-04T11:23:14.000Z</time>
      </trkpt>
      <trkpt lat="50.22554" lon="4.1738">
        <ele>235.60000610352</ele>
        <time>2025-01-04T11:23:15.000Z</time>
      </trkpt>
      <trkpt lat="50.22554" lon="4.17385">
        <ele>235.60000610352</ele>
        <time>2025-01-04T11:23:16.000Z</time>
      </trkpt>
      <trkpt lat="50.22561" lon="4.17418">
        <ele>235.80000305176</ele>
        <time>2025-01-04T11:23:22.000Z</time>
      </trkpt>
      <trkpt lat="50.22566" lon="4.17436">
        <ele>235.80000305176</ele>
        <time>2025-01-04T11:23:26.000Z</time>
      </trkpt>
      <trkpt lat="50.22567" lon="4.17441">
        <ele>235.80000305176</ele>
        <time>2025-01-04T11:23:27.000Z</time>
      </trkpt>
      <trkpt lat="50.22579" lon="4.17482">
        <ele>236.19999694824</ele>
        <time>2025-01-04T11:23:34.000Z</time>
      </trkpt>
      <trkpt lat="50.2259" lon="4.17518">
        <ele>236.60000610352</ele>
        <time>2025-01-04T11:23:40.000Z</time>
      </trkpt>
      <trkpt lat="50.22594" lon="4.17529">
        <ele>236.60000610352</ele>
        <time>2025-01-04T11:23:42.000Z</time>
      </trkpt>
      <trkpt lat="50.22606" lon="4.17574">
        <ele>237.60000610352</ele>
        <time>2025-01-04T11:23:51.000Z</time>
      </trkpt>
      <trkpt lat="50.22608" lon="4.17584">
        <ele>237.60000610352</ele>
        <time>2025-01-04T11:23:53.000Z</time>
      </trkpt>
      <trkpt lat="50.22611" lon="4.17599">
        <ele>237.80000305176</ele>
        <time>2025-01-04T11:23:57.000Z</time>
      </trkpt>
      <trkpt lat="50.22617" lon="4.17618">
        <ele>237.80000305176</ele>
        <time>2025-01-04T11:24:02.000Z</time>
      </trkpt>
      <trkpt lat="50.2263" lon="4.17661">
        <ele>238.39999389648</ele>
        <time>2025-01-04T11:24:11.000Z</time>
      </trkpt>
      <trkpt lat="50.22634" lon="4.17679">
        <ele>238.80000305176</ele>
        <time>2025-01-04T11:24:15.000Z</time>
      </trkpt>
      <trkpt lat="50.22636" lon="4.17696">
        <ele>239</ele>
        <time>2025-01-04T11:24:19.000Z</time>
      </trkpt>
      <trkpt lat="50.22637" lon="4.17704">
        <ele>239</ele>
        <time>2025-01-04T11:24:22.000Z</time>
      </trkpt>
      <trkpt lat="50.22636" lon="4.17706">
        <ele>239</ele>
        <time>2025-01-04T11:24:23.000Z</time>
      </trkpt>
      <trkpt lat="50.22626" lon="4.17715">
        <ele>239.19999694824</ele>
        <time>2025-01-04T11:24:28.000Z</time>
      </trkpt>
      <trkpt lat="50.22606" lon="4.1774">
        <ele>239</ele>
        <time>2025-01-04T11:24:36.000Z</time>
      </trkpt>
      <trkpt lat="50.22594" lon="4.17753">
        <ele>238.60000610352</ele>
        <time>2025-01-04T11:24:41.000Z</time>
      </trkpt>
      <trkpt lat="50.22571" lon="4.17776">
        <ele>238.19999694824</ele>
        <time>2025-01-04T11:24:49.000Z</time>
      </trkpt>
      <trkpt lat="50.22549" lon="4.17797">
        <ele>238</ele>
        <time>2025-01-04T11:24:56.000Z</time>
      </trkpt>
      <trkpt lat="50.22547" lon="4.17801">
        <ele>237.80000305176</ele>
        <time>2025-01-04T11:24:57.000Z</time>
      </trkpt>
      <trkpt lat="50.2252" lon="4.17829">
        <ele>237.80000305176</ele>
        <time>2025-01-04T11:25:06.000Z</time>
      </trkpt>
      <trkpt lat="50.22498" lon="4.1785">
        <ele>237.60000610352</ele>
        <time>2025-01-04T11:25:14.000Z</time>
      </trkpt>
      <trkpt lat="50.22493" lon="4.17858">
        <ele>237.39999389648</ele>
        <time>2025-01-04T11:25:17.000Z</time>
      </trkpt>
      <trkpt lat="50.22493" lon="4.1786">
        <ele>237.39999389648</ele>
        <time>2025-01-04T11:25:18.000Z</time>
      </trkpt>
      <trkpt lat="50.22494" lon="4.17862">
        <ele>237.39999389648</ele>
        <time>2025-01-04T11:25:19.000Z</time>
      </trkpt>
      <trkpt lat="50.22499" lon="4.17864">
        <ele>237.39999389648</ele>
        <time>2025-01-04T11:25:22.000Z</time>
      </trkpt>
      <trkpt lat="50.22519" lon="4.17872">
        <ele>237.60000610352</ele>
        <time>2025-01-04T11:25:31.000Z</time>
      </trkpt>
      <trkpt lat="50.22539" lon="4.1788">
        <ele>237.80000305176</ele>
        <time>2025-01-04T11:25:38.000Z</time>
      </trkpt>
      <trkpt lat="50.22566" lon="4.17891">
        <ele>238.19999694824</ele>
        <time>2025-01-04T11:25:46.000Z</time>
      </trkpt>
      <trkpt lat="50.22599" lon="4.17904">
        <ele>239</ele>
        <time>2025-01-04T11:25:54.000Z</time>
      </trkpt>
      <trkpt lat="50.2262" lon="4.17911">
        <ele>239.19999694824</ele>
        <time>2025-01-04T11:25:59.000Z</time>
      </trkpt>
      <trkpt lat="50.22641" lon="4.17919">
        <ele>239.60000610352</ele>
        <time>2025-01-04T11:26:04.000Z</time>
      </trkpt>
      <trkpt lat="50.22679" lon="4.17936">
        <ele>240.19999694824</ele>
        <time>2025-01-04T11:26:12.000Z</time>
      </trkpt>
      <trkpt lat="50.22692" lon="4.1794">
        <ele>240.80000305176</ele>
        <time>2025-01-04T11:26:15.000Z</time>
      </trkpt>
      <trkpt lat="50.22724" lon="4.17953">
        <ele>241.39999389648</ele>
        <time>2025-01-04T11:26:23.000Z</time>
      </trkpt>
      <trkpt lat="50.22728" lon="4.17954">
        <ele>241.39999389648</ele>
        <time>2025-01-04T11:26:24.000Z</time>
      </trkpt>
      <trkpt lat="50.22732" lon="4.17955">
        <ele>241.39999389648</ele>
        <time>2025-01-04T11:26:25.000Z</time>
      </trkpt>
      <trkpt lat="50.22758" lon="4.17968">
        <ele>241.19999694824</ele>
        <time>2025-01-04T11:26:33.000Z</time>
      </trkpt>
      <trkpt lat="50.22775" lon="4.17974">
        <ele>240.60000610352</ele>
        <time>2025-01-04T11:26:39.000Z</time>
      </trkpt>
      <trkpt lat="50.22794" lon="4.17984">
        <ele>240</ele>
        <time>2025-01-04T11:26:45.000Z</time>
      </trkpt>
      <trkpt lat="50.22813" lon="4.17993">
        <ele>239.19999694824</ele>
        <time>2025-01-04T11:26:50.000Z</time>
      </trkpt>
      <trkpt lat="50.2282" lon="4.17997">
        <ele>238.39999389648</ele>
        <time>2025-01-04T11:26:52.000Z</time>
      </trkpt>
      <trkpt lat="50.22827" lon="4.17999">
        <ele>238</ele>
        <time>2025-01-04T11:26:54.000Z</time>
      </trkpt>
      <trkpt lat="50.2285" lon="4.18006">
        <ele>237</ele>
        <time>2025-01-04T11:27:00.000Z</time>
      </trkpt>
      <trkpt lat="50.22872" lon="4.18013">
        <ele>236.19999694824</ele>
        <time>2025-01-04T11:27:05.000Z</time>
      </trkpt>
      <trkpt lat="50.22881" lon="4.18015">
        <ele>236</ele>
        <time>2025-01-04T11:27:07.000Z</time>
      </trkpt>
      <trkpt lat="50.22885" lon="4.18017">
        <ele>235.80000305176</ele>
        <time>2025-01-04T11:27:08.000Z</time>
      </trkpt>
      <trkpt lat="50.22908" lon="4.18026">
        <ele>234.60000610352</ele>
        <time>2025-01-04T11:27:13.000Z</time>
      </trkpt>
      <trkpt lat="50.22915" lon="4.18029">
        <ele>234.39999389648</ele>
        <time>2025-01-04T11:27:15.000Z</time>
      </trkpt>
      <trkpt lat="50.22932" lon="4.18039">
        <ele>233.60000610352</ele>
        <time>2025-01-04T11:27:19.000Z</time>
      </trkpt>
      <trkpt lat="50.22954" lon="4.18052">
        <ele>232.19999694824</ele>
        <time>2025-01-04T11:27:25.000Z</time>
      </trkpt>
      <trkpt lat="50.22969" lon="4.18058">
        <ele>231.39999389648</ele>
        <time>2025-01-04T11:27:29.000Z</time>
      </trkpt>
      <trkpt lat="50.22973" lon="4.18061">
        <ele>231</ele>
        <time>2025-01-04T11:27:30.000Z</time>
      </trkpt>
      <trkpt lat="50.22989" lon="4.18074">
        <ele>230</ele>
        <time>2025-01-04T11:27:34.000Z</time>
      </trkpt>
      <trkpt lat="50.23001" lon="4.18087">
        <ele>229</ele>
        <time>2025-01-04T11:27:37.000Z</time>
      </trkpt>
      <trkpt lat="50.23005" lon="4.18091">
        <ele>228.60000610352</ele>
        <time>2025-01-04T11:27:38.000Z</time>
      </trkpt>
      <trkpt lat="50.23022" lon="4.18109">
        <ele>227.19999694824</ele>
        <time>2025-01-04T11:27:42.000Z</time>
      </trkpt>
      <trkpt lat="50.23027" lon="4.18114">
        <ele>227</ele>
        <time>2025-01-04T11:27:43.000Z</time>
      </trkpt>
      <trkpt lat="50.23033" lon="4.18118">
        <ele>226.19999694824</ele>
        <time>2025-01-04T11:27:44.000Z</time>
      </trkpt>
      <trkpt lat="50.23039" lon="4.18121">
        <ele>225.80000305176</ele>
        <time>2025-01-04T11:27:45.000Z</time>
      </trkpt>
      <trkpt lat="50.23051" lon="4.18127">
        <ele>224.19999694824</ele>
        <time>2025-01-04T11:27:47.000Z</time>
      </trkpt>
      <trkpt lat="50.23051" lon="4.18127">
        <ele>222.60000610352</ele>
        <time>2025-01-04T11:27:48.000Z</time>
      </trkpt>
      <trkpt lat="50.23069" lon="4.18133">
        <ele>221.19999694824</ele>
        <time>2025-01-04T11:27:50.000Z</time>
      </trkpt>
      <trkpt lat="50.23082" lon="4.18135">
        <ele>220</ele>
        <time>2025-01-04T11:27:52.000Z</time>
      </trkpt>
      <trkpt lat="50.23095" lon="4.18135">
        <ele>219.60000610352</ele>
        <time>2025-01-04T11:27:54.000Z</time>
      </trkpt>
      <trkpt lat="50.23102" lon="4.18134">
        <ele>218.80000305176</ele>
        <time>2025-01-04T11:27:55.000Z</time>
      </trkpt>
      <trkpt lat="50.23115" lon="4.18132">
        <ele>217.60000610352</ele>
        <time>2025-01-04T11:27:57.000Z</time>
      </trkpt>
      <trkpt lat="50.23137" lon="4.18126">
        <ele>216.19999694824</ele>
        <time>2025-01-04T11:28:01.000Z</time>
      </trkpt>
      <trkpt lat="50.23165" lon="4.18122">
        <ele>215</ele>
        <time>2025-01-04T11:28:06.000Z</time>
      </trkpt>
      <trkpt lat="50.2317" lon="4.18122">
        <ele>215</ele>
        <time>2025-01-04T11:28:07.000Z</time>
      </trkpt>
      <trkpt lat="50.23194" lon="4.18125">
        <ele>214</ele>
        <time>2025-01-04T11:28:12.000Z</time>
      </trkpt>
      <trkpt lat="50.23198" lon="4.18127">
        <ele>214</ele>
        <time>2025-01-04T11:28:13.000Z</time>
      </trkpt>
      <trkpt lat="50.23203" lon="4.18129">
        <ele>213.80000305176</ele>
        <time>2025-01-04T11:28:14.000Z</time>
      </trkpt>
      <trkpt lat="50.23211" lon="4.18134">
        <ele>213.39999389648</ele>
        <time>2025-01-04T11:28:16.000Z</time>
      </trkpt>
      <trkpt lat="50.2322" lon="4.18141">
        <ele>213</ele>
        <time>2025-01-04T11:28:18.000Z</time>
      </trkpt>
      <trkpt lat="50.23224" lon="4.18145">
        <ele>213</ele>
        <time>2025-01-04T11:28:19.000Z</time>
      </trkpt>
      <trkpt lat="50.23246" lon="4.18174">
        <ele>212</ele>
        <time>2025-01-04T11:28:25.000Z</time>
      </trkpt>
      <trkpt lat="50.2325" lon="4.1818">
        <ele>211.80000305176</ele>
        <time>2025-01-04T11:28:26.000Z</time>
      </trkpt>
      <trkpt lat="50.23265" lon="4.1821">
        <ele>210.60000610352</ele>
        <time>2025-01-04T11:28:31.000Z</time>
      </trkpt>
      <trkpt lat="50.23274" lon="4.18227">
        <ele>210</ele>
        <time>2025-01-04T11:28:34.000Z</time>
      </trkpt>
      <trkpt lat="50.23296" lon="4.18265">
        <ele>209.60000610352</ele>
        <time>2025-01-04T11:28:41.000Z</time>
      </trkpt>
      <trkpt lat="50.23299" lon="4.1827">
        <ele>209.60000610352</ele>
        <time>2025-01-04T11:28:42.000Z</time>
      </trkpt>
      <trkpt lat="50.23302" lon="4.18275">
        <ele>209.39999389648</ele>
        <time>2025-01-04T11:28:43.000Z</time>
      </trkpt>
      <trkpt lat="50.23317" lon="4.18302">
        <ele>208.39999389648</ele>
        <time>2025-01-04T11:28:48.000Z</time>
      </trkpt>
      <trkpt lat="50.23323" lon="4.18314">
        <ele>208</ele>
        <time>2025-01-04T11:28:50.000Z</time>
      </trkpt>
      <trkpt lat="50.2335" lon="4.18366">
        <ele>207.39999389648</ele>
        <time>2025-01-04T11:28:59.000Z</time>
      </trkpt>
      <trkpt lat="50.23369" lon="4.18401">
        <ele>207.39999389648</ele>
        <time>2025-01-04T11:29:05.000Z</time>
      </trkpt>
      <trkpt lat="50.23379" lon="4.18418">
        <ele>206.80000305176</ele>
        <time>2025-01-04T11:29:09.000Z</time>
      </trkpt>
      <trkpt lat="50.23393" lon="4.18443">
        <ele>206.39999389648</ele>
        <time>2025-01-04T11:29:15.000Z</time>
      </trkpt>
      <trkpt lat="50.23396" lon="4.18447">
        <ele>206.39999389648</ele>
        <time>2025-01-04T11:29:16.000Z</time>
      </trkpt>
      <trkpt lat="50.23415" lon="4.18479">
        <ele>205.80000305176</ele>
        <time>2025-01-04T11:29:24.000Z</time>
      </trkpt>
      <trkpt lat="50.23439" lon="4.18523">
        <ele>205.39999389648</ele>
        <time>2025-01-04T11:29:33.000Z</time>
      </trkpt>
      <trkpt lat="50.23451" lon="4.18543">
        <ele>205.60000610352</ele>
        <time>2025-01-04T11:29:38.000Z</time>
      </trkpt>
      <trkpt lat="50.2346" lon="4.18557">
        <ele>206</ele>
        <time>2025-01-04T11:29:42.000Z</time>
      </trkpt>
      <trkpt lat="50.23479" lon="4.18589">
        <ele>206</ele>
        <time>2025-01-04T11:29:49.000Z</time>
      </trkpt>
      <trkpt lat="50.23498" lon="4.1862">
        <ele>206</ele>
        <time>2025-01-04T11:29:56.000Z</time>
      </trkpt>
      <trkpt lat="50.23532" lon="4.18677">
        <ele>206.39999389648</ele>
        <time>2025-01-04T11:30:07.000Z</time>
      </trkpt>
      <trkpt lat="50.2356" lon="4.18726">
        <ele>205.80000305176</ele>
        <time>2025-01-04T11:30:16.000Z</time>
      </trkpt>
      <trkpt lat="50.2357" lon="4.18743">
        <ele>205.39999389648</ele>
        <time>2025-01-04T11:30:19.000Z</time>
      </trkpt>
      <trkpt lat="50.23579" lon="4.18757">
        <ele>205</ele>
        <time>2025-01-04T11:30:22.000Z</time>
      </trkpt>
      <trkpt lat="50.23588" lon="4.18771">
        <ele>204.80000305176</ele>
        <time>2025-01-04T11:30:25.000Z</time>
      </trkpt>
      <trkpt lat="50.23594" lon="4.18781">
        <ele>204.60000610352</ele>
        <time>2025-01-04T11:30:27.000Z</time>
      </trkpt>
      <trkpt lat="50.23611" lon="4.18814">
        <ele>204</ele>
        <time>2025-01-04T11:30:35.000Z</time>
      </trkpt>
      <trkpt lat="50.23613" lon="4.18819">
        <ele>204</ele>
        <time>2025-01-04T11:30:36.000Z</time>
      </trkpt>
      <trkpt lat="50.23619" lon="4.18834">
        <ele>203.80000305176</ele>
        <time>2025-01-04T11:30:39.000Z</time>
      </trkpt>
      <trkpt lat="50.23626" lon="4.18849">
        <ele>203</ele>
        <time>2025-01-04T11:30:42.000Z</time>
      </trkpt>
      <trkpt lat="50.23638" lon="4.18869">
        <ele>202.60000610352</ele>
        <time>2025-01-04T11:30:46.000Z</time>
      </trkpt>
      <trkpt lat="50.23643" lon="4.18878">
        <ele>202.19999694824</ele>
        <time>2025-01-04T11:30:48.000Z</time>
      </trkpt>
      <trkpt lat="50.23651" lon="4.18893">
        <ele>201.60000610352</ele>
        <time>2025-01-04T11:30:52.000Z</time>
      </trkpt>
      <trkpt lat="50.23653" lon="4.18896">
        <ele>201.19999694824</ele>
        <time>2025-01-04T11:30:54.000Z</time>
      </trkpt>
      <trkpt lat="50.2366" lon="4.18899">
        <ele>201.19999694824</ele>
        <time>2025-01-04T11:30:59.000Z</time>
      </trkpt>
      <trkpt lat="50.23663" lon="4.18903">
        <ele>201.19999694824</ele>
        <time>2025-01-04T11:31:00.000Z</time>
      </trkpt>
      <trkpt lat="50.23667" lon="4.18918">
        <ele>201</ele>
        <time>2025-01-04T11:31:03.000Z</time>
      </trkpt>
      <trkpt lat="50.23669" lon="4.18932">
        <ele>201.19999694824</ele>
        <time>2025-01-04T11:31:05.000Z</time>
      </trkpt>
      <trkpt lat="50.2367" lon="4.18947">
        <ele>201.19999694824</ele>
        <time>2025-01-04T11:31:08.000Z</time>
      </trkpt>
      <trkpt lat="50.2367" lon="4.18993">
        <ele>201.80000305176</ele>
        <time>2025-01-04T11:31:16.000Z</time>
      </trkpt>
      <trkpt lat="50.23677" lon="4.19016">
        <ele>202</ele>
        <time>2025-01-04T11:31:21.000Z</time>
      </trkpt>
      <trkpt lat="50.23686" lon="4.19033">
        <ele>202</ele>
        <time>2025-01-04T11:31:27.000Z</time>
      </trkpt>
      <trkpt lat="50.23689" lon="4.19039">
        <ele>202</ele>
        <time>2025-01-04T11:31:33.000Z</time>
      </trkpt>
      <trkpt lat="50.23693" lon="4.19047">
        <ele>202</ele>
        <time>2025-01-04T11:31:41.000Z</time>
      </trkpt>
      <trkpt lat="50.23696" lon="4.19055">
        <ele>202</ele>
        <time>2025-01-04T11:31:48.000Z</time>
      </trkpt>
      <trkpt lat="50.23702" lon="4.19067">
        <ele>202.19999694824</ele>
        <time>2025-01-04T11:31:57.000Z</time>
      </trkpt>
      <trkpt lat="50.23702" lon="4.19071">
        <ele>202.19999694824</ele>
        <time>2025-01-04T11:32:03.000Z</time>
      </trkpt>
      <trkpt lat="50.23706" lon="4.19078">
        <ele>202.19999694824</ele>
        <time>2025-01-04T11:32:09.000Z</time>
      </trkpt>
      <trkpt lat="50.23709" lon="4.19093">
        <ele>202.19999694824</ele>
        <time>2025-01-04T11:32:14.000Z</time>
      </trkpt>
      <trkpt lat="50.2371" lon="4.19095">
        <ele>202.19999694824</ele>
        <time>2025-01-04T11:32:15.000Z</time>
      </trkpt>
      <trkpt lat="50.23713" lon="4.1911">
        <ele>202.19999694824</ele>
        <time>2025-01-04T11:32:19.000Z</time>
      </trkpt>
      <trkpt lat="50.2372" lon="4.19132">
        <ele>202.39999389648</ele>
        <time>2025-01-04T11:32:24.000Z</time>
      </trkpt>
      <trkpt lat="50.23725" lon="4.19143">
        <ele>202.60000610352</ele>
        <time>2025-01-04T11:32:27.000Z</time>
      </trkpt>
      <trkpt lat="50.23728" lon="4.19144">
        <ele>203</ele>
        <time>2025-01-04T11:32:28.000Z</time>
      </trkpt>
      <trkpt lat="50.23747" lon="4.19142">
        <ele>203</ele>
        <time>2025-01-04T11:32:34.000Z</time>
      </trkpt>
      <trkpt lat="50.23778" lon="4.19135">
        <ele>202.80000305176</ele>
        <time>2025-01-04T11:32:43.000Z</time>
      </trkpt>
      <trkpt lat="50.23788" lon="4.19132">
        <ele>202.60000610352</ele>
        <time>2025-01-04T11:32:46.000Z</time>
      </trkpt>
      <trkpt lat="50.23803" lon="4.1913">
        <ele>202.19999694824</ele>
        <time>2025-01-04T11:32:50.000Z</time>
      </trkpt>
      <trkpt lat="50.23808" lon="4.19129">
        <ele>201.80000305176</ele>
        <time>2025-01-04T11:32:51.000Z</time>
      </trkpt>
      <trkpt lat="50.23826" lon="4.19125">
        <ele>201</ele>
        <time>2025-01-04T11:32:55.000Z</time>
      </trkpt>
      <trkpt lat="50.23833" lon="4.19125">
        <ele>200.19999694824</ele>
        <time>2025-01-04T11:32:56.000Z</time>
      </trkpt>
      <trkpt lat="50.23837" lon="4.19124">
        <ele>199.19999694824</ele>
        <time>2025-01-04T11:32:57.000Z</time>
      </trkpt>
      <trkpt lat="50.23841" lon="4.19124">
        <ele>198.60000610352</ele>
        <time>2025-01-04T11:32:58.000Z</time>
      </trkpt>
      <trkpt lat="50.23846" lon="4.19124">
        <ele>198</ele>
        <time>2025-01-04T11:32:59.000Z</time>
      </trkpt>
      <trkpt lat="50.23856" lon="4.19122">
        <ele>197.39999389648</ele>
        <time>2025-01-04T11:33:01.000Z</time>
      </trkpt>
      <trkpt lat="50.23866" lon="4.19117">
        <ele>197</ele>
        <time>2025-01-04T11:33:03.000Z</time>
      </trkpt>
      <trkpt lat="50.23886" lon="4.19105">
        <ele>196.19999694824</ele>
        <time>2025-01-04T11:33:07.000Z</time>
      </trkpt>
      <trkpt lat="50.23891" lon="4.19102">
        <ele>195.80000305176</ele>
        <time>2025-01-04T11:33:08.000Z</time>
      </trkpt>
      <trkpt lat="50.23918" lon="4.19084">
        <ele>194.80000305176</ele>
        <time>2025-01-04T11:33:13.000Z</time>
      </trkpt>
      <trkpt lat="50.23925" lon="4.19079">
        <ele>194.39999389648</ele>
        <time>2025-01-04T11:33:14.000Z</time>
      </trkpt>
      <trkpt lat="50.23947" lon="4.19065">
        <ele>193</ele>
        <time>2025-01-04T11:33:18.000Z</time>
      </trkpt>
      <trkpt lat="50.23963" lon="4.19054">
        <ele>191.60000610352</ele>
        <time>2025-01-04T11:33:21.000Z</time>
      </trkpt>
      <trkpt lat="50.23969" lon="4.19051">
        <ele>191.39999389648</ele>
        <time>2025-01-04T11:33:22.000Z</time>
      </trkpt>
      <trkpt lat="50.23982" lon="4.19048">
        <ele>190.80000305176</ele>
        <time>2025-01-04T11:33:24.000Z</time>
      </trkpt>
      <trkpt lat="50.23987" lon="4.19048">
        <ele>190.39999389648</ele>
        <time>2025-01-04T11:33:25.000Z</time>
      </trkpt>
      <trkpt lat="50.23998" lon="4.1905">
        <ele>189.19999694824</ele>
        <time>2025-01-04T11:33:27.000Z</time>
      </trkpt>
      <trkpt lat="50.2401" lon="4.19051">
        <ele>188.39999389648</ele>
        <time>2025-01-04T11:33:29.000Z</time>
      </trkpt>
      <trkpt lat="50.24018" lon="4.19054">
        <ele>188.19999694824</ele>
        <time>2025-01-04T11:33:31.000Z</time>
      </trkpt>
      <trkpt lat="50.24032" lon="4.1906">
        <ele>187.80000305176</ele>
        <time>2025-01-04T11:33:34.000Z</time>
      </trkpt>
      <trkpt lat="50.24038" lon="4.19059">
        <ele>187.60000610352</ele>
        <time>2025-01-04T11:33:36.000Z</time>
      </trkpt>
      <trkpt lat="50.24042" lon="4.19057">
        <ele>186.80000305176</ele>
        <time>2025-01-04T11:33:37.000Z</time>
      </trkpt>
      <trkpt lat="50.2405" lon="4.19045">
        <ele>185.80000305176</ele>
        <time>2025-01-04T11:33:39.000Z</time>
      </trkpt>
      <trkpt lat="50.24051" lon="4.1904">
        <ele>185.39999389648</ele>
        <time>2025-01-04T11:33:40.000Z</time>
      </trkpt>
      <trkpt lat="50.24051" lon="4.19034">
        <ele>185.19999694824</ele>
        <time>2025-01-04T11:33:41.000Z</time>
      </trkpt>
      <trkpt lat="50.24047" lon="4.19026">
        <ele>183.80000305176</ele>
        <time>2025-01-04T11:33:42.000Z</time>
      </trkpt>
      <trkpt lat="50.24032" lon="4.19001">
        <ele>182</ele>
        <time>2025-01-04T11:33:46.000Z</time>
      </trkpt>
      <trkpt lat="50.24029" lon="4.18981">
        <ele>180.80000305176</ele>
        <time>2025-01-04T11:33:48.000Z</time>
      </trkpt>
      <trkpt lat="50.2403" lon="4.18965">
        <ele>179.19999694824</ele>
        <time>2025-01-04T11:33:50.000Z</time>
      </trkpt>
      <trkpt lat="50.24038" lon="4.18921">
        <ele>177.19999694824</ele>
        <time>2025-01-04T11:33:54.000Z</time>
      </trkpt>
      <trkpt lat="50.2404" lon="4.18913">
        <ele>177</ele>
        <time>2025-01-04T11:33:55.000Z</time>
      </trkpt>
      <trkpt lat="50.24039" lon="4.18897">
        <ele>175.39999389648</ele>
        <time>2025-01-04T11:33:57.000Z</time>
      </trkpt>
      <trkpt lat="50.24039" lon="4.1889">
        <ele>175</ele>
        <time>2025-01-04T11:33:58.000Z</time>
      </trkpt>
      <trkpt lat="50.24034" lon="4.18867">
        <ele>174</ele>
        <time>2025-01-04T11:34:01.000Z</time>
      </trkpt>
      <trkpt lat="50.24031" lon="4.18854">
        <ele>173.60000610352</ele>
        <time>2025-01-04T11:34:03.000Z</time>
      </trkpt>
      <trkpt lat="50.24025" lon="4.18828">
        <ele>173.60000610352</ele>
        <time>2025-01-04T11:34:07.000Z</time>
      </trkpt>
      <trkpt lat="50.24025" lon="4.18797">
        <ele>173.60000610352</ele>
        <time>2025-01-04T11:34:12.000Z</time>
      </trkpt>
      <trkpt lat="50.24041" lon="4.18774">
        <ele>174.60000610352</ele>
        <time>2025-01-04T11:34:18.000Z</time>
      </trkpt>
      <trkpt lat="50.24043" lon="4.1877">
        <ele>174.60000610352</ele>
        <time>2025-01-04T11:34:19.000Z</time>
      </trkpt>
      <trkpt lat="50.24047" lon="4.18754">
        <ele>175</ele>
        <time>2025-01-04T11:34:22.000Z</time>
      </trkpt>
      <trkpt lat="50.24057" lon="4.18724">
        <ele>175</ele>
        <time>2025-01-04T11:34:27.000Z</time>
      </trkpt>
      <trkpt lat="50.24059" lon="4.18716">
        <ele>174.39999389648</ele>
        <time>2025-01-04T11:34:29.000Z</time>
      </trkpt>
      <trkpt lat="50.24061" lon="4.18714">
        <ele>174.19999694824</ele>
        <time>2025-01-04T11:34:30.000Z</time>
      </trkpt>
      <trkpt lat="50.24065" lon="4.18716">
        <ele>173.80000305176</ele>
        <time>2025-01-04T11:34:32.000Z</time>
      </trkpt>
      <trkpt lat="50.24066" lon="4.1872">
        <ele>173.60000610352</ele>
        <time>2025-01-04T11:34:33.000Z</time>
      </trkpt>
      <trkpt lat="50.24065" lon="4.18745">
        <ele>172.60000610352</ele>
        <time>2025-01-04T11:34:37.000Z</time>
      </trkpt>
      <trkpt lat="50.24065" lon="4.1876">
        <ele>172.19999694824</ele>
        <time>2025-01-04T11:34:39.000Z</time>
      </trkpt>
      <trkpt lat="50.24069" lon="4.18771">
        <ele>171</ele>
        <time>2025-01-04T11:34:41.000Z</time>
      </trkpt>
      <trkpt lat="50.24087" lon="4.18788">
        <ele>169.80000305176</ele>
        <time>2025-01-04T11:34:45.000Z</time>
      </trkpt>
      <trkpt lat="50.24105" lon="4.18807">
        <ele>168.60000610352</ele>
        <time>2025-01-04T11:34:49.000Z</time>
      </trkpt>
      <trkpt lat="50.24117" lon="4.18819">
        <ele>167.80000305176</ele>
        <time>2025-01-04T11:34:52.000Z</time>
      </trkpt>
      <trkpt lat="50.24122" lon="4.18823">
        <ele>167.60000610352</ele>
        <time>2025-01-04T11:34:53.000Z</time>
      </trkpt>
      <trkpt lat="50.24141" lon="4.18844">
        <ele>166.80000305176</ele>
        <time>2025-01-04T11:34:58.000Z</time>
      </trkpt>
      <trkpt lat="50.24145" lon="4.18848">
        <ele>166.80000305176</ele>
        <time>2025-01-04T11:34:59.000Z</time>
      </trkpt>
      <trkpt lat="50.24151" lon="4.18861">
        <ele>166.80000305176</ele>
        <time>2025-01-04T11:35:02.000Z</time>
      </trkpt>
      <trkpt lat="50.24153" lon="4.18867">
        <ele>166.80000305176</ele>
        <time>2025-01-04T11:35:03.000Z</time>
      </trkpt>
      <trkpt lat="50.24167" lon="4.189">
        <ele>168.19999694824</ele>
        <time>2025-01-04T11:35:09.000Z</time>
      </trkpt>
      <trkpt lat="50.2417" lon="4.18915">
        <ele>167.80000305176</ele>
        <time>2025-01-04T11:35:13.000Z</time>
      </trkpt>
      <trkpt lat="50.24169" lon="4.1892">
        <ele>167.19999694824</ele>
        <time>2025-01-04T11:35:18.000Z</time>
      </trkpt>
      <trkpt lat="50.24172" lon="4.1892">
        <ele>166.60000610352</ele>
        <time>2025-01-04T11:36:24.000Z</time>
      </trkpt>
      <trkpt lat="50.24174" lon="4.18921">
        <ele>166.60000610352</ele>
        <time>2025-01-04T11:36:25.000Z</time>
      </trkpt>
      <trkpt lat="50.2419" lon="4.18929">
        <ele>166.80000305176</ele>
        <time>2025-01-04T11:36:32.000Z</time>
      </trkpt>
      <trkpt lat="50.24204" lon="4.18942">
        <ele>167.39999389648</ele>
        <time>2025-01-04T11:36:37.000Z</time>
      </trkpt>
      <trkpt lat="50.24212" lon="4.18962">
        <ele>168.19999694824</ele>
        <time>2025-01-04T11:36:43.000Z</time>
      </trkpt>
      <trkpt lat="50.24214" lon="4.18976">
        <ele>168.60000610352</ele>
        <time>2025-01-04T11:36:47.000Z</time>
      </trkpt>
      <trkpt lat="50.24216" lon="4.18987">
        <ele>169.19999694824</ele>
        <time>2025-01-04T11:36:50.000Z</time>
      </trkpt>
      <trkpt lat="50.24215" lon="4.18998">
        <ele>169.60000610352</ele>
        <time>2025-01-04T11:36:53.000Z</time>
      </trkpt>
      <trkpt lat="50.24214" lon="4.19005">
        <ele>170</ele>
        <time>2025-01-04T11:36:55.000Z</time>
      </trkpt>
      <trkpt lat="50.24211" lon="4.19031">
        <ele>170</ele>
        <time>2025-01-04T11:37:00.000Z</time>
      </trkpt>
      <trkpt lat="50.2421" lon="4.19037">
        <ele>170</ele>
        <time>2025-01-04T11:37:01.000Z</time>
      </trkpt>
      <trkpt lat="50.2421" lon="4.19059">
        <ele>169.80000305176</ele>
        <time>2025-01-04T11:37:04.000Z</time>
      </trkpt>
      <trkpt lat="50.24208" lon="4.1909">
        <ele>169.19999694824</ele>
        <time>2025-01-04T11:37:09.000Z</time>
      </trkpt>
      <trkpt lat="50.24208" lon="4.19109">
        <ele>168.60000610352</ele>
        <time>2025-01-04T11:37:12.000Z</time>
      </trkpt>
      <trkpt lat="50.24207" lon="4.19135">
        <ele>168</ele>
        <time>2025-01-04T11:37:16.000Z</time>
      </trkpt>
      <trkpt lat="50.24206" lon="4.19142">
        <ele>167.80000305176</ele>
        <time>2025-01-04T11:37:17.000Z</time>
      </trkpt>
      <trkpt lat="50.24206" lon="4.19149">
        <ele>167.60000610352</ele>
        <time>2025-01-04T11:37:18.000Z</time>
      </trkpt>
      <trkpt lat="50.24204" lon="4.19161">
        <ele>167.39999389648</ele>
        <time>2025-01-04T11:37:20.000Z</time>
      </trkpt>
      <trkpt lat="50.24201" lon="4.19181">
        <ele>167.19999694824</ele>
        <time>2025-01-04T11:37:23.000Z</time>
      </trkpt>
      <trkpt lat="50.24196" lon="4.19201">
        <ele>167</ele>
        <time>2025-01-04T11:37:27.000Z</time>
      </trkpt>
      <trkpt lat="50.2419" lon="4.19228">
        <ele>167</ele>
        <time>2025-01-04T11:37:32.000Z</time>
      </trkpt>
      <trkpt lat="50.24187" lon="4.19259">
        <ele>167.60000610352</ele>
        <time>2025-01-04T11:37:38.000Z</time>
      </trkpt>
      <trkpt lat="50.24187" lon="4.19262">
        <ele>167.80000305176</ele>
        <time>2025-01-04T11:37:39.000Z</time>
      </trkpt>
      <trkpt lat="50.24185" lon="4.1928">
        <ele>168.19999694824</ele>
        <time>2025-01-04T11:37:44.000Z</time>
      </trkpt>
      <trkpt lat="50.24186" lon="4.19286">
        <ele>168.19999694824</ele>
        <time>2025-01-04T11:37:45.000Z</time>
      </trkpt>
      <trkpt lat="50.24186" lon="4.19293">
        <ele>168.39999389648</ele>
        <time>2025-01-04T11:37:46.000Z</time>
      </trkpt>
      <trkpt lat="50.24186" lon="4.19301">
        <ele>168.80000305176</ele>
        <time>2025-01-04T11:37:48.000Z</time>
      </trkpt>
      <trkpt lat="50.24186" lon="4.19305">
        <ele>169.19999694824</ele>
        <time>2025-01-04T11:37:51.000Z</time>
      </trkpt>
      <trkpt lat="50.24186" lon="4.19305">
        <ele>170.19999694824</ele>
        <time>2025-01-04T11:37:58.000Z</time>
      </trkpt>
      <trkpt lat="50.24186" lon="4.19305">
        <ele>170.39999389648</ele>
        <time>2025-01-04T11:38:01.000Z</time>
      </trkpt>
      <trkpt lat="50.24189" lon="4.19302">
        <ele>170.60000610352</ele>
        <time>2025-01-04T11:38:25.000Z</time>
      </trkpt>
      <trkpt lat="50.24192" lon="4.19299">
        <ele>171.19999694824</ele>
        <time>2025-01-04T11:38:28.000Z</time>
      </trkpt>
      <trkpt lat="50.24193" lon="4.19298">
        <ele>171.80000305176</ele>
        <time>2025-01-04T11:38:31.000Z</time>
      </trkpt>
      <trkpt lat="50.24196" lon="4.19297">
        <ele>172.39999389648</ele>
        <time>2025-01-04T11:38:36.000Z</time>
      </trkpt>
      <trkpt lat="50.24198" lon="4.19297">
        <ele>173</ele>
        <time>2025-01-04T11:38:39.000Z</time>
      </trkpt>
      <trkpt lat="50.24199" lon="4.19296">
        <ele>173.39999389648</ele>
        <time>2025-01-04T11:38:41.000Z</time>
      </trkpt>
      <trkpt lat="50.242" lon="4.19296">
        <ele>174.60000610352</ele>
        <time>2025-01-04T11:38:46.000Z</time>
      </trkpt>
      <trkpt lat="50.24203" lon="4.19297">
        <ele>175.19999694824</ele>
        <time>2025-01-04T11:38:52.000Z</time>
      </trkpt>
      <trkpt lat="50.24203" lon="4.19297">
        <ele>175.60000610352</ele>
        <time>2025-01-04T11:38:54.000Z</time>
      </trkpt>
      <trkpt lat="50.24203" lon="4.19297">
        <ele>176.19999694824</ele>
        <time>2025-01-04T11:38:58.000Z</time>
      </trkpt>
      <trkpt lat="50.24203" lon="4.19297">
        <ele>176.39999389648</ele>
        <time>2025-01-04T11:39:00.000Z</time>
      </trkpt>
      <trkpt lat="50.24204" lon="4.19298">
        <ele>177</ele>
        <time>2025-01-04T11:39:07.000Z</time>
      </trkpt>
      <trkpt lat="50.24205" lon="4.19306">
        <ele>177.19999694824</ele>
        <time>2025-01-04T11:39:17.000Z</time>
      </trkpt>
      <trkpt lat="50.24205" lon="4.19309">
        <ele>177.19999694824</ele>
        <time>2025-01-04T11:39:18.000Z</time>
      </trkpt>
      <trkpt lat="50.24205" lon="4.19322">
        <ele>177.60000610352</ele>
        <time>2025-01-04T11:39:21.000Z</time>
      </trkpt>
      <trkpt lat="50.24204" lon="4.19334">
        <ele>178</ele>
        <time>2025-01-04T11:39:24.000Z</time>
      </trkpt>
      <trkpt lat="50.24199" lon="4.19354">
        <ele>178.60000610352</ele>
        <time>2025-01-04T11:39:29.000Z</time>
      </trkpt>
      <trkpt lat="50.24198" lon="4.1936">
        <ele>178.80000305176</ele>
        <time>2025-01-04T11:39:30.000Z</time>
      </trkpt>
      <trkpt lat="50.24196" lon="4.19365">
        <ele>178.80000305176</ele>
        <time>2025-01-04T11:39:31.000Z</time>
      </trkpt>
      <trkpt lat="50.24193" lon="4.1939">
        <ele>179.80000305176</ele>
        <time>2025-01-04T11:39:36.000Z</time>
      </trkpt>
      <trkpt lat="50.24188" lon="4.19436">
        <ele>180.39999389648</ele>
        <time>2025-01-04T11:39:43.000Z</time>
      </trkpt>
      <trkpt lat="50.24184" lon="4.19454">
        <ele>180.80000305176</ele>
        <time>2025-01-04T11:39:46.000Z</time>
      </trkpt>
      <trkpt lat="50.24181" lon="4.19465">
        <ele>181.19999694824</ele>
        <time>2025-01-04T11:39:48.000Z</time>
      </trkpt>
      <trkpt lat="50.24176" lon="4.19498">
        <ele>181.80000305176</ele>
        <time>2025-01-04T11:39:54.000Z</time>
      </trkpt>
      <trkpt lat="50.24172" lon="4.19505">
        <ele>182</ele>
        <time>2025-01-04T11:39:56.000Z</time>
      </trkpt>
      <trkpt lat="50.24166" lon="4.19524">
        <ele>182</ele>
        <time>2025-01-04T11:39:59.000Z</time>
      </trkpt>
      <trkpt lat="50.24162" lon="4.19551">
        <ele>181.60000610352</ele>
        <time>2025-01-04T11:40:03.000Z</time>
      </trkpt>
      <trkpt lat="50.2416" lon="4.19557">
        <ele>181.60000610352</ele>
        <time>2025-01-04T11:40:04.000Z</time>
      </trkpt>
      <trkpt lat="50.24159" lon="4.19563">
        <ele>181.60000610352</ele>
        <time>2025-01-04T11:40:05.000Z</time>
      </trkpt>
      <trkpt lat="50.24155" lon="4.19582">
        <ele>181.60000610352</ele>
        <time>2025-01-04T11:40:08.000Z</time>
      </trkpt>
      <trkpt lat="50.24153" lon="4.19587">
        <ele>181.60000610352</ele>
        <time>2025-01-04T11:40:09.000Z</time>
      </trkpt>
      <trkpt lat="50.24151" lon="4.19593">
        <ele>181.60000610352</ele>
        <time>2025-01-04T11:40:10.000Z</time>
      </trkpt>
      <trkpt lat="50.24146" lon="4.19616">
        <ele>182</ele>
        <time>2025-01-04T11:40:14.000Z</time>
      </trkpt>
      <trkpt lat="50.24146" lon="4.19622">
        <ele>182</ele>
        <time>2025-01-04T11:40:15.000Z</time>
      </trkpt>
      <trkpt lat="50.24146" lon="4.19628">
        <ele>182</ele>
        <time>2025-01-04T11:40:16.000Z</time>
      </trkpt>
      <trkpt lat="50.24143" lon="4.19638">
        <ele>182.19999694824</ele>
        <time>2025-01-04T11:40:18.000Z</time>
      </trkpt>
      <trkpt lat="50.24137" lon="4.19654">
        <ele>182.19999694824</ele>
        <time>2025-01-04T11:40:21.000Z</time>
      </trkpt>
      <trkpt lat="50.24135" lon="4.19661">
        <ele>182.19999694824</ele>
        <time>2025-01-04T11:40:22.000Z</time>
      </trkpt>
      <trkpt lat="50.24124" lon="4.19698">
        <ele>182.39999389648</ele>
        <time>2025-01-04T11:40:27.000Z</time>
      </trkpt>
      <trkpt lat="50.24122" lon="4.19703">
        <ele>182.39999389648</ele>
        <time>2025-01-04T11:40:28.000Z</time>
      </trkpt>
      <trkpt lat="50.24116" lon="4.19723">
        <ele>182.39999389648</ele>
        <time>2025-01-04T11:40:31.000Z</time>
      </trkpt>
      <trkpt lat="50.24111" lon="4.19741">
        <ele>182.39999389648</ele>
        <time>2025-01-04T11:40:34.000Z</time>
      </trkpt>
      <trkpt lat="50.24104" lon="4.19768">
        <ele>182.80000305176</ele>
        <time>2025-01-04T11:40:37.000Z</time>
      </trkpt>
      <trkpt lat="50.24104" lon="4.19778">
        <ele>182.80000305176</ele>
        <time>2025-01-04T11:40:39.000Z</time>
      </trkpt>
      <trkpt lat="50.24103" lon="4.19781">
        <ele>182.80000305176</ele>
        <time>2025-01-04T11:40:40.000Z</time>
      </trkpt>
      <trkpt lat="50.24102" lon="4.19787">
        <ele>182.80000305176</ele>
        <time>2025-01-04T11:40:41.000Z</time>
      </trkpt>
      <trkpt lat="50.24096" lon="4.1981">
        <ele>183</ele>
        <time>2025-01-04T11:40:44.000Z</time>
      </trkpt>
      <trkpt lat="50.24094" lon="4.19824">
        <ele>183</ele>
        <time>2025-01-04T11:40:46.000Z</time>
      </trkpt>
      <trkpt lat="50.24092" lon="4.19838">
        <ele>183</ele>
        <time>2025-01-04T11:40:48.000Z</time>
      </trkpt>
      <trkpt lat="50.2409" lon="4.19859">
        <ele>182.39999389648</ele>
        <time>2025-01-04T11:40:51.000Z</time>
      </trkpt>
      <trkpt lat="50.2409" lon="4.19874">
        <ele>181.80000305176</ele>
        <time>2025-01-04T11:40:55.000Z</time>
      </trkpt>
      <trkpt lat="50.24089" lon="4.19877">
        <ele>181.60000610352</ele>
        <time>2025-01-04T11:40:56.000Z</time>
      </trkpt>
      <trkpt lat="50.2408" lon="4.19888">
        <ele>180.60000610352</ele>
        <time>2025-01-04T11:41:01.000Z</time>
      </trkpt>
      <trkpt lat="50.24074" lon="4.19897">
        <ele>179</ele>
        <time>2025-01-04T11:41:05.000Z</time>
      </trkpt>
      <trkpt lat="50.24072" lon="4.19901">
        <ele>178.39999389648</ele>
        <time>2025-01-04T11:41:06.000Z</time>
      </trkpt>
      <trkpt lat="50.2407" lon="4.19905">
        <ele>177.80000305176</ele>
        <time>2025-01-04T11:41:07.000Z</time>
      </trkpt>
      <trkpt lat="50.24063" lon="4.19913">
        <ele>176</ele>
        <time>2025-01-04T11:41:09.000Z</time>
      </trkpt>
      <trkpt lat="50.24062" lon="4.19918">
        <ele>175.60000610352</ele>
        <time>2025-01-04T11:41:10.000Z</time>
      </trkpt>
      <trkpt lat="50.24061" lon="4.19922">
        <ele>175</ele>
        <time>2025-01-04T11:41:11.000Z</time>
      </trkpt>
      <trkpt lat="50.24057" lon="4.19932">
        <ele>173.60000610352</ele>
        <time>2025-01-04T11:41:13.000Z</time>
      </trkpt>
      <trkpt lat="50.24057" lon="4.19942">
        <ele>172.39999389648</ele>
        <time>2025-01-04T11:41:15.000Z</time>
      </trkpt>
      <trkpt lat="50.24058" lon="4.19949">
        <ele>172</ele>
        <time>2025-01-04T11:41:17.000Z</time>
      </trkpt>
      <trkpt lat="50.24058" lon="4.19957">
        <ele>171.60000610352</ele>
        <time>2025-01-04T11:41:19.000Z</time>
      </trkpt>
      <trkpt lat="50.24058" lon="4.19961">
        <ele>171.60000610352</ele>
        <time>2025-01-04T11:41:20.000Z</time>
      </trkpt>
      <trkpt lat="50.24057" lon="4.19974">
        <ele>171.60000610352</ele>
        <time>2025-01-04T11:41:23.000Z</time>
      </trkpt>
      <trkpt lat="50.24056" lon="4.19986">
        <ele>171.60000610352</ele>
        <time>2025-01-04T11:41:25.000Z</time>
      </trkpt>
      <trkpt lat="50.2405" lon="4.20008">
        <ele>171.60000610352</ele>
        <time>2025-01-04T11:41:28.000Z</time>
      </trkpt>
      <trkpt lat="50.24048" lon="4.20015">
        <ele>171.39999389648</ele>
        <time>2025-01-04T11:41:29.000Z</time>
      </trkpt>
      <trkpt lat="50.24046" lon="4.20041">
        <ele>170.39999389648</ele>
        <time>2025-01-04T11:41:33.000Z</time>
      </trkpt>
      <trkpt lat="50.24041" lon="4.20061">
        <ele>170.60000610352</ele>
        <time>2025-01-04T11:41:38.000Z</time>
      </trkpt>
      <trkpt lat="50.2404" lon="4.20075">
        <ele>170.39999389648</ele>
        <time>2025-01-04T11:41:40.000Z</time>
      </trkpt>
      <trkpt lat="50.24037" lon="4.20089">
        <ele>170.60000610352</ele>
        <time>2025-01-04T11:41:42.000Z</time>
      </trkpt>
      <trkpt lat="50.24037" lon="4.20099">
        <ele>170.60000610352</ele>
        <time>2025-01-04T11:41:43.000Z</time>
      </trkpt>
      <trkpt lat="50.24036" lon="4.2011">
        <ele>170.80000305176</ele>
        <time>2025-01-04T11:41:45.000Z</time>
      </trkpt>
      <trkpt lat="50.24034" lon="4.20115">
        <ele>170.80000305176</ele>
        <time>2025-01-04T11:41:46.000Z</time>
      </trkpt>
      <trkpt lat="50.24029" lon="4.20152">
        <ele>170.39999389648</ele>
        <time>2025-01-04T11:41:51.000Z</time>
      </trkpt>
      <trkpt lat="50.24026" lon="4.20167">
        <ele>170.39999389648</ele>
        <time>2025-01-04T11:41:53.000Z</time>
      </trkpt>
      <trkpt lat="50.24026" lon="4.20184">
        <ele>170.19999694824</ele>
        <time>2025-01-04T11:41:55.000Z</time>
      </trkpt>
      <trkpt lat="50.24027" lon="4.20188">
        <ele>170.19999694824</ele>
        <time>2025-01-04T11:41:56.000Z</time>
      </trkpt>
      <trkpt lat="50.24028" lon="4.20193">
        <ele>170.19999694824</ele>
        <time>2025-01-04T11:41:57.000Z</time>
      </trkpt>
      <trkpt lat="50.24032" lon="4.20215">
        <ele>170.19999694824</ele>
        <time>2025-01-04T11:42:01.000Z</time>
      </trkpt>
      <trkpt lat="50.24033" lon="4.2022">
        <ele>170.19999694824</ele>
        <time>2025-01-04T11:42:02.000Z</time>
      </trkpt>
      <trkpt lat="50.24032" lon="4.2024">
        <ele>170.39999389648</ele>
        <time>2025-01-04T11:42:06.000Z</time>
      </trkpt>
      <trkpt lat="50.24034" lon="4.20255">
        <ele>170.60000610352</ele>
        <time>2025-01-04T11:42:08.000Z</time>
      </trkpt>
      <trkpt lat="50.24034" lon="4.20264">
        <ele>170.60000610352</ele>
        <time>2025-01-04T11:42:10.000Z</time>
      </trkpt>
      <trkpt lat="50.24035" lon="4.20279">
        <ele>171.39999389648</ele>
        <time>2025-01-04T11:42:13.000Z</time>
      </trkpt>
      <trkpt lat="50.24035" lon="4.20295">
        <ele>172</ele>
        <time>2025-01-04T11:42:16.000Z</time>
      </trkpt>
      <trkpt lat="50.24035" lon="4.20308">
        <ele>172.39999389648</ele>
        <time>2025-01-04T11:42:18.000Z</time>
      </trkpt>
      <trkpt lat="50.24036" lon="4.20326">
        <ele>172.80000305176</ele>
        <time>2025-01-04T11:42:21.000Z</time>
      </trkpt>
      <trkpt lat="50.24033" lon="4.2035">
        <ele>173</ele>
        <time>2025-01-04T11:42:26.000Z</time>
      </trkpt>
      <trkpt lat="50.24032" lon="4.20383">
        <ele>173</ele>
        <time>2025-01-04T11:42:31.000Z</time>
      </trkpt>
      <trkpt lat="50.24029" lon="4.20389">
        <ele>173</ele>
        <time>2025-01-04T11:42:32.000Z</time>
      </trkpt>
      <trkpt lat="50.24023" lon="4.20409">
        <ele>172.80000305176</ele>
        <time>2025-01-04T11:42:35.000Z</time>
      </trkpt>
      <trkpt lat="50.24019" lon="4.20419">
        <ele>172.60000610352</ele>
        <time>2025-01-04T11:42:37.000Z</time>
      </trkpt>
      <trkpt lat="50.24016" lon="4.20431">
        <ele>172.39999389648</ele>
        <time>2025-01-04T11:42:39.000Z</time>
      </trkpt>
      <trkpt lat="50.24012" lon="4.2045">
        <ele>171.80000305176</ele>
        <time>2025-01-04T11:42:42.000Z</time>
      </trkpt>
      <trkpt lat="50.24011" lon="4.20472">
        <ele>171.19999694824</ele>
        <time>2025-01-04T11:42:45.000Z</time>
      </trkpt>
      <trkpt lat="50.24009" lon="4.20483">
        <ele>170.80000305176</ele>
        <time>2025-01-04T11:42:47.000Z</time>
      </trkpt>
      <trkpt lat="50.24007" lon="4.20495">
        <ele>170.80000305176</ele>
        <time>2025-01-04T11:42:49.000Z</time>
      </trkpt>
      <trkpt lat="50.23999" lon="4.20537">
        <ele>171</ele>
        <time>2025-01-04T11:42:55.000Z</time>
      </trkpt>
      <trkpt lat="50.23997" lon="4.2056">
        <ele>171.19999694824</ele>
        <time>2025-01-04T11:42:59.000Z</time>
      </trkpt>
      <trkpt lat="50.23994" lon="4.20598">
        <ele>171.19999694824</ele>
        <time>2025-01-04T11:43:05.000Z</time>
      </trkpt>
      <trkpt lat="50.23988" lon="4.20627">
        <ele>171.19999694824</ele>
        <time>2025-01-04T11:43:10.000Z</time>
      </trkpt>
      <trkpt lat="50.23975" lon="4.20653">
        <ele>171.80000305176</ele>
        <time>2025-01-04T11:43:14.000Z</time>
      </trkpt>
      <trkpt lat="50.23959" lon="4.20681">
        <ele>171.80000305176</ele>
        <time>2025-01-04T11:43:20.000Z</time>
      </trkpt>
      <trkpt lat="50.23936" lon="4.20719">
        <ele>171.39999389648</ele>
        <time>2025-01-04T11:43:28.000Z</time>
      </trkpt>
      <trkpt lat="50.23925" lon="4.20748">
        <ele>171.39999389648</ele>
        <time>2025-01-04T11:43:34.000Z</time>
      </trkpt>
      <trkpt lat="50.23912" lon="4.20786">
        <ele>171.60000610352</ele>
        <time>2025-01-04T11:43:41.000Z</time>
      </trkpt>
      <trkpt lat="50.23892" lon="4.20833">
        <ele>171.60000610352</ele>
        <time>2025-01-04T11:43:50.000Z</time>
      </trkpt>
      <trkpt lat="50.23887" lon="4.20868">
        <ele>172</ele>
        <time>2025-01-04T11:43:56.000Z</time>
      </trkpt>
      <trkpt lat="50.23885" lon="4.20881">
        <ele>172.19999694824</ele>
        <time>2025-01-04T11:43:58.000Z</time>
      </trkpt>
      <trkpt lat="50.23882" lon="4.209">
        <ele>172.80000305176</ele>
        <time>2025-01-04T11:44:01.000Z</time>
      </trkpt>
      <trkpt lat="50.23878" lon="4.20919">
        <ele>173.19999694824</ele>
        <time>2025-01-04T11:44:04.000Z</time>
      </trkpt>
      <trkpt lat="50.23864" lon="4.20986">
        <ele>174.19999694824</ele>
        <time>2025-01-04T11:44:14.000Z</time>
      </trkpt>
      <trkpt lat="50.23863" lon="4.20993">
        <ele>174.19999694824</ele>
        <time>2025-01-04T11:44:15.000Z</time>
      </trkpt>
      <trkpt lat="50.23857" lon="4.21038">
        <ele>175.39999389648</ele>
        <time>2025-01-04T11:44:22.000Z</time>
      </trkpt>
      <trkpt lat="50.23857" lon="4.21046">
        <ele>175.60000610352</ele>
        <time>2025-01-04T11:44:23.000Z</time>
      </trkpt>
      <trkpt lat="50.23854" lon="4.21072">
        <ele>176.60000610352</ele>
        <time>2025-01-04T11:44:27.000Z</time>
      </trkpt>
      <trkpt lat="50.23851" lon="4.21101">
        <ele>177.19999694824</ele>
        <time>2025-01-04T11:44:31.000Z</time>
      </trkpt>
      <trkpt lat="50.2385" lon="4.21108">
        <ele>177.60000610352</ele>
        <time>2025-01-04T11:44:32.000Z</time>
      </trkpt>
      <trkpt lat="50.2385" lon="4.21116">
        <ele>178</ele>
        <time>2025-01-04T11:44:33.000Z</time>
      </trkpt>
      <trkpt lat="50.23849" lon="4.21136">
        <ele>178.60000610352</ele>
        <time>2025-01-04T11:44:36.000Z</time>
      </trkpt>
      <trkpt lat="50.23848" lon="4.21149">
        <ele>179</ele>
        <time>2025-01-04T11:44:38.000Z</time>
      </trkpt>
      <trkpt lat="50.23847" lon="4.21176">
        <ele>179.60000610352</ele>
        <time>2025-01-04T11:44:42.000Z</time>
      </trkpt>
      <trkpt lat="50.23847" lon="4.2121">
        <ele>180.60000610352</ele>
        <time>2025-01-04T11:44:47.000Z</time>
      </trkpt>
      <trkpt lat="50.23847" lon="4.21223">
        <ele>181</ele>
        <time>2025-01-04T11:44:49.000Z</time>
      </trkpt>
      <trkpt lat="50.23846" lon="4.21264">
        <ele>182.19999694824</ele>
        <time>2025-01-04T11:44:55.000Z</time>
      </trkpt>
      <trkpt lat="50.23845" lon="4.21308">
        <ele>183.19999694824</ele>
        <time>2025-01-04T11:45:02.000Z</time>
      </trkpt>
      <trkpt lat="50.23844" lon="4.21314">
        <ele>183.39999389648</ele>
        <time>2025-01-04T11:45:03.000Z</time>
      </trkpt>
      <trkpt lat="50.23842" lon="4.2137">
        <ele>183.80000305176</ele>
        <time>2025-01-04T11:45:12.000Z</time>
      </trkpt>
      <trkpt lat="50.2384" lon="4.21426">
        <ele>183.39999389648</ele>
        <time>2025-01-04T11:45:20.000Z</time>
      </trkpt>
      <trkpt lat="50.23841" lon="4.2149">
        <ele>182</ele>
        <time>2025-01-04T11:45:27.000Z</time>
      </trkpt>
      <trkpt lat="50.23842" lon="4.21506">
        <ele>181.60000610352</ele>
        <time>2025-01-04T11:45:29.000Z</time>
      </trkpt>
      <trkpt lat="50.23846" lon="4.21539">
        <ele>180.80000305176</ele>
        <time>2025-01-04T11:45:33.000Z</time>
      </trkpt>
      <trkpt lat="50.23847" lon="4.21548">
        <ele>180.80000305176</ele>
        <time>2025-01-04T11:45:34.000Z</time>
      </trkpt>
      <trkpt lat="50.23858" lon="4.21613">
        <ele>179.80000305176</ele>
        <time>2025-01-04T11:45:42.000Z</time>
      </trkpt>
      <trkpt lat="50.2386" lon="4.21628">
        <ele>179.60000610352</ele>
        <time>2025-01-04T11:45:44.000Z</time>
      </trkpt>
      <trkpt lat="50.23861" lon="4.21642">
        <ele>179.60000610352</ele>
        <time>2025-01-04T11:45:46.000Z</time>
      </trkpt>
      <trkpt lat="50.23862" lon="4.21656">
        <ele>179.39999389648</ele>
        <time>2025-01-04T11:45:48.000Z</time>
      </trkpt>
      <trkpt lat="50.2386" lon="4.21697">
        <ele>179.19999694824</ele>
        <time>2025-01-04T11:45:54.000Z</time>
      </trkpt>
      <trkpt lat="50.23858" lon="4.2171">
        <ele>179.39999389648</ele>
        <time>2025-01-04T11:45:56.000Z</time>
      </trkpt>
      <trkpt lat="50.23858" lon="4.21717">
        <ele>179.39999389648</ele>
        <time>2025-01-04T11:45:57.000Z</time>
      </trkpt>
      <trkpt lat="50.23857" lon="4.21753">
        <ele>179.60000610352</ele>
        <time>2025-01-04T11:46:02.000Z</time>
      </trkpt>
      <trkpt lat="50.23854" lon="4.218">
        <ele>179.60000610352</ele>
        <time>2025-01-04T11:46:08.000Z</time>
      </trkpt>
      <trkpt lat="50.23853" lon="4.21815">
        <ele>179.60000610352</ele>
        <time>2025-01-04T11:46:10.000Z</time>
      </trkpt>
      <trkpt lat="50.23848" lon="4.21886">
        <ele>179.60000610352</ele>
        <time>2025-01-04T11:46:19.000Z</time>
      </trkpt>
      <trkpt lat="50.23842" lon="4.21949">
        <ele>179.60000610352</ele>
        <time>2025-01-04T11:46:27.000Z</time>
      </trkpt>
      <trkpt lat="50.23839" lon="4.21965">
        <ele>179.80000305176</ele>
        <time>2025-01-04T11:46:29.000Z</time>
      </trkpt>
      <trkpt lat="50.23832" lon="4.21993">
        <ele>180</ele>
        <time>2025-01-04T11:46:33.000Z</time>
      </trkpt>
      <trkpt lat="50.23828" lon="4.22005">
        <ele>180.39999389648</ele>
        <time>2025-01-04T11:46:35.000Z</time>
      </trkpt>
      <trkpt lat="50.23819" lon="4.22032">
        <ele>180.60000610352</ele>
        <time>2025-01-04T11:46:39.000Z</time>
      </trkpt>
      <trkpt lat="50.2381" lon="4.22069">
        <ele>181</ele>
        <time>2025-01-04T11:46:44.000Z</time>
      </trkpt>
      <trkpt lat="50.23807" lon="4.22085">
        <ele>181.19999694824</ele>
        <time>2025-01-04T11:46:46.000Z</time>
      </trkpt>
      <trkpt lat="50.23797" lon="4.22145">
        <ele>182.19999694824</ele>
        <time>2025-01-04T11:46:54.000Z</time>
      </trkpt>
      <trkpt lat="50.23793" lon="4.22167">
        <ele>182.80000305176</ele>
        <time>2025-01-04T11:46:58.000Z</time>
      </trkpt>
      <trkpt lat="50.23792" lon="4.22168">
        <ele>183.19999694824</ele>
        <time>2025-01-04T11:47:01.000Z</time>
      </trkpt>
      <trkpt lat="50.23792" lon="4.22178">
        <ele>183.60000610352</ele>
        <time>2025-01-04T11:47:10.000Z</time>
      </trkpt>
      <trkpt lat="50.23783" lon="4.22206">
        <ele>184</ele>
        <time>2025-01-04T11:47:16.000Z</time>
      </trkpt>
      <trkpt lat="50.23777" lon="4.22221">
        <ele>184.39999389648</ele>
        <time>2025-01-04T11:47:19.000Z</time>
      </trkpt>
      <trkpt lat="50.23769" lon="4.22242">
        <ele>185.19999694824</ele>
        <time>2025-01-04T11:47:23.000Z</time>
      </trkpt>
      <trkpt lat="50.23767" lon="4.22247">
        <ele>185.60000610352</ele>
        <time>2025-01-04T11:47:24.000Z</time>
      </trkpt>
      <trkpt lat="50.2376" lon="4.2227">
        <ele>186.60000610352</ele>
        <time>2025-01-04T11:47:28.000Z</time>
      </trkpt>
      <trkpt lat="50.23756" lon="4.22285">
        <ele>187</ele>
        <time>2025-01-04T11:47:31.000Z</time>
      </trkpt>
      <trkpt lat="50.23742" lon="4.22331">
        <ele>186.80000305176</ele>
        <time>2025-01-04T11:47:38.000Z</time>
      </trkpt>
      <trkpt lat="50.23722" lon="4.22375">
        <ele>185.60000610352</ele>
        <time>2025-01-04T11:47:44.000Z</time>
      </trkpt>
      <trkpt lat="50.23719" lon="4.22383">
        <ele>185.19999694824</ele>
        <time>2025-01-04T11:47:45.000Z</time>
      </trkpt>
      <trkpt lat="50.23715" lon="4.22391">
        <ele>184.60000610352</ele>
        <time>2025-01-04T11:47:46.000Z</time>
      </trkpt>
      <trkpt lat="50.23703" lon="4.22415">
        <ele>183.39999389648</ele>
        <time>2025-01-04T11:47:49.000Z</time>
      </trkpt>
      <trkpt lat="50.23699" lon="4.22423">
        <ele>182.60000610352</ele>
        <time>2025-01-04T11:47:50.000Z</time>
      </trkpt>
      <trkpt lat="50.23695" lon="4.22431">
        <ele>182.19999694824</ele>
        <time>2025-01-04T11:47:51.000Z</time>
      </trkpt>
      <trkpt lat="50.23693" lon="4.22439">
        <ele>181.80000305176</ele>
        <time>2025-01-04T11:47:52.000Z</time>
      </trkpt>
      <trkpt lat="50.23689" lon="4.22455">
        <ele>181.39999389648</ele>
        <time>2025-01-04T11:47:54.000Z</time>
      </trkpt>
      <trkpt lat="50.23684" lon="4.225">
        <ele>181.39999389648</ele>
        <time>2025-01-04T11:48:00.000Z</time>
      </trkpt>
      <trkpt lat="50.23681" lon="4.22521">
        <ele>182.80000305176</ele>
        <time>2025-01-04T11:48:03.000Z</time>
      </trkpt>
      <trkpt lat="50.23678" lon="4.22533">
        <ele>183.80000305176</ele>
        <time>2025-01-04T11:48:05.000Z</time>
      </trkpt>
      <trkpt lat="50.23676" lon="4.2254">
        <ele>184.19999694824</ele>
        <time>2025-01-04T11:48:06.000Z</time>
      </trkpt>
      <trkpt lat="50.23674" lon="4.22545">
        <ele>185</ele>
        <time>2025-01-04T11:48:07.000Z</time>
      </trkpt>
      <trkpt lat="50.23671" lon="4.22559">
        <ele>186</ele>
        <time>2025-01-04T11:48:09.000Z</time>
      </trkpt>
      <trkpt lat="50.23667" lon="4.22577">
        <ele>187</ele>
        <time>2025-01-04T11:48:12.000Z</time>
      </trkpt>
      <trkpt lat="50.23664" lon="4.22591">
        <ele>188.19999694824</ele>
        <time>2025-01-04T11:48:14.000Z</time>
      </trkpt>
      <trkpt lat="50.2366" lon="4.22609">
        <ele>189.39999389648</ele>
        <time>2025-01-04T11:48:17.000Z</time>
      </trkpt>
      <trkpt lat="50.23658" lon="4.22626">
        <ele>190.80000305176</ele>
        <time>2025-01-04T11:48:20.000Z</time>
      </trkpt>
      <trkpt lat="50.23657" lon="4.22633">
        <ele>191.19999694824</ele>
        <time>2025-01-04T11:48:21.000Z</time>
      </trkpt>
      <trkpt lat="50.23657" lon="4.22637">
        <ele>191.80000305176</ele>
        <time>2025-01-04T11:48:22.000Z</time>
      </trkpt>
      <trkpt lat="50.23656" lon="4.22643">
        <ele>192.19999694824</ele>
        <time>2025-01-04T11:48:23.000Z</time>
      </trkpt>
      <trkpt lat="50.23655" lon="4.22649">
        <ele>192.80000305176</ele>
        <time>2025-01-04T11:48:24.000Z</time>
      </trkpt>
      <trkpt lat="50.23652" lon="4.22667">
        <ele>194.19999694824</ele>
        <time>2025-01-04T11:48:27.000Z</time>
      </trkpt>
      <trkpt lat="50.23652" lon="4.22673">
        <ele>194.60000610352</ele>
        <time>2025-01-04T11:48:28.000Z</time>
      </trkpt>
      <trkpt lat="50.23652" lon="4.22684">
        <ele>195.39999389648</ele>
        <time>2025-01-04T11:48:30.000Z</time>
      </trkpt>
      <trkpt lat="50.23655" lon="4.22697">
        <ele>196.39999389648</ele>
        <time>2025-01-04T11:48:33.000Z</time>
      </trkpt>
      <trkpt lat="50.23658" lon="4.22703">
        <ele>197.80000305176</ele>
        <time>2025-01-04T11:48:35.000Z</time>
      </trkpt>
      <trkpt lat="50.2367" lon="4.2271">
        <ele>199.19999694824</ele>
        <time>2025-01-04T11:48:39.000Z</time>
      </trkpt>
      <trkpt lat="50.2368" lon="4.22715">
        <ele>200.39999389648</ele>
        <time>2025-01-04T11:48:43.000Z</time>
      </trkpt>
      <trkpt lat="50.23689" lon="4.22718">
        <ele>201.60000610352</ele>
        <time>2025-01-04T11:48:47.000Z</time>
      </trkpt>
      <trkpt lat="50.23701" lon="4.22723">
        <ele>202.60000610352</ele>
        <time>2025-01-04T11:48:51.000Z</time>
      </trkpt>
      <trkpt lat="50.23711" lon="4.22729">
        <ele>204</ele>
        <time>2025-01-04T11:48:54.000Z</time>
      </trkpt>
      <trkpt lat="50.23714" lon="4.22731">
        <ele>204.39999389648</ele>
        <time>2025-01-04T11:48:55.000Z</time>
      </trkpt>
      <trkpt lat="50.23722" lon="4.22736">
        <ele>205.19999694824</ele>
        <time>2025-01-04T11:48:58.000Z</time>
      </trkpt>
      <trkpt lat="50.2373" lon="4.2274">
        <ele>205.60000610352</ele>
        <time>2025-01-04T11:49:00.000Z</time>
      </trkpt>
      <trkpt lat="50.23736" lon="4.22743">
        <ele>206.39999389648</ele>
        <time>2025-01-04T11:49:02.000Z</time>
      </trkpt>
      <trkpt lat="50.23749" lon="4.22753">
        <ele>207.39999389648</ele>
        <time>2025-01-04T11:49:06.000Z</time>
      </trkpt>
      <trkpt lat="50.23761" lon="4.22765">
        <ele>208.19999694824</ele>
        <time>2025-01-04T11:49:10.000Z</time>
      </trkpt>
      <trkpt lat="50.23764" lon="4.22768">
        <ele>208.60000610352</ele>
        <time>2025-01-04T11:49:11.000Z</time>
      </trkpt>
      <trkpt lat="50.23781" lon="4.22781">
        <ele>209.60000610352</ele>
        <time>2025-01-04T11:49:16.000Z</time>
      </trkpt>
      <trkpt lat="50.23787" lon="4.22787">
        <ele>210</ele>
        <time>2025-01-04T11:49:18.000Z</time>
      </trkpt>
      <trkpt lat="50.23792" lon="4.22791">
        <ele>210.80000305176</ele>
        <time>2025-01-04T11:49:20.000Z</time>
      </trkpt>
      <trkpt lat="50.23804" lon="4.22802">
        <ele>211.60000610352</ele>
        <time>2025-01-04T11:49:24.000Z</time>
      </trkpt>
      <trkpt lat="50.2381" lon="4.22808">
        <ele>212.19999694824</ele>
        <time>2025-01-04T11:49:26.000Z</time>
      </trkpt>
      <trkpt lat="50.23822" lon="4.22819">
        <ele>213.39999389648</ele>
        <time>2025-01-04T11:49:30.000Z</time>
      </trkpt>
      <trkpt lat="50.23831" lon="4.22827">
        <ele>214</ele>
        <time>2025-01-04T11:49:33.000Z</time>
      </trkpt>
      <trkpt lat="50.23837" lon="4.22832">
        <ele>214.60000610352</ele>
        <time>2025-01-04T11:49:35.000Z</time>
      </trkpt>
      <trkpt lat="50.23844" lon="4.22839">
        <ele>215.60000610352</ele>
        <time>2025-01-04T11:49:38.000Z</time>
      </trkpt>
      <trkpt lat="50.23846" lon="4.22841">
        <ele>215.60000610352</ele>
        <time>2025-01-04T11:49:39.000Z</time>
      </trkpt>
      <trkpt lat="50.23854" lon="4.22848">
        <ele>216.60000610352</ele>
        <time>2025-01-04T11:49:43.000Z</time>
      </trkpt>
      <trkpt lat="50.23855" lon="4.2285">
        <ele>216.80000305176</ele>
        <time>2025-01-04T11:49:44.000Z</time>
      </trkpt>
      <trkpt lat="50.23862" lon="4.22861">
        <ele>217.80000305176</ele>
        <time>2025-01-04T11:49:49.000Z</time>
      </trkpt>
      <trkpt lat="50.23866" lon="4.22864">
        <ele>218</ele>
        <time>2025-01-04T11:49:51.000Z</time>
      </trkpt>
      <trkpt lat="50.2387" lon="4.22871">
        <ele>218.39999389648</ele>
        <time>2025-01-04T11:49:54.000Z</time>
      </trkpt>
      <trkpt lat="50.23872" lon="4.22873">
        <ele>218.80000305176</ele>
        <time>2025-01-04T11:49:55.000Z</time>
      </trkpt>
      <trkpt lat="50.23876" lon="4.22882">
        <ele>219.80000305176</ele>
        <time>2025-01-04T11:49:58.000Z</time>
      </trkpt>
      <trkpt lat="50.23878" lon="4.22887">
        <ele>220.39999389648</ele>
        <time>2025-01-04T11:50:00.000Z</time>
      </trkpt>
      <trkpt lat="50.2388" lon="4.2289">
        <ele>220.80000305176</ele>
        <time>2025-01-04T11:50:02.000Z</time>
      </trkpt>
      <trkpt lat="50.2389" lon="4.22894">
        <ele>222.19999694824</ele>
        <time>2025-01-04T11:50:06.000Z</time>
      </trkpt>
      <trkpt lat="50.23892" lon="4.22898">
        <ele>222.39999389648</ele>
        <time>2025-01-04T11:50:07.000Z</time>
      </trkpt>
      <trkpt lat="50.23894" lon="4.229">
        <ele>222.80000305176</ele>
        <time>2025-01-04T11:50:08.000Z</time>
      </trkpt>
      <trkpt lat="50.23896" lon="4.22903">
        <ele>223.19999694824</ele>
        <time>2025-01-04T11:50:10.000Z</time>
      </trkpt>
      <trkpt lat="50.23904" lon="4.22917">
        <ele>224.60000610352</ele>
        <time>2025-01-04T11:50:15.000Z</time>
      </trkpt>
      <trkpt lat="50.23908" lon="4.22926">
        <ele>224.80000305176</ele>
        <time>2025-01-04T11:50:17.000Z</time>
      </trkpt>
      <trkpt lat="50.23917" lon="4.22944">
        <ele>225.60000610352</ele>
        <time>2025-01-04T11:50:23.000Z</time>
      </trkpt>
      <trkpt lat="50.23917" lon="4.22947">
        <ele>225.60000610352</ele>
        <time>2025-01-04T11:50:24.000Z</time>
      </trkpt>
      <trkpt lat="50.23918" lon="4.2295">
        <ele>226</ele>
        <time>2025-01-04T11:50:26.000Z</time>
      </trkpt>
      <trkpt lat="50.23917" lon="4.22957">
        <ele>226.60000610352</ele>
        <time>2025-01-04T11:50:29.000Z</time>
      </trkpt>
      <trkpt lat="50.23917" lon="4.2296">
        <ele>227</ele>
        <time>2025-01-04T11:50:30.000Z</time>
      </trkpt>
      <trkpt lat="50.23916" lon="4.22962">
        <ele>227</ele>
        <time>2025-01-04T11:50:31.000Z</time>
      </trkpt>
      <trkpt lat="50.23914" lon="4.2297">
        <ele>227.80000305176</ele>
        <time>2025-01-04T11:50:35.000Z</time>
      </trkpt>
      <trkpt lat="50.23913" lon="4.22971">
        <ele>228</ele>
        <time>2025-01-04T11:50:36.000Z</time>
      </trkpt>
      <trkpt lat="50.23909" lon="4.22975">
        <ele>229.19999694824</ele>
        <time>2025-01-04T11:50:40.000Z</time>
      </trkpt>
      <trkpt lat="50.23906" lon="4.22978">
        <ele>229.80000305176</ele>
        <time>2025-01-04T11:50:42.000Z</time>
      </trkpt>
      <trkpt lat="50.23905" lon="4.2298">
        <ele>230</ele>
        <time>2025-01-04T11:50:43.000Z</time>
      </trkpt>
      <trkpt lat="50.23904" lon="4.22982">
        <ele>230.39999389648</ele>
        <time>2025-01-04T11:50:44.000Z</time>
      </trkpt>
      <trkpt lat="50.239" lon="4.22993">
        <ele>231.39999389648</ele>
        <time>2025-01-04T11:50:49.000Z</time>
      </trkpt>
      <trkpt lat="50.239" lon="4.22996">
        <ele>231.60000610352</ele>
        <time>2025-01-04T11:50:50.000Z</time>
      </trkpt>
      <trkpt lat="50.23902" lon="4.23009">
        <ele>232</ele>
        <time>2025-01-04T11:50:55.000Z</time>
      </trkpt>
      <trkpt lat="50.23903" lon="4.23011">
        <ele>232.19999694824</ele>
        <time>2025-01-04T11:50:56.000Z</time>
      </trkpt>
      <trkpt lat="50.23906" lon="4.23018">
        <ele>232.19999694824</ele>
        <time>2025-01-04T11:50:59.000Z</time>
      </trkpt>
      <trkpt lat="50.23908" lon="4.23027">
        <ele>232.19999694824</ele>
        <time>2025-01-04T11:51:01.000Z</time>
      </trkpt>
      <trkpt lat="50.23911" lon="4.23041">
        <ele>232</ele>
        <time>2025-01-04T11:51:04.000Z</time>
      </trkpt>
      <trkpt lat="50.23913" lon="4.23049">
        <ele>232</ele>
        <time>2025-01-04T11:51:06.000Z</time>
      </trkpt>
      <trkpt lat="50.23914" lon="4.23054">
        <ele>232</ele>
        <time>2025-01-04T11:51:07.000Z</time>
      </trkpt>
      <trkpt lat="50.23913" lon="4.23059">
        <ele>231.80000305176</ele>
        <time>2025-01-04T11:51:09.000Z</time>
      </trkpt>
      <trkpt lat="50.23914" lon="4.23066">
        <ele>231.80000305176</ele>
        <time>2025-01-04T11:51:11.000Z</time>
      </trkpt>
      <trkpt lat="50.23922" lon="4.23081">
        <ele>231.60000610352</ele>
        <time>2025-01-04T11:51:17.000Z</time>
      </trkpt>
      <trkpt lat="50.23923" lon="4.23083">
        <ele>231.39999389648</ele>
        <time>2025-01-04T11:51:18.000Z</time>
      </trkpt>
      <trkpt lat="50.23931" lon="4.23091">
        <ele>231.39999389648</ele>
        <time>2025-01-04T11:51:22.000Z</time>
      </trkpt>
      <trkpt lat="50.23934" lon="4.23094">
        <ele>231.39999389648</ele>
        <time>2025-01-04T11:51:26.000Z</time>
      </trkpt>
      <trkpt lat="50.23934" lon="4.23095">
        <ele>231.19999694824</ele>
        <time>2025-01-04T11:52:06.000Z</time>
      </trkpt>
      <trkpt lat="50.23935" lon="4.23098">
        <ele>231.19999694824</ele>
        <time>2025-01-04T11:52:07.000Z</time>
      </trkpt>
      <trkpt lat="50.23945" lon="4.23121">
        <ele>231</ele>
        <time>2025-01-04T11:52:12.000Z</time>
      </trkpt>
      <trkpt lat="50.23946" lon="4.23125">
        <ele>230.80000305176</ele>
        <time>2025-01-04T11:52:13.000Z</time>
      </trkpt>
      <trkpt lat="50.23948" lon="4.23129">
        <ele>230.80000305176</ele>
        <time>2025-01-04T11:52:14.000Z</time>
      </trkpt>
      <trkpt lat="50.23951" lon="4.23136">
        <ele>230.60000610352</ele>
        <time>2025-01-04T11:52:16.000Z</time>
      </trkpt>
      <trkpt lat="50.23955" lon="4.23143">
        <ele>230.39999389648</ele>
        <time>2025-01-04T11:52:18.000Z</time>
      </trkpt>
      <trkpt lat="50.23958" lon="4.23146">
        <ele>230.19999694824</ele>
        <time>2025-01-04T11:52:19.000Z</time>
      </trkpt>
      <trkpt lat="50.23959" lon="4.23149">
        <ele>229.80000305176</ele>
        <time>2025-01-04T11:52:20.000Z</time>
      </trkpt>
      <trkpt lat="50.2397" lon="4.23169">
        <ele>229.39999389648</ele>
        <time>2025-01-04T11:52:25.000Z</time>
      </trkpt>
      <trkpt lat="50.23984" lon="4.23198">
        <ele>229.39999389648</ele>
        <time>2025-01-04T11:52:30.000Z</time>
      </trkpt>
      <trkpt lat="50.24005" lon="4.23232">
        <ele>229.80000305176</ele>
        <time>2025-01-04T11:52:37.000Z</time>
      </trkpt>
      <trkpt lat="50.24009" lon="4.23241">
        <ele>231</ele>
        <time>2025-01-04T11:52:40.000Z</time>
      </trkpt>
      <trkpt lat="50.24014" lon="4.2325">
        <ele>231.60000610352</ele>
        <time>2025-01-04T11:52:42.000Z</time>
      </trkpt>
      <trkpt lat="50.24024" lon="4.23276">
        <ele>232.19999694824</ele>
        <time>2025-01-04T11:52:47.000Z</time>
      </trkpt>
      <trkpt lat="50.24034" lon="4.23321">
        <ele>232.80000305176</ele>
        <time>2025-01-04T11:52:55.000Z</time>
      </trkpt>
      <trkpt lat="50.24038" lon="4.2336">
        <ele>232.39999389648</ele>
        <time>2025-01-04T11:53:01.000Z</time>
      </trkpt>
      <trkpt lat="50.24038" lon="4.23381">
        <ele>231.39999389648</ele>
        <time>2025-01-04T11:53:05.000Z</time>
      </trkpt>
      <trkpt lat="50.24038" lon="4.23392">
        <ele>231</ele>
        <time>2025-01-04T11:53:07.000Z</time>
      </trkpt>
      <trkpt lat="50.2404" lon="4.23427">
        <ele>230.39999389648</ele>
        <time>2025-01-04T11:53:13.000Z</time>
      </trkpt>
      <trkpt lat="50.24041" lon="4.23433">
        <ele>230.39999389648</ele>
        <time>2025-01-04T11:53:14.000Z</time>
      </trkpt>
      <trkpt lat="50.24042" lon="4.23457">
        <ele>230</ele>
        <time>2025-01-04T11:53:18.000Z</time>
      </trkpt>
      <trkpt lat="50.24042" lon="4.2347">
        <ele>229.80000305176</ele>
        <time>2025-01-04T11:53:20.000Z</time>
      </trkpt>
      <trkpt lat="50.24046" lon="4.23501">
        <ele>229.39999389648</ele>
        <time>2025-01-04T11:53:24.000Z</time>
      </trkpt>
      <trkpt lat="50.24047" lon="4.23509">
        <ele>229.39999389648</ele>
        <time>2025-01-04T11:53:25.000Z</time>
      </trkpt>
      <trkpt lat="50.24049" lon="4.23519">
        <ele>229.39999389648</ele>
        <time>2025-01-04T11:53:26.000Z</time>
      </trkpt>
      <trkpt lat="50.24051" lon="4.23528">
        <ele>229.39999389648</ele>
        <time>2025-01-04T11:53:27.000Z</time>
      </trkpt>
      <trkpt lat="50.24058" lon="4.23557">
        <ele>228.19999694824</ele>
        <time>2025-01-04T11:53:30.000Z</time>
      </trkpt>
      <trkpt lat="50.24061" lon="4.23574">
        <ele>227</ele>
        <time>2025-01-04T11:53:32.000Z</time>
      </trkpt>
      <trkpt lat="50.24063" lon="4.23582">
        <ele>226.19999694824</ele>
        <time>2025-01-04T11:53:33.000Z</time>
      </trkpt>
      <trkpt lat="50.24063" lon="4.23588">
        <ele>226</ele>
        <time>2025-01-04T11:53:34.000Z</time>
      </trkpt>
      <trkpt lat="50.24063" lon="4.23593">
        <ele>225.39999389648</ele>
        <time>2025-01-04T11:53:35.000Z</time>
      </trkpt>
      <trkpt lat="50.24061" lon="4.23601">
        <ele>225</ele>
        <time>2025-01-04T11:53:37.000Z</time>
      </trkpt>
      <trkpt lat="50.24052" lon="4.23616">
        <ele>224</ele>
        <time>2025-01-04T11:53:41.000Z</time>
      </trkpt>
      <trkpt lat="50.24049" lon="4.23619">
        <ele>223.80000305176</ele>
        <time>2025-01-04T11:53:42.000Z</time>
      </trkpt>
      <trkpt lat="50.24042" lon="4.23627">
        <ele>223.39999389648</ele>
        <time>2025-01-04T11:53:44.000Z</time>
      </trkpt>
      <trkpt lat="50.24031" lon="4.23641">
        <ele>222.80000305176</ele>
        <time>2025-01-04T11:53:47.000Z</time>
      </trkpt>
      <trkpt lat="50.24026" lon="4.23647">
        <ele>222.60000610352</ele>
        <time>2025-01-04T11:53:48.000Z</time>
      </trkpt>
      <trkpt lat="50.24016" lon="4.23657">
        <ele>221.60000610352</ele>
        <time>2025-01-04T11:53:50.000Z</time>
      </trkpt>
      <trkpt lat="50.23997" lon="4.23678">
        <ele>220.60000610352</ele>
        <time>2025-01-04T11:53:54.000Z</time>
      </trkpt>
      <trkpt lat="50.23988" lon="4.23689">
        <ele>220.39999389648</ele>
        <time>2025-01-04T11:53:56.000Z</time>
      </trkpt>
      <trkpt lat="50.23984" lon="4.23693">
        <ele>220.39999389648</ele>
        <time>2025-01-04T11:53:57.000Z</time>
      </trkpt>
      <trkpt lat="50.23971" lon="4.23706">
        <ele>220.39999389648</ele>
        <time>2025-01-04T11:54:00.000Z</time>
      </trkpt>
      <trkpt lat="50.23943" lon="4.23742">
        <ele>222</ele>
        <time>2025-01-04T11:54:08.000Z</time>
      </trkpt>
      <trkpt lat="50.23932" lon="4.23753">
        <ele>223.19999694824</ele>
        <time>2025-01-04T11:54:11.000Z</time>
      </trkpt>
      <trkpt lat="50.23922" lon="4.23758">
        <ele>223.80000305176</ele>
        <time>2025-01-04T11:54:14.000Z</time>
      </trkpt>
      <trkpt lat="50.23918" lon="4.23757">
        <ele>224.39999389648</ele>
        <time>2025-01-04T11:54:15.000Z</time>
      </trkpt>
      <trkpt lat="50.23905" lon="4.23757">
        <ele>225.80000305176</ele>
        <time>2025-01-04T11:54:19.000Z</time>
      </trkpt>
      <trkpt lat="50.23902" lon="4.2376">
        <ele>226</ele>
        <time>2025-01-04T11:54:20.000Z</time>
      </trkpt>
      <trkpt lat="50.239" lon="4.2377">
        <ele>226.60000610352</ele>
        <time>2025-01-04T11:54:22.000Z</time>
      </trkpt>
      <trkpt lat="50.23899" lon="4.23776">
        <ele>227</ele>
        <time>2025-01-04T11:54:23.000Z</time>
      </trkpt>
      <trkpt lat="50.23901" lon="4.23795">
        <ele>228.19999694824</ele>
        <time>2025-01-04T11:54:26.000Z</time>
      </trkpt>
      <trkpt lat="50.23892" lon="4.23813">
        <ele>229</ele>
        <time>2025-01-04T11:54:30.000Z</time>
      </trkpt>
      <trkpt lat="50.23885" lon="4.23818">
        <ele>229.19999694824</ele>
        <time>2025-01-04T11:54:32.000Z</time>
      </trkpt>
      <trkpt lat="50.23877" lon="4.23822">
        <ele>229.39999389648</ele>
        <time>2025-01-04T11:54:34.000Z</time>
      </trkpt>
      <trkpt lat="50.2387" lon="4.23829">
        <ele>229.60000610352</ele>
        <time>2025-01-04T11:54:36.000Z</time>
      </trkpt>
      <trkpt lat="50.23866" lon="4.23834">
        <ele>229.80000305176</ele>
        <time>2025-01-04T11:54:37.000Z</time>
      </trkpt>
      <trkpt lat="50.23863" lon="4.23838">
        <ele>230.19999694824</ele>
        <time>2025-01-04T11:54:38.000Z</time>
      </trkpt>
      <trkpt lat="50.2386" lon="4.23844">
        <ele>230.19999694824</ele>
        <time>2025-01-04T11:54:39.000Z</time>
      </trkpt>
      <trkpt lat="50.2385" lon="4.23865">
        <ele>231</ele>
        <time>2025-01-04T11:54:43.000Z</time>
      </trkpt>
      <trkpt lat="50.23844" lon="4.23881">
        <ele>231.39999389648</ele>
        <time>2025-01-04T11:54:46.000Z</time>
      </trkpt>
      <trkpt lat="50.23839" lon="4.239">
        <ele>232</ele>
        <time>2025-01-04T11:54:49.000Z</time>
      </trkpt>
      <trkpt lat="50.23838" lon="4.23923">
        <ele>232.60000610352</ele>
        <time>2025-01-04T11:54:53.000Z</time>
      </trkpt>
      <trkpt lat="50.23839" lon="4.23931">
        <ele>233</ele>
        <time>2025-01-04T11:54:55.000Z</time>
      </trkpt>
      <trkpt lat="50.23839" lon="4.23944">
        <ele>233.19999694824</ele>
        <time>2025-01-04T11:54:59.000Z</time>
      </trkpt>
      <trkpt lat="50.23839" lon="4.23945">
        <ele>233.39999389648</ele>
        <time>2025-01-04T11:55:00.000Z</time>
      </trkpt>
      <trkpt lat="50.2384" lon="4.23947">
        <ele>233.39999389648</ele>
        <time>2025-01-04T11:55:01.000Z</time>
      </trkpt>
      <trkpt lat="50.23842" lon="4.23945">
        <ele>233.60000610352</ele>
        <time>2025-01-04T11:55:04.000Z</time>
      </trkpt>
      <trkpt lat="50.23842" lon="4.23943">
        <ele>233.60000610352</ele>
        <time>2025-01-04T11:55:05.000Z</time>
      </trkpt>
      <trkpt lat="50.2384" lon="4.23934">
        <ele>233.60000610352</ele>
        <time>2025-01-04T11:55:09.000Z</time>
      </trkpt>
      <trkpt lat="50.23842" lon="4.23928">
        <ele>233.60000610352</ele>
        <time>2025-01-04T11:55:11.000Z</time>
      </trkpt>
      <trkpt lat="50.23846" lon="4.23926">
        <ele>233.60000610352</ele>
        <time>2025-01-04T11:55:13.000Z</time>
      </trkpt>
      <trkpt lat="50.23849" lon="4.23927">
        <ele>233.60000610352</ele>
        <time>2025-01-04T11:55:14.000Z</time>
      </trkpt>
      <trkpt lat="50.23857" lon="4.23933">
        <ele>233.39999389648</ele>
        <time>2025-01-04T11:55:16.000Z</time>
      </trkpt>
      <trkpt lat="50.23876" lon="4.23948">
        <ele>231.39999389648</ele>
        <time>2025-01-04T11:55:20.000Z</time>
      </trkpt>
      <trkpt lat="50.23881" lon="4.2395">
        <ele>230.60000610352</ele>
        <time>2025-01-04T11:55:21.000Z</time>
      </trkpt>
      <trkpt lat="50.23887" lon="4.23949">
        <ele>230.19999694824</ele>
        <time>2025-01-04T11:55:22.000Z</time>
      </trkpt>
      <trkpt lat="50.23891" lon="4.23947">
        <ele>229.19999694824</ele>
        <time>2025-01-04T11:55:23.000Z</time>
      </trkpt>
      <trkpt lat="50.23896" lon="4.23944">
        <ele>228.80000305176</ele>
        <time>2025-01-04T11:55:24.000Z</time>
      </trkpt>
      <trkpt lat="50.23905" lon="4.2394">
        <ele>227.80000305176</ele>
        <time>2025-01-04T11:55:26.000Z</time>
      </trkpt>
      <trkpt lat="50.23909" lon="4.23937">
        <ele>226.60000610352</ele>
        <time>2025-01-04T11:55:27.000Z</time>
      </trkpt>
      <trkpt lat="50.23915" lon="4.23931">
        <ele>225.19999694824</ele>
        <time>2025-01-04T11:55:29.000Z</time>
      </trkpt>
      <trkpt lat="50.2392" lon="4.23926">
        <ele>223.80000305176</ele>
        <time>2025-01-04T11:55:31.000Z</time>
      </trkpt>
      <trkpt lat="50.23924" lon="4.23922">
        <ele>222.39999389648</ele>
        <time>2025-01-04T11:55:33.000Z</time>
      </trkpt>
      <trkpt lat="50.23925" lon="4.2392">
        <ele>221.80000305176</ele>
        <time>2025-01-04T11:55:34.000Z</time>
      </trkpt>
      <trkpt lat="50.2393" lon="4.23917">
        <ele>221.19999694824</ele>
        <time>2025-01-04T11:55:36.000Z</time>
      </trkpt>
      <trkpt lat="50.23931" lon="4.23917">
        <ele>221</ele>
        <time>2025-01-04T11:55:37.000Z</time>
      </trkpt>
      <trkpt lat="50.23933" lon="4.23918">
        <ele>220.80000305176</ele>
        <time>2025-01-04T11:55:38.000Z</time>
      </trkpt>
      <trkpt lat="50.23936" lon="4.23922">
        <ele>220.60000610352</ele>
        <time>2025-01-04T11:55:42.000Z</time>
      </trkpt>
      <trkpt lat="50.23936" lon="4.23922">
        <ele>222.19999694824</ele>
        <time>2025-01-04T11:55:47.000Z</time>
      </trkpt>
      <trkpt lat="50.23937" lon="4.23923">
        <ele>223.19999694824</ele>
        <time>2025-01-04T11:55:56.000Z</time>
      </trkpt>
      <trkpt lat="50.23937" lon="4.23923">
        <ele>223.39999389648</ele>
        <time>2025-01-04T11:55:57.000Z</time>
      </trkpt>
      <trkpt lat="50.23937" lon="4.23924">
        <ele>224.39999389648</ele>
        <time>2025-01-04T11:56:10.000Z</time>
      </trkpt>
      <trkpt lat="50.2394" lon="4.23928">
        <ele>224.60000610352</ele>
        <time>2025-01-04T11:56:15.000Z</time>
      </trkpt>
      <trkpt lat="50.23943" lon="4.23935">
        <ele>224.80000305176</ele>
        <time>2025-01-04T11:56:17.000Z</time>
      </trkpt>
      <trkpt lat="50.23956" lon="4.23954">
        <ele>225.19999694824</ele>
        <time>2025-01-04T11:56:22.000Z</time>
      </trkpt>
      <trkpt lat="50.23961" lon="4.23964">
        <ele>225.60000610352</ele>
        <time>2025-01-04T11:56:24.000Z</time>
      </trkpt>
      <trkpt lat="50.23968" lon="4.23977">
        <ele>226.19999694824</ele>
        <time>2025-01-04T11:56:27.000Z</time>
      </trkpt>
      <trkpt lat="50.23974" lon="4.23985">
        <ele>226.60000610352</ele>
        <time>2025-01-04T11:56:29.000Z</time>
      </trkpt>
      <trkpt lat="50.23983" lon="4.24001">
        <ele>227.60000610352</ele>
        <time>2025-01-04T11:56:33.000Z</time>
      </trkpt>
      <trkpt lat="50.23996" lon="4.24018">
        <ele>228</ele>
        <time>2025-01-04T11:56:37.000Z</time>
      </trkpt>
      <trkpt lat="50.24005" lon="4.24031">
        <ele>228.39999389648</ele>
        <time>2025-01-04T11:56:40.000Z</time>
      </trkpt>
      <trkpt lat="50.24016" lon="4.24054">
        <ele>229</ele>
        <time>2025-01-04T11:56:45.000Z</time>
      </trkpt>
      <trkpt lat="50.24023" lon="4.24066">
        <ele>229.39999389648</ele>
        <time>2025-01-04T11:56:48.000Z</time>
      </trkpt>
      <trkpt lat="50.24034" lon="4.24088">
        <ele>230</ele>
        <time>2025-01-04T11:56:53.000Z</time>
      </trkpt>
      <trkpt lat="50.24035" lon="4.24092">
        <ele>230.39999389648</ele>
        <time>2025-01-04T11:56:54.000Z</time>
      </trkpt>
      <trkpt lat="50.24041" lon="4.24105">
        <ele>231.19999694824</ele>
        <time>2025-01-04T11:56:58.000Z</time>
      </trkpt>
      <trkpt lat="50.24047" lon="4.24118">
        <ele>232.39999389648</ele>
        <time>2025-01-04T11:57:02.000Z</time>
      </trkpt>
      <trkpt lat="50.24048" lon="4.24126">
        <ele>232.80000305176</ele>
        <time>2025-01-04T11:57:04.000Z</time>
      </trkpt>
      <trkpt lat="50.24046" lon="4.2413">
        <ele>233</ele>
        <time>2025-01-04T11:57:05.000Z</time>
      </trkpt>
      <trkpt lat="50.2404" lon="4.24136">
        <ele>233.39999389648</ele>
        <time>2025-01-04T11:57:07.000Z</time>
      </trkpt>
      <trkpt lat="50.24038" lon="4.24139">
        <ele>233.39999389648</ele>
        <time>2025-01-04T11:57:08.000Z</time>
      </trkpt>
      <trkpt lat="50.2403" lon="4.24145">
        <ele>234.39999389648</ele>
        <time>2025-01-04T11:57:11.000Z</time>
      </trkpt>
      <trkpt lat="50.24021" lon="4.2415">
        <ele>235.80000305176</ele>
        <time>2025-01-04T11:57:15.000Z</time>
      </trkpt>
      <trkpt lat="50.24016" lon="4.24154">
        <ele>236.39999389648</ele>
        <time>2025-01-04T11:57:17.000Z</time>
      </trkpt>
      <trkpt lat="50.2401" lon="4.24158">
        <ele>237</ele>
        <time>2025-01-04T11:57:20.000Z</time>
      </trkpt>
      <trkpt lat="50.23996" lon="4.2417">
        <ele>238</ele>
        <time>2025-01-04T11:57:26.000Z</time>
      </trkpt>
      <trkpt lat="50.23991" lon="4.24173">
        <ele>238.19999694824</ele>
        <time>2025-01-04T11:57:28.000Z</time>
      </trkpt>
      <trkpt lat="50.2398" lon="4.24185">
        <ele>238.60000610352</ele>
        <time>2025-01-04T11:57:33.000Z</time>
      </trkpt>
      <trkpt lat="50.2398" lon="4.24189">
        <ele>238.80000305176</ele>
        <time>2025-01-04T11:57:34.000Z</time>
      </trkpt>
      <trkpt lat="50.23983" lon="4.24197">
        <ele>239.19999694824</ele>
        <time>2025-01-04T11:57:36.000Z</time>
      </trkpt>
      <trkpt lat="50.23984" lon="4.24201">
        <ele>239.19999694824</ele>
        <time>2025-01-04T11:57:37.000Z</time>
      </trkpt>
      <trkpt lat="50.23993" lon="4.24216">
        <ele>239.60000610352</ele>
        <time>2025-01-04T11:57:41.000Z</time>
      </trkpt>
      <trkpt lat="50.24007" lon="4.24232">
        <ele>239.80000305176</ele>
        <time>2025-01-04T11:57:46.000Z</time>
      </trkpt>
      <trkpt lat="50.24021" lon="4.24259">
        <ele>240</ele>
        <time>2025-01-04T11:57:52.000Z</time>
      </trkpt>
      <trkpt lat="50.24024" lon="4.2427">
        <ele>240.39999389648</ele>
        <time>2025-01-04T11:57:54.000Z</time>
      </trkpt>
      <trkpt lat="50.24034" lon="4.24312">
        <ele>241.19999694824</ele>
        <time>2025-01-04T11:58:01.000Z</time>
      </trkpt>
      <trkpt lat="50.24038" lon="4.24343">
        <ele>241.60000610352</ele>
        <time>2025-01-04T11:58:06.000Z</time>
      </trkpt>
      <trkpt lat="50.2404" lon="4.2435">
        <ele>241.80000305176</ele>
        <time>2025-01-04T11:58:07.000Z</time>
      </trkpt>
      <trkpt lat="50.24043" lon="4.24365">
        <ele>241.80000305176</ele>
        <time>2025-01-04T11:58:09.000Z</time>
      </trkpt>
      <trkpt lat="50.24056" lon="4.2442">
        <ele>242.39999389648</ele>
        <time>2025-01-04T11:58:17.000Z</time>
      </trkpt>
      <trkpt lat="50.24069" lon="4.24469">
        <ele>242.60000610352</ele>
        <time>2025-01-04T11:58:24.000Z</time>
      </trkpt>
      <trkpt lat="50.24075" lon="4.24498">
        <ele>242.80000305176</ele>
        <time>2025-01-04T11:58:30.000Z</time>
      </trkpt>
      <trkpt lat="50.24077" lon="4.2452">
        <ele>242.80000305176</ele>
        <time>2025-01-04T11:58:35.000Z</time>
      </trkpt>
      <trkpt lat="50.24086" lon="4.24551">
        <ele>243</ele>
        <time>2025-01-04T11:58:40.000Z</time>
      </trkpt>
      <trkpt lat="50.24105" lon="4.24594">
        <ele>243</ele>
        <time>2025-01-04T11:58:47.000Z</time>
      </trkpt>
      <trkpt lat="50.24133" lon="4.24668">
        <ele>242.80000305176</ele>
        <time>2025-01-04T11:58:59.000Z</time>
      </trkpt>
      <trkpt lat="50.24157" lon="4.24736">
        <ele>243.39999389648</ele>
        <time>2025-01-04T11:59:10.000Z</time>
      </trkpt>
      <trkpt lat="50.24168" lon="4.24762">
        <ele>243.39999389648</ele>
        <time>2025-01-04T11:59:15.000Z</time>
      </trkpt>
      <trkpt lat="50.24186" lon="4.24793">
        <ele>242.39999389648</ele>
        <time>2025-01-04T11:59:22.000Z</time>
      </trkpt>
      <trkpt lat="50.24192" lon="4.2481">
        <ele>242.80000305176</ele>
        <time>2025-01-04T11:59:27.000Z</time>
      </trkpt>
      <trkpt lat="50.24189" lon="4.24819">
        <ele>243</ele>
        <time>2025-01-04T11:59:30.000Z</time>
      </trkpt>
      <trkpt lat="50.24187" lon="4.24821">
        <ele>243</ele>
        <time>2025-01-04T11:59:31.000Z</time>
      </trkpt>
      <trkpt lat="50.24184" lon="4.24822">
        <ele>243</ele>
        <time>2025-01-04T11:59:35.000Z</time>
      </trkpt>
    </trkseg>
  </trk>
</gpx>